<?xml version="1.0" encoding="UTF-8" standalone="no" ?>
<gpx xmlns="http://www.topografix.com/GPX/1/1" xmlns:xsi="http://www.w3.org/2001/XMLSchema-instance" xsi:schemaLocation="http://www.topografix.com/GPX/1/1 http://www.topografix.com/GPX/1/1/gpx.xsd" version="1.1" creator="VisuGPX - https://www.visugpx.com">
  <metadata>
    <name>Route des vacances 2016</name>
    <desc><![CDATA[Landrecies - Brem sur mer été 2016]]></desc>
  </metadata>
  <trk>
    <name><![CDATA[2016-07-16 15:42:04]]></name>
    <trkseg>
      <trkpt lat="50.12469" lon="3.67819">
        <ele>254.41</ele>
        <time>2016-07-16T03:14:04Z</time>
      </trkpt>
      <trkpt lat="50.12469" lon="3.67819">
        <ele>254.41</ele>
        <time>2016-07-16T03:14:05Z</time>
      </trkpt>
      <trkpt lat="50.1247" lon="3.67821">
        <ele>134.24</ele>
        <time>2016-07-16T03:14:08Z</time>
      </trkpt>
      <trkpt lat="50.1247" lon="3.67821">
        <ele>134.24</ele>
        <time>2016-07-16T03:14:09Z</time>
      </trkpt>
      <trkpt lat="50.12473" lon="3.67823">
        <ele>134.72</ele>
        <time>2016-07-16T03:14:27Z</time>
      </trkpt>
      <trkpt lat="50.12473" lon="3.67822">
        <ele>132.32</ele>
        <time>2016-07-16T03:14:34Z</time>
      </trkpt>
      <trkpt lat="50.12472" lon="3.67821">
        <ele>134.24</ele>
        <time>2016-07-16T03:14:37Z</time>
      </trkpt>
      <trkpt lat="50.12471" lon="3.67818">
        <ele>132.8</ele>
        <time>2016-07-16T03:14:42Z</time>
      </trkpt>
      <trkpt lat="50.12466" lon="3.67815">
        <ele>132.8</ele>
        <time>2016-07-16T03:15:04Z</time>
      </trkpt>
      <trkpt lat="50.12464" lon="3.67814">
        <ele>132.8</ele>
        <time>2016-07-16T03:15:33Z</time>
      </trkpt>
      <trkpt lat="50.12465" lon="3.67813">
        <ele>132.8</ele>
        <time>2016-07-16T03:15:56Z</time>
      </trkpt>
      <trkpt lat="50.12466" lon="3.67816">
        <ele>132.8</ele>
        <time>2016-07-16T03:16:24Z</time>
      </trkpt>
      <trkpt lat="50.12467" lon="3.67816">
        <ele>132.8</ele>
        <time>2016-07-16T03:17:00Z</time>
      </trkpt>
      <trkpt lat="50.12466" lon="3.67817">
        <ele>133.28</ele>
        <time>2016-07-16T03:17:26Z</time>
      </trkpt>
      <trkpt lat="50.12468" lon="3.67817">
        <ele>133.28</ele>
        <time>2016-07-16T03:17:59Z</time>
      </trkpt>
      <trkpt lat="50.12468" lon="3.67816">
        <ele>133.76</ele>
        <time>2016-07-16T03:18:26Z</time>
      </trkpt>
      <trkpt lat="50.12466" lon="3.67814">
        <ele>133.76</ele>
        <time>2016-07-16T03:18:59Z</time>
      </trkpt>
      <trkpt lat="50.12466" lon="3.67814">
        <ele>133.76</ele>
        <time>2016-07-16T03:19:32Z</time>
      </trkpt>
      <trkpt lat="50.12465" lon="3.67814">
        <ele>133.76</ele>
        <time>2016-07-16T03:20:01Z</time>
      </trkpt>
      <trkpt lat="50.12465" lon="3.67814">
        <ele>134.72</ele>
        <time>2016-07-16T03:20:37Z</time>
      </trkpt>
      <trkpt lat="50.12465" lon="3.67813">
        <ele>135.68</ele>
        <time>2016-07-16T03:21:08Z</time>
      </trkpt>
      <trkpt lat="50.12466" lon="3.67816">
        <ele>135.68</ele>
        <time>2016-07-16T03:21:40Z</time>
      </trkpt>
      <trkpt lat="50.12466" lon="3.67813">
        <ele>135.68</ele>
        <time>2016-07-16T03:22:12Z</time>
      </trkpt>
      <trkpt lat="50.12467" lon="3.67815">
        <ele>136.16</ele>
        <time>2016-07-16T03:22:46Z</time>
      </trkpt>
      <trkpt lat="50.12468" lon="3.67821">
        <ele>136.16</ele>
        <time>2016-07-16T03:23:21Z</time>
      </trkpt>
      <trkpt lat="50.12468" lon="3.67821">
        <ele>136.64</ele>
        <time>2016-07-16T03:23:59Z</time>
      </trkpt>
      <trkpt lat="50.12468" lon="3.67819">
        <ele>136.64</ele>
        <time>2016-07-16T03:24:27Z</time>
      </trkpt>
      <trkpt lat="50.12469" lon="3.67823">
        <ele>136.64</ele>
        <time>2016-07-16T03:24:51Z</time>
      </trkpt>
      <trkpt lat="50.12466" lon="3.67819">
        <ele>136.64</ele>
        <time>2016-07-16T03:25:25Z</time>
      </trkpt>
      <trkpt lat="50.12467" lon="3.67816">
        <ele>137.13</ele>
        <time>2016-07-16T03:25:55Z</time>
      </trkpt>
      <trkpt lat="50.12467" lon="3.67819">
        <ele>135.2</ele>
        <time>2016-07-16T03:26:07Z</time>
      </trkpt>
      <trkpt lat="50.12472" lon="3.6782">
        <ele>135.2</ele>
        <time>2016-07-16T03:26:35Z</time>
      </trkpt>
      <trkpt lat="50.12472" lon="3.67819">
        <ele>137.13</ele>
        <time>2016-07-16T03:26:52Z</time>
      </trkpt>
      <trkpt lat="50.12473" lon="3.67819">
        <ele>137.13</ele>
        <time>2016-07-16T03:26:53Z</time>
      </trkpt>
      <trkpt lat="50.12476" lon="3.67816">
        <ele>135.68</ele>
        <time>2016-07-16T03:27:17Z</time>
      </trkpt>
      <trkpt lat="50.12482" lon="3.67816">
        <ele>135.68</ele>
        <time>2016-07-16T03:27:27Z</time>
      </trkpt>
      <trkpt lat="50.12521" lon="3.67862">
        <ele>135.68</ele>
        <time>2016-07-16T03:27:37Z</time>
      </trkpt>
      <trkpt lat="50.1254" lon="3.67882">
        <ele>135.68</ele>
        <time>2016-07-16T03:27:40Z</time>
      </trkpt>
      <trkpt lat="50.12548" lon="3.67887">
        <ele>135.68</ele>
        <time>2016-07-16T03:27:41Z</time>
      </trkpt>
      <trkpt lat="50.1257" lon="3.67905">
        <ele>137.13</ele>
        <time>2016-07-16T03:27:44Z</time>
      </trkpt>
      <trkpt lat="50.12577" lon="3.67912">
        <ele>137.13</ele>
        <time>2016-07-16T03:27:45Z</time>
      </trkpt>
      <trkpt lat="50.12583" lon="3.67921">
        <ele>137.13</ele>
        <time>2016-07-16T03:27:46Z</time>
      </trkpt>
      <trkpt lat="50.12589" lon="3.67931">
        <ele>137.13</ele>
        <time>2016-07-16T03:27:47Z</time>
      </trkpt>
      <trkpt lat="50.12595" lon="3.67941">
        <ele>137.13</ele>
        <time>2016-07-16T03:27:48Z</time>
      </trkpt>
      <trkpt lat="50.12646" lon="3.68038">
        <ele>136.16</ele>
        <time>2016-07-16T03:28:00Z</time>
      </trkpt>
      <trkpt lat="50.12646" lon="3.68039">
        <ele>136.16</ele>
        <time>2016-07-16T03:28:10Z</time>
      </trkpt>
      <trkpt lat="50.12647" lon="3.68042">
        <ele>136.16</ele>
        <time>2016-07-16T03:28:11Z</time>
      </trkpt>
      <trkpt lat="50.1267" lon="3.68098">
        <ele>136.16</ele>
        <time>2016-07-16T03:28:21Z</time>
      </trkpt>
      <trkpt lat="50.1269" lon="3.68141">
        <ele>137.61</ele>
        <time>2016-07-16T03:28:25Z</time>
      </trkpt>
      <trkpt lat="50.12763" lon="3.68331">
        <ele>138.57</ele>
        <time>2016-07-16T03:28:41Z</time>
      </trkpt>
      <trkpt lat="50.12799" lon="3.68437">
        <ele>138.57</ele>
        <time>2016-07-16T03:28:53Z</time>
      </trkpt>
      <trkpt lat="50.128" lon="3.68442">
        <ele>138.57</ele>
        <time>2016-07-16T03:28:56Z</time>
      </trkpt>
      <trkpt lat="50.128" lon="3.68444">
        <ele>139.05</ele>
        <time>2016-07-16T03:28:57Z</time>
      </trkpt>
      <trkpt lat="50.128" lon="3.68447">
        <ele>138.57</ele>
        <time>2016-07-16T03:28:58Z</time>
      </trkpt>
      <trkpt lat="50.12799" lon="3.6845">
        <ele>138.57</ele>
        <time>2016-07-16T03:28:59Z</time>
      </trkpt>
      <trkpt lat="50.12798" lon="3.68452">
        <ele>138.57</ele>
        <time>2016-07-16T03:29:00Z</time>
      </trkpt>
      <trkpt lat="50.1278" lon="3.68473">
        <ele>138.57</ele>
        <time>2016-07-16T03:29:05Z</time>
      </trkpt>
      <trkpt lat="50.12757" lon="3.6849">
        <ele>137.13</ele>
        <time>2016-07-16T03:29:08Z</time>
      </trkpt>
      <trkpt lat="50.12752" lon="3.68496">
        <ele>137.13</ele>
        <time>2016-07-16T03:29:09Z</time>
      </trkpt>
      <trkpt lat="50.12745" lon="3.68511">
        <ele>137.13</ele>
        <time>2016-07-16T03:29:11Z</time>
      </trkpt>
      <trkpt lat="50.12746" lon="3.68518">
        <ele>137.13</ele>
        <time>2016-07-16T03:29:12Z</time>
      </trkpt>
      <trkpt lat="50.12748" lon="3.68527">
        <ele>137.13</ele>
        <time>2016-07-16T03:29:13Z</time>
      </trkpt>
      <trkpt lat="50.12751" lon="3.68534">
        <ele>137.13</ele>
        <time>2016-07-16T03:29:14Z</time>
      </trkpt>
      <trkpt lat="50.12755" lon="3.68542">
        <ele>137.13</ele>
        <time>2016-07-16T03:29:15Z</time>
      </trkpt>
      <trkpt lat="50.12758" lon="3.68549">
        <ele>137.13</ele>
        <time>2016-07-16T03:29:16Z</time>
      </trkpt>
      <trkpt lat="50.1276" lon="3.68556">
        <ele>137.13</ele>
        <time>2016-07-16T03:29:17Z</time>
      </trkpt>
      <trkpt lat="50.12762" lon="3.68564">
        <ele>137.13</ele>
        <time>2016-07-16T03:29:18Z</time>
      </trkpt>
      <trkpt lat="50.12763" lon="3.6857">
        <ele>137.13</ele>
        <time>2016-07-16T03:29:19Z</time>
      </trkpt>
      <trkpt lat="50.12764" lon="3.68577">
        <ele>137.13</ele>
        <time>2016-07-16T03:29:20Z</time>
      </trkpt>
      <trkpt lat="50.12763" lon="3.68584">
        <ele>137.13</ele>
        <time>2016-07-16T03:29:21Z</time>
      </trkpt>
      <trkpt lat="50.12762" lon="3.68591">
        <ele>137.13</ele>
        <time>2016-07-16T03:29:22Z</time>
      </trkpt>
      <trkpt lat="50.12755" lon="3.68599">
        <ele>137.13</ele>
        <time>2016-07-16T03:29:23Z</time>
      </trkpt>
      <trkpt lat="50.1275" lon="3.68607">
        <ele>137.13</ele>
        <time>2016-07-16T03:29:24Z</time>
      </trkpt>
      <trkpt lat="50.12745" lon="3.68616">
        <ele>137.13</ele>
        <time>2016-07-16T03:29:25Z</time>
      </trkpt>
      <trkpt lat="50.12739" lon="3.68624">
        <ele>137.13</ele>
        <time>2016-07-16T03:29:26Z</time>
      </trkpt>
      <trkpt lat="50.12717" lon="3.68663">
        <ele>137.13</ele>
        <time>2016-07-16T03:29:32Z</time>
      </trkpt>
      <trkpt lat="50.12719" lon="3.68669">
        <ele>137.13</ele>
        <time>2016-07-16T03:29:33Z</time>
      </trkpt>
      <trkpt lat="50.12722" lon="3.68676">
        <ele>137.13</ele>
        <time>2016-07-16T03:29:34Z</time>
      </trkpt>
      <trkpt lat="50.12725" lon="3.68682">
        <ele>137.13</ele>
        <time>2016-07-16T03:29:35Z</time>
      </trkpt>
      <trkpt lat="50.12728" lon="3.68688">
        <ele>137.13</ele>
        <time>2016-07-16T03:29:36Z</time>
      </trkpt>
      <trkpt lat="50.1273" lon="3.68692">
        <ele>137.13</ele>
        <time>2016-07-16T03:29:37Z</time>
      </trkpt>
      <trkpt lat="50.12747" lon="3.68697">
        <ele>137.13</ele>
        <time>2016-07-16T03:29:45Z</time>
      </trkpt>
      <trkpt lat="50.12751" lon="3.68693">
        <ele>137.13</ele>
        <time>2016-07-16T03:29:46Z</time>
      </trkpt>
      <trkpt lat="50.12755" lon="3.68686">
        <ele>137.13</ele>
        <time>2016-07-16T03:29:47Z</time>
      </trkpt>
      <trkpt lat="50.12804" lon="3.68601">
        <ele>139.53</ele>
        <time>2016-07-16T03:29:55Z</time>
      </trkpt>
      <trkpt lat="50.12809" lon="3.68586">
        <ele>140.49</ele>
        <time>2016-07-16T03:29:56Z</time>
      </trkpt>
      <trkpt lat="50.12814" lon="3.6857">
        <ele>140.49</ele>
        <time>2016-07-16T03:29:57Z</time>
      </trkpt>
      <trkpt lat="50.12831" lon="3.68497">
        <ele>143.37</ele>
        <time>2016-07-16T03:30:01Z</time>
      </trkpt>
      <trkpt lat="50.12855" lon="3.68407">
        <ele>146.74</ele>
        <time>2016-07-16T03:30:06Z</time>
      </trkpt>
      <trkpt lat="50.12862" lon="3.68392">
        <ele>147.22</ele>
        <time>2016-07-16T03:30:07Z</time>
      </trkpt>
      <trkpt lat="50.12869" lon="3.68379">
        <ele>147.7</ele>
        <time>2016-07-16T03:30:08Z</time>
      </trkpt>
      <trkpt lat="50.12877" lon="3.68367">
        <ele>148.66</ele>
        <time>2016-07-16T03:30:09Z</time>
      </trkpt>
      <trkpt lat="50.12884" lon="3.68356">
        <ele>148.66</ele>
        <time>2016-07-16T03:30:10Z</time>
      </trkpt>
      <trkpt lat="50.12892" lon="3.68347">
        <ele>149.14</ele>
        <time>2016-07-16T03:30:11Z</time>
      </trkpt>
      <trkpt lat="50.12901" lon="3.68339">
        <ele>149.62</ele>
        <time>2016-07-16T03:30:12Z</time>
      </trkpt>
      <trkpt lat="50.12909" lon="3.68333">
        <ele>149.14</ele>
        <time>2016-07-16T03:30:13Z</time>
      </trkpt>
      <trkpt lat="50.12918" lon="3.68327">
        <ele>149.14</ele>
        <time>2016-07-16T03:30:14Z</time>
      </trkpt>
      <trkpt lat="50.12927" lon="3.68322">
        <ele>147.7</ele>
        <time>2016-07-16T03:30:15Z</time>
      </trkpt>
      <trkpt lat="50.12958" lon="3.68309">
        <ele>145.78</ele>
        <time>2016-07-16T03:30:19Z</time>
      </trkpt>
      <trkpt lat="50.12964" lon="3.68308">
        <ele>145.3</ele>
        <time>2016-07-16T03:30:20Z</time>
      </trkpt>
      <trkpt lat="50.12979" lon="3.68306">
        <ele>145.3</ele>
        <time>2016-07-16T03:30:23Z</time>
      </trkpt>
      <trkpt lat="50.12982" lon="3.68303">
        <ele>145.3</ele>
        <time>2016-07-16T03:30:24Z</time>
      </trkpt>
      <trkpt lat="50.12984" lon="3.68298">
        <ele>145.3</ele>
        <time>2016-07-16T03:30:25Z</time>
      </trkpt>
      <trkpt lat="50.12984" lon="3.68291">
        <ele>145.3</ele>
        <time>2016-07-16T03:30:26Z</time>
      </trkpt>
      <trkpt lat="50.12982" lon="3.68288">
        <ele>145.3</ele>
        <time>2016-07-16T03:30:27Z</time>
      </trkpt>
      <trkpt lat="50.12979" lon="3.68283">
        <ele>145.3</ele>
        <time>2016-07-16T03:30:28Z</time>
      </trkpt>
      <trkpt lat="50.12975" lon="3.68279">
        <ele>145.3</ele>
        <time>2016-07-16T03:30:29Z</time>
      </trkpt>
      <trkpt lat="50.12971" lon="3.68274">
        <ele>145.3</ele>
        <time>2016-07-16T03:30:30Z</time>
      </trkpt>
      <trkpt lat="50.12966" lon="3.68266">
        <ele>145.3</ele>
        <time>2016-07-16T03:30:31Z</time>
      </trkpt>
      <trkpt lat="50.12961" lon="3.68255">
        <ele>145.3</ele>
        <time>2016-07-16T03:30:32Z</time>
      </trkpt>
      <trkpt lat="50.12918" lon="3.68128">
        <ele>146.74</ele>
        <time>2016-07-16T03:30:40Z</time>
      </trkpt>
      <trkpt lat="50.12909" lon="3.68091">
        <ele>146.74</ele>
        <time>2016-07-16T03:30:42Z</time>
      </trkpt>
      <trkpt lat="50.12906" lon="3.68071">
        <ele>146.74</ele>
        <time>2016-07-16T03:30:43Z</time>
      </trkpt>
      <trkpt lat="50.12871" lon="3.67901">
        <ele>146.74</ele>
        <time>2016-07-16T03:30:52Z</time>
      </trkpt>
      <trkpt lat="50.1285" lon="3.67728">
        <ele>149.14</ele>
        <time>2016-07-16T03:31:01Z</time>
      </trkpt>
      <trkpt lat="50.12786" lon="3.67493">
        <ele>147.22</ele>
        <time>2016-07-16T03:31:14Z</time>
      </trkpt>
      <trkpt lat="50.12738" lon="3.67273">
        <ele>151.06</ele>
        <time>2016-07-16T03:31:26Z</time>
      </trkpt>
      <trkpt lat="50.12729" lon="3.67196">
        <ele>153.47</ele>
        <time>2016-07-16T03:31:30Z</time>
      </trkpt>
      <trkpt lat="50.12725" lon="3.67178">
        <ele>153.47</ele>
        <time>2016-07-16T03:31:31Z</time>
      </trkpt>
      <trkpt lat="50.12719" lon="3.67161">
        <ele>153.47</ele>
        <time>2016-07-16T03:31:32Z</time>
      </trkpt>
      <trkpt lat="50.12713" lon="3.67146">
        <ele>153.47</ele>
        <time>2016-07-16T03:31:33Z</time>
      </trkpt>
      <trkpt lat="50.12705" lon="3.67133">
        <ele>152.03</ele>
        <time>2016-07-16T03:31:34Z</time>
      </trkpt>
      <trkpt lat="50.12695" lon="3.67123">
        <ele>152.03</ele>
        <time>2016-07-16T03:31:35Z</time>
      </trkpt>
      <trkpt lat="50.12685" lon="3.67115">
        <ele>151.06</ele>
        <time>2016-07-16T03:31:36Z</time>
      </trkpt>
      <trkpt lat="50.12674" lon="3.6711">
        <ele>151.06</ele>
        <time>2016-07-16T03:31:37Z</time>
      </trkpt>
      <trkpt lat="50.12662" lon="3.67108">
        <ele>150.58</ele>
        <time>2016-07-16T03:31:38Z</time>
      </trkpt>
      <trkpt lat="50.12649" lon="3.67107">
        <ele>150.1</ele>
        <time>2016-07-16T03:31:39Z</time>
      </trkpt>
      <trkpt lat="50.12634" lon="3.67108">
        <ele>150.1</ele>
        <time>2016-07-16T03:31:40Z</time>
      </trkpt>
      <trkpt lat="50.12551" lon="3.6711">
        <ele>148.18</ele>
        <time>2016-07-16T03:31:46Z</time>
      </trkpt>
      <trkpt lat="50.12536" lon="3.67106">
        <ele>147.7</ele>
        <time>2016-07-16T03:31:47Z</time>
      </trkpt>
      <trkpt lat="50.12523" lon="3.67099">
        <ele>147.7</ele>
        <time>2016-07-16T03:31:48Z</time>
      </trkpt>
      <trkpt lat="50.1251" lon="3.6709">
        <ele>147.22</ele>
        <time>2016-07-16T03:31:49Z</time>
      </trkpt>
      <trkpt lat="50.12498" lon="3.67079">
        <ele>147.22</ele>
        <time>2016-07-16T03:31:50Z</time>
      </trkpt>
      <trkpt lat="50.12486" lon="3.67067">
        <ele>147.22</ele>
        <time>2016-07-16T03:31:51Z</time>
      </trkpt>
      <trkpt lat="50.12421" lon="3.66986">
        <ele>146.74</ele>
        <time>2016-07-16T03:31:57Z</time>
      </trkpt>
      <trkpt lat="50.12408" lon="3.66977">
        <ele>146.74</ele>
        <time>2016-07-16T03:31:58Z</time>
      </trkpt>
      <trkpt lat="50.12394" lon="3.66969">
        <ele>146.74</ele>
        <time>2016-07-16T03:31:59Z</time>
      </trkpt>
      <trkpt lat="50.12381" lon="3.66964">
        <ele>146.74</ele>
        <time>2016-07-16T03:32:00Z</time>
      </trkpt>
      <trkpt lat="50.12367" lon="3.66958">
        <ele>146.74</ele>
        <time>2016-07-16T03:32:01Z</time>
      </trkpt>
      <trkpt lat="50.12319" lon="3.66935">
        <ele>144.82</ele>
        <time>2016-07-16T03:32:05Z</time>
      </trkpt>
      <trkpt lat="50.12308" lon="3.66926">
        <ele>144.82</ele>
        <time>2016-07-16T03:32:06Z</time>
      </trkpt>
      <trkpt lat="50.12298" lon="3.66916">
        <ele>144.34</ele>
        <time>2016-07-16T03:32:07Z</time>
      </trkpt>
      <trkpt lat="50.12239" lon="3.66854">
        <ele>142.89</ele>
        <time>2016-07-16T03:32:12Z</time>
      </trkpt>
      <trkpt lat="50.12225" lon="3.66845">
        <ele>142.41</ele>
        <time>2016-07-16T03:32:13Z</time>
      </trkpt>
      <trkpt lat="50.12153" lon="3.66802">
        <ele>140.49</ele>
        <time>2016-07-16T03:32:18Z</time>
      </trkpt>
      <trkpt lat="50.1214" lon="3.6679">
        <ele>140.01</ele>
        <time>2016-07-16T03:32:19Z</time>
      </trkpt>
      <trkpt lat="50.12128" lon="3.66775">
        <ele>140.01</ele>
        <time>2016-07-16T03:32:20Z</time>
      </trkpt>
      <trkpt lat="50.12117" lon="3.66759">
        <ele>140.01</ele>
        <time>2016-07-16T03:32:21Z</time>
      </trkpt>
      <trkpt lat="50.12106" lon="3.66739">
        <ele>140.01</ele>
        <time>2016-07-16T03:32:22Z</time>
      </trkpt>
      <trkpt lat="50.12096" lon="3.66718">
        <ele>140.01</ele>
        <time>2016-07-16T03:32:23Z</time>
      </trkpt>
      <trkpt lat="50.11953" lon="3.66432">
        <ele>143.85</ele>
        <time>2016-07-16T03:32:36Z</time>
      </trkpt>
      <trkpt lat="50.11847" lon="3.66242">
        <ele>146.74</ele>
        <time>2016-07-16T03:32:45Z</time>
      </trkpt>
      <trkpt lat="50.11836" lon="3.66219">
        <ele>146.74</ele>
        <time>2016-07-16T03:32:46Z</time>
      </trkpt>
      <trkpt lat="50.11827" lon="3.66194">
        <ele>146.74</ele>
        <time>2016-07-16T03:32:47Z</time>
      </trkpt>
      <trkpt lat="50.1182" lon="3.66168">
        <ele>146.74</ele>
        <time>2016-07-16T03:32:48Z</time>
      </trkpt>
      <trkpt lat="50.11815" lon="3.66139">
        <ele>147.22</ele>
        <time>2016-07-16T03:32:49Z</time>
      </trkpt>
      <trkpt lat="50.11811" lon="3.66113">
        <ele>147.22</ele>
        <time>2016-07-16T03:32:50Z</time>
      </trkpt>
      <trkpt lat="50.11791" lon="3.65975">
        <ele>146.74</ele>
        <time>2016-07-16T03:32:55Z</time>
      </trkpt>
      <trkpt lat="50.1179" lon="3.65947">
        <ele>146.74</ele>
        <time>2016-07-16T03:32:56Z</time>
      </trkpt>
      <trkpt lat="50.1179" lon="3.65919">
        <ele>146.74</ele>
        <time>2016-07-16T03:32:57Z</time>
      </trkpt>
      <trkpt lat="50.11806" lon="3.65696">
        <ele>145.78</ele>
        <time>2016-07-16T03:33:05Z</time>
      </trkpt>
      <trkpt lat="50.11811" lon="3.6567">
        <ele>145.78</ele>
        <time>2016-07-16T03:33:06Z</time>
      </trkpt>
      <trkpt lat="50.11894" lon="3.65389">
        <ele>144.82</ele>
        <time>2016-07-16T03:33:17Z</time>
      </trkpt>
      <trkpt lat="50.11953" lon="3.65259">
        <ele>141.45</ele>
        <time>2016-07-16T03:33:23Z</time>
      </trkpt>
      <trkpt lat="50.1196" lon="3.65238">
        <ele>140.97</ele>
        <time>2016-07-16T03:33:24Z</time>
      </trkpt>
      <trkpt lat="50.11965" lon="3.65216">
        <ele>140.97</ele>
        <time>2016-07-16T03:33:25Z</time>
      </trkpt>
      <trkpt lat="50.11968" lon="3.65194">
        <ele>140.01</ele>
        <time>2016-07-16T03:33:26Z</time>
      </trkpt>
      <trkpt lat="50.11969" lon="3.65172">
        <ele>140.01</ele>
        <time>2016-07-16T03:33:27Z</time>
      </trkpt>
      <trkpt lat="50.11959" lon="3.65106">
        <ele>140.01</ele>
        <time>2016-07-16T03:33:30Z</time>
      </trkpt>
      <trkpt lat="50.1195" lon="3.65083">
        <ele>140.49</ele>
        <time>2016-07-16T03:33:31Z</time>
      </trkpt>
      <trkpt lat="50.11943" lon="3.65067">
        <ele>140.49</ele>
        <time>2016-07-16T03:33:32Z</time>
      </trkpt>
      <trkpt lat="50.11932" lon="3.65049">
        <ele>140.49</ele>
        <time>2016-07-16T03:33:33Z</time>
      </trkpt>
      <trkpt lat="50.11921" lon="3.65034">
        <ele>140.49</ele>
        <time>2016-07-16T03:33:34Z</time>
      </trkpt>
      <trkpt lat="50.11908" lon="3.65022">
        <ele>140.49</ele>
        <time>2016-07-16T03:33:35Z</time>
      </trkpt>
      <trkpt lat="50.11894" lon="3.6501">
        <ele>140.49</ele>
        <time>2016-07-16T03:33:36Z</time>
      </trkpt>
      <trkpt lat="50.11751" lon="3.64877">
        <ele>138.09</ele>
        <time>2016-07-16T03:33:47Z</time>
      </trkpt>
      <trkpt lat="50.11742" lon="3.64863">
        <ele>138.09</ele>
        <time>2016-07-16T03:33:48Z</time>
      </trkpt>
      <trkpt lat="50.11735" lon="3.64845">
        <ele>138.09</ele>
        <time>2016-07-16T03:33:49Z</time>
      </trkpt>
      <trkpt lat="50.11729" lon="3.64824">
        <ele>138.09</ele>
        <time>2016-07-16T03:33:50Z</time>
      </trkpt>
      <trkpt lat="50.11726" lon="3.64803">
        <ele>138.09</ele>
        <time>2016-07-16T03:33:51Z</time>
      </trkpt>
      <trkpt lat="50.11723" lon="3.64781">
        <ele>139.53</ele>
        <time>2016-07-16T03:33:52Z</time>
      </trkpt>
      <trkpt lat="50.11715" lon="3.64659">
        <ele>143.85</ele>
        <time>2016-07-16T03:33:57Z</time>
      </trkpt>
      <trkpt lat="50.11702" lon="3.64441">
        <ele>147.7</ele>
        <time>2016-07-16T03:34:05Z</time>
      </trkpt>
      <trkpt lat="50.11679" lon="3.64131">
        <ele>148.18</ele>
        <time>2016-07-16T03:34:15Z</time>
      </trkpt>
      <trkpt lat="50.11654" lon="3.63808">
        <ele>146.26</ele>
        <time>2016-07-16T03:34:24Z</time>
      </trkpt>
      <trkpt lat="50.11623" lon="3.63428">
        <ele>147.22</ele>
        <time>2016-07-16T03:34:35Z</time>
      </trkpt>
      <trkpt lat="50.116" lon="3.63112">
        <ele>151.06</ele>
        <time>2016-07-16T03:34:44Z</time>
      </trkpt>
      <trkpt lat="50.11591" lon="3.63008">
        <ele>154.43</ele>
        <time>2016-07-16T03:34:47Z</time>
      </trkpt>
      <trkpt lat="50.11561" lon="3.62606">
        <ele>151.06</ele>
        <time>2016-07-16T03:34:59Z</time>
      </trkpt>
      <trkpt lat="50.11552" lon="3.62482">
        <ele>148.18</ele>
        <time>2016-07-16T03:35:03Z</time>
      </trkpt>
      <trkpt lat="50.11536" lon="3.62269">
        <ele>151.06</ele>
        <time>2016-07-16T03:35:10Z</time>
      </trkpt>
      <trkpt lat="50.11528" lon="3.62174">
        <ele>154.91</ele>
        <time>2016-07-16T03:35:13Z</time>
      </trkpt>
      <trkpt lat="50.11501" lon="3.61816">
        <ele>153.47</ele>
        <time>2016-07-16T03:35:23Z</time>
      </trkpt>
      <trkpt lat="50.1149" lon="3.61674">
        <ele>152.03</ele>
        <time>2016-07-16T03:35:27Z</time>
      </trkpt>
      <trkpt lat="50.11445" lon="3.61075">
        <ele>155.39</ele>
        <time>2016-07-16T03:35:44Z</time>
      </trkpt>
      <trkpt lat="50.11431" lon="3.60901">
        <ele>158.75</ele>
        <time>2016-07-16T03:35:49Z</time>
      </trkpt>
      <trkpt lat="50.11393" lon="3.6044">
        <ele>156.35</ele>
        <time>2016-07-16T03:36:03Z</time>
      </trkpt>
      <trkpt lat="50.11383" lon="3.60327">
        <ele>152.99</ele>
        <time>2016-07-16T03:36:07Z</time>
      </trkpt>
      <trkpt lat="50.11377" lon="3.60253">
        <ele>149.62</ele>
        <time>2016-07-16T03:36:10Z</time>
      </trkpt>
      <trkpt lat="50.11375" lon="3.60229">
        <ele>149.62</ele>
        <time>2016-07-16T03:36:11Z</time>
      </trkpt>
      <trkpt lat="50.11339" lon="3.60002">
        <ele>148.66</ele>
        <time>2016-07-16T03:36:22Z</time>
      </trkpt>
      <trkpt lat="50.11333" lon="3.59964">
        <ele>150.1</ele>
        <time>2016-07-16T03:36:24Z</time>
      </trkpt>
      <trkpt lat="50.11294" lon="3.5975">
        <ele>146.74</ele>
        <time>2016-07-16T03:36:35Z</time>
      </trkpt>
      <trkpt lat="50.11261" lon="3.5962">
        <ele>143.37</ele>
        <time>2016-07-16T03:36:42Z</time>
      </trkpt>
      <trkpt lat="50.11193" lon="3.59435">
        <ele>142.41</ele>
        <time>2016-07-16T03:36:53Z</time>
      </trkpt>
      <trkpt lat="50.11141" lon="3.59301">
        <ele>143.85</ele>
        <time>2016-07-16T03:37:01Z</time>
      </trkpt>
      <trkpt lat="50.11116" lon="3.59126">
        <ele>142.41</ele>
        <time>2016-07-16T03:37:10Z</time>
      </trkpt>
      <trkpt lat="50.11072" lon="3.58797">
        <ele>139.05</ele>
        <time>2016-07-16T03:37:27Z</time>
      </trkpt>
      <trkpt lat="50.1106" lon="3.58676">
        <ele>135.68</ele>
        <time>2016-07-16T03:37:33Z</time>
      </trkpt>
      <trkpt lat="50.1105" lon="3.58573">
        <ele>132.32</ele>
        <time>2016-07-16T03:37:38Z</time>
      </trkpt>
      <trkpt lat="50.11045" lon="3.58467">
        <ele>128.95</ele>
        <time>2016-07-16T03:37:43Z</time>
      </trkpt>
      <trkpt lat="50.11047" lon="3.58356">
        <ele>125.59</ele>
        <time>2016-07-16T03:37:48Z</time>
      </trkpt>
      <trkpt lat="50.11046" lon="3.58246">
        <ele>122.22</ele>
        <time>2016-07-16T03:37:53Z</time>
      </trkpt>
      <trkpt lat="50.11044" lon="3.58222">
        <ele>121.26</ele>
        <time>2016-07-16T03:37:54Z</time>
      </trkpt>
      <trkpt lat="50.1104" lon="3.58198">
        <ele>120.3</ele>
        <time>2016-07-16T03:37:55Z</time>
      </trkpt>
      <trkpt lat="50.11035" lon="3.58174">
        <ele>119.34</ele>
        <time>2016-07-16T03:37:56Z</time>
      </trkpt>
      <trkpt lat="50.11013" lon="3.58096">
        <ele>115.5</ele>
        <time>2016-07-16T03:37:59Z</time>
      </trkpt>
      <trkpt lat="50.10993" lon="3.5798">
        <ele>112.13</ele>
        <time>2016-07-16T03:38:03Z</time>
      </trkpt>
      <trkpt lat="50.10994" lon="3.57886">
        <ele>110.21</ele>
        <time>2016-07-16T03:38:06Z</time>
      </trkpt>
      <trkpt lat="50.11004" lon="3.57656">
        <ele>110.69</ele>
        <time>2016-07-16T03:38:13Z</time>
      </trkpt>
      <trkpt lat="50.11002" lon="3.57623">
        <ele>110.69</ele>
        <time>2016-07-16T03:38:14Z</time>
      </trkpt>
      <trkpt lat="50.10998" lon="3.57591">
        <ele>111.65</ele>
        <time>2016-07-16T03:38:15Z</time>
      </trkpt>
      <trkpt lat="50.10992" lon="3.57561">
        <ele>112.13</ele>
        <time>2016-07-16T03:38:16Z</time>
      </trkpt>
      <trkpt lat="50.10985" lon="3.57531">
        <ele>113.09</ele>
        <time>2016-07-16T03:38:17Z</time>
      </trkpt>
      <trkpt lat="50.10974" lon="3.575">
        <ele>114.05</ele>
        <time>2016-07-16T03:38:18Z</time>
      </trkpt>
      <trkpt lat="50.10963" lon="3.57473">
        <ele>115.01</ele>
        <time>2016-07-16T03:38:19Z</time>
      </trkpt>
      <trkpt lat="50.1095" lon="3.57447">
        <ele>115.5</ele>
        <time>2016-07-16T03:38:20Z</time>
      </trkpt>
      <trkpt lat="50.10936" lon="3.57421">
        <ele>116.94</ele>
        <time>2016-07-16T03:38:21Z</time>
      </trkpt>
      <trkpt lat="50.1092" lon="3.57395">
        <ele>117.9</ele>
        <time>2016-07-16T03:38:22Z</time>
      </trkpt>
      <trkpt lat="50.10874" lon="3.57327">
        <ele>122.22</ele>
        <time>2016-07-16T03:38:25Z</time>
      </trkpt>
      <trkpt lat="50.10804" lon="3.57247">
        <ele>126.07</ele>
        <time>2016-07-16T03:38:29Z</time>
      </trkpt>
      <trkpt lat="50.10713" lon="3.57152">
        <ele>129.92</ele>
        <time>2016-07-16T03:38:34Z</time>
      </trkpt>
      <trkpt lat="50.10633" lon="3.57048">
        <ele>132.8</ele>
        <time>2016-07-16T03:38:39Z</time>
      </trkpt>
      <trkpt lat="50.10608" lon="3.56996">
        <ele>134.72</ele>
        <time>2016-07-16T03:38:41Z</time>
      </trkpt>
      <trkpt lat="50.10597" lon="3.56967">
        <ele>135.2</ele>
        <time>2016-07-16T03:38:42Z</time>
      </trkpt>
      <trkpt lat="50.10503" lon="3.56752">
        <ele>138.57</ele>
        <time>2016-07-16T03:38:50Z</time>
      </trkpt>
      <trkpt lat="50.10442" lon="3.56618">
        <ele>141.93</ele>
        <time>2016-07-16T03:38:55Z</time>
      </trkpt>
      <trkpt lat="50.10404" lon="3.56507">
        <ele>142.89</ele>
        <time>2016-07-16T03:38:59Z</time>
      </trkpt>
      <trkpt lat="50.10398" lon="3.5648">
        <ele>143.37</ele>
        <time>2016-07-16T03:39:00Z</time>
      </trkpt>
      <trkpt lat="50.10369" lon="3.56285">
        <ele>142.41</ele>
        <time>2016-07-16T03:39:08Z</time>
      </trkpt>
      <trkpt lat="50.10367" lon="3.56268">
        <ele>142.41</ele>
        <time>2016-07-16T03:39:09Z</time>
      </trkpt>
      <trkpt lat="50.10365" lon="3.56218">
        <ele>141.93</ele>
        <time>2016-07-16T03:39:13Z</time>
      </trkpt>
      <trkpt lat="50.10363" lon="3.5621">
        <ele>141.93</ele>
        <time>2016-07-16T03:39:14Z</time>
      </trkpt>
      <trkpt lat="50.10359" lon="3.56202">
        <ele>141.93</ele>
        <time>2016-07-16T03:39:15Z</time>
      </trkpt>
      <trkpt lat="50.10344" lon="3.56173">
        <ele>141.45</ele>
        <time>2016-07-16T03:39:18Z</time>
      </trkpt>
      <trkpt lat="50.10339" lon="3.56159">
        <ele>141.93</ele>
        <time>2016-07-16T03:39:19Z</time>
      </trkpt>
      <trkpt lat="50.10282" lon="3.55954">
        <ele>140.49</ele>
        <time>2016-07-16T03:39:31Z</time>
      </trkpt>
      <trkpt lat="50.10245" lon="3.55829">
        <ele>137.13</ele>
        <time>2016-07-16T03:39:38Z</time>
      </trkpt>
      <trkpt lat="50.10218" lon="3.5574">
        <ele>133.76</ele>
        <time>2016-07-16T03:39:43Z</time>
      </trkpt>
      <trkpt lat="50.102" lon="3.5568">
        <ele>130.4</ele>
        <time>2016-07-16T03:39:47Z</time>
      </trkpt>
      <trkpt lat="50.10183" lon="3.55622">
        <ele>127.51</ele>
        <time>2016-07-16T03:39:54Z</time>
      </trkpt>
      <trkpt lat="50.10183" lon="3.55616">
        <ele>127.51</ele>
        <time>2016-07-16T03:39:55Z</time>
      </trkpt>
      <trkpt lat="50.10184" lon="3.55609">
        <ele>127.51</ele>
        <time>2016-07-16T03:39:56Z</time>
      </trkpt>
      <trkpt lat="50.10187" lon="3.55599">
        <ele>127.51</ele>
        <time>2016-07-16T03:39:57Z</time>
      </trkpt>
      <trkpt lat="50.10224" lon="3.55489">
        <ele>124.15</ele>
        <time>2016-07-16T03:40:05Z</time>
      </trkpt>
      <trkpt lat="50.10245" lon="3.55422">
        <ele>121.74</ele>
        <time>2016-07-16T03:40:09Z</time>
      </trkpt>
      <trkpt lat="50.10272" lon="3.55334">
        <ele>118.86</ele>
        <time>2016-07-16T03:40:14Z</time>
      </trkpt>
      <trkpt lat="50.103" lon="3.55245">
        <ele>115.98</ele>
        <time>2016-07-16T03:40:19Z</time>
      </trkpt>
      <trkpt lat="50.10324" lon="3.55173">
        <ele>113.09</ele>
        <time>2016-07-16T03:40:23Z</time>
      </trkpt>
      <trkpt lat="50.10328" lon="3.55152">
        <ele>112.61</ele>
        <time>2016-07-16T03:40:24Z</time>
      </trkpt>
      <trkpt lat="50.10331" lon="3.55133">
        <ele>112.13</ele>
        <time>2016-07-16T03:40:25Z</time>
      </trkpt>
      <trkpt lat="50.10343" lon="3.55028">
        <ele>108.77</ele>
        <time>2016-07-16T03:40:30Z</time>
      </trkpt>
      <trkpt lat="50.1037" lon="3.54842">
        <ele>109.73</ele>
        <time>2016-07-16T03:40:40Z</time>
      </trkpt>
      <trkpt lat="50.10374" lon="3.54824">
        <ele>110.21</ele>
        <time>2016-07-16T03:40:41Z</time>
      </trkpt>
      <trkpt lat="50.1041" lon="3.54711">
        <ele>113.09</ele>
        <time>2016-07-16T03:40:48Z</time>
      </trkpt>
      <trkpt lat="50.10444" lon="3.54589">
        <ele>112.61</ele>
        <time>2016-07-16T03:40:57Z</time>
      </trkpt>
      <trkpt lat="50.10455" lon="3.54552">
        <ele>111.17</ele>
        <time>2016-07-16T03:41:00Z</time>
      </trkpt>
      <trkpt lat="50.1046" lon="3.5454">
        <ele>111.17</ele>
        <time>2016-07-16T03:41:01Z</time>
      </trkpt>
      <trkpt lat="50.10517" lon="3.54448">
        <ele>107.81</ele>
        <time>2016-07-16T03:41:10Z</time>
      </trkpt>
      <trkpt lat="50.10532" lon="3.54424">
        <ele>107.32</ele>
        <time>2016-07-16T03:41:13Z</time>
      </trkpt>
      <trkpt lat="50.10535" lon="3.54417">
        <ele>106.84</ele>
        <time>2016-07-16T03:41:14Z</time>
      </trkpt>
      <trkpt lat="50.10536" lon="3.5441">
        <ele>106.84</ele>
        <time>2016-07-16T03:41:15Z</time>
      </trkpt>
      <trkpt lat="50.10536" lon="3.54404">
        <ele>106.84</ele>
        <time>2016-07-16T03:41:16Z</time>
      </trkpt>
      <trkpt lat="50.10533" lon="3.54397">
        <ele>106.84</ele>
        <time>2016-07-16T03:41:17Z</time>
      </trkpt>
      <trkpt lat="50.10529" lon="3.5439">
        <ele>106.36</ele>
        <time>2016-07-16T03:41:18Z</time>
      </trkpt>
      <trkpt lat="50.10524" lon="3.54383">
        <ele>106.36</ele>
        <time>2016-07-16T03:41:19Z</time>
      </trkpt>
      <trkpt lat="50.1052" lon="3.54373">
        <ele>105.88</ele>
        <time>2016-07-16T03:41:20Z</time>
      </trkpt>
      <trkpt lat="50.10517" lon="3.5436">
        <ele>105.88</ele>
        <time>2016-07-16T03:41:21Z</time>
      </trkpt>
      <trkpt lat="50.10515" lon="3.54349">
        <ele>105.4</ele>
        <time>2016-07-16T03:41:22Z</time>
      </trkpt>
      <trkpt lat="50.10514" lon="3.54338">
        <ele>105.4</ele>
        <time>2016-07-16T03:41:23Z</time>
      </trkpt>
      <trkpt lat="50.10514" lon="3.54326">
        <ele>105.4</ele>
        <time>2016-07-16T03:41:24Z</time>
      </trkpt>
      <trkpt lat="50.10515" lon="3.54313">
        <ele>104.44</ele>
        <time>2016-07-16T03:41:25Z</time>
      </trkpt>
      <trkpt lat="50.10517" lon="3.54301">
        <ele>103.96</ele>
        <time>2016-07-16T03:41:26Z</time>
      </trkpt>
      <trkpt lat="50.1052" lon="3.54289">
        <ele>103.48</ele>
        <time>2016-07-16T03:41:27Z</time>
      </trkpt>
      <trkpt lat="50.10536" lon="3.54222">
        <ele>100.11</ele>
        <time>2016-07-16T03:41:32Z</time>
      </trkpt>
      <trkpt lat="50.10556" lon="3.54172">
        <ele>97.23</ele>
        <time>2016-07-16T03:41:36Z</time>
      </trkpt>
      <trkpt lat="50.10561" lon="3.5416">
        <ele>97.23</ele>
        <time>2016-07-16T03:41:37Z</time>
      </trkpt>
      <trkpt lat="50.10575" lon="3.54121">
        <ele>95.79</ele>
        <time>2016-07-16T03:41:40Z</time>
      </trkpt>
      <trkpt lat="50.10607" lon="3.54034">
        <ele>92.9</ele>
        <time>2016-07-16T03:41:47Z</time>
      </trkpt>
      <trkpt lat="50.10659" lon="3.53877">
        <ele>92.42</ele>
        <time>2016-07-16T03:41:57Z</time>
      </trkpt>
      <trkpt lat="50.10662" lon="3.53859">
        <ele>92.42</ele>
        <time>2016-07-16T03:41:58Z</time>
      </trkpt>
      <trkpt lat="50.10664" lon="3.53839">
        <ele>92.42</ele>
        <time>2016-07-16T03:41:59Z</time>
      </trkpt>
      <trkpt lat="50.10665" lon="3.5382">
        <ele>92.42</ele>
        <time>2016-07-16T03:42:00Z</time>
      </trkpt>
      <trkpt lat="50.10665" lon="3.53802">
        <ele>93.87</ele>
        <time>2016-07-16T03:42:01Z</time>
      </trkpt>
      <trkpt lat="50.10663" lon="3.53784">
        <ele>93.87</ele>
        <time>2016-07-16T03:42:02Z</time>
      </trkpt>
      <trkpt lat="50.10662" lon="3.53768">
        <ele>94.83</ele>
        <time>2016-07-16T03:42:03Z</time>
      </trkpt>
      <trkpt lat="50.10659" lon="3.53753">
        <ele>95.31</ele>
        <time>2016-07-16T03:42:04Z</time>
      </trkpt>
      <trkpt lat="50.10646" lon="3.53649">
        <ele>98.67</ele>
        <time>2016-07-16T03:42:12Z</time>
      </trkpt>
      <trkpt lat="50.10636" lon="3.53567">
        <ele>101.08</ele>
        <time>2016-07-16T03:42:18Z</time>
      </trkpt>
      <trkpt lat="50.10624" lon="3.53486">
        <ele>104.44</ele>
        <time>2016-07-16T03:42:23Z</time>
      </trkpt>
      <trkpt lat="50.10611" lon="3.53388">
        <ele>107.81</ele>
        <time>2016-07-16T03:42:28Z</time>
      </trkpt>
      <trkpt lat="50.10604" lon="3.53263">
        <ele>111.17</ele>
        <time>2016-07-16T03:42:34Z</time>
      </trkpt>
      <trkpt lat="50.10606" lon="3.53157">
        <ele>115.01</ele>
        <time>2016-07-16T03:42:39Z</time>
      </trkpt>
      <trkpt lat="50.10619" lon="3.5305">
        <ele>118.38</ele>
        <time>2016-07-16T03:42:44Z</time>
      </trkpt>
      <trkpt lat="50.10642" lon="3.52945">
        <ele>121.74</ele>
        <time>2016-07-16T03:42:49Z</time>
      </trkpt>
      <trkpt lat="50.10651" lon="3.52904">
        <ele>122.22</ele>
        <time>2016-07-16T03:42:51Z</time>
      </trkpt>
      <trkpt lat="50.10676" lon="3.52804">
        <ele>127.03</ele>
        <time>2016-07-16T03:42:56Z</time>
      </trkpt>
      <trkpt lat="50.1068" lon="3.52785">
        <ele>127.03</ele>
        <time>2016-07-16T03:42:57Z</time>
      </trkpt>
      <trkpt lat="50.10747" lon="3.52499">
        <ele>126.07</ele>
        <time>2016-07-16T03:43:12Z</time>
      </trkpt>
      <trkpt lat="50.10783" lon="3.52354">
        <ele>123.19</ele>
        <time>2016-07-16T03:43:20Z</time>
      </trkpt>
      <trkpt lat="50.10791" lon="3.52327">
        <ele>122.22</ele>
        <time>2016-07-16T03:43:22Z</time>
      </trkpt>
      <trkpt lat="50.10796" lon="3.52315">
        <ele>121.74</ele>
        <time>2016-07-16T03:43:23Z</time>
      </trkpt>
      <trkpt lat="50.10802" lon="3.52306">
        <ele>121.74</ele>
        <time>2016-07-16T03:43:24Z</time>
      </trkpt>
      <trkpt lat="50.10808" lon="3.52296">
        <ele>122.22</ele>
        <time>2016-07-16T03:43:25Z</time>
      </trkpt>
      <trkpt lat="50.10814" lon="3.52285">
        <ele>122.22</ele>
        <time>2016-07-16T03:43:26Z</time>
      </trkpt>
      <trkpt lat="50.10818" lon="3.52275">
        <ele>122.22</ele>
        <time>2016-07-16T03:43:27Z</time>
      </trkpt>
      <trkpt lat="50.10821" lon="3.52263">
        <ele>122.22</ele>
        <time>2016-07-16T03:43:28Z</time>
      </trkpt>
      <trkpt lat="50.10823" lon="3.5225">
        <ele>122.22</ele>
        <time>2016-07-16T03:43:29Z</time>
      </trkpt>
      <trkpt lat="50.10823" lon="3.52236">
        <ele>122.22</ele>
        <time>2016-07-16T03:43:30Z</time>
      </trkpt>
      <trkpt lat="50.10823" lon="3.52222">
        <ele>122.22</ele>
        <time>2016-07-16T03:43:31Z</time>
      </trkpt>
      <trkpt lat="50.10825" lon="3.52207">
        <ele>123.19</ele>
        <time>2016-07-16T03:43:32Z</time>
      </trkpt>
      <trkpt lat="50.10827" lon="3.52192">
        <ele>123.19</ele>
        <time>2016-07-16T03:43:33Z</time>
      </trkpt>
      <trkpt lat="50.10831" lon="3.52175">
        <ele>123.67</ele>
        <time>2016-07-16T03:43:34Z</time>
      </trkpt>
      <trkpt lat="50.10868" lon="3.52026">
        <ele>126.07</ele>
        <time>2016-07-16T03:43:41Z</time>
      </trkpt>
      <trkpt lat="50.10934" lon="3.51748">
        <ele>129.43</ele>
        <time>2016-07-16T03:43:51Z</time>
      </trkpt>
      <trkpt lat="50.11027" lon="3.51358">
        <ele>132.8</ele>
        <time>2016-07-16T03:44:03Z</time>
      </trkpt>
      <trkpt lat="50.11074" lon="3.51155">
        <ele>136.64</ele>
        <time>2016-07-16T03:44:09Z</time>
      </trkpt>
      <trkpt lat="50.11168" lon="3.50749">
        <ele>139.53</ele>
        <time>2016-07-16T03:44:21Z</time>
      </trkpt>
      <trkpt lat="50.11353" lon="3.49976">
        <ele>136.64</ele>
        <time>2016-07-16T03:44:44Z</time>
      </trkpt>
      <trkpt lat="50.11558" lon="3.49105">
        <ele>137.13</ele>
        <time>2016-07-16T03:45:10Z</time>
      </trkpt>
      <trkpt lat="50.1166" lon="3.48669">
        <ele>137.13</ele>
        <time>2016-07-16T03:45:24Z</time>
      </trkpt>
      <trkpt lat="50.117" lon="3.48503">
        <ele>134.24</ele>
        <time>2016-07-16T03:45:30Z</time>
      </trkpt>
      <trkpt lat="50.11705" lon="3.48478">
        <ele>133.76</ele>
        <time>2016-07-16T03:45:31Z</time>
      </trkpt>
      <trkpt lat="50.11758" lon="3.48252">
        <ele>130.4</ele>
        <time>2016-07-16T03:45:38Z</time>
      </trkpt>
      <trkpt lat="50.11791" lon="3.48112">
        <ele>127.03</ele>
        <time>2016-07-16T03:45:42Z</time>
      </trkpt>
      <trkpt lat="50.11826" lon="3.47967">
        <ele>123.67</ele>
        <time>2016-07-16T03:45:46Z</time>
      </trkpt>
      <trkpt lat="50.11856" lon="3.47841">
        <ele>120.3</ele>
        <time>2016-07-16T03:45:50Z</time>
      </trkpt>
      <trkpt lat="50.11896" lon="3.47672">
        <ele>116.94</ele>
        <time>2016-07-16T03:45:55Z</time>
      </trkpt>
      <trkpt lat="50.11996" lon="3.47237">
        <ele>117.42</ele>
        <time>2016-07-16T03:46:09Z</time>
      </trkpt>
      <trkpt lat="50.12057" lon="3.46981">
        <ele>117.42</ele>
        <time>2016-07-16T03:46:20Z</time>
      </trkpt>
      <trkpt lat="50.12141" lon="3.46626">
        <ele>117.9</ele>
        <time>2016-07-16T03:46:38Z</time>
      </trkpt>
      <trkpt lat="50.1215" lon="3.46489">
        <ele>117.9</ele>
        <time>2016-07-16T03:46:47Z</time>
      </trkpt>
      <trkpt lat="50.12153" lon="3.46402">
        <ele>117.9</ele>
        <time>2016-07-16T03:46:54Z</time>
      </trkpt>
      <trkpt lat="50.12155" lon="3.4639">
        <ele>117.9</ele>
        <time>2016-07-16T03:46:55Z</time>
      </trkpt>
      <trkpt lat="50.12158" lon="3.46378">
        <ele>117.9</ele>
        <time>2016-07-16T03:46:56Z</time>
      </trkpt>
      <trkpt lat="50.12163" lon="3.46369">
        <ele>117.9</ele>
        <time>2016-07-16T03:46:57Z</time>
      </trkpt>
      <trkpt lat="50.1217" lon="3.46361">
        <ele>117.9</ele>
        <time>2016-07-16T03:46:58Z</time>
      </trkpt>
      <trkpt lat="50.12177" lon="3.46354">
        <ele>117.9</ele>
        <time>2016-07-16T03:46:59Z</time>
      </trkpt>
      <trkpt lat="50.12187" lon="3.46348">
        <ele>117.9</ele>
        <time>2016-07-16T03:47:00Z</time>
      </trkpt>
      <trkpt lat="50.12197" lon="3.46344">
        <ele>117.9</ele>
        <time>2016-07-16T03:47:01Z</time>
      </trkpt>
      <trkpt lat="50.12209" lon="3.46341">
        <ele>116.46</ele>
        <time>2016-07-16T03:47:02Z</time>
      </trkpt>
      <trkpt lat="50.12219" lon="3.46338">
        <ele>116.46</ele>
        <time>2016-07-16T03:47:03Z</time>
      </trkpt>
      <trkpt lat="50.12229" lon="3.46333">
        <ele>116.46</ele>
        <time>2016-07-16T03:47:04Z</time>
      </trkpt>
      <trkpt lat="50.12239" lon="3.46326">
        <ele>116.46</ele>
        <time>2016-07-16T03:47:05Z</time>
      </trkpt>
      <trkpt lat="50.12247" lon="3.46318">
        <ele>116.46</ele>
        <time>2016-07-16T03:47:06Z</time>
      </trkpt>
      <trkpt lat="50.12253" lon="3.46305">
        <ele>116.46</ele>
        <time>2016-07-16T03:47:07Z</time>
      </trkpt>
      <trkpt lat="50.12256" lon="3.46292">
        <ele>116.46</ele>
        <time>2016-07-16T03:47:08Z</time>
      </trkpt>
      <trkpt lat="50.12258" lon="3.4628">
        <ele>116.46</ele>
        <time>2016-07-16T03:47:09Z</time>
      </trkpt>
      <trkpt lat="50.1226" lon="3.4626">
        <ele>118.38</ele>
        <time>2016-07-16T03:47:10Z</time>
      </trkpt>
      <trkpt lat="50.12262" lon="3.46246">
        <ele>118.38</ele>
        <time>2016-07-16T03:47:11Z</time>
      </trkpt>
      <trkpt lat="50.12301" lon="3.45962">
        <ele>115.5</ele>
        <time>2016-07-16T03:47:26Z</time>
      </trkpt>
      <trkpt lat="50.12312" lon="3.45914">
        <ele>113.57</ele>
        <time>2016-07-16T03:47:29Z</time>
      </trkpt>
      <trkpt lat="50.12347" lon="3.45762">
        <ele>110.69</ele>
        <time>2016-07-16T03:47:37Z</time>
      </trkpt>
      <trkpt lat="50.12429" lon="3.45408">
        <ele>109.73</ele>
        <time>2016-07-16T03:47:55Z</time>
      </trkpt>
      <trkpt lat="50.12489" lon="3.45147">
        <ele>113.09</ele>
        <time>2016-07-16T03:48:08Z</time>
      </trkpt>
      <trkpt lat="50.12537" lon="3.4494">
        <ele>116.46</ele>
        <time>2016-07-16T03:48:18Z</time>
      </trkpt>
      <trkpt lat="50.12606" lon="3.44653">
        <ele>118.86</ele>
        <time>2016-07-16T03:48:29Z</time>
      </trkpt>
      <trkpt lat="50.12705" lon="3.4422">
        <ele>120.3</ele>
        <time>2016-07-16T03:48:42Z</time>
      </trkpt>
      <trkpt lat="50.12799" lon="3.43817">
        <ele>116.94</ele>
        <time>2016-07-16T03:48:54Z</time>
      </trkpt>
      <trkpt lat="50.12806" lon="3.43785">
        <ele>116.46</ele>
        <time>2016-07-16T03:48:55Z</time>
      </trkpt>
      <trkpt lat="50.12973" lon="3.43059">
        <ele>115.5</ele>
        <time>2016-07-16T03:49:17Z</time>
      </trkpt>
      <trkpt lat="50.13012" lon="3.42889">
        <ele>115.01</ele>
        <time>2016-07-16T03:49:24Z</time>
      </trkpt>
      <trkpt lat="50.13048" lon="3.42723">
        <ele>115.98</ele>
        <time>2016-07-16T03:49:34Z</time>
      </trkpt>
      <trkpt lat="50.13052" lon="3.42702">
        <ele>115.98</ele>
        <time>2016-07-16T03:49:36Z</time>
      </trkpt>
      <trkpt lat="50.13056" lon="3.42694">
        <ele>115.98</ele>
        <time>2016-07-16T03:49:37Z</time>
      </trkpt>
      <trkpt lat="50.1306" lon="3.42686">
        <ele>115.98</ele>
        <time>2016-07-16T03:49:38Z</time>
      </trkpt>
      <trkpt lat="50.13064" lon="3.42678">
        <ele>115.98</ele>
        <time>2016-07-16T03:49:39Z</time>
      </trkpt>
      <trkpt lat="50.13067" lon="3.4267">
        <ele>115.98</ele>
        <time>2016-07-16T03:49:40Z</time>
      </trkpt>
      <trkpt lat="50.13069" lon="3.42659">
        <ele>115.98</ele>
        <time>2016-07-16T03:49:41Z</time>
      </trkpt>
      <trkpt lat="50.1307" lon="3.42648">
        <ele>116.46</ele>
        <time>2016-07-16T03:49:42Z</time>
      </trkpt>
      <trkpt lat="50.13071" lon="3.42636">
        <ele>116.46</ele>
        <time>2016-07-16T03:49:43Z</time>
      </trkpt>
      <trkpt lat="50.13073" lon="3.42622">
        <ele>116.46</ele>
        <time>2016-07-16T03:49:44Z</time>
      </trkpt>
      <trkpt lat="50.13075" lon="3.42607">
        <ele>116.46</ele>
        <time>2016-07-16T03:49:45Z</time>
      </trkpt>
      <trkpt lat="50.13079" lon="3.42592">
        <ele>116.94</ele>
        <time>2016-07-16T03:49:46Z</time>
      </trkpt>
      <trkpt lat="50.13135" lon="3.42366">
        <ele>119.34</ele>
        <time>2016-07-16T03:49:58Z</time>
      </trkpt>
      <trkpt lat="50.13214" lon="3.42027">
        <ele>120.78</ele>
        <time>2016-07-16T03:50:17Z</time>
      </trkpt>
      <trkpt lat="50.13226" lon="3.41975">
        <ele>119.34</ele>
        <time>2016-07-16T03:50:20Z</time>
      </trkpt>
      <trkpt lat="50.13297" lon="3.4167">
        <ele>116.46</ele>
        <time>2016-07-16T03:50:38Z</time>
      </trkpt>
      <trkpt lat="50.13362" lon="3.4138">
        <ele>116.46</ele>
        <time>2016-07-16T03:50:52Z</time>
      </trkpt>
      <trkpt lat="50.13426" lon="3.41105">
        <ele>116.46</ele>
        <time>2016-07-16T03:51:03Z</time>
      </trkpt>
      <trkpt lat="50.13517" lon="3.40712">
        <ele>118.38</ele>
        <time>2016-07-16T03:51:15Z</time>
      </trkpt>
      <trkpt lat="50.13603" lon="3.40338">
        <ele>119.34</ele>
        <time>2016-07-16T03:51:28Z</time>
      </trkpt>
      <trkpt lat="50.13637" lon="3.40187">
        <ele>116.46</ele>
        <time>2016-07-16T03:51:35Z</time>
      </trkpt>
      <trkpt lat="50.13667" lon="3.40098">
        <ele>114.53</ele>
        <time>2016-07-16T03:51:42Z</time>
      </trkpt>
      <trkpt lat="50.13669" lon="3.4009">
        <ele>114.53</ele>
        <time>2016-07-16T03:51:43Z</time>
      </trkpt>
      <trkpt lat="50.13672" lon="3.40079">
        <ele>115.01</ele>
        <time>2016-07-16T03:51:44Z</time>
      </trkpt>
      <trkpt lat="50.13673" lon="3.40067">
        <ele>115.01</ele>
        <time>2016-07-16T03:51:45Z</time>
      </trkpt>
      <trkpt lat="50.13675" lon="3.40053">
        <ele>115.01</ele>
        <time>2016-07-16T03:51:46Z</time>
      </trkpt>
      <trkpt lat="50.13703" lon="3.39914">
        <ele>115.98</ele>
        <time>2016-07-16T03:51:53Z</time>
      </trkpt>
      <trkpt lat="50.13709" lon="3.39892">
        <ele>115.98</ele>
        <time>2016-07-16T03:51:54Z</time>
      </trkpt>
      <trkpt lat="50.13763" lon="3.3965">
        <ele>114.53</ele>
        <time>2016-07-16T03:52:04Z</time>
      </trkpt>
      <trkpt lat="50.13829" lon="3.39363">
        <ele>111.17</ele>
        <time>2016-07-16T03:52:17Z</time>
      </trkpt>
      <trkpt lat="50.13839" lon="3.39319">
        <ele>110.69</ele>
        <time>2016-07-16T03:52:19Z</time>
      </trkpt>
      <trkpt lat="50.13865" lon="3.39204">
        <ele>107.32</ele>
        <time>2016-07-16T03:52:24Z</time>
      </trkpt>
      <trkpt lat="50.13876" lon="3.39156">
        <ele>106.36</ele>
        <time>2016-07-16T03:52:26Z</time>
      </trkpt>
      <trkpt lat="50.13904" lon="3.39034">
        <ele>103</ele>
        <time>2016-07-16T03:52:31Z</time>
      </trkpt>
      <trkpt lat="50.13926" lon="3.3894">
        <ele>99.15</ele>
        <time>2016-07-16T03:52:35Z</time>
      </trkpt>
      <trkpt lat="50.13935" lon="3.389">
        <ele>98.19</ele>
        <time>2016-07-16T03:52:37Z</time>
      </trkpt>
      <trkpt lat="50.14002" lon="3.3861">
        <ele>97.71</ele>
        <time>2016-07-16T03:52:53Z</time>
      </trkpt>
      <trkpt lat="50.14063" lon="3.38348">
        <ele>100.11</ele>
        <time>2016-07-16T03:53:09Z</time>
      </trkpt>
      <trkpt lat="50.14089" lon="3.38232">
        <ele>100.11</ele>
        <time>2016-07-16T03:53:21Z</time>
      </trkpt>
      <trkpt lat="50.14102" lon="3.38171">
        <ele>100.6</ele>
        <time>2016-07-16T03:53:34Z</time>
      </trkpt>
      <trkpt lat="50.14109" lon="3.38144">
        <ele>101.56</ele>
        <time>2016-07-16T03:53:48Z</time>
      </trkpt>
      <trkpt lat="50.14135" lon="3.38034">
        <ele>102.04</ele>
        <time>2016-07-16T03:53:56Z</time>
      </trkpt>
      <trkpt lat="50.14202" lon="3.37736">
        <ele>103.96</ele>
        <time>2016-07-16T03:54:13Z</time>
      </trkpt>
      <trkpt lat="50.14291" lon="3.37357">
        <ele>104.92</ele>
        <time>2016-07-16T03:54:34Z</time>
      </trkpt>
      <trkpt lat="50.14366" lon="3.37028">
        <ele>108.29</ele>
        <time>2016-07-16T03:54:51Z</time>
      </trkpt>
      <trkpt lat="50.14425" lon="3.36766">
        <ele>110.21</ele>
        <time>2016-07-16T03:55:03Z</time>
      </trkpt>
      <trkpt lat="50.1444" lon="3.36702">
        <ele>108.77</ele>
        <time>2016-07-16T03:55:06Z</time>
      </trkpt>
      <trkpt lat="50.14452" lon="3.36647">
        <ele>107.32</ele>
        <time>2016-07-16T03:55:09Z</time>
      </trkpt>
      <trkpt lat="50.14475" lon="3.36564">
        <ele>103.96</ele>
        <time>2016-07-16T03:55:15Z</time>
      </trkpt>
      <trkpt lat="50.14479" lon="3.36555">
        <ele>103.96</ele>
        <time>2016-07-16T03:55:16Z</time>
      </trkpt>
      <trkpt lat="50.14485" lon="3.36547">
        <ele>103.48</ele>
        <time>2016-07-16T03:55:17Z</time>
      </trkpt>
      <trkpt lat="50.1449" lon="3.36539">
        <ele>103.48</ele>
        <time>2016-07-16T03:55:18Z</time>
      </trkpt>
      <trkpt lat="50.14494" lon="3.36529">
        <ele>103.48</ele>
        <time>2016-07-16T03:55:19Z</time>
      </trkpt>
      <trkpt lat="50.14496" lon="3.3652">
        <ele>103.48</ele>
        <time>2016-07-16T03:55:20Z</time>
      </trkpt>
      <trkpt lat="50.14497" lon="3.36508">
        <ele>103.48</ele>
        <time>2016-07-16T03:55:21Z</time>
      </trkpt>
      <trkpt lat="50.14498" lon="3.36495">
        <ele>103.48</ele>
        <time>2016-07-16T03:55:22Z</time>
      </trkpt>
      <trkpt lat="50.14498" lon="3.36481">
        <ele>103</ele>
        <time>2016-07-16T03:55:23Z</time>
      </trkpt>
      <trkpt lat="50.145" lon="3.36464">
        <ele>103</ele>
        <time>2016-07-16T03:55:24Z</time>
      </trkpt>
      <trkpt lat="50.14503" lon="3.36446">
        <ele>103</ele>
        <time>2016-07-16T03:55:25Z</time>
      </trkpt>
      <trkpt lat="50.14507" lon="3.36427">
        <ele>103</ele>
        <time>2016-07-16T03:55:26Z</time>
      </trkpt>
      <trkpt lat="50.14548" lon="3.36245">
        <ele>103</ele>
        <time>2016-07-16T03:55:33Z</time>
      </trkpt>
      <trkpt lat="50.14607" lon="3.35988">
        <ele>99.63</ele>
        <time>2016-07-16T03:55:41Z</time>
      </trkpt>
      <trkpt lat="50.14636" lon="3.35857">
        <ele>96.27</ele>
        <time>2016-07-16T03:55:45Z</time>
      </trkpt>
      <trkpt lat="50.14666" lon="3.35726">
        <ele>92.9</ele>
        <time>2016-07-16T03:55:49Z</time>
      </trkpt>
      <trkpt lat="50.14697" lon="3.35594">
        <ele>89.54</ele>
        <time>2016-07-16T03:55:53Z</time>
      </trkpt>
      <trkpt lat="50.14809" lon="3.35104">
        <ele>90.98</ele>
        <time>2016-07-16T03:56:08Z</time>
      </trkpt>
      <trkpt lat="50.14831" lon="3.3501">
        <ele>92.42</ele>
        <time>2016-07-16T03:56:11Z</time>
      </trkpt>
      <trkpt lat="50.14871" lon="3.34837">
        <ele>95.79</ele>
        <time>2016-07-16T03:56:17Z</time>
      </trkpt>
      <trkpt lat="50.14931" lon="3.34574">
        <ele>97.71</ele>
        <time>2016-07-16T03:56:28Z</time>
      </trkpt>
      <trkpt lat="50.14958" lon="3.34456">
        <ele>96.27</ele>
        <time>2016-07-16T03:56:33Z</time>
      </trkpt>
      <trkpt lat="50.15003" lon="3.3426">
        <ele>92.9</ele>
        <time>2016-07-16T03:56:41Z</time>
      </trkpt>
      <trkpt lat="50.15031" lon="3.34137">
        <ele>90.5</ele>
        <time>2016-07-16T03:56:46Z</time>
      </trkpt>
      <trkpt lat="50.15083" lon="3.33915">
        <ele>87.14</ele>
        <time>2016-07-16T03:56:55Z</time>
      </trkpt>
      <trkpt lat="50.15156" lon="3.336">
        <ele>85.21</ele>
        <time>2016-07-16T03:57:06Z</time>
      </trkpt>
      <trkpt lat="50.15225" lon="3.33299">
        <ele>81.85</ele>
        <time>2016-07-16T03:57:15Z</time>
      </trkpt>
      <trkpt lat="50.1531" lon="3.32927">
        <ele>80.89</ele>
        <time>2016-07-16T03:57:27Z</time>
      </trkpt>
      <trkpt lat="50.15334" lon="3.32824">
        <ele>82.33</ele>
        <time>2016-07-16T03:57:31Z</time>
      </trkpt>
      <trkpt lat="50.15351" lon="3.32748">
        <ele>83.77</ele>
        <time>2016-07-16T03:57:34Z</time>
      </trkpt>
      <trkpt lat="50.15392" lon="3.32566">
        <ele>86.66</ele>
        <time>2016-07-16T03:57:41Z</time>
      </trkpt>
      <trkpt lat="50.15473" lon="3.32207">
        <ele>86.18</ele>
        <time>2016-07-16T03:57:55Z</time>
      </trkpt>
      <trkpt lat="50.1551" lon="3.32046">
        <ele>82.81</ele>
        <time>2016-07-16T03:58:00Z</time>
      </trkpt>
      <trkpt lat="50.15541" lon="3.3191">
        <ele>78.97</ele>
        <time>2016-07-16T03:58:04Z</time>
      </trkpt>
      <trkpt lat="50.15572" lon="3.31777">
        <ele>75.6</ele>
        <time>2016-07-16T03:58:08Z</time>
      </trkpt>
      <trkpt lat="50.15602" lon="3.31646">
        <ele>71.76</ele>
        <time>2016-07-16T03:58:12Z</time>
      </trkpt>
      <trkpt lat="50.15631" lon="3.31517">
        <ele>68.87</ele>
        <time>2016-07-16T03:58:16Z</time>
      </trkpt>
      <trkpt lat="50.1573" lon="3.3109">
        <ele>69.35</ele>
        <time>2016-07-16T03:58:29Z</time>
      </trkpt>
      <trkpt lat="50.1584" lon="3.30609">
        <ele>65.99</ele>
        <time>2016-07-16T03:58:43Z</time>
      </trkpt>
      <trkpt lat="50.15922" lon="3.30246">
        <ele>67.91</ele>
        <time>2016-07-16T03:58:55Z</time>
      </trkpt>
      <trkpt lat="50.15963" lon="3.30062">
        <ele>70.79</ele>
        <time>2016-07-16T03:59:04Z</time>
      </trkpt>
      <trkpt lat="50.15974" lon="3.30027">
        <ele>71.27</ele>
        <time>2016-07-16T03:59:07Z</time>
      </trkpt>
      <trkpt lat="50.15978" lon="3.30018">
        <ele>71.76</ele>
        <time>2016-07-16T03:59:08Z</time>
      </trkpt>
      <trkpt lat="50.15983" lon="3.3001">
        <ele>71.76</ele>
        <time>2016-07-16T03:59:09Z</time>
      </trkpt>
      <trkpt lat="50.15997" lon="3.29987">
        <ele>72.72</ele>
        <time>2016-07-16T03:59:12Z</time>
      </trkpt>
      <trkpt lat="50.16" lon="3.29979">
        <ele>72.72</ele>
        <time>2016-07-16T03:59:13Z</time>
      </trkpt>
      <trkpt lat="50.16001" lon="3.2997">
        <ele>73.2</ele>
        <time>2016-07-16T03:59:14Z</time>
      </trkpt>
      <trkpt lat="50.16001" lon="3.29962">
        <ele>73.68</ele>
        <time>2016-07-16T03:59:15Z</time>
      </trkpt>
      <trkpt lat="50.15998" lon="3.29955">
        <ele>73.68</ele>
        <time>2016-07-16T03:59:16Z</time>
      </trkpt>
      <trkpt lat="50.15993" lon="3.2995">
        <ele>74.16</ele>
        <time>2016-07-16T03:59:17Z</time>
      </trkpt>
      <trkpt lat="50.15987" lon="3.29947">
        <ele>74.16</ele>
        <time>2016-07-16T03:59:18Z</time>
      </trkpt>
      <trkpt lat="50.15979" lon="3.29945">
        <ele>74.16</ele>
        <time>2016-07-16T03:59:19Z</time>
      </trkpt>
      <trkpt lat="50.15962" lon="3.29939">
        <ele>74.16</ele>
        <time>2016-07-16T03:59:21Z</time>
      </trkpt>
      <trkpt lat="50.15952" lon="3.29933">
        <ele>74.16</ele>
        <time>2016-07-16T03:59:22Z</time>
      </trkpt>
      <trkpt lat="50.1588" lon="3.29855">
        <ele>74.64</ele>
        <time>2016-07-16T03:59:28Z</time>
      </trkpt>
      <trkpt lat="50.15746" lon="3.29704">
        <ele>75.12</ele>
        <time>2016-07-16T03:59:36Z</time>
      </trkpt>
      <trkpt lat="50.15672" lon="3.29619">
        <ele>73.68</ele>
        <time>2016-07-16T03:59:40Z</time>
      </trkpt>
      <trkpt lat="50.15428" lon="3.29341">
        <ele>70.31</ele>
        <time>2016-07-16T03:59:53Z</time>
      </trkpt>
      <trkpt lat="50.15221" lon="3.29056">
        <ele>72.24</ele>
        <time>2016-07-16T04:00:05Z</time>
      </trkpt>
      <trkpt lat="50.15115" lon="3.28821">
        <ele>75.6</ele>
        <time>2016-07-16T04:00:13Z</time>
      </trkpt>
      <trkpt lat="50.15065" lon="3.28663">
        <ele>77.52</ele>
        <time>2016-07-16T04:00:18Z</time>
      </trkpt>
      <trkpt lat="50.15033" lon="3.28528">
        <ele>79.93</ele>
        <time>2016-07-16T04:00:22Z</time>
      </trkpt>
      <trkpt lat="50.14988" lon="3.28175">
        <ele>82.33</ele>
        <time>2016-07-16T04:00:32Z</time>
      </trkpt>
      <trkpt lat="50.14999" lon="3.27817">
        <ele>84.25</ele>
        <time>2016-07-16T04:00:42Z</time>
      </trkpt>
      <trkpt lat="50.1505" lon="3.27468">
        <ele>87.14</ele>
        <time>2016-07-16T04:00:52Z</time>
      </trkpt>
      <trkpt lat="50.15091" lon="3.27189">
        <ele>90.98</ele>
        <time>2016-07-16T04:01:00Z</time>
      </trkpt>
      <trkpt lat="50.15121" lon="3.2698">
        <ele>94.83</ele>
        <time>2016-07-16T04:01:06Z</time>
      </trkpt>
      <trkpt lat="50.15167" lon="3.26663">
        <ele>96.75</ele>
        <time>2016-07-16T04:01:16Z</time>
      </trkpt>
      <trkpt lat="50.15185" lon="3.2652">
        <ele>96.75</ele>
        <time>2016-07-16T04:01:23Z</time>
      </trkpt>
      <trkpt lat="50.15195" lon="3.26453">
        <ele>96.75</ele>
        <time>2016-07-16T04:01:28Z</time>
      </trkpt>
      <trkpt lat="50.15198" lon="3.26444">
        <ele>96.75</ele>
        <time>2016-07-16T04:01:29Z</time>
      </trkpt>
      <trkpt lat="50.15202" lon="3.26436">
        <ele>96.75</ele>
        <time>2016-07-16T04:01:30Z</time>
      </trkpt>
      <trkpt lat="50.15211" lon="3.26421">
        <ele>96.75</ele>
        <time>2016-07-16T04:01:32Z</time>
      </trkpt>
      <trkpt lat="50.15215" lon="3.26411">
        <ele>96.75</ele>
        <time>2016-07-16T04:01:33Z</time>
      </trkpt>
      <trkpt lat="50.15218" lon="3.26401">
        <ele>96.75</ele>
        <time>2016-07-16T04:01:34Z</time>
      </trkpt>
      <trkpt lat="50.15219" lon="3.26389">
        <ele>96.75</ele>
        <time>2016-07-16T04:01:35Z</time>
      </trkpt>
      <trkpt lat="50.15218" lon="3.26379">
        <ele>97.23</ele>
        <time>2016-07-16T04:01:36Z</time>
      </trkpt>
      <trkpt lat="50.15216" lon="3.26368">
        <ele>97.23</ele>
        <time>2016-07-16T04:01:37Z</time>
      </trkpt>
      <trkpt lat="50.15213" lon="3.26353">
        <ele>97.23</ele>
        <time>2016-07-16T04:01:38Z</time>
      </trkpt>
      <trkpt lat="50.1521" lon="3.26337">
        <ele>97.23</ele>
        <time>2016-07-16T04:01:39Z</time>
      </trkpt>
      <trkpt lat="50.15209" lon="3.26299">
        <ele>97.23</ele>
        <time>2016-07-16T04:01:41Z</time>
      </trkpt>
      <trkpt lat="50.15218" lon="3.26082">
        <ele>98.19</ele>
        <time>2016-07-16T04:01:49Z</time>
      </trkpt>
      <trkpt lat="50.15218" lon="3.2576">
        <ele>94.83</ele>
        <time>2016-07-16T04:01:58Z</time>
      </trkpt>
      <trkpt lat="50.15213" lon="3.25652">
        <ele>93.39</ele>
        <time>2016-07-16T04:02:01Z</time>
      </trkpt>
      <trkpt lat="50.15199" lon="3.25436">
        <ele>90.5</ele>
        <time>2016-07-16T04:02:07Z</time>
      </trkpt>
      <trkpt lat="50.15145" lon="3.25016">
        <ele>87.14</ele>
        <time>2016-07-16T04:02:19Z</time>
      </trkpt>
      <trkpt lat="50.15049" lon="3.24581">
        <ele>86.66</ele>
        <time>2016-07-16T04:02:32Z</time>
      </trkpt>
      <trkpt lat="50.1496" lon="3.24289">
        <ele>86.18</ele>
        <time>2016-07-16T04:02:41Z</time>
      </trkpt>
      <trkpt lat="50.14843" lon="3.2398">
        <ele>87.62</ele>
        <time>2016-07-16T04:02:51Z</time>
      </trkpt>
      <trkpt lat="50.14589" lon="3.23295">
        <ele>88.1</ele>
        <time>2016-07-16T04:03:13Z</time>
      </trkpt>
      <trkpt lat="50.14509" lon="3.23077">
        <ele>85.21</ele>
        <time>2016-07-16T04:03:20Z</time>
      </trkpt>
      <trkpt lat="50.14244" lon="3.22366">
        <ele>88.58</ele>
        <time>2016-07-16T04:03:43Z</time>
      </trkpt>
      <trkpt lat="50.14141" lon="3.22022">
        <ele>89.54</ele>
        <time>2016-07-16T04:03:54Z</time>
      </trkpt>
      <trkpt lat="50.14131" lon="3.21969">
        <ele>88.1</ele>
        <time>2016-07-16T04:03:56Z</time>
      </trkpt>
      <trkpt lat="50.14114" lon="3.21846">
        <ele>86.18</ele>
        <time>2016-07-16T04:04:02Z</time>
      </trkpt>
      <trkpt lat="50.14121" lon="3.21785">
        <ele>85.69</ele>
        <time>2016-07-16T04:04:07Z</time>
      </trkpt>
      <trkpt lat="50.14123" lon="3.21774">
        <ele>85.69</ele>
        <time>2016-07-16T04:04:08Z</time>
      </trkpt>
      <trkpt lat="50.14125" lon="3.21764">
        <ele>85.69</ele>
        <time>2016-07-16T04:04:09Z</time>
      </trkpt>
      <trkpt lat="50.14126" lon="3.21752">
        <ele>85.69</ele>
        <time>2016-07-16T04:04:10Z</time>
      </trkpt>
      <trkpt lat="50.14125" lon="3.21738">
        <ele>85.69</ele>
        <time>2016-07-16T04:04:11Z</time>
      </trkpt>
      <trkpt lat="50.14125" lon="3.21723">
        <ele>86.18</ele>
        <time>2016-07-16T04:04:12Z</time>
      </trkpt>
      <trkpt lat="50.14127" lon="3.21707">
        <ele>86.18</ele>
        <time>2016-07-16T04:04:13Z</time>
      </trkpt>
      <trkpt lat="50.14131" lon="3.21687">
        <ele>86.18</ele>
        <time>2016-07-16T04:04:14Z</time>
      </trkpt>
      <trkpt lat="50.14136" lon="3.21667">
        <ele>85.69</ele>
        <time>2016-07-16T04:04:15Z</time>
      </trkpt>
      <trkpt lat="50.14187" lon="3.2148">
        <ele>86.18</ele>
        <time>2016-07-16T04:04:22Z</time>
      </trkpt>
      <trkpt lat="50.14287" lon="3.21148">
        <ele>83.29</ele>
        <time>2016-07-16T04:04:32Z</time>
      </trkpt>
      <trkpt lat="50.14375" lon="3.20965">
        <ele>79.93</ele>
        <time>2016-07-16T04:04:38Z</time>
      </trkpt>
      <trkpt lat="50.14408" lon="3.20908">
        <ele>79.45</ele>
        <time>2016-07-16T04:04:40Z</time>
      </trkpt>
      <trkpt lat="50.14607" lon="3.2055">
        <ele>76.08</ele>
        <time>2016-07-16T04:04:53Z</time>
      </trkpt>
      <trkpt lat="50.14738" lon="3.20314">
        <ele>73.2</ele>
        <time>2016-07-16T04:05:03Z</time>
      </trkpt>
      <trkpt lat="50.14789" lon="3.20226">
        <ele>70.31</ele>
        <time>2016-07-16T04:05:09Z</time>
      </trkpt>
      <trkpt lat="50.14796" lon="3.20219">
        <ele>70.31</ele>
        <time>2016-07-16T04:05:10Z</time>
      </trkpt>
      <trkpt lat="50.14804" lon="3.20213">
        <ele>70.31</ele>
        <time>2016-07-16T04:05:11Z</time>
      </trkpt>
      <trkpt lat="50.14819" lon="3.20205">
        <ele>70.31</ele>
        <time>2016-07-16T04:05:13Z</time>
      </trkpt>
      <trkpt lat="50.14825" lon="3.20198">
        <ele>70.31</ele>
        <time>2016-07-16T04:05:14Z</time>
      </trkpt>
      <trkpt lat="50.1483" lon="3.20189">
        <ele>70.31</ele>
        <time>2016-07-16T04:05:15Z</time>
      </trkpt>
      <trkpt lat="50.14833" lon="3.20179">
        <ele>70.31</ele>
        <time>2016-07-16T04:05:16Z</time>
      </trkpt>
      <trkpt lat="50.14835" lon="3.20167">
        <ele>70.31</ele>
        <time>2016-07-16T04:05:17Z</time>
      </trkpt>
      <trkpt lat="50.14836" lon="3.20153">
        <ele>70.31</ele>
        <time>2016-07-16T04:05:18Z</time>
      </trkpt>
      <trkpt lat="50.14839" lon="3.2014">
        <ele>70.31</ele>
        <time>2016-07-16T04:05:19Z</time>
      </trkpt>
      <trkpt lat="50.14843" lon="3.20127">
        <ele>70.31</ele>
        <time>2016-07-16T04:05:20Z</time>
      </trkpt>
      <trkpt lat="50.14849" lon="3.20114">
        <ele>70.31</ele>
        <time>2016-07-16T04:05:21Z</time>
      </trkpt>
      <trkpt lat="50.14857" lon="3.20099">
        <ele>70.31</ele>
        <time>2016-07-16T04:05:22Z</time>
      </trkpt>
      <trkpt lat="50.14897" lon="3.20026">
        <ele>71.76</ele>
        <time>2016-07-16T04:05:26Z</time>
      </trkpt>
      <trkpt lat="50.15008" lon="3.1984">
        <ele>73.68</ele>
        <time>2016-07-16T04:05:34Z</time>
      </trkpt>
      <trkpt lat="50.15213" lon="3.19549">
        <ele>69.83</ele>
        <time>2016-07-16T04:05:46Z</time>
      </trkpt>
      <trkpt lat="50.15231" lon="3.19526">
        <ele>69.83</ele>
        <time>2016-07-16T04:05:47Z</time>
      </trkpt>
      <trkpt lat="50.15317" lon="3.19406">
        <ele>66.95</ele>
        <time>2016-07-16T04:05:52Z</time>
      </trkpt>
      <trkpt lat="50.15403" lon="3.19286">
        <ele>62.62</ele>
        <time>2016-07-16T04:05:57Z</time>
      </trkpt>
      <trkpt lat="50.1549" lon="3.19167">
        <ele>59.26</ele>
        <time>2016-07-16T04:06:02Z</time>
      </trkpt>
      <trkpt lat="50.15559" lon="3.19072">
        <ele>55.89</ele>
        <time>2016-07-16T04:06:06Z</time>
      </trkpt>
      <trkpt lat="50.15577" lon="3.19049">
        <ele>55.89</ele>
        <time>2016-07-16T04:06:07Z</time>
      </trkpt>
      <trkpt lat="50.15648" lon="3.18957">
        <ele>53.01</ele>
        <time>2016-07-16T04:06:11Z</time>
      </trkpt>
      <trkpt lat="50.15902" lon="3.18651">
        <ele>55.89</ele>
        <time>2016-07-16T04:06:25Z</time>
      </trkpt>
      <trkpt lat="50.16054" lon="3.1849">
        <ele>54.93</ele>
        <time>2016-07-16T04:06:33Z</time>
      </trkpt>
      <trkpt lat="50.16208" lon="3.18422">
        <ele>52.05</ele>
        <time>2016-07-16T04:06:40Z</time>
      </trkpt>
      <trkpt lat="50.1637" lon="3.18434">
        <ele>51.57</ele>
        <time>2016-07-16T04:06:47Z</time>
      </trkpt>
      <trkpt lat="50.1652" lon="3.18526">
        <ele>53.01</ele>
        <time>2016-07-16T04:06:54Z</time>
      </trkpt>
      <trkpt lat="50.16644" lon="3.18686">
        <ele>53.49</ele>
        <time>2016-07-16T04:07:01Z</time>
      </trkpt>
      <trkpt lat="50.16857" lon="3.19016">
        <ele>52.05</ele>
        <time>2016-07-16T04:07:14Z</time>
      </trkpt>
      <trkpt lat="50.17198" lon="3.19528">
        <ele>49.65</ele>
        <time>2016-07-16T04:07:35Z</time>
      </trkpt>
      <trkpt lat="50.17337" lon="3.19662">
        <ele>49.65</ele>
        <time>2016-07-16T04:07:44Z</time>
      </trkpt>
      <trkpt lat="50.17409" lon="3.19715">
        <ele>50.61</ele>
        <time>2016-07-16T04:07:51Z</time>
      </trkpt>
      <trkpt lat="50.1743" lon="3.19737">
        <ele>51.09</ele>
        <time>2016-07-16T04:07:54Z</time>
      </trkpt>
      <trkpt lat="50.17436" lon="3.19746">
        <ele>51.57</ele>
        <time>2016-07-16T04:07:55Z</time>
      </trkpt>
      <trkpt lat="50.1744" lon="3.19755">
        <ele>51.57</ele>
        <time>2016-07-16T04:07:56Z</time>
      </trkpt>
      <trkpt lat="50.17443" lon="3.19765">
        <ele>51.57</ele>
        <time>2016-07-16T04:07:57Z</time>
      </trkpt>
      <trkpt lat="50.17447" lon="3.19775">
        <ele>51.57</ele>
        <time>2016-07-16T04:07:58Z</time>
      </trkpt>
      <trkpt lat="50.17453" lon="3.19793">
        <ele>51.57</ele>
        <time>2016-07-16T04:08:00Z</time>
      </trkpt>
      <trkpt lat="50.17458" lon="3.198">
        <ele>51.57</ele>
        <time>2016-07-16T04:08:01Z</time>
      </trkpt>
      <trkpt lat="50.17463" lon="3.19805">
        <ele>51.57</ele>
        <time>2016-07-16T04:08:02Z</time>
      </trkpt>
      <trkpt lat="50.17469" lon="3.19809">
        <ele>51.57</ele>
        <time>2016-07-16T04:08:03Z</time>
      </trkpt>
      <trkpt lat="50.17477" lon="3.1981">
        <ele>51.57</ele>
        <time>2016-07-16T04:08:04Z</time>
      </trkpt>
      <trkpt lat="50.17485" lon="3.19808">
        <ele>51.57</ele>
        <time>2016-07-16T04:08:05Z</time>
      </trkpt>
      <trkpt lat="50.17493" lon="3.19803">
        <ele>51.57</ele>
        <time>2016-07-16T04:08:06Z</time>
      </trkpt>
      <trkpt lat="50.175" lon="3.19796">
        <ele>51.57</ele>
        <time>2016-07-16T04:08:07Z</time>
      </trkpt>
      <trkpt lat="50.17506" lon="3.19786">
        <ele>51.57</ele>
        <time>2016-07-16T04:08:08Z</time>
      </trkpt>
      <trkpt lat="50.17512" lon="3.19774">
        <ele>51.57</ele>
        <time>2016-07-16T04:08:09Z</time>
      </trkpt>
      <trkpt lat="50.17515" lon="3.19761">
        <ele>51.57</ele>
        <time>2016-07-16T04:08:10Z</time>
      </trkpt>
      <trkpt lat="50.17517" lon="3.19748">
        <ele>51.57</ele>
        <time>2016-07-16T04:08:11Z</time>
      </trkpt>
      <trkpt lat="50.17518" lon="3.19733">
        <ele>51.57</ele>
        <time>2016-07-16T04:08:12Z</time>
      </trkpt>
      <trkpt lat="50.17515" lon="3.1972">
        <ele>51.57</ele>
        <time>2016-07-16T04:08:13Z</time>
      </trkpt>
      <trkpt lat="50.17511" lon="3.19709">
        <ele>51.57</ele>
        <time>2016-07-16T04:08:14Z</time>
      </trkpt>
      <trkpt lat="50.17504" lon="3.19699">
        <ele>51.57</ele>
        <time>2016-07-16T04:08:15Z</time>
      </trkpt>
      <trkpt lat="50.17496" lon="3.19691">
        <ele>51.57</ele>
        <time>2016-07-16T04:08:16Z</time>
      </trkpt>
      <trkpt lat="50.17485" lon="3.19678">
        <ele>52.05</ele>
        <time>2016-07-16T04:08:17Z</time>
      </trkpt>
      <trkpt lat="50.1748" lon="3.19671">
        <ele>52.05</ele>
        <time>2016-07-16T04:08:18Z</time>
      </trkpt>
      <trkpt lat="50.17473" lon="3.19658">
        <ele>52.05</ele>
        <time>2016-07-16T04:08:19Z</time>
      </trkpt>
      <trkpt lat="50.17467" lon="3.19644">
        <ele>52.05</ele>
        <time>2016-07-16T04:08:20Z</time>
      </trkpt>
      <trkpt lat="50.17463" lon="3.1963">
        <ele>52.53</ele>
        <time>2016-07-16T04:08:21Z</time>
      </trkpt>
      <trkpt lat="50.17458" lon="3.19612">
        <ele>52.53</ele>
        <time>2016-07-16T04:08:22Z</time>
      </trkpt>
      <trkpt lat="50.17384" lon="3.1931">
        <ele>54.93</ele>
        <time>2016-07-16T04:08:38Z</time>
      </trkpt>
      <trkpt lat="50.17298" lon="3.18914">
        <ele>56.37</ele>
        <time>2016-07-16T04:08:58Z</time>
      </trkpt>
      <trkpt lat="50.1728" lon="3.18829">
        <ele>54.93</ele>
        <time>2016-07-16T04:09:02Z</time>
      </trkpt>
      <trkpt lat="50.17216" lon="3.18525">
        <ele>54.45</ele>
        <time>2016-07-16T04:09:16Z</time>
      </trkpt>
      <trkpt lat="50.17206" lon="3.18471">
        <ele>55.89</ele>
        <time>2016-07-16T04:09:18Z</time>
      </trkpt>
      <trkpt lat="50.17175" lon="3.18214">
        <ele>57.34</ele>
        <time>2016-07-16T04:09:26Z</time>
      </trkpt>
      <trkpt lat="50.17132" lon="3.17747">
        <ele>60.7</ele>
        <time>2016-07-16T04:09:39Z</time>
      </trkpt>
      <trkpt lat="50.17101" lon="3.17623">
        <ele>64.07</ele>
        <time>2016-07-16T04:09:43Z</time>
      </trkpt>
      <trkpt lat="50.17067" lon="3.17533">
        <ele>65.03</ele>
        <time>2016-07-16T04:09:46Z</time>
      </trkpt>
      <trkpt lat="50.17001" lon="3.17372">
        <ele>67.43</ele>
        <time>2016-07-16T04:09:53Z</time>
      </trkpt>
      <trkpt lat="50.16941" lon="3.17214">
        <ele>69.83</ele>
        <time>2016-07-16T04:10:03Z</time>
      </trkpt>
      <trkpt lat="50.16892" lon="3.17015">
        <ele>70.31</ele>
        <time>2016-07-16T04:10:14Z</time>
      </trkpt>
      <trkpt lat="50.16809" lon="3.16617">
        <ele>72.72</ele>
        <time>2016-07-16T04:10:36Z</time>
      </trkpt>
      <trkpt lat="50.16758" lon="3.16371">
        <ele>73.2</ele>
        <time>2016-07-16T04:10:50Z</time>
      </trkpt>
      <trkpt lat="50.16722" lon="3.16195">
        <ele>73.2</ele>
        <time>2016-07-16T04:11:02Z</time>
      </trkpt>
      <trkpt lat="50.16697" lon="3.16076">
        <ele>71.76</ele>
        <time>2016-07-16T04:11:11Z</time>
      </trkpt>
      <trkpt lat="50.1666" lon="3.15933">
        <ele>68.39</ele>
        <time>2016-07-16T04:11:20Z</time>
      </trkpt>
      <trkpt lat="50.16647" lon="3.15886">
        <ele>67.43</ele>
        <time>2016-07-16T04:11:23Z</time>
      </trkpt>
      <trkpt lat="50.16623" lon="3.15756">
        <ele>64.07</ele>
        <time>2016-07-16T04:11:30Z</time>
      </trkpt>
      <trkpt lat="50.1661" lon="3.15685">
        <ele>61.18</ele>
        <time>2016-07-16T04:11:34Z</time>
      </trkpt>
      <trkpt lat="50.16574" lon="3.15507">
        <ele>58.3</ele>
        <time>2016-07-16T04:11:45Z</time>
      </trkpt>
      <trkpt lat="50.16477" lon="3.15044">
        <ele>58.3</ele>
        <time>2016-07-16T04:12:11Z</time>
      </trkpt>
      <trkpt lat="50.16438" lon="3.1486">
        <ele>59.74</ele>
        <time>2016-07-16T04:12:19Z</time>
      </trkpt>
      <trkpt lat="50.16385" lon="3.14607">
        <ele>60.22</ele>
        <time>2016-07-16T04:12:27Z</time>
      </trkpt>
      <trkpt lat="50.16285" lon="3.14127">
        <ele>60.22</ele>
        <time>2016-07-16T04:12:41Z</time>
      </trkpt>
      <trkpt lat="50.16208" lon="3.13752">
        <ele>61.18</ele>
        <time>2016-07-16T04:12:52Z</time>
      </trkpt>
      <trkpt lat="50.16165" lon="3.13548">
        <ele>63.58</ele>
        <time>2016-07-16T04:12:58Z</time>
      </trkpt>
      <trkpt lat="50.16073" lon="3.13104">
        <ele>62.62</ele>
        <time>2016-07-16T04:13:11Z</time>
      </trkpt>
      <trkpt lat="50.15986" lon="3.12697">
        <ele>59.74</ele>
        <time>2016-07-16T04:13:24Z</time>
      </trkpt>
      <trkpt lat="50.1591" lon="3.12341">
        <ele>60.7</ele>
        <time>2016-07-16T04:13:37Z</time>
      </trkpt>
      <trkpt lat="50.15839" lon="3.12008">
        <ele>62.14</ele>
        <time>2016-07-16T04:13:47Z</time>
      </trkpt>
      <trkpt lat="50.15697" lon="3.11326">
        <ele>63.58</ele>
        <time>2016-07-16T04:14:07Z</time>
      </trkpt>
      <trkpt lat="50.15524" lon="3.10513">
        <ele>65.99</ele>
        <time>2016-07-16T04:14:31Z</time>
      </trkpt>
      <trkpt lat="50.15437" lon="3.10104">
        <ele>69.35</ele>
        <time>2016-07-16T04:14:43Z</time>
      </trkpt>
      <trkpt lat="50.15372" lon="3.09798">
        <ele>72.72</ele>
        <time>2016-07-16T04:14:52Z</time>
      </trkpt>
      <trkpt lat="50.15336" lon="3.09628">
        <ele>75.6</ele>
        <time>2016-07-16T04:14:57Z</time>
      </trkpt>
      <trkpt lat="50.15307" lon="3.09489">
        <ele>79.45</ele>
        <time>2016-07-16T04:15:01Z</time>
      </trkpt>
      <trkpt lat="50.15278" lon="3.09353">
        <ele>82.81</ele>
        <time>2016-07-16T04:15:05Z</time>
      </trkpt>
      <trkpt lat="50.15272" lon="3.09321">
        <ele>82.81</ele>
        <time>2016-07-16T04:15:06Z</time>
      </trkpt>
      <trkpt lat="50.1525" lon="3.09219">
        <ele>86.18</ele>
        <time>2016-07-16T04:15:09Z</time>
      </trkpt>
      <trkpt lat="50.15228" lon="3.09117">
        <ele>89.54</ele>
        <time>2016-07-16T04:15:12Z</time>
      </trkpt>
      <trkpt lat="50.15221" lon="3.09083">
        <ele>89.54</ele>
        <time>2016-07-16T04:15:13Z</time>
      </trkpt>
      <trkpt lat="50.1518" lon="3.08878">
        <ele>88.1</ele>
        <time>2016-07-16T04:15:19Z</time>
      </trkpt>
      <trkpt lat="50.15108" lon="3.08539">
        <ele>85.21</ele>
        <time>2016-07-16T04:15:29Z</time>
      </trkpt>
      <trkpt lat="50.15014" lon="3.08098">
        <ele>81.37</ele>
        <time>2016-07-16T04:15:42Z</time>
      </trkpt>
      <trkpt lat="50.14972" lon="3.07894">
        <ele>78</ele>
        <time>2016-07-16T04:15:48Z</time>
      </trkpt>
      <trkpt lat="50.14923" lon="3.07656">
        <ele>75.12</ele>
        <time>2016-07-16T04:15:55Z</time>
      </trkpt>
      <trkpt lat="50.14788" lon="3.07005">
        <ele>71.76</ele>
        <time>2016-07-16T04:16:14Z</time>
      </trkpt>
      <trkpt lat="50.14732" lon="3.06733">
        <ele>75.12</ele>
        <time>2016-07-16T04:16:22Z</time>
      </trkpt>
      <trkpt lat="50.14705" lon="3.06596">
        <ele>78.48</ele>
        <time>2016-07-16T04:16:26Z</time>
      </trkpt>
      <trkpt lat="50.14678" lon="3.0646">
        <ele>81.85</ele>
        <time>2016-07-16T04:16:30Z</time>
      </trkpt>
      <trkpt lat="50.14663" lon="3.0639">
        <ele>82.81</ele>
        <time>2016-07-16T04:16:32Z</time>
      </trkpt>
      <trkpt lat="50.14621" lon="3.06187">
        <ele>86.18</ele>
        <time>2016-07-16T04:16:38Z</time>
      </trkpt>
      <trkpt lat="50.14502" lon="3.05605">
        <ele>82.33</ele>
        <time>2016-07-16T04:16:55Z</time>
      </trkpt>
      <trkpt lat="50.14487" lon="3.05533">
        <ele>81.85</ele>
        <time>2016-07-16T04:16:57Z</time>
      </trkpt>
      <trkpt lat="50.14445" lon="3.05332">
        <ele>78.48</ele>
        <time>2016-07-16T04:17:03Z</time>
      </trkpt>
      <trkpt lat="50.14359" lon="3.04925">
        <ele>78.48</ele>
        <time>2016-07-16T04:17:15Z</time>
      </trkpt>
      <trkpt lat="50.14331" lon="3.04788">
        <ele>81.85</ele>
        <time>2016-07-16T04:17:19Z</time>
      </trkpt>
      <trkpt lat="50.14317" lon="3.04719">
        <ele>82.81</ele>
        <time>2016-07-16T04:17:21Z</time>
      </trkpt>
      <trkpt lat="50.14289" lon="3.04583">
        <ele>86.66</ele>
        <time>2016-07-16T04:17:25Z</time>
      </trkpt>
      <trkpt lat="50.14254" lon="3.04413">
        <ele>89.54</ele>
        <time>2016-07-16T04:17:30Z</time>
      </trkpt>
      <trkpt lat="50.14226" lon="3.04276">
        <ele>92.9</ele>
        <time>2016-07-16T04:17:34Z</time>
      </trkpt>
      <trkpt lat="50.14219" lon="3.04241">
        <ele>92.9</ele>
        <time>2016-07-16T04:17:35Z</time>
      </trkpt>
      <trkpt lat="50.1418" lon="3.04052">
        <ele>89.54</ele>
        <time>2016-07-16T04:17:41Z</time>
      </trkpt>
      <trkpt lat="50.14161" lon="3.03953">
        <ele>86.18</ele>
        <time>2016-07-16T04:17:45Z</time>
      </trkpt>
      <trkpt lat="50.14141" lon="3.03854">
        <ele>82.33</ele>
        <time>2016-07-16T04:17:50Z</time>
      </trkpt>
      <trkpt lat="50.14117" lon="3.03733">
        <ele>78.97</ele>
        <time>2016-07-16T04:17:57Z</time>
      </trkpt>
      <trkpt lat="50.1409" lon="3.036">
        <ele>75.6</ele>
        <time>2016-07-16T04:18:05Z</time>
      </trkpt>
      <trkpt lat="50.14042" lon="3.03368">
        <ele>76.56</ele>
        <time>2016-07-16T04:18:19Z</time>
      </trkpt>
      <trkpt lat="50.14035" lon="3.03331">
        <ele>77.52</ele>
        <time>2016-07-16T04:18:21Z</time>
      </trkpt>
      <trkpt lat="50.14008" lon="3.03201">
        <ele>80.89</ele>
        <time>2016-07-16T04:18:28Z</time>
      </trkpt>
      <trkpt lat="50.1397" lon="3.03021">
        <ele>83.77</ele>
        <time>2016-07-16T04:18:37Z</time>
      </trkpt>
      <trkpt lat="50.13938" lon="3.02868">
        <ele>87.14</ele>
        <time>2016-07-16T04:18:45Z</time>
      </trkpt>
      <trkpt lat="50.13911" lon="3.02746">
        <ele>90.5</ele>
        <time>2016-07-16T04:18:51Z</time>
      </trkpt>
      <trkpt lat="50.13892" lon="3.02655">
        <ele>93.87</ele>
        <time>2016-07-16T04:18:55Z</time>
      </trkpt>
      <trkpt lat="50.1387" lon="3.02552">
        <ele>97.23</ele>
        <time>2016-07-16T04:18:59Z</time>
      </trkpt>
      <trkpt lat="50.13849" lon="3.02445">
        <ele>100.6</ele>
        <time>2016-07-16T04:19:03Z</time>
      </trkpt>
      <trkpt lat="50.13791" lon="3.02171">
        <ele>103.96</ele>
        <time>2016-07-16T04:19:12Z</time>
      </trkpt>
      <trkpt lat="50.13719" lon="3.01825">
        <ele>100.6</ele>
        <time>2016-07-16T04:19:22Z</time>
      </trkpt>
      <trkpt lat="50.13691" lon="3.01687">
        <ele>96.75</ele>
        <time>2016-07-16T04:19:26Z</time>
      </trkpt>
      <trkpt lat="50.13669" lon="3.01583">
        <ele>93.39</ele>
        <time>2016-07-16T04:19:29Z</time>
      </trkpt>
      <trkpt lat="50.13648" lon="3.01479">
        <ele>90.02</ele>
        <time>2016-07-16T04:19:32Z</time>
      </trkpt>
      <trkpt lat="50.13626" lon="3.01375">
        <ele>88.58</ele>
        <time>2016-07-16T04:19:35Z</time>
      </trkpt>
      <trkpt lat="50.1357" lon="3.01102">
        <ele>91.94</ele>
        <time>2016-07-16T04:19:43Z</time>
      </trkpt>
      <trkpt lat="50.13549" lon="3.01004">
        <ele>93.87</ele>
        <time>2016-07-16T04:19:46Z</time>
      </trkpt>
      <trkpt lat="50.13428" lon="3.00424">
        <ele>97.23</ele>
        <time>2016-07-16T04:20:03Z</time>
      </trkpt>
      <trkpt lat="50.13308" lon="2.99844">
        <ele>100.11</ele>
        <time>2016-07-16T04:20:20Z</time>
      </trkpt>
      <trkpt lat="50.13238" lon="2.99506">
        <ele>103.96</ele>
        <time>2016-07-16T04:20:30Z</time>
      </trkpt>
      <trkpt lat="50.13217" lon="2.99403">
        <ele>105.4</ele>
        <time>2016-07-16T04:20:33Z</time>
      </trkpt>
      <trkpt lat="50.1316" lon="2.99131">
        <ele>108.77</ele>
        <time>2016-07-16T04:20:41Z</time>
      </trkpt>
      <trkpt lat="50.13103" lon="2.98859">
        <ele>112.13</ele>
        <time>2016-07-16T04:20:49Z</time>
      </trkpt>
      <trkpt lat="50.13004" lon="2.98382">
        <ele>115.01</ele>
        <time>2016-07-16T04:21:03Z</time>
      </trkpt>
      <trkpt lat="50.12825" lon="2.97528">
        <ele>111.65</ele>
        <time>2016-07-16T04:21:28Z</time>
      </trkpt>
      <trkpt lat="50.1279" lon="2.97361">
        <ele>113.09</ele>
        <time>2016-07-16T04:21:33Z</time>
      </trkpt>
      <trkpt lat="50.12755" lon="2.9719">
        <ele>116.46</ele>
        <time>2016-07-16T04:21:38Z</time>
      </trkpt>
      <trkpt lat="50.12648" lon="2.96678">
        <ele>119.82</ele>
        <time>2016-07-16T04:21:53Z</time>
      </trkpt>
      <trkpt lat="50.12477" lon="2.95859">
        <ele>119.34</ele>
        <time>2016-07-16T04:22:17Z</time>
      </trkpt>
      <trkpt lat="50.12329" lon="2.95141">
        <ele>115.5</ele>
        <time>2016-07-16T04:22:38Z</time>
      </trkpt>
      <trkpt lat="50.12322" lon="2.95106">
        <ele>115.5</ele>
        <time>2016-07-16T04:22:39Z</time>
      </trkpt>
      <trkpt lat="50.12301" lon="2.95005">
        <ele>114.05</ele>
        <time>2016-07-16T04:22:42Z</time>
      </trkpt>
      <trkpt lat="50.12218" lon="2.94596">
        <ele>116.94</ele>
        <time>2016-07-16T04:22:54Z</time>
      </trkpt>
      <trkpt lat="50.12143" lon="2.94217">
        <ele>118.38</ele>
        <time>2016-07-16T04:23:06Z</time>
      </trkpt>
      <trkpt lat="50.12121" lon="2.94099">
        <ele>115.01</ele>
        <time>2016-07-16T04:23:11Z</time>
      </trkpt>
      <trkpt lat="50.12088" lon="2.93942">
        <ele>111.17</ele>
        <time>2016-07-16T04:23:19Z</time>
      </trkpt>
      <trkpt lat="50.11995" lon="2.93531">
        <ele>111.17</ele>
        <time>2016-07-16T04:23:41Z</time>
      </trkpt>
      <trkpt lat="50.11949" lon="2.93299">
        <ele>107.81</ele>
        <time>2016-07-16T04:23:53Z</time>
      </trkpt>
      <trkpt lat="50.11901" lon="2.93001">
        <ele>105.88</ele>
        <time>2016-07-16T04:24:09Z</time>
      </trkpt>
      <trkpt lat="50.11873" lon="2.92857">
        <ele>107.32</ele>
        <time>2016-07-16T04:24:16Z</time>
      </trkpt>
      <trkpt lat="50.11823" lon="2.92621">
        <ele>109.25</ele>
        <time>2016-07-16T04:24:25Z</time>
      </trkpt>
      <trkpt lat="50.11796" lon="2.92491">
        <ele>112.61</ele>
        <time>2016-07-16T04:24:29Z</time>
      </trkpt>
      <trkpt lat="50.11761" lon="2.92325">
        <ele>115.5</ele>
        <time>2016-07-16T04:24:34Z</time>
      </trkpt>
      <trkpt lat="50.11649" lon="2.91775">
        <ele>117.9</ele>
        <time>2016-07-16T04:24:50Z</time>
      </trkpt>
      <trkpt lat="50.11545" lon="2.91261">
        <ele>115.01</ele>
        <time>2016-07-16T04:25:05Z</time>
      </trkpt>
      <trkpt lat="50.1153" lon="2.91189">
        <ele>114.05</ele>
        <time>2016-07-16T04:25:07Z</time>
      </trkpt>
      <trkpt lat="50.11468" lon="2.90887">
        <ele>114.53</ele>
        <time>2016-07-16T04:25:16Z</time>
      </trkpt>
      <trkpt lat="50.11426" lon="2.90682">
        <ele>118.38</ele>
        <time>2016-07-16T04:25:22Z</time>
      </trkpt>
      <trkpt lat="50.11419" lon="2.90646">
        <ele>118.38</ele>
        <time>2016-07-16T04:25:23Z</time>
      </trkpt>
      <trkpt lat="50.11307" lon="2.90099">
        <ele>114.05</ele>
        <time>2016-07-16T04:25:39Z</time>
      </trkpt>
      <trkpt lat="50.11287" lon="2.90001">
        <ele>110.21</ele>
        <time>2016-07-16T04:25:42Z</time>
      </trkpt>
      <trkpt lat="50.11265" lon="2.89883">
        <ele>107.32</ele>
        <time>2016-07-16T04:25:46Z</time>
      </trkpt>
      <trkpt lat="50.11254" lon="2.8983">
        <ele>106.84</ele>
        <time>2016-07-16T04:25:48Z</time>
      </trkpt>
      <trkpt lat="50.11186" lon="2.89512">
        <ele>104.92</ele>
        <time>2016-07-16T04:26:00Z</time>
      </trkpt>
      <trkpt lat="50.11151" lon="2.89347">
        <ele>106.36</ele>
        <time>2016-07-16T04:26:05Z</time>
      </trkpt>
      <trkpt lat="50.11107" lon="2.89144">
        <ele>109.25</ele>
        <time>2016-07-16T04:26:11Z</time>
      </trkpt>
      <trkpt lat="50.11056" lon="2.88906">
        <ele>112.61</ele>
        <time>2016-07-16T04:26:18Z</time>
      </trkpt>
      <trkpt lat="50.11005" lon="2.88669">
        <ele>115.98</ele>
        <time>2016-07-16T04:26:25Z</time>
      </trkpt>
      <trkpt lat="50.10928" lon="2.88295">
        <ele>119.34</ele>
        <time>2016-07-16T04:26:36Z</time>
      </trkpt>
      <trkpt lat="50.10776" lon="2.87568">
        <ele>122.22</ele>
        <time>2016-07-16T04:26:58Z</time>
      </trkpt>
      <trkpt lat="50.10721" lon="2.8731">
        <ele>120.78</ele>
        <time>2016-07-16T04:27:07Z</time>
      </trkpt>
      <trkpt lat="50.10655" lon="2.86996">
        <ele>118.38</ele>
        <time>2016-07-16T04:27:20Z</time>
      </trkpt>
      <trkpt lat="50.10607" lon="2.86768">
        <ele>117.9</ele>
        <time>2016-07-16T04:27:32Z</time>
      </trkpt>
      <trkpt lat="50.10602" lon="2.86731">
        <ele>117.9</ele>
        <time>2016-07-16T04:27:35Z</time>
      </trkpt>
      <trkpt lat="50.10604" lon="2.8672">
        <ele>117.9</ele>
        <time>2016-07-16T04:27:36Z</time>
      </trkpt>
      <trkpt lat="50.10607" lon="2.8671">
        <ele>117.9</ele>
        <time>2016-07-16T04:27:37Z</time>
      </trkpt>
      <trkpt lat="50.10611" lon="2.86699">
        <ele>117.9</ele>
        <time>2016-07-16T04:27:38Z</time>
      </trkpt>
      <trkpt lat="50.10616" lon="2.86689">
        <ele>117.9</ele>
        <time>2016-07-16T04:27:39Z</time>
      </trkpt>
      <trkpt lat="50.1062" lon="2.86678">
        <ele>117.9</ele>
        <time>2016-07-16T04:27:40Z</time>
      </trkpt>
      <trkpt lat="50.10624" lon="2.86665">
        <ele>117.9</ele>
        <time>2016-07-16T04:27:41Z</time>
      </trkpt>
      <trkpt lat="50.10628" lon="2.86654">
        <ele>117.9</ele>
        <time>2016-07-16T04:27:42Z</time>
      </trkpt>
      <trkpt lat="50.10634" lon="2.86644">
        <ele>117.9</ele>
        <time>2016-07-16T04:27:43Z</time>
      </trkpt>
      <trkpt lat="50.10642" lon="2.86634">
        <ele>117.9</ele>
        <time>2016-07-16T04:27:44Z</time>
      </trkpt>
      <trkpt lat="50.10652" lon="2.86626">
        <ele>117.9</ele>
        <time>2016-07-16T04:27:45Z</time>
      </trkpt>
      <trkpt lat="50.10663" lon="2.86618">
        <ele>117.9</ele>
        <time>2016-07-16T04:27:46Z</time>
      </trkpt>
      <trkpt lat="50.10763" lon="2.86543">
        <ele>115.01</ele>
        <time>2016-07-16T04:27:53Z</time>
      </trkpt>
      <trkpt lat="50.10903" lon="2.86398">
        <ele>114.53</ele>
        <time>2016-07-16T04:28:04Z</time>
      </trkpt>
      <trkpt lat="50.10956" lon="2.86326">
        <ele>116.94</ele>
        <time>2016-07-16T04:28:09Z</time>
      </trkpt>
      <trkpt lat="50.1103" lon="2.86208">
        <ele>120.78</ele>
        <time>2016-07-16T04:28:17Z</time>
      </trkpt>
      <trkpt lat="50.11135" lon="2.86036">
        <ele>121.74</ele>
        <time>2016-07-16T04:28:30Z</time>
      </trkpt>
      <trkpt lat="50.11158" lon="2.86008">
        <ele>121.74</ele>
        <time>2016-07-16T04:28:34Z</time>
      </trkpt>
      <trkpt lat="50.11163" lon="2.86004">
        <ele>121.74</ele>
        <time>2016-07-16T04:28:35Z</time>
      </trkpt>
      <trkpt lat="50.11169" lon="2.86002">
        <ele>121.74</ele>
        <time>2016-07-16T04:28:36Z</time>
      </trkpt>
      <trkpt lat="50.11174" lon="2.86">
        <ele>121.74</ele>
        <time>2016-07-16T04:28:37Z</time>
      </trkpt>
      <trkpt lat="50.11179" lon="2.85997">
        <ele>121.26</ele>
        <time>2016-07-16T04:28:38Z</time>
      </trkpt>
      <trkpt lat="50.11183" lon="2.85994">
        <ele>121.26</ele>
        <time>2016-07-16T04:28:39Z</time>
      </trkpt>
      <trkpt lat="50.11187" lon="2.8599">
        <ele>121.26</ele>
        <time>2016-07-16T04:28:40Z</time>
      </trkpt>
      <trkpt lat="50.11189" lon="2.85985">
        <ele>121.74</ele>
        <time>2016-07-16T04:28:41Z</time>
      </trkpt>
      <trkpt lat="50.11191" lon="2.8598">
        <ele>121.74</ele>
        <time>2016-07-16T04:28:42Z</time>
      </trkpt>
      <trkpt lat="50.11192" lon="2.85975">
        <ele>121.74</ele>
        <time>2016-07-16T04:28:43Z</time>
      </trkpt>
      <trkpt lat="50.11192" lon="2.85969">
        <ele>121.74</ele>
        <time>2016-07-16T04:28:44Z</time>
      </trkpt>
      <trkpt lat="50.11191" lon="2.85963">
        <ele>121.74</ele>
        <time>2016-07-16T04:28:45Z</time>
      </trkpt>
      <trkpt lat="50.1119" lon="2.85956">
        <ele>121.74</ele>
        <time>2016-07-16T04:28:46Z</time>
      </trkpt>
      <trkpt lat="50.11188" lon="2.85949">
        <ele>121.74</ele>
        <time>2016-07-16T04:28:47Z</time>
      </trkpt>
      <trkpt lat="50.11184" lon="2.85931">
        <ele>121.74</ele>
        <time>2016-07-16T04:28:49Z</time>
      </trkpt>
      <trkpt lat="50.11183" lon="2.85922">
        <ele>121.74</ele>
        <time>2016-07-16T04:28:50Z</time>
      </trkpt>
      <trkpt lat="50.11183" lon="2.85911">
        <ele>121.74</ele>
        <time>2016-07-16T04:28:51Z</time>
      </trkpt>
      <trkpt lat="50.11183" lon="2.859">
        <ele>121.74</ele>
        <time>2016-07-16T04:28:52Z</time>
      </trkpt>
      <trkpt lat="50.11185" lon="2.85888">
        <ele>121.74</ele>
        <time>2016-07-16T04:28:53Z</time>
      </trkpt>
      <trkpt lat="50.11187" lon="2.85877">
        <ele>120.3</ele>
        <time>2016-07-16T04:28:54Z</time>
      </trkpt>
      <trkpt lat="50.11189" lon="2.85866">
        <ele>120.3</ele>
        <time>2016-07-16T04:28:55Z</time>
      </trkpt>
      <trkpt lat="50.11231" lon="2.85722">
        <ele>118.38</ele>
        <time>2016-07-16T04:29:05Z</time>
      </trkpt>
      <trkpt lat="50.11332" lon="2.85484">
        <ele>119.34</ele>
        <time>2016-07-16T04:29:18Z</time>
      </trkpt>
      <trkpt lat="50.1134" lon="2.85464">
        <ele>119.82</ele>
        <time>2016-07-16T04:29:19Z</time>
      </trkpt>
      <trkpt lat="50.11406" lon="2.85298">
        <ele>123.67</ele>
        <time>2016-07-16T04:29:26Z</time>
      </trkpt>
      <trkpt lat="50.11418" lon="2.85269">
        <ele>123.67</ele>
        <time>2016-07-16T04:29:27Z</time>
      </trkpt>
      <trkpt lat="50.11451" lon="2.85183">
        <ele>121.26</ele>
        <time>2016-07-16T04:29:30Z</time>
      </trkpt>
      <trkpt lat="50.11504" lon="2.8495">
        <ele>121.26</ele>
        <time>2016-07-16T04:29:37Z</time>
      </trkpt>
      <trkpt lat="50.11518" lon="2.84746">
        <ele>124.15</ele>
        <time>2016-07-16T04:29:44Z</time>
      </trkpt>
      <trkpt lat="50.11517" lon="2.84628">
        <ele>124.15</ele>
        <time>2016-07-16T04:29:51Z</time>
      </trkpt>
      <trkpt lat="50.11519" lon="2.84616">
        <ele>124.15</ele>
        <time>2016-07-16T04:29:52Z</time>
      </trkpt>
      <trkpt lat="50.11521" lon="2.84606">
        <ele>124.15</ele>
        <time>2016-07-16T04:29:53Z</time>
      </trkpt>
      <trkpt lat="50.11526" lon="2.84585">
        <ele>123.67</ele>
        <time>2016-07-16T04:29:55Z</time>
      </trkpt>
      <trkpt lat="50.11526" lon="2.84576">
        <ele>124.63</ele>
        <time>2016-07-16T04:29:56Z</time>
      </trkpt>
      <trkpt lat="50.11524" lon="2.84565">
        <ele>124.63</ele>
        <time>2016-07-16T04:29:57Z</time>
      </trkpt>
      <trkpt lat="50.11521" lon="2.84552">
        <ele>124.63</ele>
        <time>2016-07-16T04:29:58Z</time>
      </trkpt>
      <trkpt lat="50.11518" lon="2.84539">
        <ele>124.63</ele>
        <time>2016-07-16T04:29:59Z</time>
      </trkpt>
      <trkpt lat="50.11515" lon="2.84525">
        <ele>124.63</ele>
        <time>2016-07-16T04:30:00Z</time>
      </trkpt>
      <trkpt lat="50.11514" lon="2.84508">
        <ele>125.11</ele>
        <time>2016-07-16T04:30:01Z</time>
      </trkpt>
      <trkpt lat="50.11514" lon="2.84488">
        <ele>125.11</ele>
        <time>2016-07-16T04:30:02Z</time>
      </trkpt>
      <trkpt lat="50.11514" lon="2.84469">
        <ele>125.11</ele>
        <time>2016-07-16T04:30:03Z</time>
      </trkpt>
      <trkpt lat="50.11523" lon="2.84278">
        <ele>125.11</ele>
        <time>2016-07-16T04:30:10Z</time>
      </trkpt>
      <trkpt lat="50.11527" lon="2.84182">
        <ele>121.74</ele>
        <time>2016-07-16T04:30:13Z</time>
      </trkpt>
      <trkpt lat="50.11529" lon="2.84007">
        <ele>117.9</ele>
        <time>2016-07-16T04:30:18Z</time>
      </trkpt>
      <trkpt lat="50.11524" lon="2.83931">
        <ele>114.53</ele>
        <time>2016-07-16T04:30:20Z</time>
      </trkpt>
      <trkpt lat="50.11502" lon="2.83785">
        <ele>111.17</ele>
        <time>2016-07-16T04:30:24Z</time>
      </trkpt>
      <trkpt lat="50.11431" lon="2.83561">
        <ele>109.25</ele>
        <time>2016-07-16T04:30:31Z</time>
      </trkpt>
      <trkpt lat="50.11318" lon="2.83383">
        <ele>111.17</ele>
        <time>2016-07-16T04:30:38Z</time>
      </trkpt>
      <trkpt lat="50.1113" lon="2.83196">
        <ele>111.65</ele>
        <time>2016-07-16T04:30:48Z</time>
      </trkpt>
      <trkpt lat="50.1096" lon="2.83028">
        <ele>111.65</ele>
        <time>2016-07-16T04:30:59Z</time>
      </trkpt>
      <trkpt lat="50.1091" lon="2.82969">
        <ele>111.65</ele>
        <time>2016-07-16T04:31:05Z</time>
      </trkpt>
      <trkpt lat="50.10906" lon="2.82959">
        <ele>111.65</ele>
        <time>2016-07-16T04:31:06Z</time>
      </trkpt>
      <trkpt lat="50.10903" lon="2.82948">
        <ele>111.65</ele>
        <time>2016-07-16T04:31:07Z</time>
      </trkpt>
      <trkpt lat="50.10898" lon="2.82931">
        <ele>111.65</ele>
        <time>2016-07-16T04:31:09Z</time>
      </trkpt>
      <trkpt lat="50.10894" lon="2.82926">
        <ele>111.65</ele>
        <time>2016-07-16T04:31:10Z</time>
      </trkpt>
      <trkpt lat="50.1089" lon="2.82922">
        <ele>111.65</ele>
        <time>2016-07-16T04:31:11Z</time>
      </trkpt>
      <trkpt lat="50.10884" lon="2.82922">
        <ele>111.65</ele>
        <time>2016-07-16T04:31:12Z</time>
      </trkpt>
      <trkpt lat="50.10878" lon="2.82924">
        <ele>112.13</ele>
        <time>2016-07-16T04:31:13Z</time>
      </trkpt>
      <trkpt lat="50.10872" lon="2.82929">
        <ele>112.13</ele>
        <time>2016-07-16T04:31:14Z</time>
      </trkpt>
      <trkpt lat="50.10865" lon="2.82934">
        <ele>112.13</ele>
        <time>2016-07-16T04:31:15Z</time>
      </trkpt>
      <trkpt lat="50.10856" lon="2.82939">
        <ele>113.09</ele>
        <time>2016-07-16T04:31:16Z</time>
      </trkpt>
      <trkpt lat="50.10848" lon="2.82941">
        <ele>113.09</ele>
        <time>2016-07-16T04:31:17Z</time>
      </trkpt>
      <trkpt lat="50.10838" lon="2.82941">
        <ele>113.09</ele>
        <time>2016-07-16T04:31:18Z</time>
      </trkpt>
      <trkpt lat="50.10828" lon="2.82939">
        <ele>113.09</ele>
        <time>2016-07-16T04:31:19Z</time>
      </trkpt>
      <trkpt lat="50.10817" lon="2.82935">
        <ele>113.57</ele>
        <time>2016-07-16T04:31:20Z</time>
      </trkpt>
      <trkpt lat="50.10806" lon="2.82929">
        <ele>114.05</ele>
        <time>2016-07-16T04:31:21Z</time>
      </trkpt>
      <trkpt lat="50.10794" lon="2.82921">
        <ele>114.05</ele>
        <time>2016-07-16T04:31:22Z</time>
      </trkpt>
      <trkpt lat="50.10685" lon="2.82847">
        <ele>117.42</ele>
        <time>2016-07-16T04:31:29Z</time>
      </trkpt>
      <trkpt lat="50.10629" lon="2.82821">
        <ele>118.86</ele>
        <time>2016-07-16T04:31:32Z</time>
      </trkpt>
      <trkpt lat="50.10528" lon="2.828">
        <ele>122.22</ele>
        <time>2016-07-16T04:31:37Z</time>
      </trkpt>
      <trkpt lat="50.10401" lon="2.82821">
        <ele>125.59</ele>
        <time>2016-07-16T04:31:43Z</time>
      </trkpt>
      <trkpt lat="50.10252" lon="2.82921">
        <ele>127.03</ele>
        <time>2016-07-16T04:31:51Z</time>
      </trkpt>
      <trkpt lat="50.10143" lon="2.83071">
        <ele>124.15</ele>
        <time>2016-07-16T04:31:59Z</time>
      </trkpt>
      <trkpt lat="50.10077" lon="2.83185">
        <ele>120.78</ele>
        <time>2016-07-16T04:32:05Z</time>
      </trkpt>
      <trkpt lat="50.10033" lon="2.8325">
        <ele>118.38</ele>
        <time>2016-07-16T04:32:10Z</time>
      </trkpt>
      <trkpt lat="50.10025" lon="2.83257">
        <ele>117.9</ele>
        <time>2016-07-16T04:32:11Z</time>
      </trkpt>
      <trkpt lat="50.10017" lon="2.83262">
        <ele>117.42</ele>
        <time>2016-07-16T04:32:12Z</time>
      </trkpt>
      <trkpt lat="50.10008" lon="2.83264">
        <ele>117.42</ele>
        <time>2016-07-16T04:32:13Z</time>
      </trkpt>
      <trkpt lat="50.10001" lon="2.83263">
        <ele>117.42</ele>
        <time>2016-07-16T04:32:14Z</time>
      </trkpt>
      <trkpt lat="50.09991" lon="2.8326">
        <ele>117.42</ele>
        <time>2016-07-16T04:32:15Z</time>
      </trkpt>
      <trkpt lat="50.09981" lon="2.83256">
        <ele>117.42</ele>
        <time>2016-07-16T04:32:16Z</time>
      </trkpt>
      <trkpt lat="50.09973" lon="2.83251">
        <ele>117.42</ele>
        <time>2016-07-16T04:32:17Z</time>
      </trkpt>
      <trkpt lat="50.09965" lon="2.83243">
        <ele>117.42</ele>
        <time>2016-07-16T04:32:18Z</time>
      </trkpt>
      <trkpt lat="50.09956" lon="2.83231">
        <ele>118.86</ele>
        <time>2016-07-16T04:32:19Z</time>
      </trkpt>
      <trkpt lat="50.09947" lon="2.83217">
        <ele>118.86</ele>
        <time>2016-07-16T04:32:20Z</time>
      </trkpt>
      <trkpt lat="50.09938" lon="2.83201">
        <ele>119.82</ele>
        <time>2016-07-16T04:32:21Z</time>
      </trkpt>
      <trkpt lat="50.09919" lon="2.83165">
        <ele>123.19</ele>
        <time>2016-07-16T04:32:23Z</time>
      </trkpt>
      <trkpt lat="50.09908" lon="2.83145">
        <ele>123.19</ele>
        <time>2016-07-16T04:32:24Z</time>
      </trkpt>
      <trkpt lat="50.09872" lon="2.83078">
        <ele>126.07</ele>
        <time>2016-07-16T04:32:27Z</time>
      </trkpt>
      <trkpt lat="50.09803" lon="2.82953">
        <ele>129.92</ele>
        <time>2016-07-16T04:32:32Z</time>
      </trkpt>
      <trkpt lat="50.09728" lon="2.82819">
        <ele>132.8</ele>
        <time>2016-07-16T04:32:37Z</time>
      </trkpt>
      <trkpt lat="50.09556" lon="2.82515">
        <ele>133.28</ele>
        <time>2016-07-16T04:32:49Z</time>
      </trkpt>
      <trkpt lat="50.09502" lon="2.82422">
        <ele>129.92</ele>
        <time>2016-07-16T04:32:53Z</time>
      </trkpt>
      <trkpt lat="50.09488" lon="2.82398">
        <ele>129.92</ele>
        <time>2016-07-16T04:32:54Z</time>
      </trkpt>
      <trkpt lat="50.09423" lon="2.82285">
        <ele>126.55</ele>
        <time>2016-07-16T04:32:59Z</time>
      </trkpt>
      <trkpt lat="50.09316" lon="2.82095">
        <ele>123.19</ele>
        <time>2016-07-16T04:33:07Z</time>
      </trkpt>
      <trkpt lat="50.09222" lon="2.8193">
        <ele>121.26</ele>
        <time>2016-07-16T04:33:13Z</time>
      </trkpt>
      <trkpt lat="50.09009" lon="2.81551">
        <ele>117.9</ele>
        <time>2016-07-16T04:33:27Z</time>
      </trkpt>
      <trkpt lat="50.08934" lon="2.81417">
        <ele>113.57</ele>
        <time>2016-07-16T04:33:32Z</time>
      </trkpt>
      <trkpt lat="50.08872" lon="2.81308">
        <ele>110.21</ele>
        <time>2016-07-16T04:33:36Z</time>
      </trkpt>
      <trkpt lat="50.08812" lon="2.81201">
        <ele>106.84</ele>
        <time>2016-07-16T04:33:40Z</time>
      </trkpt>
      <trkpt lat="50.08797" lon="2.81174">
        <ele>106.84</ele>
        <time>2016-07-16T04:33:41Z</time>
      </trkpt>
      <trkpt lat="50.08663" lon="2.80931">
        <ele>108.29</ele>
        <time>2016-07-16T04:33:50Z</time>
      </trkpt>
      <trkpt lat="50.08573" lon="2.8077">
        <ele>111.65</ele>
        <time>2016-07-16T04:33:56Z</time>
      </trkpt>
      <trkpt lat="50.08486" lon="2.80618">
        <ele>108.29</ele>
        <time>2016-07-16T04:34:02Z</time>
      </trkpt>
      <trkpt lat="50.08403" lon="2.80468">
        <ele>104.92</ele>
        <time>2016-07-16T04:34:09Z</time>
      </trkpt>
      <trkpt lat="50.08345" lon="2.80365">
        <ele>103.48</ele>
        <time>2016-07-16T04:34:14Z</time>
      </trkpt>
      <trkpt lat="50.08312" lon="2.80306">
        <ele>101.56</ele>
        <time>2016-07-16T04:34:17Z</time>
      </trkpt>
      <trkpt lat="50.08207" lon="2.80119">
        <ele>98.67</ele>
        <time>2016-07-16T04:34:27Z</time>
      </trkpt>
      <trkpt lat="50.08076" lon="2.79886">
        <ele>98.19</ele>
        <time>2016-07-16T04:34:39Z</time>
      </trkpt>
      <trkpt lat="50.07968" lon="2.79691">
        <ele>101.56</ele>
        <time>2016-07-16T04:34:47Z</time>
      </trkpt>
      <trkpt lat="50.0774" lon="2.79285">
        <ele>103.48</ele>
        <time>2016-07-16T04:35:02Z</time>
      </trkpt>
      <trkpt lat="50.07488" lon="2.78839">
        <ele>104.44</ele>
        <time>2016-07-16T04:35:19Z</time>
      </trkpt>
      <trkpt lat="50.07389" lon="2.78664">
        <ele>106.36</ele>
        <time>2016-07-16T04:35:28Z</time>
      </trkpt>
      <trkpt lat="50.07322" lon="2.78546">
        <ele>109.73</ele>
        <time>2016-07-16T04:35:36Z</time>
      </trkpt>
      <trkpt lat="50.07273" lon="2.78459">
        <ele>113.09</ele>
        <time>2016-07-16T04:35:42Z</time>
      </trkpt>
      <trkpt lat="50.072" lon="2.78336">
        <ele>116.46</ele>
        <time>2016-07-16T04:35:50Z</time>
      </trkpt>
      <trkpt lat="50.07071" lon="2.78116">
        <ele>119.34</ele>
        <time>2016-07-16T04:36:05Z</time>
      </trkpt>
      <trkpt lat="50.06928" lon="2.77873">
        <ele>118.86</ele>
        <time>2016-07-16T04:36:22Z</time>
      </trkpt>
      <trkpt lat="50.06821" lon="2.77689">
        <ele>120.3</ele>
        <time>2016-07-16T04:36:32Z</time>
      </trkpt>
      <trkpt lat="50.06704" lon="2.77489">
        <ele>121.26</ele>
        <time>2016-07-16T04:36:40Z</time>
      </trkpt>
      <trkpt lat="50.0647" lon="2.77088">
        <ele>122.71</ele>
        <time>2016-07-16T04:36:55Z</time>
      </trkpt>
      <trkpt lat="50.06256" lon="2.76717">
        <ele>125.59</ele>
        <time>2016-07-16T04:37:09Z</time>
      </trkpt>
      <trkpt lat="50.0607" lon="2.76399">
        <ele>128.95</ele>
        <time>2016-07-16T04:37:21Z</time>
      </trkpt>
      <trkpt lat="50.05963" lon="2.76214">
        <ele>132.32</ele>
        <time>2016-07-16T04:37:28Z</time>
      </trkpt>
      <trkpt lat="50.0587" lon="2.76054">
        <ele>135.68</ele>
        <time>2016-07-16T04:37:34Z</time>
      </trkpt>
      <trkpt lat="50.05855" lon="2.76028">
        <ele>135.68</ele>
        <time>2016-07-16T04:37:35Z</time>
      </trkpt>
      <trkpt lat="50.05763" lon="2.75868">
        <ele>139.05</ele>
        <time>2016-07-16T04:37:41Z</time>
      </trkpt>
      <trkpt lat="50.05644" lon="2.75664">
        <ele>142.41</ele>
        <time>2016-07-16T04:37:49Z</time>
      </trkpt>
      <trkpt lat="50.05511" lon="2.75437">
        <ele>144.34</ele>
        <time>2016-07-16T04:38:00Z</time>
      </trkpt>
      <trkpt lat="50.05329" lon="2.75123">
        <ele>147.22</ele>
        <time>2016-07-16T04:38:16Z</time>
      </trkpt>
      <trkpt lat="50.05265" lon="2.75012">
        <ele>150.58</ele>
        <time>2016-07-16T04:38:21Z</time>
      </trkpt>
      <trkpt lat="50.05236" lon="2.7496">
        <ele>151.06</ele>
        <time>2016-07-16T04:38:23Z</time>
      </trkpt>
      <trkpt lat="50.05005" lon="2.74562">
        <ele>152.51</ele>
        <time>2016-07-16T04:38:38Z</time>
      </trkpt>
      <trkpt lat="50.04758" lon="2.74136">
        <ele>155.87</ele>
        <time>2016-07-16T04:38:54Z</time>
      </trkpt>
      <trkpt lat="50.04541" lon="2.73753">
        <ele>158.75</ele>
        <time>2016-07-16T04:39:09Z</time>
      </trkpt>
      <trkpt lat="50.04422" lon="2.73531">
        <ele>158.75</ele>
        <time>2016-07-16T04:39:20Z</time>
      </trkpt>
      <trkpt lat="50.04371" lon="2.73437">
        <ele>157.79</ele>
        <time>2016-07-16T04:39:25Z</time>
      </trkpt>
      <trkpt lat="50.0427" lon="2.73249">
        <ele>153.95</ele>
        <time>2016-07-16T04:39:36Z</time>
      </trkpt>
      <trkpt lat="50.0418" lon="2.73085">
        <ele>150.58</ele>
        <time>2016-07-16T04:39:47Z</time>
      </trkpt>
      <trkpt lat="50.04041" lon="2.72829">
        <ele>148.18</ele>
        <time>2016-07-16T04:40:05Z</time>
      </trkpt>
      <trkpt lat="50.03935" lon="2.72632">
        <ele>144.82</ele>
        <time>2016-07-16T04:40:19Z</time>
      </trkpt>
      <trkpt lat="50.03811" lon="2.72397">
        <ele>144.82</ele>
        <time>2016-07-16T04:40:35Z</time>
      </trkpt>
      <trkpt lat="50.03791" lon="2.72361">
        <ele>145.78</ele>
        <time>2016-07-16T04:40:37Z</time>
      </trkpt>
      <trkpt lat="50.03672" lon="2.72134">
        <ele>147.22</ele>
        <time>2016-07-16T04:40:48Z</time>
      </trkpt>
      <trkpt lat="50.03539" lon="2.71878">
        <ele>148.66</ele>
        <time>2016-07-16T04:40:58Z</time>
      </trkpt>
      <trkpt lat="50.03465" lon="2.71738">
        <ele>146.74</ele>
        <time>2016-07-16T04:41:03Z</time>
      </trkpt>
      <trkpt lat="50.03305" lon="2.71434">
        <ele>143.85</ele>
        <time>2016-07-16T04:41:14Z</time>
      </trkpt>
      <trkpt lat="50.03173" lon="2.71185">
        <ele>140.49</ele>
        <time>2016-07-16T04:41:23Z</time>
      </trkpt>
      <trkpt lat="50.03084" lon="2.71019">
        <ele>137.13</ele>
        <time>2016-07-16T04:41:29Z</time>
      </trkpt>
      <trkpt lat="50.02819" lon="2.70522">
        <ele>134.24</ele>
        <time>2016-07-16T04:41:47Z</time>
      </trkpt>
      <trkpt lat="50.02717" lon="2.7033">
        <ele>130.4</ele>
        <time>2016-07-16T04:41:54Z</time>
      </trkpt>
      <trkpt lat="50.02658" lon="2.7022">
        <ele>127.51</ele>
        <time>2016-07-16T04:41:58Z</time>
      </trkpt>
      <trkpt lat="50.02583" lon="2.70082">
        <ele>124.15</ele>
        <time>2016-07-16T04:42:03Z</time>
      </trkpt>
      <trkpt lat="50.0233" lon="2.69605">
        <ele>120.3</ele>
        <time>2016-07-16T04:42:21Z</time>
      </trkpt>
      <trkpt lat="50.02291" lon="2.69532">
        <ele>117.42</ele>
        <time>2016-07-16T04:42:25Z</time>
      </trkpt>
      <trkpt lat="50.02263" lon="2.69479">
        <ele>115.98</ele>
        <time>2016-07-16T04:42:28Z</time>
      </trkpt>
      <trkpt lat="50.02224" lon="2.69404">
        <ele>113.09</ele>
        <time>2016-07-16T04:42:33Z</time>
      </trkpt>
      <trkpt lat="50.02178" lon="2.69315">
        <ele>109.73</ele>
        <time>2016-07-16T04:42:39Z</time>
      </trkpt>
      <trkpt lat="50.0214" lon="2.69242">
        <ele>107.32</ele>
        <time>2016-07-16T04:42:44Z</time>
      </trkpt>
      <trkpt lat="50.0211" lon="2.69182">
        <ele>105.88</ele>
        <time>2016-07-16T04:42:48Z</time>
      </trkpt>
      <trkpt lat="50.02063" lon="2.69094">
        <ele>102.52</ele>
        <time>2016-07-16T04:42:54Z</time>
      </trkpt>
      <trkpt lat="50.01991" lon="2.68959">
        <ele>98.67</ele>
        <time>2016-07-16T04:43:02Z</time>
      </trkpt>
      <trkpt lat="50.01939" lon="2.68861">
        <ele>95.79</ele>
        <time>2016-07-16T04:43:07Z</time>
      </trkpt>
      <trkpt lat="50.01929" lon="2.6884">
        <ele>95.79</ele>
        <time>2016-07-16T04:43:08Z</time>
      </trkpt>
      <trkpt lat="50.01827" lon="2.68644">
        <ele>94.35</ele>
        <time>2016-07-16T04:43:16Z</time>
      </trkpt>
      <trkpt lat="50.01727" lon="2.68452">
        <ele>97.71</ele>
        <time>2016-07-16T04:43:23Z</time>
      </trkpt>
      <trkpt lat="50.01667" lon="2.6834">
        <ele>101.56</ele>
        <time>2016-07-16T04:43:27Z</time>
      </trkpt>
      <trkpt lat="50.01622" lon="2.68256">
        <ele>105.4</ele>
        <time>2016-07-16T04:43:30Z</time>
      </trkpt>
      <trkpt lat="50.01577" lon="2.68172">
        <ele>108.77</ele>
        <time>2016-07-16T04:43:33Z</time>
      </trkpt>
      <trkpt lat="50.01359" lon="2.67728">
        <ele>105.88</ele>
        <time>2016-07-16T04:43:49Z</time>
      </trkpt>
      <trkpt lat="50.01346" lon="2.67701">
        <ele>105.4</ele>
        <time>2016-07-16T04:43:50Z</time>
      </trkpt>
      <trkpt lat="50.01297" lon="2.676">
        <ele>102.04</ele>
        <time>2016-07-16T04:43:54Z</time>
      </trkpt>
      <trkpt lat="50.01232" lon="2.67467">
        <ele>98.19</ele>
        <time>2016-07-16T04:44:00Z</time>
      </trkpt>
      <trkpt lat="50.01174" lon="2.67349">
        <ele>94.83</ele>
        <time>2016-07-16T04:44:06Z</time>
      </trkpt>
      <trkpt lat="50.01165" lon="2.67332">
        <ele>94.83</ele>
        <time>2016-07-16T04:44:07Z</time>
      </trkpt>
      <trkpt lat="50.01098" lon="2.67213">
        <ele>91.46</ele>
        <time>2016-07-16T04:44:14Z</time>
      </trkpt>
      <trkpt lat="50.01039" lon="2.67142">
        <ele>88.58</ele>
        <time>2016-07-16T04:44:20Z</time>
      </trkpt>
      <trkpt lat="50.01007" lon="2.67103">
        <ele>87.62</ele>
        <time>2016-07-16T04:44:24Z</time>
      </trkpt>
      <trkpt lat="50.01001" lon="2.67091">
        <ele>87.62</ele>
        <time>2016-07-16T04:44:25Z</time>
      </trkpt>
      <trkpt lat="50.00978" lon="2.67031">
        <ele>87.14</ele>
        <time>2016-07-16T04:44:30Z</time>
      </trkpt>
      <trkpt lat="50.00975" lon="2.67016">
        <ele>87.14</ele>
        <time>2016-07-16T04:44:31Z</time>
      </trkpt>
      <trkpt lat="50.00974" lon="2.67">
        <ele>86.18</ele>
        <time>2016-07-16T04:44:32Z</time>
      </trkpt>
      <trkpt lat="50.00973" lon="2.66965">
        <ele>85.69</ele>
        <time>2016-07-16T04:44:34Z</time>
      </trkpt>
      <trkpt lat="50.0097" lon="2.66948">
        <ele>85.21</ele>
        <time>2016-07-16T04:44:35Z</time>
      </trkpt>
      <trkpt lat="50.00967" lon="2.66932">
        <ele>84.25</ele>
        <time>2016-07-16T04:44:36Z</time>
      </trkpt>
      <trkpt lat="50.00961" lon="2.66915">
        <ele>83.77</ele>
        <time>2016-07-16T04:44:37Z</time>
      </trkpt>
      <trkpt lat="50.00955" lon="2.669">
        <ele>83.77</ele>
        <time>2016-07-16T04:44:38Z</time>
      </trkpt>
      <trkpt lat="50.00948" lon="2.66884">
        <ele>82.81</ele>
        <time>2016-07-16T04:44:39Z</time>
      </trkpt>
      <trkpt lat="50.00931" lon="2.66843">
        <ele>81.37</ele>
        <time>2016-07-16T04:44:42Z</time>
      </trkpt>
      <trkpt lat="50.00889" lon="2.66747">
        <ele>78.48</ele>
        <time>2016-07-16T04:44:49Z</time>
      </trkpt>
      <trkpt lat="50.00833" lon="2.66625">
        <ele>75.12</ele>
        <time>2016-07-16T04:44:57Z</time>
      </trkpt>
      <trkpt lat="50.0076" lon="2.66465">
        <ele>71.76</ele>
        <time>2016-07-16T04:45:07Z</time>
      </trkpt>
      <trkpt lat="50.00672" lon="2.66271">
        <ele>68.87</ele>
        <time>2016-07-16T04:45:19Z</time>
      </trkpt>
      <trkpt lat="50.00537" lon="2.65975">
        <ele>66.47</ele>
        <time>2016-07-16T04:45:38Z</time>
      </trkpt>
      <trkpt lat="50.00441" lon="2.65738">
        <ele>65.99</ele>
        <time>2016-07-16T04:45:53Z</time>
      </trkpt>
      <trkpt lat="50.00372" lon="2.65474">
        <ele>65.99</ele>
        <time>2016-07-16T04:46:08Z</time>
      </trkpt>
      <trkpt lat="50.00306" lon="2.6523">
        <ele>65.99</ele>
        <time>2016-07-16T04:46:23Z</time>
      </trkpt>
      <trkpt lat="50.00304" lon="2.65217">
        <ele>65.99</ele>
        <time>2016-07-16T04:46:24Z</time>
      </trkpt>
      <trkpt lat="50.00304" lon="2.65205">
        <ele>65.99</ele>
        <time>2016-07-16T04:46:25Z</time>
      </trkpt>
      <trkpt lat="50.00305" lon="2.65194">
        <ele>65.99</ele>
        <time>2016-07-16T04:46:26Z</time>
      </trkpt>
      <trkpt lat="50.00306" lon="2.65184">
        <ele>65.99</ele>
        <time>2016-07-16T04:46:27Z</time>
      </trkpt>
      <trkpt lat="50.00308" lon="2.65175">
        <ele>65.99</ele>
        <time>2016-07-16T04:46:28Z</time>
      </trkpt>
      <trkpt lat="50.0031" lon="2.65168">
        <ele>65.99</ele>
        <time>2016-07-16T04:46:29Z</time>
      </trkpt>
      <trkpt lat="50.00337" lon="2.65027">
        <ele>65.51</ele>
        <time>2016-07-16T04:46:45Z</time>
      </trkpt>
      <trkpt lat="50.00355" lon="2.6492">
        <ele>64.07</ele>
        <time>2016-07-16T04:46:55Z</time>
      </trkpt>
      <trkpt lat="50.00363" lon="2.64824">
        <ele>62.62</ele>
        <time>2016-07-16T04:47:04Z</time>
      </trkpt>
      <trkpt lat="50.00365" lon="2.64815">
        <ele>62.62</ele>
        <time>2016-07-16T04:47:05Z</time>
      </trkpt>
      <trkpt lat="50.00389" lon="2.64709">
        <ele>61.66</ele>
        <time>2016-07-16T04:47:18Z</time>
      </trkpt>
      <trkpt lat="50.00392" lon="2.64703">
        <ele>61.66</ele>
        <time>2016-07-16T04:47:19Z</time>
      </trkpt>
      <trkpt lat="50.00423" lon="2.64658">
        <ele>61.66</ele>
        <time>2016-07-16T04:47:26Z</time>
      </trkpt>
      <trkpt lat="50.00426" lon="2.64654">
        <ele>61.66</ele>
        <time>2016-07-16T04:47:27Z</time>
      </trkpt>
      <trkpt lat="50.00427" lon="2.6465">
        <ele>61.66</ele>
        <time>2016-07-16T04:47:28Z</time>
      </trkpt>
      <trkpt lat="50.00427" lon="2.64646">
        <ele>61.66</ele>
        <time>2016-07-16T04:47:29Z</time>
      </trkpt>
      <trkpt lat="50.00426" lon="2.64642">
        <ele>61.66</ele>
        <time>2016-07-16T04:47:30Z</time>
      </trkpt>
      <trkpt lat="50.00424" lon="2.64639">
        <ele>61.66</ele>
        <time>2016-07-16T04:47:31Z</time>
      </trkpt>
      <trkpt lat="50.00422" lon="2.64638">
        <ele>61.18</ele>
        <time>2016-07-16T04:47:32Z</time>
      </trkpt>
      <trkpt lat="50.00418" lon="2.64633">
        <ele>61.18</ele>
        <time>2016-07-16T04:47:38Z</time>
      </trkpt>
      <trkpt lat="50.00415" lon="2.64631">
        <ele>61.18</ele>
        <time>2016-07-16T04:47:39Z</time>
      </trkpt>
      <trkpt lat="50.00413" lon="2.64629">
        <ele>61.18</ele>
        <time>2016-07-16T04:47:40Z</time>
      </trkpt>
      <trkpt lat="50.0037" lon="2.64584">
        <ele>60.7</ele>
        <time>2016-07-16T04:47:50Z</time>
      </trkpt>
      <trkpt lat="50.0035" lon="2.64564">
        <ele>61.18</ele>
        <time>2016-07-16T04:47:58Z</time>
      </trkpt>
      <trkpt lat="50.00289" lon="2.64479">
        <ele>59.74</ele>
        <time>2016-07-16T04:48:09Z</time>
      </trkpt>
      <trkpt lat="50.00261" lon="2.64431">
        <ele>56.86</ele>
        <time>2016-07-16T04:48:16Z</time>
      </trkpt>
      <trkpt lat="50.00254" lon="2.64418">
        <ele>56.37</ele>
        <time>2016-07-16T04:48:27Z</time>
      </trkpt>
      <trkpt lat="50.00254" lon="2.64418">
        <ele>56.37</ele>
        <time>2016-07-16T04:48:35Z</time>
      </trkpt>
      <trkpt lat="50.00253" lon="2.64415">
        <ele>56.37</ele>
        <time>2016-07-16T04:48:36Z</time>
      </trkpt>
      <trkpt lat="50.00224" lon="2.64361">
        <ele>56.37</ele>
        <time>2016-07-16T04:48:43Z</time>
      </trkpt>
      <trkpt lat="50.00138" lon="2.64207">
        <ele>56.37</ele>
        <time>2016-07-16T04:48:54Z</time>
      </trkpt>
      <trkpt lat="50.00003" lon="2.6396">
        <ele>60.22</ele>
        <time>2016-07-16T04:49:10Z</time>
      </trkpt>
      <trkpt lat="49.99967" lon="2.63892">
        <ele>64.07</ele>
        <time>2016-07-16T04:49:14Z</time>
      </trkpt>
      <trkpt lat="49.99932" lon="2.63824">
        <ele>67.91</ele>
        <time>2016-07-16T04:49:18Z</time>
      </trkpt>
      <trkpt lat="49.99907" lon="2.63769">
        <ele>69.83</ele>
        <time>2016-07-16T04:49:21Z</time>
      </trkpt>
      <trkpt lat="49.99859" lon="2.63653">
        <ele>68.87</ele>
        <time>2016-07-16T04:49:28Z</time>
      </trkpt>
      <trkpt lat="49.99829" lon="2.63565">
        <ele>65.03</ele>
        <time>2016-07-16T04:49:33Z</time>
      </trkpt>
      <trkpt lat="49.99794" lon="2.63454">
        <ele>61.66</ele>
        <time>2016-07-16T04:49:39Z</time>
      </trkpt>
      <trkpt lat="49.99758" lon="2.63342">
        <ele>58.78</ele>
        <time>2016-07-16T04:49:45Z</time>
      </trkpt>
      <trkpt lat="49.99724" lon="2.63232">
        <ele>55.41</ele>
        <time>2016-07-16T04:49:51Z</time>
      </trkpt>
      <trkpt lat="49.99699" lon="2.63143">
        <ele>53.49</ele>
        <time>2016-07-16T04:49:57Z</time>
      </trkpt>
      <trkpt lat="49.99698" lon="2.63131">
        <ele>53.49</ele>
        <time>2016-07-16T04:49:58Z</time>
      </trkpt>
      <trkpt lat="49.99697" lon="2.63119">
        <ele>53.49</ele>
        <time>2016-07-16T04:49:59Z</time>
      </trkpt>
      <trkpt lat="49.99697" lon="2.631">
        <ele>53.49</ele>
        <time>2016-07-16T04:50:01Z</time>
      </trkpt>
      <trkpt lat="49.99695" lon="2.63091">
        <ele>53.49</ele>
        <time>2016-07-16T04:50:02Z</time>
      </trkpt>
      <trkpt lat="49.99691" lon="2.63084">
        <ele>53.49</ele>
        <time>2016-07-16T04:50:03Z</time>
      </trkpt>
      <trkpt lat="49.99687" lon="2.63077">
        <ele>53.49</ele>
        <time>2016-07-16T04:50:04Z</time>
      </trkpt>
      <trkpt lat="49.99681" lon="2.63068">
        <ele>53.49</ele>
        <time>2016-07-16T04:50:05Z</time>
      </trkpt>
      <trkpt lat="49.99675" lon="2.63058">
        <ele>53.97</ele>
        <time>2016-07-16T04:50:06Z</time>
      </trkpt>
      <trkpt lat="49.99669" lon="2.63046">
        <ele>54.93</ele>
        <time>2016-07-16T04:50:07Z</time>
      </trkpt>
      <trkpt lat="49.99663" lon="2.63031">
        <ele>55.89</ele>
        <time>2016-07-16T04:50:08Z</time>
      </trkpt>
      <trkpt lat="49.9963" lon="2.62933">
        <ele>59.26</ele>
        <time>2016-07-16T04:50:13Z</time>
      </trkpt>
      <trkpt lat="49.9959" lon="2.6281">
        <ele>62.62</ele>
        <time>2016-07-16T04:50:18Z</time>
      </trkpt>
      <trkpt lat="49.99555" lon="2.62698">
        <ele>66.47</ele>
        <time>2016-07-16T04:50:22Z</time>
      </trkpt>
      <trkpt lat="49.99506" lon="2.62541">
        <ele>69.83</ele>
        <time>2016-07-16T04:50:27Z</time>
      </trkpt>
      <trkpt lat="49.99438" lon="2.62319">
        <ele>73.68</ele>
        <time>2016-07-16T04:50:35Z</time>
      </trkpt>
      <trkpt lat="49.99378" lon="2.62122">
        <ele>77.04</ele>
        <time>2016-07-16T04:50:44Z</time>
      </trkpt>
      <trkpt lat="49.99352" lon="2.62037">
        <ele>79.93</ele>
        <time>2016-07-16T04:50:49Z</time>
      </trkpt>
      <trkpt lat="49.99336" lon="2.62002">
        <ele>81.37</ele>
        <time>2016-07-16T04:50:52Z</time>
      </trkpt>
      <trkpt lat="49.9933" lon="2.61995">
        <ele>81.85</ele>
        <time>2016-07-16T04:50:53Z</time>
      </trkpt>
      <trkpt lat="49.99323" lon="2.61992">
        <ele>82.33</ele>
        <time>2016-07-16T04:50:54Z</time>
      </trkpt>
      <trkpt lat="49.99308" lon="2.61985">
        <ele>82.33</ele>
        <time>2016-07-16T04:50:56Z</time>
      </trkpt>
      <trkpt lat="49.993" lon="2.6198">
        <ele>83.29</ele>
        <time>2016-07-16T04:50:57Z</time>
      </trkpt>
      <trkpt lat="49.99293" lon="2.61973">
        <ele>83.77</ele>
        <time>2016-07-16T04:50:58Z</time>
      </trkpt>
      <trkpt lat="49.99285" lon="2.61963">
        <ele>83.77</ele>
        <time>2016-07-16T04:50:59Z</time>
      </trkpt>
      <trkpt lat="49.99278" lon="2.6195">
        <ele>84.25</ele>
        <time>2016-07-16T04:51:00Z</time>
      </trkpt>
      <trkpt lat="49.99273" lon="2.61934">
        <ele>84.73</ele>
        <time>2016-07-16T04:51:01Z</time>
      </trkpt>
      <trkpt lat="49.99271" lon="2.61923">
        <ele>86.18</ele>
        <time>2016-07-16T04:51:02Z</time>
      </trkpt>
      <trkpt lat="49.99269" lon="2.61904">
        <ele>87.14</ele>
        <time>2016-07-16T04:51:03Z</time>
      </trkpt>
      <trkpt lat="49.9926" lon="2.61818">
        <ele>90.5</ele>
        <time>2016-07-16T04:51:07Z</time>
      </trkpt>
      <trkpt lat="49.99249" lon="2.61744">
        <ele>93.87</ele>
        <time>2016-07-16T04:51:10Z</time>
      </trkpt>
      <trkpt lat="49.99225" lon="2.61633">
        <ele>97.71</ele>
        <time>2016-07-16T04:51:14Z</time>
      </trkpt>
      <trkpt lat="49.99193" lon="2.61512">
        <ele>100.6</ele>
        <time>2016-07-16T04:51:18Z</time>
      </trkpt>
      <trkpt lat="49.99175" lon="2.61447">
        <ele>101.56</ele>
        <time>2016-07-16T04:51:20Z</time>
      </trkpt>
      <trkpt lat="49.99129" lon="2.61283">
        <ele>105.88</ele>
        <time>2016-07-16T04:51:25Z</time>
      </trkpt>
      <trkpt lat="49.9909" lon="2.61155">
        <ele>107.81</ele>
        <time>2016-07-16T04:51:29Z</time>
      </trkpt>
      <trkpt lat="49.98926" lon="2.60601">
        <ele>108.77</ele>
        <time>2016-07-16T04:51:46Z</time>
      </trkpt>
      <trkpt lat="49.98879" lon="2.60438">
        <ele>105.4</ele>
        <time>2016-07-16T04:51:51Z</time>
      </trkpt>
      <trkpt lat="49.98832" lon="2.60274">
        <ele>102.52</ele>
        <time>2016-07-16T04:51:56Z</time>
      </trkpt>
      <trkpt lat="49.98803" lon="2.60176">
        <ele>99.15</ele>
        <time>2016-07-16T04:51:59Z</time>
      </trkpt>
      <trkpt lat="49.98774" lon="2.60077">
        <ele>96.27</ele>
        <time>2016-07-16T04:52:02Z</time>
      </trkpt>
      <trkpt lat="49.98735" lon="2.59947">
        <ele>92.42</ele>
        <time>2016-07-16T04:52:06Z</time>
      </trkpt>
      <trkpt lat="49.98697" lon="2.59816">
        <ele>89.54</ele>
        <time>2016-07-16T04:52:10Z</time>
      </trkpt>
      <trkpt lat="49.98642" lon="2.59623">
        <ele>92.9</ele>
        <time>2016-07-16T04:52:16Z</time>
      </trkpt>
      <trkpt lat="49.98594" lon="2.59456">
        <ele>96.75</ele>
        <time>2016-07-16T04:52:21Z</time>
      </trkpt>
      <trkpt lat="49.98575" lon="2.59389">
        <ele>97.23</ele>
        <time>2016-07-16T04:52:23Z</time>
      </trkpt>
      <trkpt lat="49.9839" lon="2.58755">
        <ele>94.35</ele>
        <time>2016-07-16T04:52:42Z</time>
      </trkpt>
      <trkpt lat="49.9835" lon="2.58622">
        <ele>90.02</ele>
        <time>2016-07-16T04:52:46Z</time>
      </trkpt>
      <trkpt lat="49.9832" lon="2.58521">
        <ele>86.66</ele>
        <time>2016-07-16T04:52:49Z</time>
      </trkpt>
      <trkpt lat="49.98281" lon="2.58387">
        <ele>83.77</ele>
        <time>2016-07-16T04:52:53Z</time>
      </trkpt>
      <trkpt lat="49.98185" lon="2.58059">
        <ele>84.73</ele>
        <time>2016-07-16T04:53:03Z</time>
      </trkpt>
      <trkpt lat="49.98064" lon="2.57626">
        <ele>87.14</ele>
        <time>2016-07-16T04:53:16Z</time>
      </trkpt>
      <trkpt lat="49.98035" lon="2.57527">
        <ele>90.02</ele>
        <time>2016-07-16T04:53:19Z</time>
      </trkpt>
      <trkpt lat="49.98006" lon="2.5743">
        <ele>94.83</ele>
        <time>2016-07-16T04:53:22Z</time>
      </trkpt>
      <trkpt lat="49.97987" lon="2.57364">
        <ele>98.19</ele>
        <time>2016-07-16T04:53:24Z</time>
      </trkpt>
      <trkpt lat="49.97958" lon="2.57265">
        <ele>101.08</ele>
        <time>2016-07-16T04:53:27Z</time>
      </trkpt>
      <trkpt lat="49.97928" lon="2.57164">
        <ele>103</ele>
        <time>2016-07-16T04:53:30Z</time>
      </trkpt>
      <trkpt lat="49.97819" lon="2.56796">
        <ele>98.67</ele>
        <time>2016-07-16T04:53:41Z</time>
      </trkpt>
      <trkpt lat="49.97789" lon="2.56694">
        <ele>94.35</ele>
        <time>2016-07-16T04:53:44Z</time>
      </trkpt>
      <trkpt lat="49.97768" lon="2.56623">
        <ele>91.46</ele>
        <time>2016-07-16T04:53:46Z</time>
      </trkpt>
      <trkpt lat="49.97748" lon="2.56553">
        <ele>87.62</ele>
        <time>2016-07-16T04:53:48Z</time>
      </trkpt>
      <trkpt lat="49.97727" lon="2.56481">
        <ele>83.77</ele>
        <time>2016-07-16T04:53:50Z</time>
      </trkpt>
      <trkpt lat="49.97706" lon="2.5641">
        <ele>79.93</ele>
        <time>2016-07-16T04:53:52Z</time>
      </trkpt>
      <trkpt lat="49.97684" lon="2.56336">
        <ele>76.08</ele>
        <time>2016-07-16T04:53:54Z</time>
      </trkpt>
      <trkpt lat="49.97663" lon="2.56265">
        <ele>72.72</ele>
        <time>2016-07-16T04:53:56Z</time>
      </trkpt>
      <trkpt lat="49.97631" lon="2.56156">
        <ele>69.35</ele>
        <time>2016-07-16T04:53:59Z</time>
      </trkpt>
      <trkpt lat="49.9759" lon="2.56014">
        <ele>65.99</ele>
        <time>2016-07-16T04:54:03Z</time>
      </trkpt>
      <trkpt lat="49.97541" lon="2.55841">
        <ele>62.62</ele>
        <time>2016-07-16T04:54:08Z</time>
      </trkpt>
      <trkpt lat="49.97511" lon="2.55736">
        <ele>61.18</ele>
        <time>2016-07-16T04:54:11Z</time>
      </trkpt>
      <trkpt lat="49.9744" lon="2.55478">
        <ele>65.03</ele>
        <time>2016-07-16T04:54:19Z</time>
      </trkpt>
      <trkpt lat="49.97411" lon="2.55378">
        <ele>68.39</ele>
        <time>2016-07-16T04:54:22Z</time>
      </trkpt>
      <trkpt lat="49.97389" lon="2.553">
        <ele>69.35</ele>
        <time>2016-07-16T04:54:24Z</time>
      </trkpt>
      <trkpt lat="49.97191" lon="2.5461">
        <ele>69.35</ele>
        <time>2016-07-16T04:54:45Z</time>
      </trkpt>
      <trkpt lat="49.97172" lon="2.54543">
        <ele>67.91</ele>
        <time>2016-07-16T04:54:47Z</time>
      </trkpt>
      <trkpt lat="49.97123" lon="2.54374">
        <ele>64.55</ele>
        <time>2016-07-16T04:54:52Z</time>
      </trkpt>
      <trkpt lat="49.97032" lon="2.54051">
        <ele>67.91</ele>
        <time>2016-07-16T04:55:02Z</time>
      </trkpt>
      <trkpt lat="49.97004" lon="2.53953">
        <ele>71.27</ele>
        <time>2016-07-16T04:55:05Z</time>
      </trkpt>
      <trkpt lat="49.96976" lon="2.53855">
        <ele>75.6</ele>
        <time>2016-07-16T04:55:08Z</time>
      </trkpt>
      <trkpt lat="49.96958" lon="2.5379">
        <ele>78.97</ele>
        <time>2016-07-16T04:55:10Z</time>
      </trkpt>
      <trkpt lat="49.96931" lon="2.53693">
        <ele>83.29</ele>
        <time>2016-07-16T04:55:13Z</time>
      </trkpt>
      <trkpt lat="49.96904" lon="2.53597">
        <ele>87.62</ele>
        <time>2016-07-16T04:55:16Z</time>
      </trkpt>
      <trkpt lat="49.96876" lon="2.53502">
        <ele>91.46</ele>
        <time>2016-07-16T04:55:19Z</time>
      </trkpt>
      <trkpt lat="49.96849" lon="2.53406">
        <ele>94.83</ele>
        <time>2016-07-16T04:55:22Z</time>
      </trkpt>
      <trkpt lat="49.96812" lon="2.53274">
        <ele>98.67</ele>
        <time>2016-07-16T04:55:26Z</time>
      </trkpt>
      <trkpt lat="49.96783" lon="2.53175">
        <ele>100.11</ele>
        <time>2016-07-16T04:55:29Z</time>
      </trkpt>
      <trkpt lat="49.96754" lon="2.53076">
        <ele>102.04</ele>
        <time>2016-07-16T04:55:32Z</time>
      </trkpt>
      <trkpt lat="49.96573" lon="2.52456">
        <ele>103</ele>
        <time>2016-07-16T04:55:51Z</time>
      </trkpt>
      <trkpt lat="49.96478" lon="2.52132">
        <ele>100.11</ele>
        <time>2016-07-16T04:56:01Z</time>
      </trkpt>
      <trkpt lat="49.96365" lon="2.51741">
        <ele>94.35</ele>
        <time>2016-07-16T04:56:13Z</time>
      </trkpt>
      <trkpt lat="49.96289" lon="2.51481">
        <ele>97.71</ele>
        <time>2016-07-16T04:56:21Z</time>
      </trkpt>
      <trkpt lat="49.9626" lon="2.51381">
        <ele>101.08</ele>
        <time>2016-07-16T04:56:24Z</time>
      </trkpt>
      <trkpt lat="49.96222" lon="2.51251">
        <ele>103.48</ele>
        <time>2016-07-16T04:56:28Z</time>
      </trkpt>
      <trkpt lat="49.96026" lon="2.50574">
        <ele>103.96</ele>
        <time>2016-07-16T04:56:49Z</time>
      </trkpt>
      <trkpt lat="49.95938" lon="2.50261">
        <ele>101.56</ele>
        <time>2016-07-16T04:57:00Z</time>
      </trkpt>
      <trkpt lat="49.95864" lon="2.50015">
        <ele>104.92</ele>
        <time>2016-07-16T04:57:08Z</time>
      </trkpt>
      <trkpt lat="49.95845" lon="2.4995">
        <ele>105.88</ele>
        <time>2016-07-16T04:57:10Z</time>
      </trkpt>
      <trkpt lat="49.95826" lon="2.49885">
        <ele>106.84</ele>
        <time>2016-07-16T04:57:12Z</time>
      </trkpt>
      <trkpt lat="49.9578" lon="2.49722">
        <ele>110.21</ele>
        <time>2016-07-16T04:57:17Z</time>
      </trkpt>
      <trkpt lat="49.9577" lon="2.49689">
        <ele>110.69</ele>
        <time>2016-07-16T04:57:18Z</time>
      </trkpt>
      <trkpt lat="49.95725" lon="2.49522">
        <ele>113.57</ele>
        <time>2016-07-16T04:57:23Z</time>
      </trkpt>
      <trkpt lat="49.95711" lon="2.49453">
        <ele>114.53</ele>
        <time>2016-07-16T04:57:25Z</time>
      </trkpt>
      <trkpt lat="49.95678" lon="2.49137">
        <ele>116.94</ele>
        <time>2016-07-16T04:57:34Z</time>
      </trkpt>
      <trkpt lat="49.95697" lon="2.48781">
        <ele>118.86</ele>
        <time>2016-07-16T04:57:44Z</time>
      </trkpt>
      <trkpt lat="49.95754" lon="2.48326">
        <ele>120.78</ele>
        <time>2016-07-16T04:57:57Z</time>
      </trkpt>
      <trkpt lat="49.95746" lon="2.47971">
        <ele>121.26</ele>
        <time>2016-07-16T04:58:07Z</time>
      </trkpt>
      <trkpt lat="49.95687" lon="2.4759">
        <ele>123.19</ele>
        <time>2016-07-16T04:58:18Z</time>
      </trkpt>
      <trkpt lat="49.95565" lon="2.46899">
        <ele>120.78</ele>
        <time>2016-07-16T04:58:38Z</time>
      </trkpt>
      <trkpt lat="49.95505" lon="2.46554">
        <ele>117.42</ele>
        <time>2016-07-16T04:58:48Z</time>
      </trkpt>
      <trkpt lat="49.95469" lon="2.46346">
        <ele>114.05</ele>
        <time>2016-07-16T04:58:54Z</time>
      </trkpt>
      <trkpt lat="49.95444" lon="2.46208">
        <ele>110.21</ele>
        <time>2016-07-16T04:58:58Z</time>
      </trkpt>
      <trkpt lat="49.9542" lon="2.46069">
        <ele>106.36</ele>
        <time>2016-07-16T04:59:02Z</time>
      </trkpt>
      <trkpt lat="49.95401" lon="2.45965">
        <ele>102.52</ele>
        <time>2016-07-16T04:59:05Z</time>
      </trkpt>
      <trkpt lat="49.95383" lon="2.45858">
        <ele>98.19</ele>
        <time>2016-07-16T04:59:08Z</time>
      </trkpt>
      <trkpt lat="49.95365" lon="2.45748">
        <ele>93.87</ele>
        <time>2016-07-16T04:59:11Z</time>
      </trkpt>
      <trkpt lat="49.95352" lon="2.45675">
        <ele>90.5</ele>
        <time>2016-07-16T04:59:13Z</time>
      </trkpt>
      <trkpt lat="49.95339" lon="2.45602">
        <ele>87.14</ele>
        <time>2016-07-16T04:59:15Z</time>
      </trkpt>
      <trkpt lat="49.95326" lon="2.45527">
        <ele>83.77</ele>
        <time>2016-07-16T04:59:17Z</time>
      </trkpt>
      <trkpt lat="49.95313" lon="2.45452">
        <ele>80.41</ele>
        <time>2016-07-16T04:59:19Z</time>
      </trkpt>
      <trkpt lat="49.95293" lon="2.45339">
        <ele>77.04</ele>
        <time>2016-07-16T04:59:22Z</time>
      </trkpt>
      <trkpt lat="49.95274" lon="2.45227">
        <ele>74.16</ele>
        <time>2016-07-16T04:59:25Z</time>
      </trkpt>
      <trkpt lat="49.95255" lon="2.45114">
        <ele>70.79</ele>
        <time>2016-07-16T04:59:28Z</time>
      </trkpt>
      <trkpt lat="49.95231" lon="2.44969">
        <ele>66.47</ele>
        <time>2016-07-16T04:59:32Z</time>
      </trkpt>
      <trkpt lat="49.95212" lon="2.44859">
        <ele>63.58</ele>
        <time>2016-07-16T04:59:35Z</time>
      </trkpt>
      <trkpt lat="49.95185" lon="2.44716">
        <ele>59.74</ele>
        <time>2016-07-16T04:59:39Z</time>
      </trkpt>
      <trkpt lat="49.95162" lon="2.44612">
        <ele>56.37</ele>
        <time>2016-07-16T04:59:42Z</time>
      </trkpt>
      <trkpt lat="49.95129" lon="2.44474">
        <ele>52.53</ele>
        <time>2016-07-16T04:59:46Z</time>
      </trkpt>
      <trkpt lat="49.95094" lon="2.44339">
        <ele>49.16</ele>
        <time>2016-07-16T04:59:50Z</time>
      </trkpt>
      <trkpt lat="49.95084" lon="2.44305">
        <ele>48.68</ele>
        <time>2016-07-16T04:59:51Z</time>
      </trkpt>
      <trkpt lat="49.94957" lon="2.43848">
        <ele>45.32</ele>
        <time>2016-07-16T05:00:05Z</time>
      </trkpt>
      <trkpt lat="49.94876" lon="2.43555">
        <ele>48.68</ele>
        <time>2016-07-16T05:00:14Z</time>
      </trkpt>
      <trkpt lat="49.94847" lon="2.43459">
        <ele>49.65</ele>
        <time>2016-07-16T05:00:17Z</time>
      </trkpt>
      <trkpt lat="49.94752" lon="2.43174">
        <ele>53.49</ele>
        <time>2016-07-16T05:00:26Z</time>
      </trkpt>
      <trkpt lat="49.94633" lon="2.42825">
        <ele>51.57</ele>
        <time>2016-07-16T05:00:37Z</time>
      </trkpt>
      <trkpt lat="49.94503" lon="2.4245">
        <ele>50.61</ele>
        <time>2016-07-16T05:00:49Z</time>
      </trkpt>
      <trkpt lat="49.94427" lon="2.4223">
        <ele>53.97</ele>
        <time>2016-07-16T05:00:56Z</time>
      </trkpt>
      <trkpt lat="49.94308" lon="2.41883">
        <ele>57.34</ele>
        <time>2016-07-16T05:01:07Z</time>
      </trkpt>
      <trkpt lat="49.94169" lon="2.41557">
        <ele>58.3</ele>
        <time>2016-07-16T05:01:18Z</time>
      </trkpt>
      <trkpt lat="49.94105" lon="2.41456">
        <ele>62.14</ele>
        <time>2016-07-16T05:01:22Z</time>
      </trkpt>
      <trkpt lat="49.94071" lon="2.4141">
        <ele>65.51</ele>
        <time>2016-07-16T05:01:24Z</time>
      </trkpt>
      <trkpt lat="49.94016" lon="2.41348">
        <ele>69.35</ele>
        <time>2016-07-16T05:01:27Z</time>
      </trkpt>
      <trkpt lat="49.93975" lon="2.4131">
        <ele>72.24</ele>
        <time>2016-07-16T05:01:29Z</time>
      </trkpt>
      <trkpt lat="49.93916" lon="2.41261">
        <ele>76.08</ele>
        <time>2016-07-16T05:01:32Z</time>
      </trkpt>
      <trkpt lat="49.93851" lon="2.41219">
        <ele>79.93</ele>
        <time>2016-07-16T05:01:35Z</time>
      </trkpt>
      <trkpt lat="49.93786" lon="2.41189">
        <ele>81.37</ele>
        <time>2016-07-16T05:01:38Z</time>
      </trkpt>
      <trkpt lat="49.93583" lon="2.41143">
        <ele>79.45</ele>
        <time>2016-07-16T05:01:47Z</time>
      </trkpt>
      <trkpt lat="49.93543" lon="2.41144">
        <ele>75.6</ele>
        <time>2016-07-16T05:01:49Z</time>
      </trkpt>
      <trkpt lat="49.93489" lon="2.4115">
        <ele>71.76</ele>
        <time>2016-07-16T05:01:52Z</time>
      </trkpt>
      <trkpt lat="49.93442" lon="2.41157">
        <ele>67.43</ele>
        <time>2016-07-16T05:01:55Z</time>
      </trkpt>
      <trkpt lat="49.9338" lon="2.41166">
        <ele>64.07</ele>
        <time>2016-07-16T05:02:00Z</time>
      </trkpt>
      <trkpt lat="49.93362" lon="2.41168">
        <ele>63.1</ele>
        <time>2016-07-16T05:02:02Z</time>
      </trkpt>
      <trkpt lat="49.93346" lon="2.41168">
        <ele>62.14</ele>
        <time>2016-07-16T05:02:04Z</time>
      </trkpt>
      <trkpt lat="49.9334" lon="2.41165">
        <ele>62.62</ele>
        <time>2016-07-16T05:02:05Z</time>
      </trkpt>
      <trkpt lat="49.93335" lon="2.41161">
        <ele>62.14</ele>
        <time>2016-07-16T05:02:06Z</time>
      </trkpt>
      <trkpt lat="49.93328" lon="2.41156">
        <ele>62.14</ele>
        <time>2016-07-16T05:02:07Z</time>
      </trkpt>
      <trkpt lat="49.93322" lon="2.41149">
        <ele>62.14</ele>
        <time>2016-07-16T05:02:08Z</time>
      </trkpt>
      <trkpt lat="49.93316" lon="2.41139">
        <ele>62.14</ele>
        <time>2016-07-16T05:02:09Z</time>
      </trkpt>
      <trkpt lat="49.9331" lon="2.41127">
        <ele>62.14</ele>
        <time>2016-07-16T05:02:10Z</time>
      </trkpt>
      <trkpt lat="49.93306" lon="2.41112">
        <ele>64.07</ele>
        <time>2016-07-16T05:02:11Z</time>
      </trkpt>
      <trkpt lat="49.93301" lon="2.41094">
        <ele>64.07</ele>
        <time>2016-07-16T05:02:12Z</time>
      </trkpt>
      <trkpt lat="49.93292" lon="2.41056">
        <ele>65.03</ele>
        <time>2016-07-16T05:02:14Z</time>
      </trkpt>
      <trkpt lat="49.93243" lon="2.40872">
        <ele>67.43</ele>
        <time>2016-07-16T05:02:21Z</time>
      </trkpt>
      <trkpt lat="49.93112" lon="2.40418">
        <ele>69.83</ele>
        <time>2016-07-16T05:02:35Z</time>
      </trkpt>
      <trkpt lat="49.9295" lon="2.39863">
        <ele>73.68</ele>
        <time>2016-07-16T05:02:52Z</time>
      </trkpt>
      <trkpt lat="49.92886" lon="2.39638">
        <ele>77.04</ele>
        <time>2016-07-16T05:02:59Z</time>
      </trkpt>
      <trkpt lat="49.92867" lon="2.39573">
        <ele>78</ele>
        <time>2016-07-16T05:03:01Z</time>
      </trkpt>
      <trkpt lat="49.92831" lon="2.39443">
        <ele>81.37</ele>
        <time>2016-07-16T05:03:05Z</time>
      </trkpt>
      <trkpt lat="49.92755" lon="2.39182">
        <ele>84.73</ele>
        <time>2016-07-16T05:03:13Z</time>
      </trkpt>
      <trkpt lat="49.9267" lon="2.38889">
        <ele>87.62</ele>
        <time>2016-07-16T05:03:22Z</time>
      </trkpt>
      <trkpt lat="49.92586" lon="2.38596">
        <ele>90.98</ele>
        <time>2016-07-16T05:03:31Z</time>
      </trkpt>
      <trkpt lat="49.92443" lon="2.38103">
        <ele>90.5</ele>
        <time>2016-07-16T05:03:46Z</time>
      </trkpt>
      <trkpt lat="49.92415" lon="2.38003">
        <ele>89.06</ele>
        <time>2016-07-16T05:03:49Z</time>
      </trkpt>
      <trkpt lat="49.92387" lon="2.37907">
        <ele>85.21</ele>
        <time>2016-07-16T05:03:52Z</time>
      </trkpt>
      <trkpt lat="49.9235" lon="2.37776">
        <ele>81.37</ele>
        <time>2016-07-16T05:03:56Z</time>
      </trkpt>
      <trkpt lat="49.92313" lon="2.37646">
        <ele>77.52</ele>
        <time>2016-07-16T05:04:00Z</time>
      </trkpt>
      <trkpt lat="49.92279" lon="2.37528">
        <ele>73.68</ele>
        <time>2016-07-16T05:04:04Z</time>
      </trkpt>
      <trkpt lat="49.92222" lon="2.37322">
        <ele>70.31</ele>
        <time>2016-07-16T05:04:12Z</time>
      </trkpt>
      <trkpt lat="49.92144" lon="2.37044">
        <ele>66.95</ele>
        <time>2016-07-16T05:04:25Z</time>
      </trkpt>
      <trkpt lat="49.92082" lon="2.36822">
        <ele>65.99</ele>
        <time>2016-07-16T05:04:38Z</time>
      </trkpt>
      <trkpt lat="49.92043" lon="2.36679">
        <ele>66.95</ele>
        <time>2016-07-16T05:04:46Z</time>
      </trkpt>
      <trkpt lat="49.9199" lon="2.36491">
        <ele>68.87</ele>
        <time>2016-07-16T05:04:53Z</time>
      </trkpt>
      <trkpt lat="49.9189" lon="2.36134">
        <ele>68.87</ele>
        <time>2016-07-16T05:05:04Z</time>
      </trkpt>
      <trkpt lat="49.91853" lon="2.36003">
        <ele>67.43</ele>
        <time>2016-07-16T05:05:08Z</time>
      </trkpt>
      <trkpt lat="49.91797" lon="2.35804">
        <ele>64.07</ele>
        <time>2016-07-16T05:05:14Z</time>
      </trkpt>
      <trkpt lat="49.91594" lon="2.35086">
        <ele>61.66</ele>
        <time>2016-07-16T05:05:36Z</time>
      </trkpt>
      <trkpt lat="49.91548" lon="2.34927">
        <ele>60.22</ele>
        <time>2016-07-16T05:05:41Z</time>
      </trkpt>
      <trkpt lat="49.91455" lon="2.34593">
        <ele>56.86</ele>
        <time>2016-07-16T05:05:53Z</time>
      </trkpt>
      <trkpt lat="49.91413" lon="2.34432">
        <ele>55.41</ele>
        <time>2016-07-16T05:06:00Z</time>
      </trkpt>
      <trkpt lat="49.91397" lon="2.34343">
        <ele>53.97</ele>
        <time>2016-07-16T05:06:06Z</time>
      </trkpt>
      <trkpt lat="49.91397" lon="2.3433">
        <ele>53.97</ele>
        <time>2016-07-16T05:06:07Z</time>
      </trkpt>
      <trkpt lat="49.91398" lon="2.34316">
        <ele>53.97</ele>
        <time>2016-07-16T05:06:08Z</time>
      </trkpt>
      <trkpt lat="49.91402" lon="2.34302">
        <ele>53.97</ele>
        <time>2016-07-16T05:06:09Z</time>
      </trkpt>
      <trkpt lat="49.91406" lon="2.34287">
        <ele>54.45</ele>
        <time>2016-07-16T05:06:10Z</time>
      </trkpt>
      <trkpt lat="49.91411" lon="2.34276">
        <ele>54.45</ele>
        <time>2016-07-16T05:06:11Z</time>
      </trkpt>
      <trkpt lat="49.9142" lon="2.34262">
        <ele>53.97</ele>
        <time>2016-07-16T05:06:12Z</time>
      </trkpt>
      <trkpt lat="49.91431" lon="2.3425">
        <ele>53.97</ele>
        <time>2016-07-16T05:06:13Z</time>
      </trkpt>
      <trkpt lat="49.91445" lon="2.34235">
        <ele>53.97</ele>
        <time>2016-07-16T05:06:14Z</time>
      </trkpt>
      <trkpt lat="49.91556" lon="2.34121">
        <ele>53.97</ele>
        <time>2016-07-16T05:06:21Z</time>
      </trkpt>
      <trkpt lat="49.91684" lon="2.34008">
        <ele>57.34</ele>
        <time>2016-07-16T05:06:28Z</time>
      </trkpt>
      <trkpt lat="49.91703" lon="2.33989">
        <ele>57.34</ele>
        <time>2016-07-16T05:06:29Z</time>
      </trkpt>
      <trkpt lat="49.91876" lon="2.33796">
        <ele>60.22</ele>
        <time>2016-07-16T05:06:38Z</time>
      </trkpt>
      <trkpt lat="49.91937" lon="2.33716">
        <ele>61.66</ele>
        <time>2016-07-16T05:06:41Z</time>
      </trkpt>
      <trkpt lat="49.92112" lon="2.33443">
        <ele>64.55</ele>
        <time>2016-07-16T05:06:50Z</time>
      </trkpt>
      <trkpt lat="49.92289" lon="2.33066">
        <ele>67.43</ele>
        <time>2016-07-16T05:07:01Z</time>
      </trkpt>
      <trkpt lat="49.92412" lon="2.32687">
        <ele>70.79</ele>
        <time>2016-07-16T05:07:11Z</time>
      </trkpt>
      <trkpt lat="49.92484" lon="2.32364">
        <ele>74.16</ele>
        <time>2016-07-16T05:07:19Z</time>
      </trkpt>
      <trkpt lat="49.92587" lon="2.31697">
        <ele>76.08</ele>
        <time>2016-07-16T05:07:35Z</time>
      </trkpt>
      <trkpt lat="49.92598" lon="2.31614">
        <ele>74.16</ele>
        <time>2016-07-16T05:07:37Z</time>
      </trkpt>
      <trkpt lat="49.92628" lon="2.31405">
        <ele>70.31</ele>
        <time>2016-07-16T05:07:42Z</time>
      </trkpt>
      <trkpt lat="49.92658" lon="2.31197">
        <ele>66.95</ele>
        <time>2016-07-16T05:07:47Z</time>
      </trkpt>
      <trkpt lat="49.92688" lon="2.30989">
        <ele>63.1</ele>
        <time>2016-07-16T05:07:52Z</time>
      </trkpt>
      <trkpt lat="49.9271" lon="2.30779">
        <ele>59.74</ele>
        <time>2016-07-16T05:07:57Z</time>
      </trkpt>
      <trkpt lat="49.92714" lon="2.30651">
        <ele>58.3</ele>
        <time>2016-07-16T05:08:00Z</time>
      </trkpt>
      <trkpt lat="49.92695" lon="2.30269">
        <ele>55.41</ele>
        <time>2016-07-16T05:08:09Z</time>
      </trkpt>
      <trkpt lat="49.92652" lon="2.2998">
        <ele>52.05</ele>
        <time>2016-07-16T05:08:16Z</time>
      </trkpt>
      <trkpt lat="49.92569" lon="2.29664">
        <ele>48.68</ele>
        <time>2016-07-16T05:08:24Z</time>
      </trkpt>
      <trkpt lat="49.92487" lon="2.29394">
        <ele>46.28</ele>
        <time>2016-07-16T05:08:31Z</time>
      </trkpt>
      <trkpt lat="49.92418" lon="2.29071">
        <ele>42.92</ele>
        <time>2016-07-16T05:08:39Z</time>
      </trkpt>
      <trkpt lat="49.92385" lon="2.28735">
        <ele>39.55</ele>
        <time>2016-07-16T05:08:47Z</time>
      </trkpt>
      <trkpt lat="49.92383" lon="2.28691">
        <ele>39.55</ele>
        <time>2016-07-16T05:08:48Z</time>
      </trkpt>
      <trkpt lat="49.92394" lon="2.28309">
        <ele>37.15</ele>
        <time>2016-07-16T05:08:57Z</time>
      </trkpt>
      <trkpt lat="49.9245" lon="2.27848">
        <ele>35.23</ele>
        <time>2016-07-16T05:09:08Z</time>
      </trkpt>
      <trkpt lat="49.92506" lon="2.27565">
        <ele>38.59</ele>
        <time>2016-07-16T05:09:15Z</time>
      </trkpt>
      <trkpt lat="49.9254" lon="2.27401">
        <ele>40.99</ele>
        <time>2016-07-16T05:09:19Z</time>
      </trkpt>
      <trkpt lat="49.92559" lon="2.27321">
        <ele>44.84</ele>
        <time>2016-07-16T05:09:21Z</time>
      </trkpt>
      <trkpt lat="49.92579" lon="2.27243">
        <ele>48.2</ele>
        <time>2016-07-16T05:09:23Z</time>
      </trkpt>
      <trkpt lat="49.92589" lon="2.27203">
        <ele>44.36</ele>
        <time>2016-07-16T05:09:24Z</time>
      </trkpt>
      <trkpt lat="49.926" lon="2.27165">
        <ele>44.36</ele>
        <time>2016-07-16T05:09:25Z</time>
      </trkpt>
      <trkpt lat="49.92622" lon="2.27087">
        <ele>47.72</ele>
        <time>2016-07-16T05:09:27Z</time>
      </trkpt>
      <trkpt lat="49.92668" lon="2.26932">
        <ele>51.09</ele>
        <time>2016-07-16T05:09:31Z</time>
      </trkpt>
      <trkpt lat="49.92692" lon="2.26856">
        <ele>52.05</ele>
        <time>2016-07-16T05:09:33Z</time>
      </trkpt>
      <trkpt lat="49.92768" lon="2.26629">
        <ele>54.93</ele>
        <time>2016-07-16T05:09:39Z</time>
      </trkpt>
      <trkpt lat="49.92849" lon="2.26406">
        <ele>58.3</ele>
        <time>2016-07-16T05:09:45Z</time>
      </trkpt>
      <trkpt lat="49.92964" lon="2.26117">
        <ele>61.66</ele>
        <time>2016-07-16T05:09:53Z</time>
      </trkpt>
      <trkpt lat="49.93266" lon="2.25354">
        <ele>59.26</ele>
        <time>2016-07-16T05:10:14Z</time>
      </trkpt>
      <trkpt lat="49.93367" lon="2.25099">
        <ele>55.89</ele>
        <time>2016-07-16T05:10:21Z</time>
      </trkpt>
      <trkpt lat="49.93449" lon="2.24888">
        <ele>52.53</ele>
        <time>2016-07-16T05:10:27Z</time>
      </trkpt>
      <trkpt lat="49.93534" lon="2.24671">
        <ele>49.16</ele>
        <time>2016-07-16T05:10:34Z</time>
      </trkpt>
      <trkpt lat="49.93592" lon="2.24518">
        <ele>46.76</ele>
        <time>2016-07-16T05:10:41Z</time>
      </trkpt>
      <trkpt lat="49.93606" lon="2.24463">
        <ele>45.8</ele>
        <time>2016-07-16T05:10:44Z</time>
      </trkpt>
      <trkpt lat="49.93617" lon="2.24386">
        <ele>44.36</ele>
        <time>2016-07-16T05:10:49Z</time>
      </trkpt>
      <trkpt lat="49.93621" lon="2.24374">
        <ele>44.84</ele>
        <time>2016-07-16T05:10:50Z</time>
      </trkpt>
      <trkpt lat="49.93625" lon="2.24364">
        <ele>44.84</ele>
        <time>2016-07-16T05:10:51Z</time>
      </trkpt>
      <trkpt lat="49.9363" lon="2.24354">
        <ele>44.84</ele>
        <time>2016-07-16T05:10:52Z</time>
      </trkpt>
      <trkpt lat="49.93635" lon="2.24345">
        <ele>44.84</ele>
        <time>2016-07-16T05:10:53Z</time>
      </trkpt>
      <trkpt lat="49.93645" lon="2.2432">
        <ele>44.84</ele>
        <time>2016-07-16T05:10:56Z</time>
      </trkpt>
      <trkpt lat="49.93645" lon="2.24311">
        <ele>44.84</ele>
        <time>2016-07-16T05:10:57Z</time>
      </trkpt>
      <trkpt lat="49.93642" lon="2.24303">
        <ele>44.84</ele>
        <time>2016-07-16T05:10:58Z</time>
      </trkpt>
      <trkpt lat="49.93635" lon="2.24294">
        <ele>44.84</ele>
        <time>2016-07-16T05:10:59Z</time>
      </trkpt>
      <trkpt lat="49.93627" lon="2.24287">
        <ele>44.84</ele>
        <time>2016-07-16T05:11:00Z</time>
      </trkpt>
      <trkpt lat="49.93619" lon="2.24283">
        <ele>44.84</ele>
        <time>2016-07-16T05:11:01Z</time>
      </trkpt>
      <trkpt lat="49.93611" lon="2.24282">
        <ele>44.84</ele>
        <time>2016-07-16T05:11:02Z</time>
      </trkpt>
      <trkpt lat="49.93603" lon="2.24285">
        <ele>44.84</ele>
        <time>2016-07-16T05:11:03Z</time>
      </trkpt>
      <trkpt lat="49.93595" lon="2.24291">
        <ele>44.84</ele>
        <time>2016-07-16T05:11:04Z</time>
      </trkpt>
      <trkpt lat="49.93588" lon="2.24301">
        <ele>44.84</ele>
        <time>2016-07-16T05:11:05Z</time>
      </trkpt>
      <trkpt lat="49.9358" lon="2.24311">
        <ele>44.84</ele>
        <time>2016-07-16T05:11:06Z</time>
      </trkpt>
      <trkpt lat="49.93573" lon="2.2432">
        <ele>44.84</ele>
        <time>2016-07-16T05:11:07Z</time>
      </trkpt>
      <trkpt lat="49.93565" lon="2.24327">
        <ele>44.84</ele>
        <time>2016-07-16T05:11:08Z</time>
      </trkpt>
      <trkpt lat="49.93557" lon="2.24334">
        <ele>44.84</ele>
        <time>2016-07-16T05:11:09Z</time>
      </trkpt>
      <trkpt lat="49.93548" lon="2.24339">
        <ele>44.84</ele>
        <time>2016-07-16T05:11:10Z</time>
      </trkpt>
      <trkpt lat="49.93539" lon="2.24342">
        <ele>44.84</ele>
        <time>2016-07-16T05:11:11Z</time>
      </trkpt>
      <trkpt lat="49.93528" lon="2.24343">
        <ele>44.84</ele>
        <time>2016-07-16T05:11:12Z</time>
      </trkpt>
      <trkpt lat="49.93517" lon="2.24343">
        <ele>44.84</ele>
        <time>2016-07-16T05:11:13Z</time>
      </trkpt>
      <trkpt lat="49.93405" lon="2.2435">
        <ele>45.32</ele>
        <time>2016-07-16T05:11:25Z</time>
      </trkpt>
      <trkpt lat="49.934" lon="2.24351">
        <ele>45.32</ele>
        <time>2016-07-16T05:11:26Z</time>
      </trkpt>
      <trkpt lat="49.93378" lon="2.24352">
        <ele>45.8</ele>
        <time>2016-07-16T05:11:35Z</time>
      </trkpt>
      <trkpt lat="49.93376" lon="2.24351">
        <ele>45.32</ele>
        <time>2016-07-16T05:11:36Z</time>
      </trkpt>
      <trkpt lat="49.93373" lon="2.24351">
        <ele>45.32</ele>
        <time>2016-07-16T05:11:37Z</time>
      </trkpt>
      <trkpt lat="49.93321" lon="2.2436">
        <ele>45.8</ele>
        <time>2016-07-16T05:11:44Z</time>
      </trkpt>
      <trkpt lat="49.93224" lon="2.2438">
        <ele>45.8</ele>
        <time>2016-07-16T05:11:52Z</time>
      </trkpt>
      <trkpt lat="49.93214" lon="2.24387">
        <ele>45.8</ele>
        <time>2016-07-16T05:11:53Z</time>
      </trkpt>
      <trkpt lat="49.93204" lon="2.24397">
        <ele>45.8</ele>
        <time>2016-07-16T05:11:54Z</time>
      </trkpt>
      <trkpt lat="49.93195" lon="2.24409">
        <ele>45.8</ele>
        <time>2016-07-16T05:11:55Z</time>
      </trkpt>
      <trkpt lat="49.93188" lon="2.24424">
        <ele>45.8</ele>
        <time>2016-07-16T05:11:56Z</time>
      </trkpt>
      <trkpt lat="49.93183" lon="2.2444">
        <ele>45.8</ele>
        <time>2016-07-16T05:11:57Z</time>
      </trkpt>
      <trkpt lat="49.93179" lon="2.24458">
        <ele>45.8</ele>
        <time>2016-07-16T05:11:58Z</time>
      </trkpt>
      <trkpt lat="49.93176" lon="2.24476">
        <ele>45.8</ele>
        <time>2016-07-16T05:11:59Z</time>
      </trkpt>
      <trkpt lat="49.93169" lon="2.24512">
        <ele>45.8</ele>
        <time>2016-07-16T05:12:01Z</time>
      </trkpt>
      <trkpt lat="49.93163" lon="2.24528">
        <ele>45.8</ele>
        <time>2016-07-16T05:12:02Z</time>
      </trkpt>
      <trkpt lat="49.93155" lon="2.24542">
        <ele>45.8</ele>
        <time>2016-07-16T05:12:03Z</time>
      </trkpt>
      <trkpt lat="49.93145" lon="2.24554">
        <ele>45.8</ele>
        <time>2016-07-16T05:12:04Z</time>
      </trkpt>
      <trkpt lat="49.93134" lon="2.24563">
        <ele>45.8</ele>
        <time>2016-07-16T05:12:05Z</time>
      </trkpt>
      <trkpt lat="49.93121" lon="2.2457">
        <ele>46.28</ele>
        <time>2016-07-16T05:12:06Z</time>
      </trkpt>
      <trkpt lat="49.93107" lon="2.24574">
        <ele>46.76</ele>
        <time>2016-07-16T05:12:07Z</time>
      </trkpt>
      <trkpt lat="49.93093" lon="2.24578">
        <ele>47.72</ele>
        <time>2016-07-16T05:12:08Z</time>
      </trkpt>
      <trkpt lat="49.93079" lon="2.24582">
        <ele>47.72</ele>
        <time>2016-07-16T05:12:09Z</time>
      </trkpt>
      <trkpt lat="49.92949" lon="2.24606">
        <ele>46.28</ele>
        <time>2016-07-16T05:12:16Z</time>
      </trkpt>
      <trkpt lat="49.92835" lon="2.24616">
        <ele>42.44</ele>
        <time>2016-07-16T05:12:21Z</time>
      </trkpt>
      <trkpt lat="49.92705" lon="2.24619">
        <ele>39.07</ele>
        <time>2016-07-16T05:12:26Z</time>
      </trkpt>
      <trkpt lat="49.92586" lon="2.24612">
        <ele>35.71</ele>
        <time>2016-07-16T05:12:30Z</time>
      </trkpt>
      <trkpt lat="49.92387" lon="2.24587">
        <ele>32.34</ele>
        <time>2016-07-16T05:12:36Z</time>
      </trkpt>
      <trkpt lat="49.92267" lon="2.24563">
        <ele>32.34</ele>
        <time>2016-07-16T05:12:40Z</time>
      </trkpt>
      <trkpt lat="49.92234" lon="2.24556">
        <ele>28.98</ele>
        <time>2016-07-16T05:12:41Z</time>
      </trkpt>
      <trkpt lat="49.92202" lon="2.24549">
        <ele>28.98</ele>
        <time>2016-07-16T05:12:42Z</time>
      </trkpt>
      <trkpt lat="49.91822" lon="2.24414">
        <ele>28.98</ele>
        <time>2016-07-16T05:12:54Z</time>
      </trkpt>
      <trkpt lat="49.91697" lon="2.24357">
        <ele>31.38</ele>
        <time>2016-07-16T05:12:58Z</time>
      </trkpt>
      <trkpt lat="49.91544" lon="2.24277">
        <ele>35.23</ele>
        <time>2016-07-16T05:13:03Z</time>
      </trkpt>
      <trkpt lat="49.91392" lon="2.24185">
        <ele>38.59</ele>
        <time>2016-07-16T05:13:08Z</time>
      </trkpt>
      <trkpt lat="49.91267" lon="2.24101">
        <ele>42.92</ele>
        <time>2016-07-16T05:13:12Z</time>
      </trkpt>
      <trkpt lat="49.91208" lon="2.24057">
        <ele>46.28</ele>
        <time>2016-07-16T05:13:14Z</time>
      </trkpt>
      <trkpt lat="49.91121" lon="2.2399">
        <ele>49.65</ele>
        <time>2016-07-16T05:13:17Z</time>
      </trkpt>
      <trkpt lat="49.91035" lon="2.23921">
        <ele>53.49</ele>
        <time>2016-07-16T05:13:20Z</time>
      </trkpt>
      <trkpt lat="49.90955" lon="2.23855">
        <ele>57.82</ele>
        <time>2016-07-16T05:13:23Z</time>
      </trkpt>
      <trkpt lat="49.90872" lon="2.23785">
        <ele>61.66</ele>
        <time>2016-07-16T05:13:26Z</time>
      </trkpt>
      <trkpt lat="49.90787" lon="2.23715">
        <ele>65.99</ele>
        <time>2016-07-16T05:13:29Z</time>
      </trkpt>
      <trkpt lat="49.90703" lon="2.23647">
        <ele>69.35</ele>
        <time>2016-07-16T05:13:32Z</time>
      </trkpt>
      <trkpt lat="49.90617" lon="2.23582">
        <ele>73.2</ele>
        <time>2016-07-16T05:13:35Z</time>
      </trkpt>
      <trkpt lat="49.905" lon="2.23504">
        <ele>76.08</ele>
        <time>2016-07-16T05:13:39Z</time>
      </trkpt>
      <trkpt lat="49.9047" lon="2.23486">
        <ele>76.08</ele>
        <time>2016-07-16T05:13:40Z</time>
      </trkpt>
      <trkpt lat="49.90133" lon="2.23329">
        <ele>73.68</ele>
        <time>2016-07-16T05:13:51Z</time>
      </trkpt>
      <trkpt lat="49.90037" lon="2.23299">
        <ele>70.31</ele>
        <time>2016-07-16T05:13:54Z</time>
      </trkpt>
      <trkpt lat="49.89942" lon="2.23272">
        <ele>66.95</ele>
        <time>2016-07-16T05:13:57Z</time>
      </trkpt>
      <trkpt lat="49.89847" lon="2.23245">
        <ele>63.1</ele>
        <time>2016-07-16T05:14:00Z</time>
      </trkpt>
      <trkpt lat="49.89752" lon="2.23215">
        <ele>59.26</ele>
        <time>2016-07-16T05:14:03Z</time>
      </trkpt>
      <trkpt lat="49.89499" lon="2.23119">
        <ele>62.14</ele>
        <time>2016-07-16T05:14:11Z</time>
      </trkpt>
      <trkpt lat="49.89473" lon="2.23108">
        <ele>61.66</ele>
        <time>2016-07-16T05:14:12Z</time>
      </trkpt>
      <trkpt lat="49.89413" lon="2.23079">
        <ele>65.03</ele>
        <time>2016-07-16T05:14:14Z</time>
      </trkpt>
      <trkpt lat="49.8932" lon="2.23033">
        <ele>68.39</ele>
        <time>2016-07-16T05:14:17Z</time>
      </trkpt>
      <trkpt lat="49.8923" lon="2.22984">
        <ele>71.76</ele>
        <time>2016-07-16T05:14:20Z</time>
      </trkpt>
      <trkpt lat="49.8911" lon="2.22909">
        <ele>75.12</ele>
        <time>2016-07-16T05:14:24Z</time>
      </trkpt>
      <trkpt lat="49.88966" lon="2.22805">
        <ele>78</ele>
        <time>2016-07-16T05:14:29Z</time>
      </trkpt>
      <trkpt lat="49.88617" lon="2.22502">
        <ele>78.97</ele>
        <time>2016-07-16T05:14:42Z</time>
      </trkpt>
      <trkpt lat="49.88371" lon="2.2228">
        <ele>77.52</ele>
        <time>2016-07-16T05:14:53Z</time>
      </trkpt>
      <trkpt lat="49.88108" lon="2.22065">
        <ele>78.48</ele>
        <time>2016-07-16T05:15:06Z</time>
      </trkpt>
      <trkpt lat="49.87784" lon="2.21846">
        <ele>79.93</ele>
        <time>2016-07-16T05:15:22Z</time>
      </trkpt>
      <trkpt lat="49.87628" lon="2.2174">
        <ele>78.97</ele>
        <time>2016-07-16T05:15:32Z</time>
      </trkpt>
      <trkpt lat="49.87617" lon="2.21726">
        <ele>78.97</ele>
        <time>2016-07-16T05:15:33Z</time>
      </trkpt>
      <trkpt lat="49.87607" lon="2.21711">
        <ele>78.97</ele>
        <time>2016-07-16T05:15:34Z</time>
      </trkpt>
      <trkpt lat="49.87596" lon="2.21691">
        <ele>79.93</ele>
        <time>2016-07-16T05:15:35Z</time>
      </trkpt>
      <trkpt lat="49.87586" lon="2.2167">
        <ele>80.89</ele>
        <time>2016-07-16T05:15:36Z</time>
      </trkpt>
      <trkpt lat="49.87579" lon="2.21648">
        <ele>81.37</ele>
        <time>2016-07-16T05:15:37Z</time>
      </trkpt>
      <trkpt lat="49.87572" lon="2.21624">
        <ele>82.33</ele>
        <time>2016-07-16T05:15:38Z</time>
      </trkpt>
      <trkpt lat="49.87566" lon="2.21601">
        <ele>82.81</ele>
        <time>2016-07-16T05:15:39Z</time>
      </trkpt>
      <trkpt lat="49.87561" lon="2.21575">
        <ele>83.77</ele>
        <time>2016-07-16T05:15:40Z</time>
      </trkpt>
      <trkpt lat="49.87545" lon="2.21352">
        <ele>85.21</ele>
        <time>2016-07-16T05:15:48Z</time>
      </trkpt>
      <trkpt lat="49.87559" lon="2.21216">
        <ele>82.33</ele>
        <time>2016-07-16T05:15:52Z</time>
      </trkpt>
      <trkpt lat="49.87587" lon="2.2107">
        <ele>78.48</ele>
        <time>2016-07-16T05:15:56Z</time>
      </trkpt>
      <trkpt lat="49.87595" lon="2.21031">
        <ele>78.48</ele>
        <time>2016-07-16T05:15:57Z</time>
      </trkpt>
      <trkpt lat="49.87631" lon="2.20729">
        <ele>80.89</ele>
        <time>2016-07-16T05:16:04Z</time>
      </trkpt>
      <trkpt lat="49.8762" lon="2.20433">
        <ele>84.25</ele>
        <time>2016-07-16T05:16:10Z</time>
      </trkpt>
      <trkpt lat="49.87557" lon="2.20137">
        <ele>85.21</ele>
        <time>2016-07-16T05:16:16Z</time>
      </trkpt>
      <trkpt lat="49.87456" lon="2.19879">
        <ele>85.69</ele>
        <time>2016-07-16T05:16:22Z</time>
      </trkpt>
      <trkpt lat="49.87293" lon="2.1963">
        <ele>87.14</ele>
        <time>2016-07-16T05:16:29Z</time>
      </trkpt>
      <trkpt lat="49.87091" lon="2.19301">
        <ele>90.02</ele>
        <time>2016-07-16T05:16:38Z</time>
      </trkpt>
      <trkpt lat="49.86935" lon="2.18973">
        <ele>92.9</ele>
        <time>2016-07-16T05:16:46Z</time>
      </trkpt>
      <trkpt lat="49.86897" lon="2.18891">
        <ele>96.75</ele>
        <time>2016-07-16T05:16:48Z</time>
      </trkpt>
      <trkpt lat="49.86878" lon="2.1885">
        <ele>96.75</ele>
        <time>2016-07-16T05:16:49Z</time>
      </trkpt>
      <trkpt lat="49.86783" lon="2.18645">
        <ele>100.11</ele>
        <time>2016-07-16T05:16:54Z</time>
      </trkpt>
      <trkpt lat="49.86745" lon="2.18563">
        <ele>101.56</ele>
        <time>2016-07-16T05:16:56Z</time>
      </trkpt>
      <trkpt lat="49.86689" lon="2.18439">
        <ele>103</ele>
        <time>2016-07-16T05:16:59Z</time>
      </trkpt>
      <trkpt lat="49.86651" lon="2.18357">
        <ele>104.44</ele>
        <time>2016-07-16T05:17:01Z</time>
      </trkpt>
      <trkpt lat="49.86614" lon="2.18275">
        <ele>105.88</ele>
        <time>2016-07-16T05:17:03Z</time>
      </trkpt>
      <trkpt lat="49.86521" lon="2.1807">
        <ele>109.25</ele>
        <time>2016-07-16T05:17:08Z</time>
      </trkpt>
      <trkpt lat="49.86248" lon="2.17471">
        <ele>110.69</ele>
        <time>2016-07-16T05:17:23Z</time>
      </trkpt>
      <trkpt lat="49.86139" lon="2.17235">
        <ele>114.53</ele>
        <time>2016-07-16T05:17:29Z</time>
      </trkpt>
      <trkpt lat="49.86121" lon="2.17194">
        <ele>114.53</ele>
        <time>2016-07-16T05:17:30Z</time>
      </trkpt>
      <trkpt lat="49.86023" lon="2.16991">
        <ele>117.9</ele>
        <time>2016-07-16T05:17:35Z</time>
      </trkpt>
      <trkpt lat="49.86003" lon="2.16951">
        <ele>117.9</ele>
        <time>2016-07-16T05:17:36Z</time>
      </trkpt>
      <trkpt lat="49.85939" lon="2.16833">
        <ele>115.01</ele>
        <time>2016-07-16T05:17:39Z</time>
      </trkpt>
      <trkpt lat="49.85739" lon="2.1651">
        <ele>117.9</ele>
        <time>2016-07-16T05:17:48Z</time>
      </trkpt>
      <trkpt lat="49.85572" lon="2.16274">
        <ele>120.78</ele>
        <time>2016-07-16T05:17:55Z</time>
      </trkpt>
      <trkpt lat="49.85524" lon="2.16206">
        <ele>118.86</ele>
        <time>2016-07-16T05:17:57Z</time>
      </trkpt>
      <trkpt lat="49.85287" lon="2.15862">
        <ele>115.5</ele>
        <time>2016-07-16T05:18:07Z</time>
      </trkpt>
      <trkpt lat="49.85215" lon="2.15747">
        <ele>112.13</ele>
        <time>2016-07-16T05:18:10Z</time>
      </trkpt>
      <trkpt lat="49.85131" lon="2.15607">
        <ele>107.81</ele>
        <time>2016-07-16T05:18:14Z</time>
      </trkpt>
      <trkpt lat="49.85067" lon="2.15493">
        <ele>104.44</ele>
        <time>2016-07-16T05:18:17Z</time>
      </trkpt>
      <trkpt lat="49.85005" lon="2.15376">
        <ele>101.56</ele>
        <time>2016-07-16T05:18:20Z</time>
      </trkpt>
      <trkpt lat="49.84945" lon="2.15257">
        <ele>97.71</ele>
        <time>2016-07-16T05:18:23Z</time>
      </trkpt>
      <trkpt lat="49.84867" lon="2.15095">
        <ele>93.87</ele>
        <time>2016-07-16T05:18:27Z</time>
      </trkpt>
      <trkpt lat="49.8481" lon="2.14971">
        <ele>92.42</ele>
        <time>2016-07-16T05:18:30Z</time>
      </trkpt>
      <trkpt lat="49.84756" lon="2.14843">
        <ele>90.5</ele>
        <time>2016-07-16T05:18:33Z</time>
      </trkpt>
      <trkpt lat="49.84589" lon="2.1441">
        <ele>91.94</ele>
        <time>2016-07-16T05:18:43Z</time>
      </trkpt>
      <trkpt lat="49.84475" lon="2.14048">
        <ele>95.31</ele>
        <time>2016-07-16T05:18:51Z</time>
      </trkpt>
      <trkpt lat="49.84355" lon="2.1358">
        <ele>98.67</ele>
        <time>2016-07-16T05:19:01Z</time>
      </trkpt>
      <trkpt lat="49.84286" lon="2.13244">
        <ele>100.6</ele>
        <time>2016-07-16T05:19:08Z</time>
      </trkpt>
      <trkpt lat="49.84205" lon="2.12706">
        <ele>103.96</ele>
        <time>2016-07-16T05:19:19Z</time>
      </trkpt>
      <trkpt lat="49.84175" lon="2.12403">
        <ele>106.84</ele>
        <time>2016-07-16T05:19:25Z</time>
      </trkpt>
      <trkpt lat="49.84158" lon="2.122">
        <ele>110.21</ele>
        <time>2016-07-16T05:19:29Z</time>
      </trkpt>
      <trkpt lat="49.84155" lon="2.1215">
        <ele>110.21</ele>
        <time>2016-07-16T05:19:30Z</time>
      </trkpt>
      <trkpt lat="49.84146" lon="2.11947">
        <ele>113.57</ele>
        <time>2016-07-16T05:19:34Z</time>
      </trkpt>
      <trkpt lat="49.8414" lon="2.11691">
        <ele>117.9</ele>
        <time>2016-07-16T05:19:39Z</time>
      </trkpt>
      <trkpt lat="49.8414" lon="2.11589">
        <ele>119.82</ele>
        <time>2016-07-16T05:19:41Z</time>
      </trkpt>
      <trkpt lat="49.84142" lon="2.11283">
        <ele>121.26</ele>
        <time>2016-07-16T05:19:47Z</time>
      </trkpt>
      <trkpt lat="49.84145" lon="2.1108">
        <ele>124.15</ele>
        <time>2016-07-16T05:19:51Z</time>
      </trkpt>
      <trkpt lat="49.84149" lon="2.10876">
        <ele>126.55</ele>
        <time>2016-07-16T05:19:55Z</time>
      </trkpt>
      <trkpt lat="49.84151" lon="2.10723">
        <ele>127.99</ele>
        <time>2016-07-16T05:19:58Z</time>
      </trkpt>
      <trkpt lat="49.8416" lon="2.09906">
        <ele>131.36</ele>
        <time>2016-07-16T05:20:14Z</time>
      </trkpt>
      <trkpt lat="49.84152" lon="2.09499">
        <ele>129.92</ele>
        <time>2016-07-16T05:20:22Z</time>
      </trkpt>
      <trkpt lat="49.84106" lon="2.09098">
        <ele>128.95</ele>
        <time>2016-07-16T05:20:30Z</time>
      </trkpt>
      <trkpt lat="49.83993" lon="2.08619">
        <ele>127.99</ele>
        <time>2016-07-16T05:20:40Z</time>
      </trkpt>
      <trkpt lat="49.83948" lon="2.08482">
        <ele>131.84</ele>
        <time>2016-07-16T05:20:43Z</time>
      </trkpt>
      <trkpt lat="49.83933" lon="2.08437">
        <ele>131.84</ele>
        <time>2016-07-16T05:20:44Z</time>
      </trkpt>
      <trkpt lat="49.839" lon="2.08348">
        <ele>129.43</ele>
        <time>2016-07-16T05:20:46Z</time>
      </trkpt>
      <trkpt lat="49.83848" lon="2.08216">
        <ele>131.36</ele>
        <time>2016-07-16T05:20:49Z</time>
      </trkpt>
      <trkpt lat="49.83685" lon="2.07896">
        <ele>133.28</ele>
        <time>2016-07-16T05:20:57Z</time>
      </trkpt>
      <trkpt lat="49.83363" lon="2.07387">
        <ele>133.76</ele>
        <time>2016-07-16T05:21:11Z</time>
      </trkpt>
      <trkpt lat="49.83168" lon="2.0704">
        <ele>132.32</ele>
        <time>2016-07-16T05:21:20Z</time>
      </trkpt>
      <trkpt lat="49.83072" lon="2.06834">
        <ele>129.43</ele>
        <time>2016-07-16T05:21:25Z</time>
      </trkpt>
      <trkpt lat="49.82999" lon="2.06661">
        <ele>125.11</ele>
        <time>2016-07-16T05:21:29Z</time>
      </trkpt>
      <trkpt lat="49.82948" lon="2.06528">
        <ele>121.26</ele>
        <time>2016-07-16T05:21:32Z</time>
      </trkpt>
      <trkpt lat="49.82915" lon="2.06438">
        <ele>117.9</ele>
        <time>2016-07-16T05:21:34Z</time>
      </trkpt>
      <trkpt lat="49.82878" lon="2.06329">
        <ele>114.05</ele>
        <time>2016-07-16T05:21:36Z</time>
      </trkpt>
      <trkpt lat="49.82841" lon="2.06209">
        <ele>110.69</ele>
        <time>2016-07-16T05:21:39Z</time>
      </trkpt>
      <trkpt lat="49.82814" lon="2.06115">
        <ele>110.21</ele>
        <time>2016-07-16T05:21:41Z</time>
      </trkpt>
      <trkpt lat="49.82731" lon="2.0578">
        <ele>113.09</ele>
        <time>2016-07-16T05:21:48Z</time>
      </trkpt>
      <trkpt lat="49.82692" lon="2.05583">
        <ele>116.94</ele>
        <time>2016-07-16T05:21:52Z</time>
      </trkpt>
      <trkpt lat="49.82666" lon="2.05436">
        <ele>120.3</ele>
        <time>2016-07-16T05:21:55Z</time>
      </trkpt>
      <trkpt lat="49.82639" lon="2.05289">
        <ele>123.67</ele>
        <time>2016-07-16T05:21:58Z</time>
      </trkpt>
      <trkpt lat="49.82603" lon="2.05093">
        <ele>127.51</ele>
        <time>2016-07-16T05:22:02Z</time>
      </trkpt>
      <trkpt lat="49.82548" lon="2.048">
        <ele>130.88</ele>
        <time>2016-07-16T05:22:08Z</time>
      </trkpt>
      <trkpt lat="49.82435" lon="2.04376">
        <ele>134.24</ele>
        <time>2016-07-16T05:22:17Z</time>
      </trkpt>
      <trkpt lat="49.8229" lon="2.03977">
        <ele>138.09</ele>
        <time>2016-07-16T05:22:26Z</time>
      </trkpt>
      <trkpt lat="49.82272" lon="2.03934">
        <ele>138.09</ele>
        <time>2016-07-16T05:22:27Z</time>
      </trkpt>
      <trkpt lat="49.82136" lon="2.03647">
        <ele>141.45</ele>
        <time>2016-07-16T05:22:34Z</time>
      </trkpt>
      <trkpt lat="49.8196" lon="2.03342">
        <ele>144.82</ele>
        <time>2016-07-16T05:22:42Z</time>
      </trkpt>
      <trkpt lat="49.81733" lon="2.02975">
        <ele>148.18</ele>
        <time>2016-07-16T05:22:52Z</time>
      </trkpt>
      <trkpt lat="49.81644" lon="2.02826">
        <ele>149.62</ele>
        <time>2016-07-16T05:22:56Z</time>
      </trkpt>
      <trkpt lat="49.81476" lon="2.02509">
        <ele>153.47</ele>
        <time>2016-07-16T05:23:04Z</time>
      </trkpt>
      <trkpt lat="49.8131" lon="2.02125">
        <ele>156.83</ele>
        <time>2016-07-16T05:23:13Z</time>
      </trkpt>
      <trkpt lat="49.81216" lon="2.01856">
        <ele>158.27</ele>
        <time>2016-07-16T05:23:19Z</time>
      </trkpt>
      <trkpt lat="49.81076" lon="2.01339">
        <ele>161.16</ele>
        <time>2016-07-16T05:23:30Z</time>
      </trkpt>
      <trkpt lat="49.81055" lon="2.01242">
        <ele>159.72</ele>
        <time>2016-07-16T05:23:32Z</time>
      </trkpt>
      <trkpt lat="49.81035" lon="2.01144">
        <ele>158.27</ele>
        <time>2016-07-16T05:23:34Z</time>
      </trkpt>
      <trkpt lat="49.80985" lon="2.00847">
        <ele>154.91</ele>
        <time>2016-07-16T05:23:40Z</time>
      </trkpt>
      <trkpt lat="49.80948" lon="2.00545">
        <ele>152.03</ele>
        <time>2016-07-16T05:23:46Z</time>
      </trkpt>
      <trkpt lat="49.80925" lon="2.00244">
        <ele>156.35</ele>
        <time>2016-07-16T05:23:52Z</time>
      </trkpt>
      <trkpt lat="49.80917" lon="2.00091">
        <ele>159.72</ele>
        <time>2016-07-16T05:23:55Z</time>
      </trkpt>
      <trkpt lat="49.80913" lon="1.99937">
        <ele>164.04</ele>
        <time>2016-07-16T05:23:58Z</time>
      </trkpt>
      <trkpt lat="49.80912" lon="1.99784">
        <ele>167.41</ele>
        <time>2016-07-16T05:24:01Z</time>
      </trkpt>
      <trkpt lat="49.80915" lon="1.99631">
        <ele>170.77</ele>
        <time>2016-07-16T05:24:04Z</time>
      </trkpt>
      <trkpt lat="49.80917" lon="1.9958">
        <ele>170.77</ele>
        <time>2016-07-16T05:24:05Z</time>
      </trkpt>
      <trkpt lat="49.80929" lon="1.99377">
        <ele>173.66</ele>
        <time>2016-07-16T05:24:09Z</time>
      </trkpt>
      <trkpt lat="49.80992" lon="1.98156">
        <ele>175.1</ele>
        <time>2016-07-16T05:24:33Z</time>
      </trkpt>
      <trkpt lat="49.81057" lon="1.96834">
        <ele>178.46</ele>
        <time>2016-07-16T05:24:59Z</time>
      </trkpt>
      <trkpt lat="49.81091" lon="1.96121">
        <ele>181.35</ele>
        <time>2016-07-16T05:25:13Z</time>
      </trkpt>
      <trkpt lat="49.81113" lon="1.95714">
        <ele>189.04</ele>
        <time>2016-07-16T05:25:21Z</time>
      </trkpt>
      <trkpt lat="49.81117" lon="1.95665">
        <ele>183.75</ele>
        <time>2016-07-16T05:25:22Z</time>
      </trkpt>
      <trkpt lat="49.81131" lon="1.95512">
        <ele>185.67</ele>
        <time>2016-07-16T05:25:25Z</time>
      </trkpt>
      <trkpt lat="49.81197" lon="1.9496">
        <ele>184.23</ele>
        <time>2016-07-16T05:25:36Z</time>
      </trkpt>
      <trkpt lat="49.81332" lon="1.93962">
        <ele>181.35</ele>
        <time>2016-07-16T05:25:56Z</time>
      </trkpt>
      <trkpt lat="49.81399" lon="1.9346">
        <ele>178.46</ele>
        <time>2016-07-16T05:26:06Z</time>
      </trkpt>
      <trkpt lat="49.81458" lon="1.93012">
        <ele>175.1</ele>
        <time>2016-07-16T05:26:15Z</time>
      </trkpt>
      <trkpt lat="49.81482" lon="1.92811">
        <ele>173.66</ele>
        <time>2016-07-16T05:26:19Z</time>
      </trkpt>
      <trkpt lat="49.81529" lon="1.9241">
        <ele>170.77</ele>
        <time>2016-07-16T05:26:27Z</time>
      </trkpt>
      <trkpt lat="49.81579" lon="1.91957">
        <ele>167.41</ele>
        <time>2016-07-16T05:26:36Z</time>
      </trkpt>
      <trkpt lat="49.81589" lon="1.91856">
        <ele>166.45</ele>
        <time>2016-07-16T05:26:38Z</time>
      </trkpt>
      <trkpt lat="49.81633" lon="1.91454">
        <ele>167.41</ele>
        <time>2016-07-16T05:26:46Z</time>
      </trkpt>
      <trkpt lat="49.81706" lon="1.90802">
        <ele>170.77</ele>
        <time>2016-07-16T05:26:59Z</time>
      </trkpt>
      <trkpt lat="49.81711" lon="1.90751">
        <ele>170.77</ele>
        <time>2016-07-16T05:27:00Z</time>
      </trkpt>
      <trkpt lat="49.81731" lon="1.90345">
        <ele>174.62</ele>
        <time>2016-07-16T05:27:08Z</time>
      </trkpt>
      <trkpt lat="49.81712" lon="1.89836">
        <ele>178.46</ele>
        <time>2016-07-16T05:27:18Z</time>
      </trkpt>
      <trkpt lat="49.8169" lon="1.89634">
        <ele>179.9</ele>
        <time>2016-07-16T05:27:22Z</time>
      </trkpt>
      <trkpt lat="49.81677" lon="1.89534">
        <ele>184.23</ele>
        <time>2016-07-16T05:27:24Z</time>
      </trkpt>
      <trkpt lat="49.8167" lon="1.89484">
        <ele>184.23</ele>
        <time>2016-07-16T05:27:25Z</time>
      </trkpt>
      <trkpt lat="49.81636" lon="1.89287">
        <ele>184.23</ele>
        <time>2016-07-16T05:27:29Z</time>
      </trkpt>
      <trkpt lat="49.81513" lon="1.8876">
        <ele>186.63</ele>
        <time>2016-07-16T05:27:40Z</time>
      </trkpt>
      <trkpt lat="49.81439" lon="1.88476">
        <ele>183.27</ele>
        <time>2016-07-16T05:27:46Z</time>
      </trkpt>
      <trkpt lat="49.81403" lon="1.88333">
        <ele>181.83</ele>
        <time>2016-07-16T05:27:49Z</time>
      </trkpt>
      <trkpt lat="49.81292" lon="1.87745">
        <ele>183.27</ele>
        <time>2016-07-16T05:28:01Z</time>
      </trkpt>
      <trkpt lat="49.81284" lon="1.87689">
        <ele>183.27</ele>
        <time>2016-07-16T05:28:02Z</time>
      </trkpt>
      <trkpt lat="49.81237" lon="1.87189">
        <ele>185.19</ele>
        <time>2016-07-16T05:28:12Z</time>
      </trkpt>
      <trkpt lat="49.81222" lon="1.86577">
        <ele>188.56</ele>
        <time>2016-07-16T05:28:24Z</time>
      </trkpt>
      <trkpt lat="49.81221" lon="1.85559">
        <ele>188.56</ele>
        <time>2016-07-16T05:28:44Z</time>
      </trkpt>
      <trkpt lat="49.81165" lon="1.84799">
        <ele>186.15</ele>
        <time>2016-07-16T05:28:59Z</time>
      </trkpt>
      <trkpt lat="49.81116" lon="1.84399">
        <ele>188.08</ele>
        <time>2016-07-16T05:29:07Z</time>
      </trkpt>
      <trkpt lat="49.80995" lon="1.8371">
        <ele>190.96</ele>
        <time>2016-07-16T05:29:21Z</time>
      </trkpt>
      <trkpt lat="49.8082" lon="1.82993">
        <ele>193.36</ele>
        <time>2016-07-16T05:29:36Z</time>
      </trkpt>
      <trkpt lat="49.80615" lon="1.82352">
        <ele>197.21</ele>
        <time>2016-07-16T05:29:50Z</time>
      </trkpt>
      <trkpt lat="49.80357" lon="1.81702">
        <ele>200.09</ele>
        <time>2016-07-16T05:30:05Z</time>
      </trkpt>
      <trkpt lat="49.80038" lon="1.80929">
        <ele>202.98</ele>
        <time>2016-07-16T05:30:23Z</time>
      </trkpt>
      <trkpt lat="49.79746" lon="1.80128">
        <ele>204.42</ele>
        <time>2016-07-16T05:30:41Z</time>
      </trkpt>
      <trkpt lat="49.797" lon="1.79992">
        <ele>207.78</ele>
        <time>2016-07-16T05:30:44Z</time>
      </trkpt>
      <trkpt lat="49.79643" lon="1.79809">
        <ele>206.82</ele>
        <time>2016-07-16T05:30:48Z</time>
      </trkpt>
      <trkpt lat="49.79367" lon="1.78995">
        <ele>203.94</ele>
        <time>2016-07-16T05:31:06Z</time>
      </trkpt>
      <trkpt lat="49.78982" lon="1.77925">
        <ele>206.82</ele>
        <time>2016-07-16T05:31:30Z</time>
      </trkpt>
      <trkpt lat="49.78785" lon="1.77335">
        <ele>203.94</ele>
        <time>2016-07-16T05:31:43Z</time>
      </trkpt>
      <trkpt lat="49.78744" lon="1.77197">
        <ele>201.05</ele>
        <time>2016-07-16T05:31:46Z</time>
      </trkpt>
      <trkpt lat="49.78703" lon="1.77057">
        <ele>197.69</ele>
        <time>2016-07-16T05:31:49Z</time>
      </trkpt>
      <trkpt lat="49.78677" lon="1.76963">
        <ele>194.8</ele>
        <time>2016-07-16T05:31:51Z</time>
      </trkpt>
      <trkpt lat="49.78639" lon="1.76821">
        <ele>190.96</ele>
        <time>2016-07-16T05:31:54Z</time>
      </trkpt>
      <trkpt lat="49.78614" lon="1.76726">
        <ele>187.11</ele>
        <time>2016-07-16T05:31:56Z</time>
      </trkpt>
      <trkpt lat="49.78589" lon="1.7663">
        <ele>183.27</ele>
        <time>2016-07-16T05:31:58Z</time>
      </trkpt>
      <trkpt lat="49.78565" lon="1.76533">
        <ele>178.46</ele>
        <time>2016-07-16T05:32:00Z</time>
      </trkpt>
      <trkpt lat="49.78541" lon="1.76436">
        <ele>173.66</ele>
        <time>2016-07-16T05:32:02Z</time>
      </trkpt>
      <trkpt lat="49.78516" lon="1.76339">
        <ele>169.33</ele>
        <time>2016-07-16T05:32:04Z</time>
      </trkpt>
      <trkpt lat="49.78492" lon="1.76243">
        <ele>165</ele>
        <time>2016-07-16T05:32:06Z</time>
      </trkpt>
      <trkpt lat="49.78467" lon="1.76146">
        <ele>161.64</ele>
        <time>2016-07-16T05:32:08Z</time>
      </trkpt>
      <trkpt lat="49.7843" lon="1.76">
        <ele>158.27</ele>
        <time>2016-07-16T05:32:11Z</time>
      </trkpt>
      <trkpt lat="49.78332" lon="1.75624">
        <ele>154.91</ele>
        <time>2016-07-16T05:32:19Z</time>
      </trkpt>
      <trkpt lat="49.7825" lon="1.75288">
        <ele>151.06</ele>
        <time>2016-07-16T05:32:26Z</time>
      </trkpt>
      <trkpt lat="49.78239" lon="1.75243">
        <ele>151.06</ele>
        <time>2016-07-16T05:32:27Z</time>
      </trkpt>
      <trkpt lat="49.78191" lon="1.75052">
        <ele>148.66</ele>
        <time>2016-07-16T05:32:31Z</time>
      </trkpt>
      <trkpt lat="49.78109" lon="1.74719">
        <ele>152.51</ele>
        <time>2016-07-16T05:32:38Z</time>
      </trkpt>
      <trkpt lat="49.78088" lon="1.74623">
        <ele>155.87</ele>
        <time>2016-07-16T05:32:40Z</time>
      </trkpt>
      <trkpt lat="49.78069" lon="1.74527">
        <ele>160.2</ele>
        <time>2016-07-16T05:32:42Z</time>
      </trkpt>
      <trkpt lat="49.7805" lon="1.74428">
        <ele>164.52</ele>
        <time>2016-07-16T05:32:44Z</time>
      </trkpt>
      <trkpt lat="49.78033" lon="1.74333">
        <ele>168.37</ele>
        <time>2016-07-16T05:32:46Z</time>
      </trkpt>
      <trkpt lat="49.78016" lon="1.74236">
        <ele>172.69</ele>
        <time>2016-07-16T05:32:48Z</time>
      </trkpt>
      <trkpt lat="49.78001" lon="1.74139">
        <ele>177.02</ele>
        <time>2016-07-16T05:32:50Z</time>
      </trkpt>
      <trkpt lat="49.77985" lon="1.74042">
        <ele>180.87</ele>
        <time>2016-07-16T05:32:52Z</time>
      </trkpt>
      <trkpt lat="49.7797" lon="1.73944">
        <ele>184.71</ele>
        <time>2016-07-16T05:32:54Z</time>
      </trkpt>
      <trkpt lat="49.77953" lon="1.73846">
        <ele>188.08</ele>
        <time>2016-07-16T05:32:56Z</time>
      </trkpt>
      <trkpt lat="49.77937" lon="1.73746">
        <ele>191.92</ele>
        <time>2016-07-16T05:32:58Z</time>
      </trkpt>
      <trkpt lat="49.77914" lon="1.73598">
        <ele>195.77</ele>
        <time>2016-07-16T05:33:01Z</time>
      </trkpt>
      <trkpt lat="49.77892" lon="1.73448">
        <ele>199.13</ele>
        <time>2016-07-16T05:33:04Z</time>
      </trkpt>
      <trkpt lat="49.77862" lon="1.73248">
        <ele>202.49</ele>
        <time>2016-07-16T05:33:08Z</time>
      </trkpt>
      <trkpt lat="49.77831" lon="1.73049">
        <ele>205.86</ele>
        <time>2016-07-16T05:33:12Z</time>
      </trkpt>
      <trkpt lat="49.77823" lon="1.73">
        <ele>205.86</ele>
        <time>2016-07-16T05:33:13Z</time>
      </trkpt>
      <trkpt lat="49.77695" lon="1.7237">
        <ele>207.78</ele>
        <time>2016-07-16T05:33:26Z</time>
      </trkpt>
      <trkpt lat="49.77546" lon="1.71974">
        <ele>208.74</ele>
        <time>2016-07-16T05:33:35Z</time>
      </trkpt>
      <trkpt lat="49.77376" lon="1.71663">
        <ele>209.7</ele>
        <time>2016-07-16T05:33:43Z</time>
      </trkpt>
      <trkpt lat="49.77147" lon="1.7137">
        <ele>210.67</ele>
        <time>2016-07-16T05:33:52Z</time>
      </trkpt>
      <trkpt lat="49.76891" lon="1.71147">
        <ele>211.15</ele>
        <time>2016-07-16T05:34:01Z</time>
      </trkpt>
      <trkpt lat="49.76733" lon="1.71022">
        <ele>209.7</ele>
        <time>2016-07-16T05:34:07Z</time>
      </trkpt>
      <trkpt lat="49.76504" lon="1.70836">
        <ele>209.7</ele>
        <time>2016-07-16T05:34:17Z</time>
      </trkpt>
      <trkpt lat="49.763" lon="1.70649">
        <ele>208.74</ele>
        <time>2016-07-16T05:34:28Z</time>
      </trkpt>
      <trkpt lat="49.76141" lon="1.70474">
        <ele>208.26</ele>
        <time>2016-07-16T05:34:39Z</time>
      </trkpt>
      <trkpt lat="49.76005" lon="1.70317">
        <ele>208.26</ele>
        <time>2016-07-16T05:34:51Z</time>
      </trkpt>
      <trkpt lat="49.75973" lon="1.70276">
        <ele>206.82</ele>
        <time>2016-07-16T05:34:57Z</time>
      </trkpt>
      <trkpt lat="49.75966" lon="1.70266">
        <ele>208.26</ele>
        <time>2016-07-16T05:35:00Z</time>
      </trkpt>
      <trkpt lat="49.75966" lon="1.70266">
        <ele>208.26</ele>
        <time>2016-07-16T05:35:13Z</time>
      </trkpt>
      <trkpt lat="49.75966" lon="1.70266">
        <ele>208.26</ele>
        <time>2016-07-16T05:35:18Z</time>
      </trkpt>
      <trkpt lat="49.75965" lon="1.70264">
        <ele>208.26</ele>
        <time>2016-07-16T05:35:19Z</time>
      </trkpt>
      <trkpt lat="49.75965" lon="1.70259">
        <ele>208.74</ele>
        <time>2016-07-16T05:35:20Z</time>
      </trkpt>
      <trkpt lat="49.75962" lon="1.70253">
        <ele>209.7</ele>
        <time>2016-07-16T05:35:21Z</time>
      </trkpt>
      <trkpt lat="49.75958" lon="1.70246">
        <ele>209.7</ele>
        <time>2016-07-16T05:35:22Z</time>
      </trkpt>
      <trkpt lat="49.75941" lon="1.70215">
        <ele>211.15</ele>
        <time>2016-07-16T05:35:25Z</time>
      </trkpt>
      <trkpt lat="49.75899" lon="1.70145">
        <ele>208.74</ele>
        <time>2016-07-16T05:35:30Z</time>
      </trkpt>
      <trkpt lat="49.75804" lon="1.69991">
        <ele>209.22</ele>
        <time>2016-07-16T05:35:38Z</time>
      </trkpt>
      <trkpt lat="49.75668" lon="1.69753">
        <ele>209.22</ele>
        <time>2016-07-16T05:35:47Z</time>
      </trkpt>
      <trkpt lat="49.75577" lon="1.69568">
        <ele>210.19</ele>
        <time>2016-07-16T05:35:53Z</time>
      </trkpt>
      <trkpt lat="49.75451" lon="1.69267">
        <ele>212.59</ele>
        <time>2016-07-16T05:36:01Z</time>
      </trkpt>
      <trkpt lat="49.75387" lon="1.6909">
        <ele>216.91</ele>
        <time>2016-07-16T05:36:05Z</time>
      </trkpt>
      <trkpt lat="49.75196" lon="1.68489">
        <ele>220.28</ele>
        <time>2016-07-16T05:36:18Z</time>
      </trkpt>
      <trkpt lat="49.75081" lon="1.68121">
        <ele>223.64</ele>
        <time>2016-07-16T05:36:26Z</time>
      </trkpt>
      <trkpt lat="49.74868" lon="1.67431">
        <ele>222.2</ele>
        <time>2016-07-16T05:36:41Z</time>
      </trkpt>
      <trkpt lat="49.74584" lon="1.66511">
        <ele>218.84</ele>
        <time>2016-07-16T05:37:01Z</time>
      </trkpt>
      <trkpt lat="49.74401" lon="1.65745">
        <ele>216.91</ele>
        <time>2016-07-16T05:37:17Z</time>
      </trkpt>
      <trkpt lat="49.74344" lon="1.65451">
        <ele>217.4</ele>
        <time>2016-07-16T05:37:23Z</time>
      </trkpt>
      <trkpt lat="49.74306" lon="1.65257">
        <ele>221.72</ele>
        <time>2016-07-16T05:37:27Z</time>
      </trkpt>
      <trkpt lat="49.74277" lon="1.6511">
        <ele>225.09</ele>
        <time>2016-07-16T05:37:30Z</time>
      </trkpt>
      <trkpt lat="49.74267" lon="1.65061">
        <ele>225.09</ele>
        <time>2016-07-16T05:37:31Z</time>
      </trkpt>
      <trkpt lat="49.74229" lon="1.64866">
        <ele>228.45</ele>
        <time>2016-07-16T05:37:35Z</time>
      </trkpt>
      <trkpt lat="49.7421" lon="1.64768">
        <ele>229.89</ele>
        <time>2016-07-16T05:37:37Z</time>
      </trkpt>
      <trkpt lat="49.74163" lon="1.64524">
        <ele>233.26</ele>
        <time>2016-07-16T05:37:42Z</time>
      </trkpt>
      <trkpt lat="49.74154" lon="1.64475">
        <ele>233.26</ele>
        <time>2016-07-16T05:37:43Z</time>
      </trkpt>
      <trkpt lat="49.74021" lon="1.63791">
        <ele>236.62</ele>
        <time>2016-07-16T05:37:57Z</time>
      </trkpt>
      <trkpt lat="49.73881" lon="1.63056">
        <ele>239.99</ele>
        <time>2016-07-16T05:38:12Z</time>
      </trkpt>
      <trkpt lat="49.73815" lon="1.62502">
        <ele>241.91</ele>
        <time>2016-07-16T05:38:23Z</time>
      </trkpt>
      <trkpt lat="49.73801" lon="1.61995">
        <ele>240.95</ele>
        <time>2016-07-16T05:38:33Z</time>
      </trkpt>
      <trkpt lat="49.7383" lon="1.61488">
        <ele>238.54</ele>
        <time>2016-07-16T05:38:43Z</time>
      </trkpt>
      <trkpt lat="49.73907" lon="1.60939">
        <ele>235.66</ele>
        <time>2016-07-16T05:38:54Z</time>
      </trkpt>
      <trkpt lat="49.73968" lon="1.60647">
        <ele>232.3</ele>
        <time>2016-07-16T05:39:00Z</time>
      </trkpt>
      <trkpt lat="49.74" lon="1.60503">
        <ele>235.18</ele>
        <time>2016-07-16T05:39:03Z</time>
      </trkpt>
      <trkpt lat="49.74011" lon="1.60455">
        <ele>235.18</ele>
        <time>2016-07-16T05:39:04Z</time>
      </trkpt>
      <trkpt lat="49.74032" lon="1.60358">
        <ele>230.85</ele>
        <time>2016-07-16T05:39:06Z</time>
      </trkpt>
      <trkpt lat="49.74043" lon="1.60309">
        <ele>230.85</ele>
        <time>2016-07-16T05:39:07Z</time>
      </trkpt>
      <trkpt lat="49.74166" lon="1.59724">
        <ele>227.01</ele>
        <time>2016-07-16T05:39:19Z</time>
      </trkpt>
      <trkpt lat="49.74191" lon="1.59526">
        <ele>225.09</ele>
        <time>2016-07-16T05:39:23Z</time>
      </trkpt>
      <trkpt lat="49.74205" lon="1.59324">
        <ele>221.72</ele>
        <time>2016-07-16T05:39:27Z</time>
      </trkpt>
      <trkpt lat="49.7421" lon="1.59122">
        <ele>217.4</ele>
        <time>2016-07-16T05:39:31Z</time>
      </trkpt>
      <trkpt lat="49.74206" lon="1.5897">
        <ele>213.55</ele>
        <time>2016-07-16T05:39:34Z</time>
      </trkpt>
      <trkpt lat="49.74196" lon="1.58817">
        <ele>210.19</ele>
        <time>2016-07-16T05:39:37Z</time>
      </trkpt>
      <trkpt lat="49.74181" lon="1.58666">
        <ele>206.82</ele>
        <time>2016-07-16T05:39:40Z</time>
      </trkpt>
      <trkpt lat="49.74159" lon="1.58517">
        <ele>203.46</ele>
        <time>2016-07-16T05:39:43Z</time>
      </trkpt>
      <trkpt lat="49.7413" lon="1.58368">
        <ele>200.09</ele>
        <time>2016-07-16T05:39:46Z</time>
      </trkpt>
      <trkpt lat="49.74096" lon="1.58223">
        <ele>196.73</ele>
        <time>2016-07-16T05:39:49Z</time>
      </trkpt>
      <trkpt lat="49.74057" lon="1.58082">
        <ele>193.36</ele>
        <time>2016-07-16T05:39:52Z</time>
      </trkpt>
      <trkpt lat="49.74012" lon="1.57946">
        <ele>190</ele>
        <time>2016-07-16T05:39:55Z</time>
      </trkpt>
      <trkpt lat="49.73962" lon="1.57814">
        <ele>186.63</ele>
        <time>2016-07-16T05:39:58Z</time>
      </trkpt>
      <trkpt lat="49.73907" lon="1.57686">
        <ele>182.79</ele>
        <time>2016-07-16T05:40:01Z</time>
      </trkpt>
      <trkpt lat="49.73868" lon="1.57601">
        <ele>181.83</ele>
        <time>2016-07-16T05:40:03Z</time>
      </trkpt>
      <trkpt lat="49.7383" lon="1.57516">
        <ele>178.46</ele>
        <time>2016-07-16T05:40:05Z</time>
      </trkpt>
      <trkpt lat="49.73793" lon="1.57431">
        <ele>175.58</ele>
        <time>2016-07-16T05:40:07Z</time>
      </trkpt>
      <trkpt lat="49.73774" lon="1.57388">
        <ele>175.58</ele>
        <time>2016-07-16T05:40:08Z</time>
      </trkpt>
      <trkpt lat="49.73721" lon="1.57258">
        <ele>171.73</ele>
        <time>2016-07-16T05:40:11Z</time>
      </trkpt>
      <trkpt lat="49.73672" lon="1.57123">
        <ele>168.37</ele>
        <time>2016-07-16T05:40:14Z</time>
      </trkpt>
      <trkpt lat="49.73629" lon="1.56984">
        <ele>164.52</ele>
        <time>2016-07-16T05:40:17Z</time>
      </trkpt>
      <trkpt lat="49.73591" lon="1.56839">
        <ele>161.16</ele>
        <time>2016-07-16T05:40:20Z</time>
      </trkpt>
      <trkpt lat="49.73559" lon="1.56692">
        <ele>159.24</ele>
        <time>2016-07-16T05:40:23Z</time>
      </trkpt>
      <trkpt lat="49.73542" lon="1.56593">
        <ele>157.79</ele>
        <time>2016-07-16T05:40:25Z</time>
      </trkpt>
      <trkpt lat="49.73505" lon="1.56292">
        <ele>159.24</ele>
        <time>2016-07-16T05:40:31Z</time>
      </trkpt>
      <trkpt lat="49.7349" lon="1.55984">
        <ele>162.6</ele>
        <time>2016-07-16T05:40:37Z</time>
      </trkpt>
      <trkpt lat="49.73494" lon="1.55778">
        <ele>167.41</ele>
        <time>2016-07-16T05:40:41Z</time>
      </trkpt>
      <trkpt lat="49.73497" lon="1.55729">
        <ele>167.41</ele>
        <time>2016-07-16T05:40:42Z</time>
      </trkpt>
      <trkpt lat="49.73517" lon="1.55526">
        <ele>171.25</ele>
        <time>2016-07-16T05:40:46Z</time>
      </trkpt>
      <trkpt lat="49.73545" lon="1.55326">
        <ele>174.14</ele>
        <time>2016-07-16T05:40:50Z</time>
      </trkpt>
      <trkpt lat="49.73575" lon="1.55179">
        <ele>178.46</ele>
        <time>2016-07-16T05:40:53Z</time>
      </trkpt>
      <trkpt lat="49.73586" lon="1.55132">
        <ele>178.46</ele>
        <time>2016-07-16T05:40:54Z</time>
      </trkpt>
      <trkpt lat="49.73716" lon="1.5472">
        <ele>179.42</ele>
        <time>2016-07-16T05:41:03Z</time>
      </trkpt>
      <trkpt lat="49.73768" lon="1.54586">
        <ele>177.98</ele>
        <time>2016-07-16T05:41:06Z</time>
      </trkpt>
      <trkpt lat="49.73836" lon="1.54412">
        <ele>174.14</ele>
        <time>2016-07-16T05:41:10Z</time>
      </trkpt>
      <trkpt lat="49.73871" lon="1.54321">
        <ele>170.77</ele>
        <time>2016-07-16T05:41:12Z</time>
      </trkpt>
      <trkpt lat="49.73921" lon="1.54189">
        <ele>166.93</ele>
        <time>2016-07-16T05:41:15Z</time>
      </trkpt>
      <trkpt lat="49.73972" lon="1.54056">
        <ele>163.08</ele>
        <time>2016-07-16T05:41:18Z</time>
      </trkpt>
      <trkpt lat="49.74006" lon="1.53966">
        <ele>159.72</ele>
        <time>2016-07-16T05:41:20Z</time>
      </trkpt>
      <trkpt lat="49.74042" lon="1.53873">
        <ele>156.35</ele>
        <time>2016-07-16T05:41:22Z</time>
      </trkpt>
      <trkpt lat="49.74127" lon="1.53661">
        <ele>152.99</ele>
        <time>2016-07-16T05:41:27Z</time>
      </trkpt>
      <trkpt lat="49.74145" lon="1.53618">
        <ele>152.99</ele>
        <time>2016-07-16T05:41:28Z</time>
      </trkpt>
      <trkpt lat="49.74235" lon="1.53408">
        <ele>156.83</ele>
        <time>2016-07-16T05:41:33Z</time>
      </trkpt>
      <trkpt lat="49.74292" lon="1.53282">
        <ele>160.2</ele>
        <time>2016-07-16T05:41:36Z</time>
      </trkpt>
      <trkpt lat="49.74367" lon="1.53114">
        <ele>163.56</ele>
        <time>2016-07-16T05:41:40Z</time>
      </trkpt>
      <trkpt lat="49.7444" lon="1.52947">
        <ele>167.89</ele>
        <time>2016-07-16T05:41:44Z</time>
      </trkpt>
      <trkpt lat="49.74476" lon="1.52861">
        <ele>169.33</ele>
        <time>2016-07-16T05:41:46Z</time>
      </trkpt>
      <trkpt lat="49.74651" lon="1.52367">
        <ele>169.33</ele>
        <time>2016-07-16T05:41:57Z</time>
      </trkpt>
      <trkpt lat="49.74663" lon="1.52322">
        <ele>169.33</ele>
        <time>2016-07-16T05:41:58Z</time>
      </trkpt>
      <trkpt lat="49.74829" lon="1.51654">
        <ele>169.33</ele>
        <time>2016-07-16T05:42:12Z</time>
      </trkpt>
      <trkpt lat="49.74855" lon="1.5156">
        <ele>169.81</ele>
        <time>2016-07-16T05:42:14Z</time>
      </trkpt>
      <trkpt lat="49.74993" lon="1.51154">
        <ele>166.45</ele>
        <time>2016-07-16T05:42:23Z</time>
      </trkpt>
      <trkpt lat="49.75045" lon="1.51021">
        <ele>163.08</ele>
        <time>2016-07-16T05:42:26Z</time>
      </trkpt>
      <trkpt lat="49.75095" lon="1.5089">
        <ele>160.2</ele>
        <time>2016-07-16T05:42:29Z</time>
      </trkpt>
      <trkpt lat="49.75146" lon="1.50758">
        <ele>156.35</ele>
        <time>2016-07-16T05:42:32Z</time>
      </trkpt>
      <trkpt lat="49.75195" lon="1.5063">
        <ele>152.03</ele>
        <time>2016-07-16T05:42:35Z</time>
      </trkpt>
      <trkpt lat="49.75243" lon="1.50504">
        <ele>148.66</ele>
        <time>2016-07-16T05:42:38Z</time>
      </trkpt>
      <trkpt lat="49.7529" lon="1.50381">
        <ele>145.78</ele>
        <time>2016-07-16T05:42:41Z</time>
      </trkpt>
      <trkpt lat="49.75387" lon="1.50107">
        <ele>142.41</ele>
        <time>2016-07-16T05:42:48Z</time>
      </trkpt>
      <trkpt lat="49.75502" lon="1.49708">
        <ele>140.49</ele>
        <time>2016-07-16T05:42:59Z</time>
      </trkpt>
      <trkpt lat="49.75574" lon="1.49421">
        <ele>142.41</ele>
        <time>2016-07-16T05:43:08Z</time>
      </trkpt>
      <trkpt lat="49.75605" lon="1.49294">
        <ele>144.82</ele>
        <time>2016-07-16T05:43:12Z</time>
      </trkpt>
      <trkpt lat="49.75637" lon="1.49166">
        <ele>148.18</ele>
        <time>2016-07-16T05:43:16Z</time>
      </trkpt>
      <trkpt lat="49.75669" lon="1.49039">
        <ele>152.03</ele>
        <time>2016-07-16T05:43:20Z</time>
      </trkpt>
      <trkpt lat="49.75704" lon="1.48906">
        <ele>155.87</ele>
        <time>2016-07-16T05:43:24Z</time>
      </trkpt>
      <trkpt lat="49.75739" lon="1.48765">
        <ele>159.24</ele>
        <time>2016-07-16T05:43:29Z</time>
      </trkpt>
      <trkpt lat="49.75756" lon="1.48634">
        <ele>162.6</ele>
        <time>2016-07-16T05:43:34Z</time>
      </trkpt>
      <trkpt lat="49.75743" lon="1.48505">
        <ele>165</ele>
        <time>2016-07-16T05:43:39Z</time>
      </trkpt>
      <trkpt lat="49.75737" lon="1.48483">
        <ele>165</ele>
        <time>2016-07-16T05:43:40Z</time>
      </trkpt>
      <trkpt lat="49.75728" lon="1.48458">
        <ele>165</ele>
        <time>2016-07-16T05:43:41Z</time>
      </trkpt>
      <trkpt lat="49.75718" lon="1.48435">
        <ele>165.48</ele>
        <time>2016-07-16T05:43:42Z</time>
      </trkpt>
      <trkpt lat="49.75708" lon="1.48415">
        <ele>165.48</ele>
        <time>2016-07-16T05:43:43Z</time>
      </trkpt>
      <trkpt lat="49.75697" lon="1.48395">
        <ele>165.96</ele>
        <time>2016-07-16T05:43:44Z</time>
      </trkpt>
      <trkpt lat="49.75684" lon="1.48377">
        <ele>165.96</ele>
        <time>2016-07-16T05:43:45Z</time>
      </trkpt>
      <trkpt lat="49.75671" lon="1.4836">
        <ele>165.96</ele>
        <time>2016-07-16T05:43:46Z</time>
      </trkpt>
      <trkpt lat="49.75656" lon="1.48345">
        <ele>166.45</ele>
        <time>2016-07-16T05:43:47Z</time>
      </trkpt>
      <trkpt lat="49.75641" lon="1.48331">
        <ele>166.45</ele>
        <time>2016-07-16T05:43:48Z</time>
      </trkpt>
      <trkpt lat="49.75625" lon="1.4832">
        <ele>166.45</ele>
        <time>2016-07-16T05:43:49Z</time>
      </trkpt>
      <trkpt lat="49.75609" lon="1.4831">
        <ele>166.93</ele>
        <time>2016-07-16T05:43:50Z</time>
      </trkpt>
      <trkpt lat="49.75591" lon="1.48302">
        <ele>166.93</ele>
        <time>2016-07-16T05:43:51Z</time>
      </trkpt>
      <trkpt lat="49.75573" lon="1.48296">
        <ele>166.93</ele>
        <time>2016-07-16T05:43:52Z</time>
      </trkpt>
      <trkpt lat="49.75556" lon="1.48293">
        <ele>167.41</ele>
        <time>2016-07-16T05:43:53Z</time>
      </trkpt>
      <trkpt lat="49.75538" lon="1.48291">
        <ele>167.41</ele>
        <time>2016-07-16T05:43:54Z</time>
      </trkpt>
      <trkpt lat="49.7552" lon="1.48291">
        <ele>167.41</ele>
        <time>2016-07-16T05:43:55Z</time>
      </trkpt>
      <trkpt lat="49.75502" lon="1.48293">
        <ele>168.37</ele>
        <time>2016-07-16T05:43:56Z</time>
      </trkpt>
      <trkpt lat="49.75484" lon="1.48297">
        <ele>168.85</ele>
        <time>2016-07-16T05:43:57Z</time>
      </trkpt>
      <trkpt lat="49.75409" lon="1.48312">
        <ele>172.69</ele>
        <time>2016-07-16T05:44:01Z</time>
      </trkpt>
      <trkpt lat="49.7535" lon="1.48308">
        <ele>176.54</ele>
        <time>2016-07-16T05:44:04Z</time>
      </trkpt>
      <trkpt lat="49.7531" lon="1.48295">
        <ele>178.94</ele>
        <time>2016-07-16T05:44:06Z</time>
      </trkpt>
      <trkpt lat="49.7529" lon="1.48283">
        <ele>179.9</ele>
        <time>2016-07-16T05:44:07Z</time>
      </trkpt>
      <trkpt lat="49.75271" lon="1.48267">
        <ele>181.35</ele>
        <time>2016-07-16T05:44:08Z</time>
      </trkpt>
      <trkpt lat="49.75219" lon="1.48215">
        <ele>185.19</ele>
        <time>2016-07-16T05:44:11Z</time>
      </trkpt>
      <trkpt lat="49.75162" lon="1.48158">
        <ele>188.56</ele>
        <time>2016-07-16T05:44:14Z</time>
      </trkpt>
      <trkpt lat="49.75103" lon="1.48097">
        <ele>191.92</ele>
        <time>2016-07-16T05:44:17Z</time>
      </trkpt>
      <trkpt lat="49.75042" lon="1.48033">
        <ele>195.77</ele>
        <time>2016-07-16T05:44:20Z</time>
      </trkpt>
      <trkpt lat="49.74999" lon="1.47989">
        <ele>199.13</ele>
        <time>2016-07-16T05:44:22Z</time>
      </trkpt>
      <trkpt lat="49.74934" lon="1.47921">
        <ele>203.94</ele>
        <time>2016-07-16T05:44:25Z</time>
      </trkpt>
      <trkpt lat="49.74865" lon="1.47849">
        <ele>207.3</ele>
        <time>2016-07-16T05:44:28Z</time>
      </trkpt>
      <trkpt lat="49.74795" lon="1.47776">
        <ele>211.63</ele>
        <time>2016-07-16T05:44:31Z</time>
      </trkpt>
      <trkpt lat="49.74722" lon="1.47699">
        <ele>216.43</ele>
        <time>2016-07-16T05:44:34Z</time>
      </trkpt>
      <trkpt lat="49.74673" lon="1.47648">
        <ele>219.8</ele>
        <time>2016-07-16T05:44:36Z</time>
      </trkpt>
      <trkpt lat="49.74622" lon="1.47596">
        <ele>223.16</ele>
        <time>2016-07-16T05:44:38Z</time>
      </trkpt>
      <trkpt lat="49.74544" lon="1.47518">
        <ele>226.53</ele>
        <time>2016-07-16T05:44:41Z</time>
      </trkpt>
      <trkpt lat="49.74458" lon="1.47448">
        <ele>229.89</ele>
        <time>2016-07-16T05:44:44Z</time>
      </trkpt>
      <trkpt lat="49.74429" lon="1.47427">
        <ele>230.37</ele>
        <time>2016-07-16T05:44:45Z</time>
      </trkpt>
      <trkpt lat="49.74364" lon="1.47382">
        <ele>231.81</ele>
        <time>2016-07-16T05:44:47Z</time>
      </trkpt>
      <trkpt lat="49.74152" lon="1.47247">
        <ele>228.93</ele>
        <time>2016-07-16T05:44:54Z</time>
      </trkpt>
      <trkpt lat="49.73936" lon="1.47106">
        <ele>225.57</ele>
        <time>2016-07-16T05:45:01Z</time>
      </trkpt>
      <trkpt lat="49.73842" lon="1.47044">
        <ele>222.2</ele>
        <time>2016-07-16T05:45:04Z</time>
      </trkpt>
      <trkpt lat="49.7375" lon="1.46985">
        <ele>217.88</ele>
        <time>2016-07-16T05:45:07Z</time>
      </trkpt>
      <trkpt lat="49.73687" lon="1.46944">
        <ele>214.51</ele>
        <time>2016-07-16T05:45:09Z</time>
      </trkpt>
      <trkpt lat="49.73626" lon="1.46898">
        <ele>210.19</ele>
        <time>2016-07-16T05:45:11Z</time>
      </trkpt>
      <trkpt lat="49.73568" lon="1.46847">
        <ele>207.3</ele>
        <time>2016-07-16T05:45:13Z</time>
      </trkpt>
      <trkpt lat="49.73512" lon="1.4679">
        <ele>202.01</ele>
        <time>2016-07-16T05:45:15Z</time>
      </trkpt>
      <trkpt lat="49.73459" lon="1.46731">
        <ele>197.21</ele>
        <time>2016-07-16T05:45:17Z</time>
      </trkpt>
      <trkpt lat="49.73433" lon="1.467">
        <ele>194.32</ele>
        <time>2016-07-16T05:45:18Z</time>
      </trkpt>
      <trkpt lat="49.73383" lon="1.46636">
        <ele>190.48</ele>
        <time>2016-07-16T05:45:20Z</time>
      </trkpt>
      <trkpt lat="49.73336" lon="1.46569">
        <ele>187.11</ele>
        <time>2016-07-16T05:45:22Z</time>
      </trkpt>
      <trkpt lat="49.73288" lon="1.46494">
        <ele>184.23</ele>
        <time>2016-07-16T05:45:24Z</time>
      </trkpt>
      <trkpt lat="49.73243" lon="1.46416">
        <ele>180.38</ele>
        <time>2016-07-16T05:45:26Z</time>
      </trkpt>
      <trkpt lat="49.732" lon="1.46335">
        <ele>176.06</ele>
        <time>2016-07-16T05:45:28Z</time>
      </trkpt>
      <trkpt lat="49.73155" lon="1.46252">
        <ele>173.17</ele>
        <time>2016-07-16T05:45:30Z</time>
      </trkpt>
      <trkpt lat="49.73112" lon="1.46171">
        <ele>168.85</ele>
        <time>2016-07-16T05:45:32Z</time>
      </trkpt>
      <trkpt lat="49.73069" lon="1.46093">
        <ele>164.04</ele>
        <time>2016-07-16T05:45:34Z</time>
      </trkpt>
      <trkpt lat="49.73026" lon="1.46013">
        <ele>160.2</ele>
        <time>2016-07-16T05:45:36Z</time>
      </trkpt>
      <trkpt lat="49.72982" lon="1.45933">
        <ele>156.35</ele>
        <time>2016-07-16T05:45:38Z</time>
      </trkpt>
      <trkpt lat="49.72938" lon="1.45851">
        <ele>151.54</ele>
        <time>2016-07-16T05:45:40Z</time>
      </trkpt>
      <trkpt lat="49.72873" lon="1.45732">
        <ele>149.14</ele>
        <time>2016-07-16T05:45:43Z</time>
      </trkpt>
      <trkpt lat="49.7285" lon="1.4569">
        <ele>144.34</ele>
        <time>2016-07-16T05:45:44Z</time>
      </trkpt>
      <trkpt lat="49.72828" lon="1.45651">
        <ele>140.97</ele>
        <time>2016-07-16T05:45:45Z</time>
      </trkpt>
      <trkpt lat="49.72785" lon="1.45571">
        <ele>137.61</ele>
        <time>2016-07-16T05:45:47Z</time>
      </trkpt>
      <trkpt lat="49.72742" lon="1.45492">
        <ele>134.24</ele>
        <time>2016-07-16T05:45:49Z</time>
      </trkpt>
      <trkpt lat="49.72697" lon="1.4541">
        <ele>130.4</ele>
        <time>2016-07-16T05:45:51Z</time>
      </trkpt>
      <trkpt lat="49.72632" lon="1.45291">
        <ele>126.07</ele>
        <time>2016-07-16T05:45:54Z</time>
      </trkpt>
      <trkpt lat="49.72588" lon="1.45211">
        <ele>122.71</ele>
        <time>2016-07-16T05:45:56Z</time>
      </trkpt>
      <trkpt lat="49.72525" lon="1.45093">
        <ele>117.9</ele>
        <time>2016-07-16T05:45:59Z</time>
      </trkpt>
      <trkpt lat="49.72483" lon="1.45012">
        <ele>115.01</ele>
        <time>2016-07-16T05:46:01Z</time>
      </trkpt>
      <trkpt lat="49.72443" lon="1.44932">
        <ele>110.21</ele>
        <time>2016-07-16T05:46:03Z</time>
      </trkpt>
      <trkpt lat="49.72408" lon="1.44854">
        <ele>105.4</ele>
        <time>2016-07-16T05:46:05Z</time>
      </trkpt>
      <trkpt lat="49.72363" lon="1.44741">
        <ele>101.56</ele>
        <time>2016-07-16T05:46:08Z</time>
      </trkpt>
      <trkpt lat="49.7231" lon="1.44591">
        <ele>97.23</ele>
        <time>2016-07-16T05:46:12Z</time>
      </trkpt>
      <trkpt lat="49.72286" lon="1.44513">
        <ele>93.87</ele>
        <time>2016-07-16T05:46:14Z</time>
      </trkpt>
      <trkpt lat="49.72253" lon="1.44396">
        <ele>90.5</ele>
        <time>2016-07-16T05:46:17Z</time>
      </trkpt>
      <trkpt lat="49.72223" lon="1.44278">
        <ele>87.62</ele>
        <time>2016-07-16T05:46:20Z</time>
      </trkpt>
      <trkpt lat="49.7217" lon="1.44011">
        <ele>84.25</ele>
        <time>2016-07-16T05:46:26Z</time>
      </trkpt>
      <trkpt lat="49.72163" lon="1.43965">
        <ele>84.73</ele>
        <time>2016-07-16T05:46:27Z</time>
      </trkpt>
      <trkpt lat="49.72137" lon="1.43789">
        <ele>85.69</ele>
        <time>2016-07-16T05:46:31Z</time>
      </trkpt>
      <trkpt lat="49.7212" lon="1.43655">
        <ele>89.54</ele>
        <time>2016-07-16T05:46:34Z</time>
      </trkpt>
      <trkpt lat="49.72107" lon="1.43562">
        <ele>92.9</ele>
        <time>2016-07-16T05:46:36Z</time>
      </trkpt>
      <trkpt lat="49.72096" lon="1.43473">
        <ele>96.75</ele>
        <time>2016-07-16T05:46:38Z</time>
      </trkpt>
      <trkpt lat="49.72085" lon="1.4338">
        <ele>100.11</ele>
        <time>2016-07-16T05:46:40Z</time>
      </trkpt>
      <trkpt lat="49.72073" lon="1.43282">
        <ele>105.88</ele>
        <time>2016-07-16T05:46:42Z</time>
      </trkpt>
      <trkpt lat="49.72067" lon="1.43237">
        <ele>105.88</ele>
        <time>2016-07-16T05:46:43Z</time>
      </trkpt>
      <trkpt lat="49.72056" lon="1.4314">
        <ele>109.73</ele>
        <time>2016-07-16T05:46:45Z</time>
      </trkpt>
      <trkpt lat="49.72043" lon="1.43042">
        <ele>113.09</ele>
        <time>2016-07-16T05:46:47Z</time>
      </trkpt>
      <trkpt lat="49.72024" lon="1.42897">
        <ele>116.94</ele>
        <time>2016-07-16T05:46:50Z</time>
      </trkpt>
      <trkpt lat="49.72011" lon="1.42807">
        <ele>120.3</ele>
        <time>2016-07-16T05:46:52Z</time>
      </trkpt>
      <trkpt lat="49.71999" lon="1.42722">
        <ele>123.67</ele>
        <time>2016-07-16T05:46:54Z</time>
      </trkpt>
      <trkpt lat="49.71981" lon="1.42587">
        <ele>127.03</ele>
        <time>2016-07-16T05:46:57Z</time>
      </trkpt>
      <trkpt lat="49.71969" lon="1.42495">
        <ele>128.95</ele>
        <time>2016-07-16T05:46:59Z</time>
      </trkpt>
      <trkpt lat="49.71947" lon="1.42352">
        <ele>131.84</ele>
        <time>2016-07-16T05:47:02Z</time>
      </trkpt>
      <trkpt lat="49.71938" lon="1.42303">
        <ele>132.32</ele>
        <time>2016-07-16T05:47:03Z</time>
      </trkpt>
      <trkpt lat="49.71849" lon="1.41975">
        <ele>130.88</ele>
        <time>2016-07-16T05:47:10Z</time>
      </trkpt>
      <trkpt lat="49.71815" lon="1.41888">
        <ele>129.92</ele>
        <time>2016-07-16T05:47:12Z</time>
      </trkpt>
      <trkpt lat="49.71678" lon="1.416">
        <ele>126.55</ele>
        <time>2016-07-16T05:47:19Z</time>
      </trkpt>
      <trkpt lat="49.7155" lon="1.41302">
        <ele>123.19</ele>
        <time>2016-07-16T05:47:26Z</time>
      </trkpt>
      <trkpt lat="49.71519" lon="1.4121">
        <ele>122.71</ele>
        <time>2016-07-16T05:47:28Z</time>
      </trkpt>
      <trkpt lat="49.71444" lon="1.4087">
        <ele>120.3</ele>
        <time>2016-07-16T05:47:35Z</time>
      </trkpt>
      <trkpt lat="49.71395" lon="1.40361">
        <ele>117.42</ele>
        <time>2016-07-16T05:47:45Z</time>
      </trkpt>
      <trkpt lat="49.71333" lon="1.39606">
        <ele>120.78</ele>
        <time>2016-07-16T05:48:00Z</time>
      </trkpt>
      <trkpt lat="49.7132" lon="1.39456">
        <ele>124.15</ele>
        <time>2016-07-16T05:48:03Z</time>
      </trkpt>
      <trkpt lat="49.71307" lon="1.39304">
        <ele>127.99</ele>
        <time>2016-07-16T05:48:06Z</time>
      </trkpt>
      <trkpt lat="49.71298" lon="1.39203">
        <ele>131.36</ele>
        <time>2016-07-16T05:48:08Z</time>
      </trkpt>
      <trkpt lat="49.71288" lon="1.39103">
        <ele>134.24</ele>
        <time>2016-07-16T05:48:10Z</time>
      </trkpt>
      <trkpt lat="49.71278" lon="1.39003">
        <ele>137.13</ele>
        <time>2016-07-16T05:48:12Z</time>
      </trkpt>
      <trkpt lat="49.71265" lon="1.38904">
        <ele>141.45</ele>
        <time>2016-07-16T05:48:14Z</time>
      </trkpt>
      <trkpt lat="49.7124" lon="1.38756">
        <ele>145.78</ele>
        <time>2016-07-16T05:48:17Z</time>
      </trkpt>
      <trkpt lat="49.71219" lon="1.38659">
        <ele>148.66</ele>
        <time>2016-07-16T05:48:19Z</time>
      </trkpt>
      <trkpt lat="49.71195" lon="1.38565">
        <ele>152.51</ele>
        <time>2016-07-16T05:48:21Z</time>
      </trkpt>
      <trkpt lat="49.71154" lon="1.38427">
        <ele>156.35</ele>
        <time>2016-07-16T05:48:24Z</time>
      </trkpt>
      <trkpt lat="49.71123" lon="1.38337">
        <ele>159.24</ele>
        <time>2016-07-16T05:48:26Z</time>
      </trkpt>
      <trkpt lat="49.71088" lon="1.38249">
        <ele>162.6</ele>
        <time>2016-07-16T05:48:28Z</time>
      </trkpt>
      <trkpt lat="49.71028" lon="1.38119">
        <ele>166.93</ele>
        <time>2016-07-16T05:48:31Z</time>
      </trkpt>
      <trkpt lat="49.70968" lon="1.38004">
        <ele>172.69</ele>
        <time>2016-07-16T05:48:34Z</time>
      </trkpt>
      <trkpt lat="49.70924" lon="1.3793">
        <ele>174.62</ele>
        <time>2016-07-16T05:48:36Z</time>
      </trkpt>
      <trkpt lat="49.70878" lon="1.37857">
        <ele>177.5</ele>
        <time>2016-07-16T05:48:38Z</time>
      </trkpt>
      <trkpt lat="49.70832" lon="1.37784">
        <ele>180.87</ele>
        <time>2016-07-16T05:48:40Z</time>
      </trkpt>
      <trkpt lat="49.70785" lon="1.37711">
        <ele>184.23</ele>
        <time>2016-07-16T05:48:42Z</time>
      </trkpt>
      <trkpt lat="49.70739" lon="1.37637">
        <ele>188.08</ele>
        <time>2016-07-16T05:48:44Z</time>
      </trkpt>
      <trkpt lat="49.70694" lon="1.37563">
        <ele>190.96</ele>
        <time>2016-07-16T05:48:46Z</time>
      </trkpt>
      <trkpt lat="49.70625" lon="1.37452">
        <ele>194.8</ele>
        <time>2016-07-16T05:48:49Z</time>
      </trkpt>
      <trkpt lat="49.70579" lon="1.37379">
        <ele>198.65</ele>
        <time>2016-07-16T05:48:51Z</time>
      </trkpt>
      <trkpt lat="49.70511" lon="1.37268">
        <ele>202.98</ele>
        <time>2016-07-16T05:48:54Z</time>
      </trkpt>
      <trkpt lat="49.70465" lon="1.37194">
        <ele>206.34</ele>
        <time>2016-07-16T05:48:56Z</time>
      </trkpt>
      <trkpt lat="49.70421" lon="1.37118">
        <ele>209.7</ele>
        <time>2016-07-16T05:48:58Z</time>
      </trkpt>
      <trkpt lat="49.70356" lon="1.37003">
        <ele>214.51</ele>
        <time>2016-07-16T05:49:01Z</time>
      </trkpt>
      <trkpt lat="49.70291" lon="1.3689">
        <ele>217.4</ele>
        <time>2016-07-16T05:49:04Z</time>
      </trkpt>
      <trkpt lat="49.70192" lon="1.36714">
        <ele>221.24</ele>
        <time>2016-07-16T05:49:09Z</time>
      </trkpt>
      <trkpt lat="49.70134" lon="1.36611">
        <ele>224.61</ele>
        <time>2016-07-16T05:49:12Z</time>
      </trkpt>
      <trkpt lat="49.70032" lon="1.36438">
        <ele>227.01</ele>
        <time>2016-07-16T05:49:17Z</time>
      </trkpt>
      <trkpt lat="49.69824" lon="1.36119">
        <ele>226.53</ele>
        <time>2016-07-16T05:49:27Z</time>
      </trkpt>
      <trkpt lat="49.69804" lon="1.3609">
        <ele>226.53</ele>
        <time>2016-07-16T05:49:28Z</time>
      </trkpt>
      <trkpt lat="49.69608" lon="1.35839">
        <ele>229.41</ele>
        <time>2016-07-16T05:49:37Z</time>
      </trkpt>
      <trkpt lat="49.69365" lon="1.35597">
        <ele>228.93</ele>
        <time>2016-07-16T05:49:46Z</time>
      </trkpt>
      <trkpt lat="49.69219" lon="1.3547">
        <ele>229.89</ele>
        <time>2016-07-16T05:49:51Z</time>
      </trkpt>
      <trkpt lat="49.6916" lon="1.35421">
        <ele>226.53</ele>
        <time>2016-07-16T05:49:53Z</time>
      </trkpt>
      <trkpt lat="49.69101" lon="1.35373">
        <ele>226.05</ele>
        <time>2016-07-16T05:49:55Z</time>
      </trkpt>
      <trkpt lat="49.68741" lon="1.35095">
        <ele>222.68</ele>
        <time>2016-07-16T05:50:07Z</time>
      </trkpt>
      <trkpt lat="49.68472" lon="1.34889">
        <ele>218.84</ele>
        <time>2016-07-16T05:50:16Z</time>
      </trkpt>
      <trkpt lat="49.68265" lon="1.34723">
        <ele>215.95</ele>
        <time>2016-07-16T05:50:23Z</time>
      </trkpt>
      <trkpt lat="49.68051" lon="1.34478">
        <ele>212.59</ele>
        <time>2016-07-16T05:50:31Z</time>
      </trkpt>
      <trkpt lat="49.68027" lon="1.34443">
        <ele>212.59</ele>
        <time>2016-07-16T05:50:32Z</time>
      </trkpt>
      <trkpt lat="49.67912" lon="1.34251">
        <ele>209.7</ele>
        <time>2016-07-16T05:50:37Z</time>
      </trkpt>
      <trkpt lat="49.67768" lon="1.33911">
        <ele>206.34</ele>
        <time>2016-07-16T05:50:45Z</time>
      </trkpt>
      <trkpt lat="49.67687" lon="1.33628">
        <ele>203.94</ele>
        <time>2016-07-16T05:50:51Z</time>
      </trkpt>
      <trkpt lat="49.67609" lon="1.3329">
        <ele>200.09</ele>
        <time>2016-07-16T05:50:58Z</time>
      </trkpt>
      <trkpt lat="49.67553" lon="1.33049">
        <ele>197.21</ele>
        <time>2016-07-16T05:51:03Z</time>
      </trkpt>
      <trkpt lat="49.67507" lon="1.32851">
        <ele>193.36</ele>
        <time>2016-07-16T05:51:07Z</time>
      </trkpt>
      <trkpt lat="49.67461" lon="1.32664">
        <ele>190.48</ele>
        <time>2016-07-16T05:51:11Z</time>
      </trkpt>
      <trkpt lat="49.6741" lon="1.32476">
        <ele>187.11</ele>
        <time>2016-07-16T05:51:15Z</time>
      </trkpt>
      <trkpt lat="49.6735" lon="1.32294">
        <ele>183.27</ele>
        <time>2016-07-16T05:51:19Z</time>
      </trkpt>
      <trkpt lat="49.67299" lon="1.32162">
        <ele>180.38</ele>
        <time>2016-07-16T05:51:22Z</time>
      </trkpt>
      <trkpt lat="49.67223" lon="1.31993">
        <ele>177.02</ele>
        <time>2016-07-16T05:51:26Z</time>
      </trkpt>
      <trkpt lat="49.67137" lon="1.31833">
        <ele>173.66</ele>
        <time>2016-07-16T05:51:30Z</time>
      </trkpt>
      <trkpt lat="49.67021" lon="1.31648">
        <ele>169.81</ele>
        <time>2016-07-16T05:51:35Z</time>
      </trkpt>
      <trkpt lat="49.66922" lon="1.31513">
        <ele>165.96</ele>
        <time>2016-07-16T05:51:39Z</time>
      </trkpt>
      <trkpt lat="49.66817" lon="1.31385">
        <ele>162.12</ele>
        <time>2016-07-16T05:51:43Z</time>
      </trkpt>
      <trkpt lat="49.66712" lon="1.31259">
        <ele>159.24</ele>
        <time>2016-07-16T05:51:47Z</time>
      </trkpt>
      <trkpt lat="49.66633" lon="1.31164">
        <ele>155.87</ele>
        <time>2016-07-16T05:51:50Z</time>
      </trkpt>
      <trkpt lat="49.66504" lon="1.31">
        <ele>152.03</ele>
        <time>2016-07-16T05:51:55Z</time>
      </trkpt>
      <trkpt lat="49.66409" lon="1.30859">
        <ele>148.66</ele>
        <time>2016-07-16T05:51:59Z</time>
      </trkpt>
      <trkpt lat="49.66297" lon="1.30666">
        <ele>145.3</ele>
        <time>2016-07-16T05:52:04Z</time>
      </trkpt>
      <trkpt lat="49.66255" lon="1.30584">
        <ele>144.34</ele>
        <time>2016-07-16T05:52:06Z</time>
      </trkpt>
      <trkpt lat="49.66136" lon="1.30308">
        <ele>139.53</ele>
        <time>2016-07-16T05:52:12Z</time>
      </trkpt>
      <trkpt lat="49.66071" lon="1.30117">
        <ele>136.16</ele>
        <time>2016-07-16T05:52:16Z</time>
      </trkpt>
      <trkpt lat="49.66031" lon="1.29974">
        <ele>134.24</ele>
        <time>2016-07-16T05:52:19Z</time>
      </trkpt>
      <trkpt lat="49.65968" lon="1.29738">
        <ele>130.88</ele>
        <time>2016-07-16T05:52:24Z</time>
      </trkpt>
      <trkpt lat="49.65904" lon="1.29498">
        <ele>127.99</ele>
        <time>2016-07-16T05:52:29Z</time>
      </trkpt>
      <trkpt lat="49.65857" lon="1.2931">
        <ele>125.11</ele>
        <time>2016-07-16T05:52:33Z</time>
      </trkpt>
      <trkpt lat="49.65829" lon="1.29109">
        <ele>122.71</ele>
        <time>2016-07-16T05:52:37Z</time>
      </trkpt>
      <trkpt lat="49.65829" lon="1.28801">
        <ele>121.74</ele>
        <time>2016-07-16T05:52:43Z</time>
      </trkpt>
      <trkpt lat="49.65838" lon="1.287">
        <ele>122.71</ele>
        <time>2016-07-16T05:52:45Z</time>
      </trkpt>
      <trkpt lat="49.65849" lon="1.286">
        <ele>126.07</ele>
        <time>2016-07-16T05:52:47Z</time>
      </trkpt>
      <trkpt lat="49.65854" lon="1.28551">
        <ele>126.07</ele>
        <time>2016-07-16T05:52:48Z</time>
      </trkpt>
      <trkpt lat="49.65872" lon="1.28359">
        <ele>129.92</ele>
        <time>2016-07-16T05:52:52Z</time>
      </trkpt>
      <trkpt lat="49.65883" lon="1.28226">
        <ele>133.28</ele>
        <time>2016-07-16T05:52:55Z</time>
      </trkpt>
      <trkpt lat="49.65889" lon="1.28139">
        <ele>138.09</ele>
        <time>2016-07-16T05:52:57Z</time>
      </trkpt>
      <trkpt lat="49.65891" lon="1.28052">
        <ele>141.45</ele>
        <time>2016-07-16T05:52:59Z</time>
      </trkpt>
      <trkpt lat="49.65888" lon="1.27961">
        <ele>145.3</ele>
        <time>2016-07-16T05:53:01Z</time>
      </trkpt>
      <trkpt lat="49.65882" lon="1.2787">
        <ele>148.66</ele>
        <time>2016-07-16T05:53:03Z</time>
      </trkpt>
      <trkpt lat="49.6587" lon="1.27779">
        <ele>153.47</ele>
        <time>2016-07-16T05:53:05Z</time>
      </trkpt>
      <trkpt lat="49.65854" lon="1.2769">
        <ele>157.79</ele>
        <time>2016-07-16T05:53:07Z</time>
      </trkpt>
      <trkpt lat="49.65834" lon="1.27602">
        <ele>161.64</ele>
        <time>2016-07-16T05:53:09Z</time>
      </trkpt>
      <trkpt lat="49.65792" lon="1.27474">
        <ele>165.96</ele>
        <time>2016-07-16T05:53:12Z</time>
      </trkpt>
      <trkpt lat="49.65758" lon="1.27392">
        <ele>169.33</ele>
        <time>2016-07-16T05:53:14Z</time>
      </trkpt>
      <trkpt lat="49.65719" lon="1.27315">
        <ele>173.17</ele>
        <time>2016-07-16T05:53:16Z</time>
      </trkpt>
      <trkpt lat="49.65673" lon="1.27243">
        <ele>176.06</ele>
        <time>2016-07-16T05:53:18Z</time>
      </trkpt>
      <trkpt lat="49.65594" lon="1.27146">
        <ele>180.38</ele>
        <time>2016-07-16T05:53:21Z</time>
      </trkpt>
      <trkpt lat="49.65481" lon="1.27042">
        <ele>183.75</ele>
        <time>2016-07-16T05:53:25Z</time>
      </trkpt>
      <trkpt lat="49.65392" lon="1.26968">
        <ele>185.19</ele>
        <time>2016-07-16T05:53:28Z</time>
      </trkpt>
      <trkpt lat="49.65186" lon="1.26795">
        <ele>183.27</ele>
        <time>2016-07-16T05:53:35Z</time>
      </trkpt>
      <trkpt lat="49.6507" lon="1.26694">
        <ele>179.42</ele>
        <time>2016-07-16T05:53:39Z</time>
      </trkpt>
      <trkpt lat="49.64951" lon="1.26598">
        <ele>177.5</ele>
        <time>2016-07-16T05:53:43Z</time>
      </trkpt>
      <trkpt lat="49.64793" lon="1.2652">
        <ele>174.62</ele>
        <time>2016-07-16T05:53:48Z</time>
      </trkpt>
      <trkpt lat="49.64627" lon="1.26509">
        <ele>170.77</ele>
        <time>2016-07-16T05:53:53Z</time>
      </trkpt>
      <trkpt lat="49.64593" lon="1.26515">
        <ele>171.25</ele>
        <time>2016-07-16T05:53:54Z</time>
      </trkpt>
      <trkpt lat="49.64462" lon="1.26566">
        <ele>168.37</ele>
        <time>2016-07-16T05:53:58Z</time>
      </trkpt>
      <trkpt lat="49.64306" lon="1.26656">
        <ele>169.81</ele>
        <time>2016-07-16T05:54:03Z</time>
      </trkpt>
      <trkpt lat="49.63956" lon="1.26806">
        <ele>171.73</ele>
        <time>2016-07-16T05:54:14Z</time>
      </trkpt>
      <trkpt lat="49.63722" lon="1.26805">
        <ele>174.14</ele>
        <time>2016-07-16T05:54:21Z</time>
      </trkpt>
      <trkpt lat="49.63525" lon="1.26723">
        <ele>177.02</ele>
        <time>2016-07-16T05:54:27Z</time>
      </trkpt>
      <trkpt lat="49.63213" lon="1.26539">
        <ele>180.38</ele>
        <time>2016-07-16T05:54:37Z</time>
      </trkpt>
      <trkpt lat="49.62932" lon="1.26378">
        <ele>178.94</ele>
        <time>2016-07-16T05:54:46Z</time>
      </trkpt>
      <trkpt lat="49.62551" lon="1.26204">
        <ele>176.54</ele>
        <time>2016-07-16T05:54:58Z</time>
      </trkpt>
      <trkpt lat="49.62253" lon="1.26157">
        <ele>177.02</ele>
        <time>2016-07-16T05:55:07Z</time>
      </trkpt>
      <trkpt lat="49.62186" lon="1.26156">
        <ele>177.98</ele>
        <time>2016-07-16T05:55:09Z</time>
      </trkpt>
      <trkpt lat="49.61952" lon="1.26184">
        <ele>181.35</ele>
        <time>2016-07-16T05:55:16Z</time>
      </trkpt>
      <trkpt lat="49.6166" lon="1.26293">
        <ele>183.75</ele>
        <time>2016-07-16T05:55:25Z</time>
      </trkpt>
      <trkpt lat="49.61286" lon="1.26512">
        <ele>185.67</ele>
        <time>2016-07-16T05:55:37Z</time>
      </trkpt>
      <trkpt lat="49.61194" lon="1.26566">
        <ele>184.23</ele>
        <time>2016-07-16T05:55:40Z</time>
      </trkpt>
      <trkpt lat="49.61006" lon="1.26678">
        <ele>181.35</ele>
        <time>2016-07-16T05:55:46Z</time>
      </trkpt>
      <trkpt lat="49.60791" lon="1.26805">
        <ele>177.98</ele>
        <time>2016-07-16T05:55:53Z</time>
      </trkpt>
      <trkpt lat="49.60729" lon="1.26842">
        <ele>176.54</ele>
        <time>2016-07-16T05:55:55Z</time>
      </trkpt>
      <trkpt lat="49.60574" lon="1.26933">
        <ele>173.66</ele>
        <time>2016-07-16T05:56:00Z</time>
      </trkpt>
      <trkpt lat="49.60449" lon="1.27007">
        <ele>171.73</ele>
        <time>2016-07-16T05:56:04Z</time>
      </trkpt>
      <trkpt lat="49.60047" lon="1.27248">
        <ele>168.37</ele>
        <time>2016-07-16T05:56:17Z</time>
      </trkpt>
      <trkpt lat="49.60014" lon="1.27267">
        <ele>168.37</ele>
        <time>2016-07-16T05:56:18Z</time>
      </trkpt>
      <trkpt lat="49.59448" lon="1.27562">
        <ele>169.81</ele>
        <time>2016-07-16T05:56:36Z</time>
      </trkpt>
      <trkpt lat="49.59088" lon="1.27666">
        <ele>172.69</ele>
        <time>2016-07-16T05:56:47Z</time>
      </trkpt>
      <trkpt lat="49.58756" lon="1.27693">
        <ele>177.02</ele>
        <time>2016-07-16T05:56:57Z</time>
      </trkpt>
      <trkpt lat="49.58723" lon="1.27692">
        <ele>177.02</ele>
        <time>2016-07-16T05:56:58Z</time>
      </trkpt>
      <trkpt lat="49.58319" lon="1.27643">
        <ele>176.54</ele>
        <time>2016-07-16T05:57:10Z</time>
      </trkpt>
      <trkpt lat="49.58155" lon="1.27615">
        <ele>173.17</ele>
        <time>2016-07-16T05:57:15Z</time>
      </trkpt>
      <trkpt lat="49.57833" lon="1.27566">
        <ele>173.66</ele>
        <time>2016-07-16T05:57:25Z</time>
      </trkpt>
      <trkpt lat="49.57613" lon="1.27528">
        <ele>176.06</ele>
        <time>2016-07-16T05:57:32Z</time>
      </trkpt>
      <trkpt lat="49.57324" lon="1.27479">
        <ele>172.69</ele>
        <time>2016-07-16T05:57:41Z</time>
      </trkpt>
      <trkpt lat="49.5695" lon="1.27415">
        <ele>173.17</ele>
        <time>2016-07-16T05:57:53Z</time>
      </trkpt>
      <trkpt lat="49.5683" lon="1.27393">
        <ele>176.54</ele>
        <time>2016-07-16T05:57:57Z</time>
      </trkpt>
      <trkpt lat="49.568" lon="1.27386">
        <ele>174.62</ele>
        <time>2016-07-16T05:57:58Z</time>
      </trkpt>
      <trkpt lat="49.56707" lon="1.27356">
        <ele>176.06</ele>
        <time>2016-07-16T05:58:01Z</time>
      </trkpt>
      <trkpt lat="49.56566" lon="1.2729">
        <ele>175.1</ele>
        <time>2016-07-16T05:58:06Z</time>
      </trkpt>
      <trkpt lat="49.56325" lon="1.27109">
        <ele>172.21</ele>
        <time>2016-07-16T05:58:15Z</time>
      </trkpt>
      <trkpt lat="49.56137" lon="1.2689">
        <ele>175.1</ele>
        <time>2016-07-16T05:58:23Z</time>
      </trkpt>
      <trkpt lat="49.56033" lon="1.26731">
        <ele>177.98</ele>
        <time>2016-07-16T05:58:28Z</time>
      </trkpt>
      <trkpt lat="49.55955" lon="1.26588">
        <ele>178.46</ele>
        <time>2016-07-16T05:58:32Z</time>
      </trkpt>
      <trkpt lat="49.55832" lon="1.26345">
        <ele>177.5</ele>
        <time>2016-07-16T05:58:38Z</time>
      </trkpt>
      <trkpt lat="49.5571" lon="1.26105">
        <ele>178.94</ele>
        <time>2016-07-16T05:58:44Z</time>
      </trkpt>
      <trkpt lat="49.55666" lon="1.26025">
        <ele>182.79</ele>
        <time>2016-07-16T05:58:46Z</time>
      </trkpt>
      <trkpt lat="49.55394" lon="1.25577">
        <ele>178.94</ele>
        <time>2016-07-16T05:58:58Z</time>
      </trkpt>
      <trkpt lat="49.55189" lon="1.25244">
        <ele>175.1</ele>
        <time>2016-07-16T05:59:07Z</time>
      </trkpt>
      <trkpt lat="49.54967" lon="1.24861">
        <ele>171.73</ele>
        <time>2016-07-16T05:59:17Z</time>
      </trkpt>
      <trkpt lat="49.5477" lon="1.24515">
        <ele>168.37</ele>
        <time>2016-07-16T05:59:26Z</time>
      </trkpt>
      <trkpt lat="49.54748" lon="1.24477">
        <ele>168.37</ele>
        <time>2016-07-16T05:59:27Z</time>
      </trkpt>
      <trkpt lat="49.54405" lon="1.23922">
        <ele>169.81</ele>
        <time>2016-07-16T05:59:42Z</time>
      </trkpt>
      <trkpt lat="49.54207" lon="1.23646">
        <ele>166.45</ele>
        <time>2016-07-16T05:59:50Z</time>
      </trkpt>
      <trkpt lat="49.53761" lon="1.23031">
        <ele>167.41</ele>
        <time>2016-07-16T06:00:08Z</time>
      </trkpt>
      <trkpt lat="49.53584" lon="1.22712">
        <ele>169.81</ele>
        <time>2016-07-16T06:00:16Z</time>
      </trkpt>
      <trkpt lat="49.53455" lon="1.22353">
        <ele>167.41</ele>
        <time>2016-07-16T06:00:24Z</time>
      </trkpt>
      <trkpt lat="49.53409" lon="1.22164">
        <ele>164.52</ele>
        <time>2016-07-16T06:00:28Z</time>
      </trkpt>
      <trkpt lat="49.53376" lon="1.21988">
        <ele>162.12</ele>
        <time>2016-07-16T06:00:32Z</time>
      </trkpt>
      <trkpt lat="49.5331" lon="1.21567">
        <ele>163.56</ele>
        <time>2016-07-16T06:00:42Z</time>
      </trkpt>
      <trkpt lat="49.53268" lon="1.21316">
        <ele>166.45</ele>
        <time>2016-07-16T06:00:48Z</time>
      </trkpt>
      <trkpt lat="49.53244" lon="1.21195">
        <ele>167.89</ele>
        <time>2016-07-16T06:00:51Z</time>
      </trkpt>
      <trkpt lat="49.53137" lon="1.20848">
        <ele>168.37</ele>
        <time>2016-07-16T06:01:00Z</time>
      </trkpt>
      <trkpt lat="49.53007" lon="1.20579">
        <ele>165.48</ele>
        <time>2016-07-16T06:01:08Z</time>
      </trkpt>
      <trkpt lat="49.52886" lon="1.20402">
        <ele>162.6</ele>
        <time>2016-07-16T06:01:14Z</time>
      </trkpt>
      <trkpt lat="49.52725" lon="1.20229">
        <ele>159.24</ele>
        <time>2016-07-16T06:01:21Z</time>
      </trkpt>
      <trkpt lat="49.52474" lon="1.20052">
        <ele>158.75</ele>
        <time>2016-07-16T06:01:31Z</time>
      </trkpt>
      <trkpt lat="49.51954" lon="1.19743">
        <ele>158.27</ele>
        <time>2016-07-16T06:01:51Z</time>
      </trkpt>
      <trkpt lat="49.51732" lon="1.19551">
        <ele>154.91</ele>
        <time>2016-07-16T06:02:00Z</time>
      </trkpt>
      <trkpt lat="49.51556" lon="1.19341">
        <ele>152.51</ele>
        <time>2016-07-16T06:02:08Z</time>
      </trkpt>
      <trkpt lat="49.51345" lon="1.19066">
        <ele>149.62</ele>
        <time>2016-07-16T06:02:18Z</time>
      </trkpt>
      <trkpt lat="49.51189" lon="1.18823">
        <ele>150.58</ele>
        <time>2016-07-16T06:02:26Z</time>
      </trkpt>
      <trkpt lat="49.50903" lon="1.18303">
        <ele>148.18</ele>
        <time>2016-07-16T06:02:42Z</time>
      </trkpt>
      <trkpt lat="49.50846" lon="1.18212">
        <ele>145.3</ele>
        <time>2016-07-16T06:02:45Z</time>
      </trkpt>
      <trkpt lat="49.50744" lon="1.18068">
        <ele>140.97</ele>
        <time>2016-07-16T06:02:50Z</time>
      </trkpt>
      <trkpt lat="49.50724" lon="1.18041">
        <ele>140.97</ele>
        <time>2016-07-16T06:02:51Z</time>
      </trkpt>
      <trkpt lat="49.50638" lon="1.17932">
        <ele>144.34</ele>
        <time>2016-07-16T06:02:55Z</time>
      </trkpt>
      <trkpt lat="49.50572" lon="1.17852">
        <ele>147.7</ele>
        <time>2016-07-16T06:02:58Z</time>
      </trkpt>
      <trkpt lat="49.50505" lon="1.17773">
        <ele>151.54</ele>
        <time>2016-07-16T06:03:01Z</time>
      </trkpt>
      <trkpt lat="49.50438" lon="1.17695">
        <ele>154.91</ele>
        <time>2016-07-16T06:03:04Z</time>
      </trkpt>
      <trkpt lat="49.50326" lon="1.17569">
        <ele>157.79</ele>
        <time>2016-07-16T06:03:09Z</time>
      </trkpt>
      <trkpt lat="49.5006" lon="1.1726">
        <ele>157.31</ele>
        <time>2016-07-16T06:03:21Z</time>
      </trkpt>
      <trkpt lat="49.49811" lon="1.16974">
        <ele>153.47</ele>
        <time>2016-07-16T06:03:32Z</time>
      </trkpt>
      <trkpt lat="49.49638" lon="1.16771">
        <ele>156.83</ele>
        <time>2016-07-16T06:03:40Z</time>
      </trkpt>
      <trkpt lat="49.49617" lon="1.16743">
        <ele>152.51</ele>
        <time>2016-07-16T06:03:41Z</time>
      </trkpt>
      <trkpt lat="49.49575" lon="1.16685">
        <ele>151.54</ele>
        <time>2016-07-16T06:03:43Z</time>
      </trkpt>
      <trkpt lat="49.49371" lon="1.16339">
        <ele>151.54</ele>
        <time>2016-07-16T06:03:54Z</time>
      </trkpt>
      <trkpt lat="49.49247" lon="1.16003">
        <ele>154.43</ele>
        <time>2016-07-16T06:04:03Z</time>
      </trkpt>
      <trkpt lat="49.49156" lon="1.15597">
        <ele>154.43</ele>
        <time>2016-07-16T06:04:13Z</time>
      </trkpt>
      <trkpt lat="49.49135" lon="1.15474">
        <ele>152.99</ele>
        <time>2016-07-16T06:04:16Z</time>
      </trkpt>
      <trkpt lat="49.49099" lon="1.15268">
        <ele>151.54</ele>
        <time>2016-07-16T06:04:21Z</time>
      </trkpt>
      <trkpt lat="49.48938" lon="1.14366">
        <ele>151.06</ele>
        <time>2016-07-16T06:04:43Z</time>
      </trkpt>
      <trkpt lat="49.48898" lon="1.14256">
        <ele>151.06</ele>
        <time>2016-07-16T06:04:46Z</time>
      </trkpt>
      <trkpt lat="49.48881" lon="1.14223">
        <ele>151.06</ele>
        <time>2016-07-16T06:04:47Z</time>
      </trkpt>
      <trkpt lat="49.48862" lon="1.14191">
        <ele>151.06</ele>
        <time>2016-07-16T06:04:48Z</time>
      </trkpt>
      <trkpt lat="49.48842" lon="1.14162">
        <ele>149.62</ele>
        <time>2016-07-16T06:04:49Z</time>
      </trkpt>
      <trkpt lat="49.4882" lon="1.14133">
        <ele>149.14</ele>
        <time>2016-07-16T06:04:50Z</time>
      </trkpt>
      <trkpt lat="49.48797" lon="1.14106">
        <ele>148.18</ele>
        <time>2016-07-16T06:04:51Z</time>
      </trkpt>
      <trkpt lat="49.48774" lon="1.14082">
        <ele>147.7</ele>
        <time>2016-07-16T06:04:52Z</time>
      </trkpt>
      <trkpt lat="49.48751" lon="1.14061">
        <ele>147.22</ele>
        <time>2016-07-16T06:04:53Z</time>
      </trkpt>
      <trkpt lat="49.48623" lon="1.13973">
        <ele>143.37</ele>
        <time>2016-07-16T06:04:58Z</time>
      </trkpt>
      <trkpt lat="49.48545" lon="1.13924">
        <ele>141.93</ele>
        <time>2016-07-16T06:05:01Z</time>
      </trkpt>
      <trkpt lat="49.48201" lon="1.13757">
        <ele>144.34</ele>
        <time>2016-07-16T06:05:14Z</time>
      </trkpt>
      <trkpt lat="49.47979" lon="1.1375">
        <ele>146.26</ele>
        <time>2016-07-16T06:05:22Z</time>
      </trkpt>
      <trkpt lat="49.47839" lon="1.13752">
        <ele>145.3</ele>
        <time>2016-07-16T06:05:27Z</time>
      </trkpt>
      <trkpt lat="49.47647" lon="1.13702">
        <ele>144.82</ele>
        <time>2016-07-16T06:05:34Z</time>
      </trkpt>
      <trkpt lat="49.47517" lon="1.13625">
        <ele>148.66</ele>
        <time>2016-07-16T06:05:39Z</time>
      </trkpt>
      <trkpt lat="49.47465" lon="1.1359">
        <ele>149.62</ele>
        <time>2016-07-16T06:05:41Z</time>
      </trkpt>
      <trkpt lat="49.47201" lon="1.13429">
        <ele>151.06</ele>
        <time>2016-07-16T06:05:52Z</time>
      </trkpt>
      <trkpt lat="49.4707" lon="1.13375">
        <ele>149.62</ele>
        <time>2016-07-16T06:05:58Z</time>
      </trkpt>
      <trkpt lat="49.46938" lon="1.13331">
        <ele>146.26</ele>
        <time>2016-07-16T06:06:04Z</time>
      </trkpt>
      <trkpt lat="49.46824" lon="1.13331">
        <ele>143.37</ele>
        <time>2016-07-16T06:06:09Z</time>
      </trkpt>
      <trkpt lat="49.46733" lon="1.13358">
        <ele>139.53</ele>
        <time>2016-07-16T06:06:13Z</time>
      </trkpt>
      <trkpt lat="49.46666" lon="1.13394">
        <ele>136.16</ele>
        <time>2016-07-16T06:06:16Z</time>
      </trkpt>
      <trkpt lat="49.46604" lon="1.13441">
        <ele>132.32</ele>
        <time>2016-07-16T06:06:19Z</time>
      </trkpt>
      <trkpt lat="49.46546" lon="1.13499">
        <ele>128.95</ele>
        <time>2016-07-16T06:06:22Z</time>
      </trkpt>
      <trkpt lat="49.4649" lon="1.13567">
        <ele>125.11</ele>
        <time>2016-07-16T06:06:25Z</time>
      </trkpt>
      <trkpt lat="49.46436" lon="1.13639">
        <ele>121.26</ele>
        <time>2016-07-16T06:06:28Z</time>
      </trkpt>
      <trkpt lat="49.46385" lon="1.13716">
        <ele>117.9</ele>
        <time>2016-07-16T06:06:31Z</time>
      </trkpt>
      <trkpt lat="49.46342" lon="1.13805">
        <ele>113.57</ele>
        <time>2016-07-16T06:06:34Z</time>
      </trkpt>
      <trkpt lat="49.46304" lon="1.13903">
        <ele>109.73</ele>
        <time>2016-07-16T06:06:37Z</time>
      </trkpt>
      <trkpt lat="49.46266" lon="1.14001">
        <ele>105.88</ele>
        <time>2016-07-16T06:06:40Z</time>
      </trkpt>
      <trkpt lat="49.46219" lon="1.1409">
        <ele>101.56</ele>
        <time>2016-07-16T06:06:43Z</time>
      </trkpt>
      <trkpt lat="49.46161" lon="1.14162">
        <ele>97.71</ele>
        <time>2016-07-16T06:06:46Z</time>
      </trkpt>
      <trkpt lat="49.46118" lon="1.14196">
        <ele>94.35</ele>
        <time>2016-07-16T06:06:48Z</time>
      </trkpt>
      <trkpt lat="49.46077" lon="1.14227">
        <ele>91.46</ele>
        <time>2016-07-16T06:06:50Z</time>
      </trkpt>
      <trkpt lat="49.46018" lon="1.14272">
        <ele>87.62</ele>
        <time>2016-07-16T06:06:53Z</time>
      </trkpt>
      <trkpt lat="49.45961" lon="1.14318">
        <ele>84.25</ele>
        <time>2016-07-16T06:06:56Z</time>
      </trkpt>
      <trkpt lat="49.45899" lon="1.14357">
        <ele>80.41</ele>
        <time>2016-07-16T06:06:59Z</time>
      </trkpt>
      <trkpt lat="49.45834" lon="1.14382">
        <ele>77.52</ele>
        <time>2016-07-16T06:07:02Z</time>
      </trkpt>
      <trkpt lat="49.45722" lon="1.14405">
        <ele>74.64</ele>
        <time>2016-07-16T06:07:07Z</time>
      </trkpt>
      <trkpt lat="49.45498" lon="1.14444">
        <ele>78</ele>
        <time>2016-07-16T06:07:17Z</time>
      </trkpt>
      <trkpt lat="49.45343" lon="1.14477">
        <ele>81.37</ele>
        <time>2016-07-16T06:07:24Z</time>
      </trkpt>
      <trkpt lat="49.45097" lon="1.14518">
        <ele>80.41</ele>
        <time>2016-07-16T06:07:35Z</time>
      </trkpt>
      <trkpt lat="49.45054" lon="1.14505">
        <ele>79.45</ele>
        <time>2016-07-16T06:07:37Z</time>
      </trkpt>
      <trkpt lat="49.44968" lon="1.1447">
        <ele>76.08</ele>
        <time>2016-07-16T06:07:41Z</time>
      </trkpt>
      <trkpt lat="49.44925" lon="1.14451">
        <ele>74.64</ele>
        <time>2016-07-16T06:07:43Z</time>
      </trkpt>
      <trkpt lat="49.44839" lon="1.14414">
        <ele>70.31</ele>
        <time>2016-07-16T06:07:47Z</time>
      </trkpt>
      <trkpt lat="49.44817" lon="1.14405">
        <ele>70.31</ele>
        <time>2016-07-16T06:07:48Z</time>
      </trkpt>
      <trkpt lat="49.44753" lon="1.14377">
        <ele>67.43</ele>
        <time>2016-07-16T06:07:51Z</time>
      </trkpt>
      <trkpt lat="49.44731" lon="1.14368">
        <ele>67.43</ele>
        <time>2016-07-16T06:07:52Z</time>
      </trkpt>
      <trkpt lat="49.44645" lon="1.14331">
        <ele>63.1</ele>
        <time>2016-07-16T06:07:56Z</time>
      </trkpt>
      <trkpt lat="49.44559" lon="1.14294">
        <ele>59.74</ele>
        <time>2016-07-16T06:08:00Z</time>
      </trkpt>
      <trkpt lat="49.44464" lon="1.14254">
        <ele>55.89</ele>
        <time>2016-07-16T06:08:04Z</time>
      </trkpt>
      <trkpt lat="49.44436" lon="1.14242">
        <ele>55.89</ele>
        <time>2016-07-16T06:08:06Z</time>
      </trkpt>
      <trkpt lat="49.44386" lon="1.14221">
        <ele>53.97</ele>
        <time>2016-07-16T06:08:08Z</time>
      </trkpt>
      <trkpt lat="49.43946" lon="1.13133">
        <ele>23.21</ele>
        <time>2016-07-16T06:08:51Z</time>
      </trkpt>
      <trkpt lat="49.4388" lon="1.13036">
        <ele>19.36</ele>
        <time>2016-07-16T06:08:56Z</time>
      </trkpt>
      <trkpt lat="49.43811" lon="1.12886">
        <ele>16.48</ele>
        <time>2016-07-16T06:09:02Z</time>
      </trkpt>
      <trkpt lat="49.43793" lon="1.12825">
        <ele>12.15</ele>
        <time>2016-07-16T06:09:04Z</time>
      </trkpt>
      <trkpt lat="49.43786" lon="1.12793">
        <ele>15.52</ele>
        <time>2016-07-16T06:09:05Z</time>
      </trkpt>
      <trkpt lat="49.4378" lon="1.12758">
        <ele>12.63</ele>
        <time>2016-07-16T06:09:06Z</time>
      </trkpt>
      <trkpt lat="49.43776" lon="1.12727">
        <ele>12.15</ele>
        <time>2016-07-16T06:09:07Z</time>
      </trkpt>
      <trkpt lat="49.43771" lon="1.12628">
        <ele>10.71</ele>
        <time>2016-07-16T06:09:10Z</time>
      </trkpt>
      <trkpt lat="49.43802" lon="1.12369">
        <ele>7.35</ele>
        <time>2016-07-16T06:09:18Z</time>
      </trkpt>
      <trkpt lat="49.43822" lon="1.12275">
        <ele>5.91</ele>
        <time>2016-07-16T06:09:21Z</time>
      </trkpt>
      <trkpt lat="49.43889" lon="1.11988">
        <ele>3.5</ele>
        <time>2016-07-16T06:09:31Z</time>
      </trkpt>
      <trkpt lat="49.43896" lon="1.11734">
        <ele>2.54</ele>
        <time>2016-07-16T06:09:40Z</time>
      </trkpt>
      <trkpt lat="49.43903" lon="1.11386">
        <ele>3.98</ele>
        <time>2016-07-16T06:09:53Z</time>
      </trkpt>
      <trkpt lat="49.43902" lon="1.1136">
        <ele>4.94</ele>
        <time>2016-07-16T06:09:54Z</time>
      </trkpt>
      <trkpt lat="49.43899" lon="1.11333">
        <ele>5.91</ele>
        <time>2016-07-16T06:09:55Z</time>
      </trkpt>
      <trkpt lat="49.43894" lon="1.11308">
        <ele>6.87</ele>
        <time>2016-07-16T06:09:56Z</time>
      </trkpt>
      <trkpt lat="49.43881" lon="1.11258">
        <ele>8.31</ele>
        <time>2016-07-16T06:09:58Z</time>
      </trkpt>
      <trkpt lat="49.43872" lon="1.11235">
        <ele>9.27</ele>
        <time>2016-07-16T06:09:59Z</time>
      </trkpt>
      <trkpt lat="49.4386" lon="1.11213">
        <ele>9.75</ele>
        <time>2016-07-16T06:10:00Z</time>
      </trkpt>
      <trkpt lat="49.43847" lon="1.11194">
        <ele>10.23</ele>
        <time>2016-07-16T06:10:01Z</time>
      </trkpt>
      <trkpt lat="49.43833" lon="1.11177">
        <ele>10.23</ele>
        <time>2016-07-16T06:10:02Z</time>
      </trkpt>
      <trkpt lat="49.43741" lon="1.11041">
        <ele>8.31</ele>
        <time>2016-07-16T06:10:09Z</time>
      </trkpt>
      <trkpt lat="49.43646" lon="1.10814">
        <ele>7.83</ele>
        <time>2016-07-16T06:10:19Z</time>
      </trkpt>
      <trkpt lat="49.43501" lon="1.1055">
        <ele>7.83</ele>
        <time>2016-07-16T06:10:32Z</time>
      </trkpt>
      <trkpt lat="49.43317" lon="1.10426">
        <ele>9.27</ele>
        <time>2016-07-16T06:10:43Z</time>
      </trkpt>
      <trkpt lat="49.43101" lon="1.10239">
        <ele>12.15</ele>
        <time>2016-07-16T06:10:57Z</time>
      </trkpt>
      <trkpt lat="49.43062" lon="1.10182">
        <ele>10.71</ele>
        <time>2016-07-16T06:11:00Z</time>
      </trkpt>
      <trkpt lat="49.43001" lon="1.10094">
        <ele>7.35</ele>
        <time>2016-07-16T06:11:05Z</time>
      </trkpt>
      <trkpt lat="49.42943" lon="1.10003">
        <ele>4.46</ele>
        <time>2016-07-16T06:11:12Z</time>
      </trkpt>
      <trkpt lat="49.42939" lon="1.09989">
        <ele>3.98</ele>
        <time>2016-07-16T06:11:13Z</time>
      </trkpt>
      <trkpt lat="49.42937" lon="1.09977">
        <ele>3.5</ele>
        <time>2016-07-16T06:11:14Z</time>
      </trkpt>
      <trkpt lat="49.42938" lon="1.09963">
        <ele>3.5</ele>
        <time>2016-07-16T06:11:15Z</time>
      </trkpt>
      <trkpt lat="49.4294" lon="1.09951">
        <ele>3.5</ele>
        <time>2016-07-16T06:11:16Z</time>
      </trkpt>
      <trkpt lat="49.42944" lon="1.09939">
        <ele>3.5</ele>
        <time>2016-07-16T06:11:17Z</time>
      </trkpt>
      <trkpt lat="49.4295" lon="1.09929">
        <ele>3.5</ele>
        <time>2016-07-16T06:11:18Z</time>
      </trkpt>
      <trkpt lat="49.42957" lon="1.09921">
        <ele>3.02</ele>
        <time>2016-07-16T06:11:19Z</time>
      </trkpt>
      <trkpt lat="49.42965" lon="1.09918">
        <ele>2.54</ele>
        <time>2016-07-16T06:11:20Z</time>
      </trkpt>
      <trkpt lat="49.42975" lon="1.09918">
        <ele>2.54</ele>
        <time>2016-07-16T06:11:21Z</time>
      </trkpt>
      <trkpt lat="49.42983" lon="1.09923">
        <ele>1.58</ele>
        <time>2016-07-16T06:11:22Z</time>
      </trkpt>
      <trkpt lat="49.42991" lon="1.09932">
        <ele>0.62</ele>
        <time>2016-07-16T06:11:23Z</time>
      </trkpt>
      <trkpt lat="49.42997" lon="1.09945">
        <ele>0.62</ele>
        <time>2016-07-16T06:11:24Z</time>
      </trkpt>
      <trkpt lat="49.43" lon="1.09962">
        <ele>0.14</ele>
        <time>2016-07-16T06:11:25Z</time>
      </trkpt>
      <trkpt lat="49.42999" lon="1.09978">
        <ele>0.14</ele>
        <time>2016-07-16T06:11:26Z</time>
      </trkpt>
      <trkpt lat="49.42992" lon="1.09995">
        <ele>0.14</ele>
        <time>2016-07-16T06:11:27Z</time>
      </trkpt>
      <trkpt lat="49.42982" lon="1.10008">
        <ele>0.14</ele>
        <time>2016-07-16T06:11:28Z</time>
      </trkpt>
      <trkpt lat="49.42972" lon="1.1002">
        <ele>-0.34</ele>
        <time>2016-07-16T06:11:29Z</time>
      </trkpt>
      <trkpt lat="49.42854" lon="1.10177">
        <ele>-1.3</ele>
        <time>2016-07-16T06:11:39Z</time>
      </trkpt>
      <trkpt lat="49.42679" lon="1.10415">
        <ele>0.14</ele>
        <time>2016-07-16T06:11:52Z</time>
      </trkpt>
      <trkpt lat="49.4263" lon="1.1048">
        <ele>-1.3</ele>
        <time>2016-07-16T06:11:56Z</time>
      </trkpt>
      <trkpt lat="49.42582" lon="1.10537">
        <ele>-1.3</ele>
        <time>2016-07-16T06:12:00Z</time>
      </trkpt>
      <trkpt lat="49.42569" lon="1.10548">
        <ele>-1.3</ele>
        <time>2016-07-16T06:12:01Z</time>
      </trkpt>
      <trkpt lat="49.42555" lon="1.10557">
        <ele>-1.3</ele>
        <time>2016-07-16T06:12:02Z</time>
      </trkpt>
      <trkpt lat="49.42539" lon="1.10566">
        <ele>-1.3</ele>
        <time>2016-07-16T06:12:03Z</time>
      </trkpt>
      <trkpt lat="49.42524" lon="1.10573">
        <ele>-1.79</ele>
        <time>2016-07-16T06:12:04Z</time>
      </trkpt>
      <trkpt lat="49.42433" lon="1.10607">
        <ele>-0.34</ele>
        <time>2016-07-16T06:12:10Z</time>
      </trkpt>
      <trkpt lat="49.42217" lon="1.10646">
        <ele>-0.34</ele>
        <time>2016-07-16T06:12:23Z</time>
      </trkpt>
      <trkpt lat="49.42034" lon="1.10709">
        <ele>0.62</ele>
        <time>2016-07-16T06:12:34Z</time>
      </trkpt>
      <trkpt lat="49.41836" lon="1.10818">
        <ele>-1.3</ele>
        <time>2016-07-16T06:12:46Z</time>
      </trkpt>
      <trkpt lat="49.4174" lon="1.10822">
        <ele>-1.79</ele>
        <time>2016-07-16T06:12:53Z</time>
      </trkpt>
      <trkpt lat="49.417" lon="1.10806">
        <ele>-2.75</ele>
        <time>2016-07-16T06:13:00Z</time>
      </trkpt>
      <trkpt lat="49.41683" lon="1.10793">
        <ele>-2.75</ele>
        <time>2016-07-16T06:13:12Z</time>
      </trkpt>
      <trkpt lat="49.41627" lon="1.10757">
        <ele>-2.75</ele>
        <time>2016-07-16T06:13:22Z</time>
      </trkpt>
      <trkpt lat="49.41577" lon="1.10728">
        <ele>-2.75</ele>
        <time>2016-07-16T06:13:33Z</time>
      </trkpt>
      <trkpt lat="49.41548" lon="1.10718">
        <ele>-1.3</ele>
        <time>2016-07-16T06:13:37Z</time>
      </trkpt>
      <trkpt lat="49.41441" lon="1.10723">
        <ele>1.1</ele>
        <time>2016-07-16T06:13:45Z</time>
      </trkpt>
      <trkpt lat="49.41363" lon="1.1075">
        <ele>2.54</ele>
        <time>2016-07-16T06:13:49Z</time>
      </trkpt>
      <trkpt lat="49.40961" lon="1.10885">
        <ele>3.5</ele>
        <time>2016-07-16T06:14:07Z</time>
      </trkpt>
      <trkpt lat="49.40629" lon="1.10988">
        <ele>1.58</ele>
        <time>2016-07-16T06:14:22Z</time>
      </trkpt>
      <trkpt lat="49.4032" lon="1.11053">
        <ele>1.1</ele>
        <time>2016-07-16T06:14:36Z</time>
      </trkpt>
      <trkpt lat="49.4011" lon="1.11102">
        <ele>4.46</ele>
        <time>2016-07-16T06:14:45Z</time>
      </trkpt>
      <trkpt lat="49.40085" lon="1.11108">
        <ele>4.94</ele>
        <time>2016-07-16T06:14:46Z</time>
      </trkpt>
      <trkpt lat="49.39962" lon="1.11131">
        <ele>3.5</ele>
        <time>2016-07-16T06:14:51Z</time>
      </trkpt>
      <trkpt lat="49.39841" lon="1.11151">
        <ele>4.46</ele>
        <time>2016-07-16T06:14:56Z</time>
      </trkpt>
      <trkpt lat="49.39519" lon="1.11167">
        <ele>2.54</ele>
        <time>2016-07-16T06:15:10Z</time>
      </trkpt>
      <trkpt lat="49.39081" lon="1.1112">
        <ele>2.54</ele>
        <time>2016-07-16T06:15:29Z</time>
      </trkpt>
      <trkpt lat="49.38717" lon="1.11049">
        <ele>2.54</ele>
        <time>2016-07-16T06:15:45Z</time>
      </trkpt>
      <trkpt lat="49.38445" lon="1.10954">
        <ele>1.58</ele>
        <time>2016-07-16T06:15:58Z</time>
      </trkpt>
      <trkpt lat="49.38273" lon="1.10946">
        <ele>0.14</ele>
        <time>2016-07-16T06:16:08Z</time>
      </trkpt>
      <trkpt lat="49.38184" lon="1.10962">
        <ele>-2.27</ele>
        <time>2016-07-16T06:16:15Z</time>
      </trkpt>
      <trkpt lat="49.38155" lon="1.10971">
        <ele>-2.75</ele>
        <time>2016-07-16T06:16:21Z</time>
      </trkpt>
      <trkpt lat="49.38108" lon="1.10991">
        <ele>-0.82</ele>
        <time>2016-07-16T06:16:27Z</time>
      </trkpt>
      <trkpt lat="49.38068" lon="1.11011">
        <ele>1.1</ele>
        <time>2016-07-16T06:16:30Z</time>
      </trkpt>
      <trkpt lat="49.38036" lon="1.1103">
        <ele>-0.34</ele>
        <time>2016-07-16T06:16:32Z</time>
      </trkpt>
      <trkpt lat="49.37984" lon="1.11067">
        <ele>1.58</ele>
        <time>2016-07-16T06:16:35Z</time>
      </trkpt>
      <trkpt lat="49.37764" lon="1.11228">
        <ele>2.54</ele>
        <time>2016-07-16T06:16:46Z</time>
      </trkpt>
      <trkpt lat="49.3739" lon="1.11508">
        <ele>3.02</ele>
        <time>2016-07-16T06:17:04Z</time>
      </trkpt>
      <trkpt lat="49.37234" lon="1.11573">
        <ele>2.54</ele>
        <time>2016-07-16T06:17:11Z</time>
      </trkpt>
      <trkpt lat="49.37211" lon="1.11574">
        <ele>2.06</ele>
        <time>2016-07-16T06:17:12Z</time>
      </trkpt>
      <trkpt lat="49.37187" lon="1.11572">
        <ele>2.06</ele>
        <time>2016-07-16T06:17:13Z</time>
      </trkpt>
      <trkpt lat="49.37165" lon="1.11567">
        <ele>2.06</ele>
        <time>2016-07-16T06:17:14Z</time>
      </trkpt>
      <trkpt lat="49.37141" lon="1.11557">
        <ele>1.58</ele>
        <time>2016-07-16T06:17:15Z</time>
      </trkpt>
      <trkpt lat="49.3712" lon="1.11546">
        <ele>1.58</ele>
        <time>2016-07-16T06:17:16Z</time>
      </trkpt>
      <trkpt lat="49.37097" lon="1.11531">
        <ele>1.58</ele>
        <time>2016-07-16T06:17:17Z</time>
      </trkpt>
      <trkpt lat="49.37077" lon="1.11516">
        <ele>1.58</ele>
        <time>2016-07-16T06:17:18Z</time>
      </trkpt>
      <trkpt lat="49.37056" lon="1.11497">
        <ele>1.58</ele>
        <time>2016-07-16T06:17:19Z</time>
      </trkpt>
      <trkpt lat="49.36888" lon="1.11313">
        <ele>0.62</ele>
        <time>2016-07-16T06:17:28Z</time>
      </trkpt>
      <trkpt lat="49.36859" lon="1.11262">
        <ele>4.46</ele>
        <time>2016-07-16T06:17:30Z</time>
      </trkpt>
      <trkpt lat="49.36839" lon="1.11215">
        <ele>-0.34</ele>
        <time>2016-07-16T06:17:32Z</time>
      </trkpt>
      <trkpt lat="49.36825" lon="1.11179">
        <ele>-1.3</ele>
        <time>2016-07-16T06:17:34Z</time>
      </trkpt>
      <trkpt lat="49.36809" lon="1.1113">
        <ele>-0.34</ele>
        <time>2016-07-16T06:17:39Z</time>
      </trkpt>
      <trkpt lat="49.36808" lon="1.11122">
        <ele>0.14</ele>
        <time>2016-07-16T06:17:48Z</time>
      </trkpt>
      <trkpt lat="49.36811" lon="1.11128">
        <ele>0.62</ele>
        <time>2016-07-16T06:18:24Z</time>
      </trkpt>
      <trkpt lat="49.36798" lon="1.11068">
        <ele>3.02</ele>
        <time>2016-07-16T06:18:30Z</time>
      </trkpt>
      <trkpt lat="49.36787" lon="1.10991">
        <ele>6.87</ele>
        <time>2016-07-16T06:18:34Z</time>
      </trkpt>
      <trkpt lat="49.36781" lon="1.10887">
        <ele>9.75</ele>
        <time>2016-07-16T06:18:38Z</time>
      </trkpt>
      <trkpt lat="49.36781" lon="1.10861">
        <ele>9.75</ele>
        <time>2016-07-16T06:18:39Z</time>
      </trkpt>
      <trkpt lat="49.36782" lon="1.10729">
        <ele>7.83</ele>
        <time>2016-07-16T06:18:46Z</time>
      </trkpt>
      <trkpt lat="49.36788" lon="1.10687">
        <ele>5.91</ele>
        <time>2016-07-16T06:18:51Z</time>
      </trkpt>
      <trkpt lat="49.36791" lon="1.10682">
        <ele>5.91</ele>
        <time>2016-07-16T06:18:52Z</time>
      </trkpt>
      <trkpt lat="49.36802" lon="1.10664">
        <ele>5.42</ele>
        <time>2016-07-16T06:18:54Z</time>
      </trkpt>
      <trkpt lat="49.36806" lon="1.10655">
        <ele>5.91</ele>
        <time>2016-07-16T06:18:55Z</time>
      </trkpt>
      <trkpt lat="49.36809" lon="1.10643">
        <ele>5.42</ele>
        <time>2016-07-16T06:18:56Z</time>
      </trkpt>
      <trkpt lat="49.36809" lon="1.10631">
        <ele>5.91</ele>
        <time>2016-07-16T06:18:57Z</time>
      </trkpt>
      <trkpt lat="49.36807" lon="1.10617">
        <ele>5.42</ele>
        <time>2016-07-16T06:18:58Z</time>
      </trkpt>
      <trkpt lat="49.36803" lon="1.10604">
        <ele>5.91</ele>
        <time>2016-07-16T06:18:59Z</time>
      </trkpt>
      <trkpt lat="49.36798" lon="1.10589">
        <ele>5.91</ele>
        <time>2016-07-16T06:19:00Z</time>
      </trkpt>
      <trkpt lat="49.36792" lon="1.10572">
        <ele>5.91</ele>
        <time>2016-07-16T06:19:01Z</time>
      </trkpt>
      <trkpt lat="49.36788" lon="1.10555">
        <ele>6.87</ele>
        <time>2016-07-16T06:19:02Z</time>
      </trkpt>
      <trkpt lat="49.36787" lon="1.10536">
        <ele>7.35</ele>
        <time>2016-07-16T06:19:03Z</time>
      </trkpt>
      <trkpt lat="49.36782" lon="1.10404">
        <ele>10.71</ele>
        <time>2016-07-16T06:19:08Z</time>
      </trkpt>
      <trkpt lat="49.36779" lon="1.10306">
        <ele>12.15</ele>
        <time>2016-07-16T06:19:11Z</time>
      </trkpt>
      <trkpt lat="49.36772" lon="1.10161">
        <ele>16</ele>
        <time>2016-07-16T06:19:15Z</time>
      </trkpt>
      <trkpt lat="49.3676" lon="1.09999">
        <ele>19.36</ele>
        <time>2016-07-16T06:19:19Z</time>
      </trkpt>
      <trkpt lat="49.36742" lon="1.09798">
        <ele>22.25</ele>
        <time>2016-07-16T06:19:24Z</time>
      </trkpt>
      <trkpt lat="49.36722" lon="1.09586">
        <ele>26.09</ele>
        <time>2016-07-16T06:19:29Z</time>
      </trkpt>
      <trkpt lat="49.36706" lon="1.09407">
        <ele>28.02</ele>
        <time>2016-07-16T06:19:33Z</time>
      </trkpt>
      <trkpt lat="49.36684" lon="1.09205">
        <ele>31.38</ele>
        <time>2016-07-16T06:19:38Z</time>
      </trkpt>
      <trkpt lat="49.36619" lon="1.08972">
        <ele>33.3</ele>
        <time>2016-07-16T06:19:44Z</time>
      </trkpt>
      <trkpt lat="49.365" lon="1.08792">
        <ele>35.23</ele>
        <time>2016-07-16T06:19:50Z</time>
      </trkpt>
      <trkpt lat="49.36377" lon="1.08708">
        <ele>35.71</ele>
        <time>2016-07-16T06:19:55Z</time>
      </trkpt>
      <trkpt lat="49.36153" lon="1.08656">
        <ele>36.67</ele>
        <time>2016-07-16T06:20:03Z</time>
      </trkpt>
      <trkpt lat="49.35878" lon="1.08539">
        <ele>39.07</ele>
        <time>2016-07-16T06:20:13Z</time>
      </trkpt>
      <trkpt lat="49.35571" lon="1.08327">
        <ele>42.44</ele>
        <time>2016-07-16T06:20:25Z</time>
      </trkpt>
      <trkpt lat="49.3527" lon="1.08094">
        <ele>45.8</ele>
        <time>2016-07-16T06:20:37Z</time>
      </trkpt>
      <trkpt lat="49.34888" lon="1.07845">
        <ele>48.2</ele>
        <time>2016-07-16T06:20:52Z</time>
      </trkpt>
      <trkpt lat="49.34735" lon="1.07769">
        <ele>46.76</ele>
        <time>2016-07-16T06:20:59Z</time>
      </trkpt>
      <trkpt lat="49.3465" lon="1.07729">
        <ele>44.84</ele>
        <time>2016-07-16T06:21:05Z</time>
      </trkpt>
      <trkpt lat="49.3463" lon="1.07717">
        <ele>44.36</ele>
        <time>2016-07-16T06:21:07Z</time>
      </trkpt>
      <trkpt lat="49.34621" lon="1.0771">
        <ele>44.36</ele>
        <time>2016-07-16T06:21:08Z</time>
      </trkpt>
      <trkpt lat="49.34607" lon="1.07695">
        <ele>44.36</ele>
        <time>2016-07-16T06:21:10Z</time>
      </trkpt>
      <trkpt lat="49.346" lon="1.0769">
        <ele>44.36</ele>
        <time>2016-07-16T06:21:11Z</time>
      </trkpt>
      <trkpt lat="49.34592" lon="1.07688">
        <ele>45.8</ele>
        <time>2016-07-16T06:21:12Z</time>
      </trkpt>
      <trkpt lat="49.34582" lon="1.07688">
        <ele>45.8</ele>
        <time>2016-07-16T06:21:13Z</time>
      </trkpt>
      <trkpt lat="49.34572" lon="1.07689">
        <ele>45.8</ele>
        <time>2016-07-16T06:21:14Z</time>
      </trkpt>
      <trkpt lat="49.34559" lon="1.07688">
        <ele>45.8</ele>
        <time>2016-07-16T06:21:15Z</time>
      </trkpt>
      <trkpt lat="49.34546" lon="1.07685">
        <ele>45.8</ele>
        <time>2016-07-16T06:21:16Z</time>
      </trkpt>
      <trkpt lat="49.34419" lon="1.0763">
        <ele>47.72</ele>
        <time>2016-07-16T06:21:23Z</time>
      </trkpt>
      <trkpt lat="49.34213" lon="1.07493">
        <ele>44.36</ele>
        <time>2016-07-16T06:21:33Z</time>
      </trkpt>
      <trkpt lat="49.34121" lon="1.07398">
        <ele>40.99</ele>
        <time>2016-07-16T06:21:38Z</time>
      </trkpt>
      <trkpt lat="49.34028" lon="1.07262">
        <ele>38.11</ele>
        <time>2016-07-16T06:21:44Z</time>
      </trkpt>
      <trkpt lat="49.34017" lon="1.07243">
        <ele>38.11</ele>
        <time>2016-07-16T06:21:45Z</time>
      </trkpt>
      <trkpt lat="49.33961" lon="1.07141">
        <ele>39.55</ele>
        <time>2016-07-16T06:21:50Z</time>
      </trkpt>
      <trkpt lat="49.33928" lon="1.07078">
        <ele>40.99</ele>
        <time>2016-07-16T06:21:54Z</time>
      </trkpt>
      <trkpt lat="49.33924" lon="1.07061">
        <ele>41.47</ele>
        <time>2016-07-16T06:21:55Z</time>
      </trkpt>
      <trkpt lat="49.33922" lon="1.07043">
        <ele>42.44</ele>
        <time>2016-07-16T06:21:56Z</time>
      </trkpt>
      <trkpt lat="49.33922" lon="1.07025">
        <ele>42.92</ele>
        <time>2016-07-16T06:21:57Z</time>
      </trkpt>
      <trkpt lat="49.33924" lon="1.07006">
        <ele>43.88</ele>
        <time>2016-07-16T06:21:58Z</time>
      </trkpt>
      <trkpt lat="49.33928" lon="1.06989">
        <ele>44.36</ele>
        <time>2016-07-16T06:21:59Z</time>
      </trkpt>
      <trkpt lat="49.33935" lon="1.06972">
        <ele>45.32</ele>
        <time>2016-07-16T06:22:00Z</time>
      </trkpt>
      <trkpt lat="49.33944" lon="1.06956">
        <ele>46.28</ele>
        <time>2016-07-16T06:22:01Z</time>
      </trkpt>
      <trkpt lat="49.33954" lon="1.06939">
        <ele>47.24</ele>
        <time>2016-07-16T06:22:02Z</time>
      </trkpt>
      <trkpt lat="49.33991" lon="1.06882">
        <ele>50.13</ele>
        <time>2016-07-16T06:22:05Z</time>
      </trkpt>
      <trkpt lat="49.34033" lon="1.06815">
        <ele>54.45</ele>
        <time>2016-07-16T06:22:08Z</time>
      </trkpt>
      <trkpt lat="49.34063" lon="1.06765">
        <ele>57.34</ele>
        <time>2016-07-16T06:22:10Z</time>
      </trkpt>
      <trkpt lat="49.3411" lon="1.0668">
        <ele>61.18</ele>
        <time>2016-07-16T06:22:13Z</time>
      </trkpt>
      <trkpt lat="49.34156" lon="1.06588">
        <ele>65.51</ele>
        <time>2016-07-16T06:22:16Z</time>
      </trkpt>
      <trkpt lat="49.3421" lon="1.06456">
        <ele>70.31</ele>
        <time>2016-07-16T06:22:20Z</time>
      </trkpt>
      <trkpt lat="49.34244" lon="1.06351">
        <ele>74.64</ele>
        <time>2016-07-16T06:22:23Z</time>
      </trkpt>
      <trkpt lat="49.34274" lon="1.06238">
        <ele>79.45</ele>
        <time>2016-07-16T06:22:26Z</time>
      </trkpt>
      <trkpt lat="49.34302" lon="1.06119">
        <ele>82.81</ele>
        <time>2016-07-16T06:22:29Z</time>
      </trkpt>
      <trkpt lat="49.34325" lon="1.05996">
        <ele>87.14</ele>
        <time>2016-07-16T06:22:32Z</time>
      </trkpt>
      <trkpt lat="49.34344" lon="1.0587">
        <ele>90.5</ele>
        <time>2016-07-16T06:22:35Z</time>
      </trkpt>
      <trkpt lat="49.34362" lon="1.05744">
        <ele>93.87</ele>
        <time>2016-07-16T06:22:38Z</time>
      </trkpt>
      <trkpt lat="49.34378" lon="1.05618">
        <ele>96.75</ele>
        <time>2016-07-16T06:22:41Z</time>
      </trkpt>
      <trkpt lat="49.34393" lon="1.05492">
        <ele>100.11</ele>
        <time>2016-07-16T06:22:44Z</time>
      </trkpt>
      <trkpt lat="49.34408" lon="1.05365">
        <ele>103.48</ele>
        <time>2016-07-16T06:22:47Z</time>
      </trkpt>
      <trkpt lat="49.34421" lon="1.05237">
        <ele>106.84</ele>
        <time>2016-07-16T06:22:50Z</time>
      </trkpt>
      <trkpt lat="49.34432" lon="1.05109">
        <ele>111.65</ele>
        <time>2016-07-16T06:22:53Z</time>
      </trkpt>
      <trkpt lat="49.34435" lon="1.05066">
        <ele>111.65</ele>
        <time>2016-07-16T06:22:54Z</time>
      </trkpt>
      <trkpt lat="49.34444" lon="1.04889">
        <ele>115.01</ele>
        <time>2016-07-16T06:22:58Z</time>
      </trkpt>
      <trkpt lat="49.34445" lon="1.04722">
        <ele>119.34</ele>
        <time>2016-07-16T06:23:02Z</time>
      </trkpt>
      <trkpt lat="49.34444" lon="1.04678">
        <ele>119.34</ele>
        <time>2016-07-16T06:23:03Z</time>
      </trkpt>
      <trkpt lat="49.34405" lon="1.04339">
        <ele>122.22</ele>
        <time>2016-07-16T06:23:11Z</time>
      </trkpt>
      <trkpt lat="49.34321" lon="1.0384">
        <ele>126.55</ele>
        <time>2016-07-16T06:23:23Z</time>
      </trkpt>
      <trkpt lat="49.34266" lon="1.03511">
        <ele>128.47</ele>
        <time>2016-07-16T06:23:30Z</time>
      </trkpt>
      <trkpt lat="49.34217" lon="1.03209">
        <ele>126.55</ele>
        <time>2016-07-16T06:23:36Z</time>
      </trkpt>
      <trkpt lat="49.34104" lon="1.02517">
        <ele>123.19</ele>
        <time>2016-07-16T06:23:50Z</time>
      </trkpt>
      <trkpt lat="49.33986" lon="1.01928">
        <ele>121.26</ele>
        <time>2016-07-16T06:24:02Z</time>
      </trkpt>
      <trkpt lat="49.33895" lon="1.01538">
        <ele>122.71</ele>
        <time>2016-07-16T06:24:10Z</time>
      </trkpt>
      <trkpt lat="49.33854" lon="1.01351">
        <ele>125.11</ele>
        <time>2016-07-16T06:24:14Z</time>
      </trkpt>
      <trkpt lat="49.33802" lon="1.01056">
        <ele>127.51</ele>
        <time>2016-07-16T06:24:20Z</time>
      </trkpt>
      <trkpt lat="49.33778" lon="1.00852">
        <ele>130.88</ele>
        <time>2016-07-16T06:24:24Z</time>
      </trkpt>
      <trkpt lat="49.33768" lon="1.00699">
        <ele>132.8</ele>
        <time>2016-07-16T06:24:27Z</time>
      </trkpt>
      <trkpt lat="49.33762" lon="1.00445">
        <ele>136.16</ele>
        <time>2016-07-16T06:24:32Z</time>
      </trkpt>
      <trkpt lat="49.33769" lon="1.00238">
        <ele>139.05</ele>
        <time>2016-07-16T06:24:36Z</time>
      </trkpt>
      <trkpt lat="49.33792" lon="0.99935">
        <ele>142.89</ele>
        <time>2016-07-16T06:24:42Z</time>
      </trkpt>
      <trkpt lat="49.33796" lon="0.99882">
        <ele>142.89</ele>
        <time>2016-07-16T06:24:43Z</time>
      </trkpt>
      <trkpt lat="49.33845" lon="0.99278">
        <ele>140.01</ele>
        <time>2016-07-16T06:24:55Z</time>
      </trkpt>
      <trkpt lat="49.33864" lon="0.98946">
        <ele>137.13</ele>
        <time>2016-07-16T06:25:02Z</time>
      </trkpt>
      <trkpt lat="49.33865" lon="0.98539">
        <ele>133.76</ele>
        <time>2016-07-16T06:25:10Z</time>
      </trkpt>
      <trkpt lat="49.33856" lon="0.98282">
        <ele>132.32</ele>
        <time>2016-07-16T06:25:15Z</time>
      </trkpt>
      <trkpt lat="49.33844" lon="0.98027">
        <ele>128.95</ele>
        <time>2016-07-16T06:25:20Z</time>
      </trkpt>
      <trkpt lat="49.33838" lon="0.97872">
        <ele>124.63</ele>
        <time>2016-07-16T06:25:23Z</time>
      </trkpt>
      <trkpt lat="49.33828" lon="0.97668">
        <ele>121.26</ele>
        <time>2016-07-16T06:25:27Z</time>
      </trkpt>
      <trkpt lat="49.33823" lon="0.97564">
        <ele>123.67</ele>
        <time>2016-07-16T06:25:29Z</time>
      </trkpt>
      <trkpt lat="49.33816" lon="0.97467">
        <ele>122.71</ele>
        <time>2016-07-16T06:25:31Z</time>
      </trkpt>
      <trkpt lat="49.33806" lon="0.97055">
        <ele>118.38</ele>
        <time>2016-07-16T06:25:39Z</time>
      </trkpt>
      <trkpt lat="49.33818" lon="0.96902">
        <ele>114.53</ele>
        <time>2016-07-16T06:25:42Z</time>
      </trkpt>
      <trkpt lat="49.33839" lon="0.96751">
        <ele>111.17</ele>
        <time>2016-07-16T06:25:45Z</time>
      </trkpt>
      <trkpt lat="49.33858" lon="0.96652">
        <ele>108.29</ele>
        <time>2016-07-16T06:25:47Z</time>
      </trkpt>
      <trkpt lat="49.33867" lon="0.96601">
        <ele>108.29</ele>
        <time>2016-07-16T06:25:48Z</time>
      </trkpt>
      <trkpt lat="49.33885" lon="0.96502">
        <ele>104.92</ele>
        <time>2016-07-16T06:25:50Z</time>
      </trkpt>
      <trkpt lat="49.33907" lon="0.96351">
        <ele>99.63</ele>
        <time>2016-07-16T06:25:53Z</time>
      </trkpt>
      <trkpt lat="49.33918" lon="0.96198">
        <ele>96.75</ele>
        <time>2016-07-16T06:25:56Z</time>
      </trkpt>
      <trkpt lat="49.33919" lon="0.96146">
        <ele>96.75</ele>
        <time>2016-07-16T06:25:57Z</time>
      </trkpt>
      <trkpt lat="49.33904" lon="0.95843">
        <ele>93.87</ele>
        <time>2016-07-16T06:26:03Z</time>
      </trkpt>
      <trkpt lat="49.33894" lon="0.9569">
        <ele>96.75</ele>
        <time>2016-07-16T06:26:06Z</time>
      </trkpt>
      <trkpt lat="49.33889" lon="0.95589">
        <ele>100.11</ele>
        <time>2016-07-16T06:26:08Z</time>
      </trkpt>
      <trkpt lat="49.33886" lon="0.95487">
        <ele>103.48</ele>
        <time>2016-07-16T06:26:10Z</time>
      </trkpt>
      <trkpt lat="49.33886" lon="0.95386">
        <ele>106.36</ele>
        <time>2016-07-16T06:26:12Z</time>
      </trkpt>
      <trkpt lat="49.33889" lon="0.95285">
        <ele>110.21</ele>
        <time>2016-07-16T06:26:14Z</time>
      </trkpt>
      <trkpt lat="49.33893" lon="0.95234">
        <ele>110.21</ele>
        <time>2016-07-16T06:26:15Z</time>
      </trkpt>
      <trkpt lat="49.33922" lon="0.94953">
        <ele>112.61</ele>
        <time>2016-07-16T06:26:21Z</time>
      </trkpt>
      <trkpt lat="49.33937" lon="0.94858">
        <ele>114.53</ele>
        <time>2016-07-16T06:26:23Z</time>
      </trkpt>
      <trkpt lat="49.33962" lon="0.94708">
        <ele>117.42</ele>
        <time>2016-07-16T06:26:26Z</time>
      </trkpt>
      <trkpt lat="49.34009" lon="0.94339">
        <ele>120.78</ele>
        <time>2016-07-16T06:26:34Z</time>
      </trkpt>
      <trkpt lat="49.34094" lon="0.93672">
        <ele>124.63</ele>
        <time>2016-07-16T06:26:49Z</time>
      </trkpt>
      <trkpt lat="49.34101" lon="0.93625">
        <ele>124.63</ele>
        <time>2016-07-16T06:26:50Z</time>
      </trkpt>
      <trkpt lat="49.34133" lon="0.93432">
        <ele>127.99</ele>
        <time>2016-07-16T06:26:54Z</time>
      </trkpt>
      <trkpt lat="49.34142" lon="0.93383">
        <ele>127.99</ele>
        <time>2016-07-16T06:26:55Z</time>
      </trkpt>
      <trkpt lat="49.34305" lon="0.92548">
        <ele>128.95</ele>
        <time>2016-07-16T06:27:12Z</time>
      </trkpt>
      <trkpt lat="49.34355" lon="0.92303">
        <ele>127.03</ele>
        <time>2016-07-16T06:27:17Z</time>
      </trkpt>
      <trkpt lat="49.34484" lon="0.91722">
        <ele>127.99</ele>
        <time>2016-07-16T06:27:29Z</time>
      </trkpt>
      <trkpt lat="49.34573" lon="0.91391">
        <ele>131.84</ele>
        <time>2016-07-16T06:27:36Z</time>
      </trkpt>
      <trkpt lat="49.34586" lon="0.91344">
        <ele>131.84</ele>
        <time>2016-07-16T06:27:37Z</time>
      </trkpt>
      <trkpt lat="49.34851" lon="0.90461">
        <ele>133.28</ele>
        <time>2016-07-16T06:27:56Z</time>
      </trkpt>
      <trkpt lat="49.34911" lon="0.90222">
        <ele>134.24</ele>
        <time>2016-07-16T06:28:01Z</time>
      </trkpt>
      <trkpt lat="49.34988" lon="0.89884">
        <ele>133.28</ele>
        <time>2016-07-16T06:28:08Z</time>
      </trkpt>
      <trkpt lat="49.35194" lon="0.8902">
        <ele>132.32</ele>
        <time>2016-07-16T06:28:26Z</time>
      </trkpt>
      <trkpt lat="49.3534" lon="0.8856">
        <ele>128.95</ele>
        <time>2016-07-16T06:28:36Z</time>
      </trkpt>
      <trkpt lat="49.35562" lon="0.87988">
        <ele>130.88</ele>
        <time>2016-07-16T06:28:49Z</time>
      </trkpt>
      <trkpt lat="49.35736" lon="0.87551">
        <ele>133.76</ele>
        <time>2016-07-16T06:28:59Z</time>
      </trkpt>
      <trkpt lat="49.3577" lon="0.87463">
        <ele>134.72</ele>
        <time>2016-07-16T06:29:01Z</time>
      </trkpt>
      <trkpt lat="49.35947" lon="0.86941">
        <ele>135.2</ele>
        <time>2016-07-16T06:29:13Z</time>
      </trkpt>
      <trkpt lat="49.35979" lon="0.86839">
        <ele>132.8</ele>
        <time>2016-07-16T06:29:16Z</time>
      </trkpt>
      <trkpt lat="49.36025" lon="0.86684">
        <ele>130.4</ele>
        <time>2016-07-16T06:29:22Z</time>
      </trkpt>
      <trkpt lat="49.36064" lon="0.86578">
        <ele>128.95</ele>
        <time>2016-07-16T06:29:29Z</time>
      </trkpt>
      <trkpt lat="49.36071" lon="0.86557">
        <ele>128.95</ele>
        <time>2016-07-16T06:29:31Z</time>
      </trkpt>
      <trkpt lat="49.36074" lon="0.86546">
        <ele>128.95</ele>
        <time>2016-07-16T06:29:32Z</time>
      </trkpt>
      <trkpt lat="49.36084" lon="0.86497">
        <ele>128.47</ele>
        <time>2016-07-16T06:29:39Z</time>
      </trkpt>
      <trkpt lat="49.36097" lon="0.86427">
        <ele>128.47</ele>
        <time>2016-07-16T06:29:47Z</time>
      </trkpt>
      <trkpt lat="49.361" lon="0.86406">
        <ele>128.47</ele>
        <time>2016-07-16T06:29:49Z</time>
      </trkpt>
      <trkpt lat="49.36103" lon="0.86397">
        <ele>128.47</ele>
        <time>2016-07-16T06:29:50Z</time>
      </trkpt>
      <trkpt lat="49.3611" lon="0.86377">
        <ele>127.99</ele>
        <time>2016-07-16T06:29:52Z</time>
      </trkpt>
      <trkpt lat="49.36113" lon="0.86363">
        <ele>127.03</ele>
        <time>2016-07-16T06:29:58Z</time>
      </trkpt>
      <trkpt lat="49.36118" lon="0.86352">
        <ele>127.51</ele>
        <time>2016-07-16T06:30:16Z</time>
      </trkpt>
      <trkpt lat="49.36121" lon="0.8635">
        <ele>128.47</ele>
        <time>2016-07-16T06:30:29Z</time>
      </trkpt>
      <trkpt lat="49.36121" lon="0.86347">
        <ele>128.95</ele>
        <time>2016-07-16T06:31:07Z</time>
      </trkpt>
      <trkpt lat="49.3612" lon="0.86347">
        <ele>129.43</ele>
        <time>2016-07-16T06:31:43Z</time>
      </trkpt>
      <trkpt lat="49.36118" lon="0.86349">
        <ele>129.43</ele>
        <time>2016-07-16T06:32:19Z</time>
      </trkpt>
      <trkpt lat="49.36119" lon="0.8635">
        <ele>130.4</ele>
        <time>2016-07-16T06:32:52Z</time>
      </trkpt>
      <trkpt lat="49.36118" lon="0.86351">
        <ele>130.4</ele>
        <time>2016-07-16T06:33:20Z</time>
      </trkpt>
      <trkpt lat="49.36117" lon="0.86353">
        <ele>128.95</ele>
        <time>2016-07-16T06:33:49Z</time>
      </trkpt>
      <trkpt lat="49.36117" lon="0.86353">
        <ele>130.4</ele>
        <time>2016-07-16T06:33:57Z</time>
      </trkpt>
      <trkpt lat="49.36118" lon="0.86353">
        <ele>130.4</ele>
        <time>2016-07-16T06:34:20Z</time>
      </trkpt>
      <trkpt lat="49.36118" lon="0.86353">
        <ele>130.4</ele>
        <time>2016-07-16T06:34:42Z</time>
      </trkpt>
      <trkpt lat="49.36118" lon="0.86354">
        <ele>130.4</ele>
        <time>2016-07-16T06:35:16Z</time>
      </trkpt>
      <trkpt lat="49.36117" lon="0.86354">
        <ele>130.4</ele>
        <time>2016-07-16T06:35:54Z</time>
      </trkpt>
      <trkpt lat="49.36116" lon="0.86353">
        <ele>129.92</ele>
        <time>2016-07-16T06:36:31Z</time>
      </trkpt>
      <trkpt lat="49.36117" lon="0.86353">
        <ele>129.92</ele>
        <time>2016-07-16T06:37:06Z</time>
      </trkpt>
      <trkpt lat="49.36117" lon="0.86352">
        <ele>129.92</ele>
        <time>2016-07-16T06:37:43Z</time>
      </trkpt>
      <trkpt lat="49.36118" lon="0.86351">
        <ele>129.92</ele>
        <time>2016-07-16T06:38:13Z</time>
      </trkpt>
      <trkpt lat="49.3612" lon="0.86352">
        <ele>129.92</ele>
        <time>2016-07-16T06:38:57Z</time>
      </trkpt>
      <trkpt lat="49.36119" lon="0.86352">
        <ele>129.92</ele>
        <time>2016-07-16T06:39:30Z</time>
      </trkpt>
      <trkpt lat="49.3612" lon="0.86351">
        <ele>129.92</ele>
        <time>2016-07-16T06:39:57Z</time>
      </trkpt>
      <trkpt lat="49.3612" lon="0.8635">
        <ele>130.4</ele>
        <time>2016-07-16T06:40:31Z</time>
      </trkpt>
      <trkpt lat="49.36119" lon="0.8635">
        <ele>130.4</ele>
        <time>2016-07-16T06:41:03Z</time>
      </trkpt>
      <trkpt lat="49.36121" lon="0.86349">
        <ele>130.4</ele>
        <time>2016-07-16T06:41:45Z</time>
      </trkpt>
      <trkpt lat="49.36121" lon="0.86348">
        <ele>130.4</ele>
        <time>2016-07-16T06:42:14Z</time>
      </trkpt>
      <trkpt lat="49.3612" lon="0.86348">
        <ele>130.88</ele>
        <time>2016-07-16T06:42:55Z</time>
      </trkpt>
      <trkpt lat="49.36119" lon="0.86348">
        <ele>130.88</ele>
        <time>2016-07-16T06:43:27Z</time>
      </trkpt>
      <trkpt lat="49.36118" lon="0.86348">
        <ele>130.88</ele>
        <time>2016-07-16T06:43:51Z</time>
      </trkpt>
      <trkpt lat="49.36118" lon="0.86347">
        <ele>131.36</ele>
        <time>2016-07-16T06:44:22Z</time>
      </trkpt>
      <trkpt lat="49.36119" lon="0.86347">
        <ele>131.36</ele>
        <time>2016-07-16T06:44:55Z</time>
      </trkpt>
      <trkpt lat="49.36118" lon="0.86348">
        <ele>131.36</ele>
        <time>2016-07-16T06:45:24Z</time>
      </trkpt>
      <trkpt lat="49.36119" lon="0.86348">
        <ele>131.84</ele>
        <time>2016-07-16T06:45:51Z</time>
      </trkpt>
      <trkpt lat="49.36118" lon="0.86349">
        <ele>131.84</ele>
        <time>2016-07-16T06:46:26Z</time>
      </trkpt>
      <trkpt lat="49.36119" lon="0.86348">
        <ele>131.84</ele>
        <time>2016-07-16T06:46:55Z</time>
      </trkpt>
      <trkpt lat="49.36118" lon="0.86349">
        <ele>132.32</ele>
        <time>2016-07-16T06:47:24Z</time>
      </trkpt>
      <trkpt lat="49.36116" lon="0.86351">
        <ele>132.32</ele>
        <time>2016-07-16T06:47:59Z</time>
      </trkpt>
      <trkpt lat="49.36117" lon="0.86351">
        <ele>132.32</ele>
        <time>2016-07-16T06:48:32Z</time>
      </trkpt>
      <trkpt lat="49.36117" lon="0.8635">
        <ele>132.8</ele>
        <time>2016-07-16T06:49:06Z</time>
      </trkpt>
      <trkpt lat="49.36117" lon="0.86351">
        <ele>132.8</ele>
        <time>2016-07-16T06:49:42Z</time>
      </trkpt>
      <trkpt lat="49.36119" lon="0.8635">
        <ele>132.8</ele>
        <time>2016-07-16T06:50:19Z</time>
      </trkpt>
      <trkpt lat="49.36118" lon="0.86351">
        <ele>133.28</ele>
        <time>2016-07-16T06:51:05Z</time>
      </trkpt>
      <trkpt lat="49.36118" lon="0.86351">
        <ele>133.28</ele>
        <time>2016-07-16T06:51:52Z</time>
      </trkpt>
      <trkpt lat="49.36119" lon="0.8635">
        <ele>133.28</ele>
        <time>2016-07-16T06:52:36Z</time>
      </trkpt>
      <trkpt lat="49.3612" lon="0.8635">
        <ele>133.76</ele>
        <time>2016-07-16T06:53:13Z</time>
      </trkpt>
      <trkpt lat="49.36121" lon="0.86348">
        <ele>133.76</ele>
        <time>2016-07-16T06:53:52Z</time>
      </trkpt>
      <trkpt lat="49.36121" lon="0.86349">
        <ele>134.24</ele>
        <time>2016-07-16T06:54:23Z</time>
      </trkpt>
      <trkpt lat="49.36121" lon="0.8635">
        <ele>133.28</ele>
        <time>2016-07-16T06:54:40Z</time>
      </trkpt>
      <trkpt lat="49.36119" lon="0.86352">
        <ele>133.28</ele>
        <time>2016-07-16T06:55:12Z</time>
      </trkpt>
      <trkpt lat="49.36119" lon="0.86352">
        <ele>133.28</ele>
        <time>2016-07-16T06:55:41Z</time>
      </trkpt>
      <trkpt lat="49.36117" lon="0.86352">
        <ele>133.76</ele>
        <time>2016-07-16T06:56:12Z</time>
      </trkpt>
      <trkpt lat="49.36118" lon="0.86353">
        <ele>132.32</ele>
        <time>2016-07-16T06:56:28Z</time>
      </trkpt>
      <trkpt lat="49.36117" lon="0.86353">
        <ele>132.32</ele>
        <time>2016-07-16T06:57:05Z</time>
      </trkpt>
      <trkpt lat="49.36112" lon="0.86352">
        <ele>132.32</ele>
        <time>2016-07-16T06:57:27Z</time>
      </trkpt>
      <trkpt lat="49.36114" lon="0.86347">
        <ele>132.32</ele>
        <time>2016-07-16T06:57:38Z</time>
      </trkpt>
      <trkpt lat="49.36122" lon="0.86308">
        <ele>132.32</ele>
        <time>2016-07-16T06:57:52Z</time>
      </trkpt>
      <trkpt lat="49.36123" lon="0.86305">
        <ele>132.32</ele>
        <time>2016-07-16T06:57:53Z</time>
      </trkpt>
      <trkpt lat="49.36137" lon="0.86259">
        <ele>131.84</ele>
        <time>2016-07-16T06:58:02Z</time>
      </trkpt>
      <trkpt lat="49.36138" lon="0.86256">
        <ele>132.32</ele>
        <time>2016-07-16T06:58:04Z</time>
      </trkpt>
      <trkpt lat="49.3614" lon="0.86253">
        <ele>132.32</ele>
        <time>2016-07-16T06:58:05Z</time>
      </trkpt>
      <trkpt lat="49.3614" lon="0.86248">
        <ele>132.32</ele>
        <time>2016-07-16T06:58:06Z</time>
      </trkpt>
      <trkpt lat="49.36141" lon="0.86241">
        <ele>132.32</ele>
        <time>2016-07-16T06:58:07Z</time>
      </trkpt>
      <trkpt lat="49.36141" lon="0.86232">
        <ele>132.32</ele>
        <time>2016-07-16T06:58:08Z</time>
      </trkpt>
      <trkpt lat="49.3615" lon="0.86129">
        <ele>132.32</ele>
        <time>2016-07-16T06:58:15Z</time>
      </trkpt>
      <trkpt lat="49.36175" lon="0.85971">
        <ele>133.28</ele>
        <time>2016-07-16T06:58:22Z</time>
      </trkpt>
      <trkpt lat="49.36212" lon="0.85708">
        <ele>133.76</ele>
        <time>2016-07-16T06:58:31Z</time>
      </trkpt>
      <trkpt lat="49.36255" lon="0.85373">
        <ele>134.72</ele>
        <time>2016-07-16T06:58:40Z</time>
      </trkpt>
      <trkpt lat="49.36267" lon="0.85255">
        <ele>132.8</ele>
        <time>2016-07-16T06:58:43Z</time>
      </trkpt>
      <trkpt lat="49.36318" lon="0.84601">
        <ele>129.43</ele>
        <time>2016-07-16T06:58:59Z</time>
      </trkpt>
      <trkpt lat="49.36331" lon="0.84395">
        <ele>131.84</ele>
        <time>2016-07-16T06:59:04Z</time>
      </trkpt>
      <trkpt lat="49.36365" lon="0.83842">
        <ele>134.72</ele>
        <time>2016-07-16T06:59:17Z</time>
      </trkpt>
      <trkpt lat="49.36382" lon="0.83596">
        <ele>136.16</ele>
        <time>2016-07-16T06:59:23Z</time>
      </trkpt>
      <trkpt lat="49.36396" lon="0.83426">
        <ele>133.28</ele>
        <time>2016-07-16T06:59:28Z</time>
      </trkpt>
      <trkpt lat="49.36399" lon="0.83403">
        <ele>133.28</ele>
        <time>2016-07-16T06:59:29Z</time>
      </trkpt>
      <trkpt lat="49.36404" lon="0.8338">
        <ele>133.28</ele>
        <time>2016-07-16T06:59:30Z</time>
      </trkpt>
      <trkpt lat="49.3641" lon="0.83359">
        <ele>133.28</ele>
        <time>2016-07-16T06:59:31Z</time>
      </trkpt>
      <trkpt lat="49.36417" lon="0.83342">
        <ele>133.28</ele>
        <time>2016-07-16T06:59:32Z</time>
      </trkpt>
      <trkpt lat="49.36427" lon="0.83324">
        <ele>133.28</ele>
        <time>2016-07-16T06:59:33Z</time>
      </trkpt>
      <trkpt lat="49.36439" lon="0.8331">
        <ele>133.28</ele>
        <time>2016-07-16T06:59:34Z</time>
      </trkpt>
      <trkpt lat="49.36452" lon="0.83297">
        <ele>133.28</ele>
        <time>2016-07-16T06:59:35Z</time>
      </trkpt>
      <trkpt lat="49.36466" lon="0.83287">
        <ele>134.24</ele>
        <time>2016-07-16T06:59:36Z</time>
      </trkpt>
      <trkpt lat="49.36502" lon="0.83256">
        <ele>135.68</ele>
        <time>2016-07-16T06:59:39Z</time>
      </trkpt>
      <trkpt lat="49.36511" lon="0.83243">
        <ele>135.68</ele>
        <time>2016-07-16T06:59:40Z</time>
      </trkpt>
      <trkpt lat="49.36519" lon="0.8323">
        <ele>136.16</ele>
        <time>2016-07-16T06:59:41Z</time>
      </trkpt>
      <trkpt lat="49.36524" lon="0.83214">
        <ele>136.64</ele>
        <time>2016-07-16T06:59:42Z</time>
      </trkpt>
      <trkpt lat="49.36527" lon="0.83196">
        <ele>136.64</ele>
        <time>2016-07-16T06:59:43Z</time>
      </trkpt>
      <trkpt lat="49.36526" lon="0.83178">
        <ele>137.61</ele>
        <time>2016-07-16T06:59:44Z</time>
      </trkpt>
      <trkpt lat="49.36523" lon="0.83159">
        <ele>138.09</ele>
        <time>2016-07-16T06:59:45Z</time>
      </trkpt>
      <trkpt lat="49.36517" lon="0.83142">
        <ele>138.57</ele>
        <time>2016-07-16T06:59:46Z</time>
      </trkpt>
      <trkpt lat="49.36509" lon="0.83128">
        <ele>139.05</ele>
        <time>2016-07-16T06:59:47Z</time>
      </trkpt>
      <trkpt lat="49.36498" lon="0.83117">
        <ele>140.01</ele>
        <time>2016-07-16T06:59:48Z</time>
      </trkpt>
      <trkpt lat="49.36485" lon="0.83109">
        <ele>140.49</ele>
        <time>2016-07-16T06:59:49Z</time>
      </trkpt>
      <trkpt lat="49.36471" lon="0.83104">
        <ele>140.97</ele>
        <time>2016-07-16T06:59:50Z</time>
      </trkpt>
      <trkpt lat="49.36456" lon="0.83101">
        <ele>140.97</ele>
        <time>2016-07-16T06:59:51Z</time>
      </trkpt>
      <trkpt lat="49.3644" lon="0.831">
        <ele>141.93</ele>
        <time>2016-07-16T06:59:52Z</time>
      </trkpt>
      <trkpt lat="49.36291" lon="0.83082">
        <ele>138.57</ele>
        <time>2016-07-16T07:00:02Z</time>
      </trkpt>
      <trkpt lat="49.36265" lon="0.83082">
        <ele>137.61</ele>
        <time>2016-07-16T07:00:04Z</time>
      </trkpt>
      <trkpt lat="49.36252" lon="0.83085">
        <ele>137.13</ele>
        <time>2016-07-16T07:00:05Z</time>
      </trkpt>
      <trkpt lat="49.36239" lon="0.8309">
        <ele>136.64</ele>
        <time>2016-07-16T07:00:06Z</time>
      </trkpt>
      <trkpt lat="49.36226" lon="0.83097">
        <ele>136.16</ele>
        <time>2016-07-16T07:00:07Z</time>
      </trkpt>
      <trkpt lat="49.36213" lon="0.83106">
        <ele>135.68</ele>
        <time>2016-07-16T07:00:08Z</time>
      </trkpt>
      <trkpt lat="49.36201" lon="0.83118">
        <ele>135.2</ele>
        <time>2016-07-16T07:00:09Z</time>
      </trkpt>
      <trkpt lat="49.36188" lon="0.83131">
        <ele>134.24</ele>
        <time>2016-07-16T07:00:10Z</time>
      </trkpt>
      <trkpt lat="49.36176" lon="0.83145">
        <ele>133.28</ele>
        <time>2016-07-16T07:00:11Z</time>
      </trkpt>
      <trkpt lat="49.36126" lon="0.8321">
        <ele>131.36</ele>
        <time>2016-07-16T07:00:15Z</time>
      </trkpt>
      <trkpt lat="49.36027" lon="0.83333">
        <ele>127.99</ele>
        <time>2016-07-16T07:00:21Z</time>
      </trkpt>
      <trkpt lat="49.35971" lon="0.83403">
        <ele>124.15</ele>
        <time>2016-07-16T07:00:24Z</time>
      </trkpt>
      <trkpt lat="49.3593" lon="0.83442">
        <ele>122.71</ele>
        <time>2016-07-16T07:00:26Z</time>
      </trkpt>
      <trkpt lat="49.35908" lon="0.83457">
        <ele>122.22</ele>
        <time>2016-07-16T07:00:27Z</time>
      </trkpt>
      <trkpt lat="49.35886" lon="0.83469">
        <ele>122.22</ele>
        <time>2016-07-16T07:00:28Z</time>
      </trkpt>
      <trkpt lat="49.35863" lon="0.83478">
        <ele>122.22</ele>
        <time>2016-07-16T07:00:29Z</time>
      </trkpt>
      <trkpt lat="49.35839" lon="0.83484">
        <ele>122.22</ele>
        <time>2016-07-16T07:00:30Z</time>
      </trkpt>
      <trkpt lat="49.35815" lon="0.83487">
        <ele>122.22</ele>
        <time>2016-07-16T07:00:31Z</time>
      </trkpt>
      <trkpt lat="49.3567" lon="0.83492">
        <ele>120.3</ele>
        <time>2016-07-16T07:00:38Z</time>
      </trkpt>
      <trkpt lat="49.35605" lon="0.83494">
        <ele>118.38</ele>
        <time>2016-07-16T07:00:42Z</time>
      </trkpt>
      <trkpt lat="49.35537" lon="0.83495">
        <ele>116.46</ele>
        <time>2016-07-16T07:00:49Z</time>
      </trkpt>
      <trkpt lat="49.355" lon="0.83497">
        <ele>116.46</ele>
        <time>2016-07-16T07:00:58Z</time>
      </trkpt>
      <trkpt lat="49.35457" lon="0.83499">
        <ele>116.46</ele>
        <time>2016-07-16T07:01:09Z</time>
      </trkpt>
      <trkpt lat="49.35435" lon="0.83497">
        <ele>116.94</ele>
        <time>2016-07-16T07:01:26Z</time>
      </trkpt>
      <trkpt lat="49.35431" lon="0.83496">
        <ele>116.46</ele>
        <time>2016-07-16T07:01:41Z</time>
      </trkpt>
      <trkpt lat="49.35429" lon="0.83496">
        <ele>116.46</ele>
        <time>2016-07-16T07:01:46Z</time>
      </trkpt>
      <trkpt lat="49.35427" lon="0.83496">
        <ele>116.46</ele>
        <time>2016-07-16T07:01:47Z</time>
      </trkpt>
      <trkpt lat="49.35426" lon="0.83495">
        <ele>116.46</ele>
        <time>2016-07-16T07:01:48Z</time>
      </trkpt>
      <trkpt lat="49.35412" lon="0.83496">
        <ele>117.42</ele>
        <time>2016-07-16T07:01:57Z</time>
      </trkpt>
      <trkpt lat="49.354" lon="0.83499">
        <ele>117.42</ele>
        <time>2016-07-16T07:02:11Z</time>
      </trkpt>
      <trkpt lat="49.35397" lon="0.83499">
        <ele>117.9</ele>
        <time>2016-07-16T07:02:16Z</time>
      </trkpt>
      <trkpt lat="49.35394" lon="0.83498">
        <ele>117.9</ele>
        <time>2016-07-16T07:02:17Z</time>
      </trkpt>
      <trkpt lat="49.3539" lon="0.83497">
        <ele>117.9</ele>
        <time>2016-07-16T07:02:18Z</time>
      </trkpt>
      <trkpt lat="49.35334" lon="0.83497">
        <ele>121.26</ele>
        <time>2016-07-16T07:02:23Z</time>
      </trkpt>
      <trkpt lat="49.35301" lon="0.83499">
        <ele>122.22</ele>
        <time>2016-07-16T07:02:25Z</time>
      </trkpt>
      <trkpt lat="49.35283" lon="0.835">
        <ele>118.86</ele>
        <time>2016-07-16T07:02:26Z</time>
      </trkpt>
      <trkpt lat="49.35264" lon="0.83501">
        <ele>118.86</ele>
        <time>2016-07-16T07:02:27Z</time>
      </trkpt>
      <trkpt lat="49.35131" lon="0.83507">
        <ele>121.74</ele>
        <time>2016-07-16T07:02:33Z</time>
      </trkpt>
      <trkpt lat="49.35081" lon="0.83509">
        <ele>122.71</ele>
        <time>2016-07-16T07:02:35Z</time>
      </trkpt>
      <trkpt lat="49.35002" lon="0.83512">
        <ele>124.63</ele>
        <time>2016-07-16T07:02:38Z</time>
      </trkpt>
      <trkpt lat="49.34917" lon="0.83516">
        <ele>127.51</ele>
        <time>2016-07-16T07:02:41Z</time>
      </trkpt>
      <trkpt lat="49.34711" lon="0.83527">
        <ele>131.36</ele>
        <time>2016-07-16T07:02:48Z</time>
      </trkpt>
      <trkpt lat="49.34652" lon="0.8353">
        <ele>131.84</ele>
        <time>2016-07-16T07:02:50Z</time>
      </trkpt>
      <trkpt lat="49.34372" lon="0.83507">
        <ele>134.24</ele>
        <time>2016-07-16T07:02:59Z</time>
      </trkpt>
      <trkpt lat="49.34109" lon="0.8342">
        <ele>131.84</ele>
        <time>2016-07-16T07:03:07Z</time>
      </trkpt>
      <trkpt lat="49.33976" lon="0.8336">
        <ele>129.92</ele>
        <time>2016-07-16T07:03:11Z</time>
      </trkpt>
      <trkpt lat="49.33875" lon="0.83315">
        <ele>126.55</ele>
        <time>2016-07-16T07:03:14Z</time>
      </trkpt>
      <trkpt lat="49.3374" lon="0.83254">
        <ele>123.19</ele>
        <time>2016-07-16T07:03:18Z</time>
      </trkpt>
      <trkpt lat="49.33606" lon="0.83195">
        <ele>119.82</ele>
        <time>2016-07-16T07:03:22Z</time>
      </trkpt>
      <trkpt lat="49.33504" lon="0.83149">
        <ele>116.46</ele>
        <time>2016-07-16T07:03:25Z</time>
      </trkpt>
      <trkpt lat="49.33063" lon="0.82946">
        <ele>119.82</ele>
        <time>2016-07-16T07:03:39Z</time>
      </trkpt>
      <trkpt lat="49.32972" lon="0.82884">
        <ele>124.63</ele>
        <time>2016-07-16T07:03:42Z</time>
      </trkpt>
      <trkpt lat="49.32857" lon="0.82796">
        <ele>128.47</ele>
        <time>2016-07-16T07:03:46Z</time>
      </trkpt>
      <trkpt lat="49.32742" lon="0.82704">
        <ele>131.84</ele>
        <time>2016-07-16T07:03:50Z</time>
      </trkpt>
      <trkpt lat="49.32712" lon="0.8268">
        <ele>131.84</ele>
        <time>2016-07-16T07:03:51Z</time>
      </trkpt>
      <trkpt lat="49.32507" lon="0.82525">
        <ele>135.2</ele>
        <time>2016-07-16T07:03:58Z</time>
      </trkpt>
      <trkpt lat="49.32354" lon="0.82429">
        <ele>139.53</ele>
        <time>2016-07-16T07:04:03Z</time>
      </trkpt>
      <trkpt lat="49.32323" lon="0.82413">
        <ele>139.05</ele>
        <time>2016-07-16T07:04:04Z</time>
      </trkpt>
      <trkpt lat="49.32261" lon="0.8238">
        <ele>136.64</ele>
        <time>2016-07-16T07:04:06Z</time>
      </trkpt>
      <trkpt lat="49.32008" lon="0.82264">
        <ele>140.01</ele>
        <time>2016-07-16T07:04:14Z</time>
      </trkpt>
      <trkpt lat="49.31595" lon="0.82077">
        <ele>143.37</ele>
        <time>2016-07-16T07:04:27Z</time>
      </trkpt>
      <trkpt lat="49.31327" lon="0.81882">
        <ele>144.82</ele>
        <time>2016-07-16T07:04:36Z</time>
      </trkpt>
      <trkpt lat="49.31111" lon="0.81648">
        <ele>146.74</ele>
        <time>2016-07-16T07:04:44Z</time>
      </trkpt>
      <trkpt lat="49.31085" lon="0.81614">
        <ele>146.74</ele>
        <time>2016-07-16T07:04:45Z</time>
      </trkpt>
      <trkpt lat="49.30904" lon="0.81317">
        <ele>146.74</ele>
        <time>2016-07-16T07:04:53Z</time>
      </trkpt>
      <trkpt lat="49.30764" lon="0.81034">
        <ele>145.3</ele>
        <time>2016-07-16T07:05:00Z</time>
      </trkpt>
      <trkpt lat="49.30644" lon="0.80789">
        <ele>149.14</ele>
        <time>2016-07-16T07:05:06Z</time>
      </trkpt>
      <trkpt lat="49.30625" lon="0.8075">
        <ele>149.14</ele>
        <time>2016-07-16T07:05:07Z</time>
      </trkpt>
      <trkpt lat="49.30566" lon="0.80628">
        <ele>150.58</ele>
        <time>2016-07-16T07:05:10Z</time>
      </trkpt>
      <trkpt lat="49.30506" lon="0.80505">
        <ele>152.51</ele>
        <time>2016-07-16T07:05:13Z</time>
      </trkpt>
      <trkpt lat="49.3031" lon="0.80102">
        <ele>151.54</ele>
        <time>2016-07-16T07:05:23Z</time>
      </trkpt>
      <trkpt lat="49.29998" lon="0.79514">
        <ele>148.18</ele>
        <time>2016-07-16T07:05:38Z</time>
      </trkpt>
      <trkpt lat="49.29698" lon="0.79116">
        <ele>146.74</ele>
        <time>2016-07-16T07:05:50Z</time>
      </trkpt>
      <trkpt lat="49.29534" lon="0.78945">
        <ele>143.37</ele>
        <time>2016-07-16T07:05:56Z</time>
      </trkpt>
      <trkpt lat="49.29506" lon="0.78918">
        <ele>143.37</ele>
        <time>2016-07-16T07:05:57Z</time>
      </trkpt>
      <trkpt lat="49.29302" lon="0.78751">
        <ele>139.53</ele>
        <time>2016-07-16T07:06:04Z</time>
      </trkpt>
      <trkpt lat="49.29122" lon="0.78618">
        <ele>135.68</ele>
        <time>2016-07-16T07:06:10Z</time>
      </trkpt>
      <trkpt lat="49.29002" lon="0.7853">
        <ele>131.36</ele>
        <time>2016-07-16T07:06:14Z</time>
      </trkpt>
      <trkpt lat="49.28851" lon="0.78419">
        <ele>125.11</ele>
        <time>2016-07-16T07:06:19Z</time>
      </trkpt>
      <trkpt lat="49.28731" lon="0.78329">
        <ele>121.26</ele>
        <time>2016-07-16T07:06:23Z</time>
      </trkpt>
      <trkpt lat="49.28642" lon="0.78263">
        <ele>116.94</ele>
        <time>2016-07-16T07:06:26Z</time>
      </trkpt>
      <trkpt lat="49.28582" lon="0.78219">
        <ele>113.57</ele>
        <time>2016-07-16T07:06:28Z</time>
      </trkpt>
      <trkpt lat="49.28492" lon="0.78152">
        <ele>109.73</ele>
        <time>2016-07-16T07:06:31Z</time>
      </trkpt>
      <trkpt lat="49.28395" lon="0.78081">
        <ele>106.84</ele>
        <time>2016-07-16T07:06:34Z</time>
      </trkpt>
      <trkpt lat="49.28172" lon="0.77881">
        <ele>103.96</ele>
        <time>2016-07-16T07:06:42Z</time>
      </trkpt>
      <trkpt lat="49.28046" lon="0.77726">
        <ele>107.32</ele>
        <time>2016-07-16T07:06:47Z</time>
      </trkpt>
      <trkpt lat="49.2795" lon="0.77588">
        <ele>111.17</ele>
        <time>2016-07-16T07:06:51Z</time>
      </trkpt>
      <trkpt lat="49.27855" lon="0.77448">
        <ele>113.57</ele>
        <time>2016-07-16T07:06:55Z</time>
      </trkpt>
      <trkpt lat="49.2774" lon="0.77279">
        <ele>116.94</ele>
        <time>2016-07-16T07:07:00Z</time>
      </trkpt>
      <trkpt lat="49.27671" lon="0.7718">
        <ele>118.38</ele>
        <time>2016-07-16T07:07:03Z</time>
      </trkpt>
      <trkpt lat="49.27623" lon="0.77115">
        <ele>121.74</ele>
        <time>2016-07-16T07:07:05Z</time>
      </trkpt>
      <trkpt lat="49.27598" lon="0.77084">
        <ele>122.22</ele>
        <time>2016-07-16T07:07:06Z</time>
      </trkpt>
      <trkpt lat="49.27497" lon="0.76969">
        <ele>126.07</ele>
        <time>2016-07-16T07:07:10Z</time>
      </trkpt>
      <trkpt lat="49.27443" lon="0.76916">
        <ele>129.92</ele>
        <time>2016-07-16T07:07:12Z</time>
      </trkpt>
      <trkpt lat="49.27245" lon="0.76758">
        <ele>132.8</ele>
        <time>2016-07-16T07:07:19Z</time>
      </trkpt>
      <trkpt lat="49.27186" lon="0.7672">
        <ele>134.24</ele>
        <time>2016-07-16T07:07:21Z</time>
      </trkpt>
      <trkpt lat="49.27034" lon="0.76641">
        <ele>138.09</ele>
        <time>2016-07-16T07:07:26Z</time>
      </trkpt>
      <trkpt lat="49.26942" lon="0.76605">
        <ele>139.53</ele>
        <time>2016-07-16T07:07:29Z</time>
      </trkpt>
      <trkpt lat="49.26846" lon="0.76577">
        <ele>142.89</ele>
        <time>2016-07-16T07:07:32Z</time>
      </trkpt>
      <trkpt lat="49.26717" lon="0.76553">
        <ele>146.26</ele>
        <time>2016-07-16T07:07:36Z</time>
      </trkpt>
      <trkpt lat="49.26555" lon="0.76545">
        <ele>148.66</ele>
        <time>2016-07-16T07:07:41Z</time>
      </trkpt>
      <trkpt lat="49.26426" lon="0.7656">
        <ele>152.03</ele>
        <time>2016-07-16T07:07:45Z</time>
      </trkpt>
      <trkpt lat="49.26297" lon="0.76589">
        <ele>153.95</ele>
        <time>2016-07-16T07:07:49Z</time>
      </trkpt>
      <trkpt lat="49.26108" lon="0.76658">
        <ele>154.91</ele>
        <time>2016-07-16T07:07:55Z</time>
      </trkpt>
      <trkpt lat="49.258" lon="0.76825">
        <ele>153.47</ele>
        <time>2016-07-16T07:08:05Z</time>
      </trkpt>
      <trkpt lat="49.25462" lon="0.77011">
        <ele>154.91</ele>
        <time>2016-07-16T07:08:16Z</time>
      </trkpt>
      <trkpt lat="49.24824" lon="0.77392">
        <ele>157.31</ele>
        <time>2016-07-16T07:08:37Z</time>
      </trkpt>
      <trkpt lat="49.24615" lon="0.77535">
        <ele>153.95</ele>
        <time>2016-07-16T07:08:44Z</time>
      </trkpt>
      <trkpt lat="49.24205" lon="0.77843">
        <ele>150.1</ele>
        <time>2016-07-16T07:08:58Z</time>
      </trkpt>
      <trkpt lat="49.23787" lon="0.78128">
        <ele>147.22</ele>
        <time>2016-07-16T07:09:12Z</time>
      </trkpt>
      <trkpt lat="49.23501" lon="0.78217">
        <ele>147.22</ele>
        <time>2016-07-16T07:09:21Z</time>
      </trkpt>
      <trkpt lat="49.23306" lon="0.78233">
        <ele>148.66</ele>
        <time>2016-07-16T07:09:27Z</time>
      </trkpt>
      <trkpt lat="49.23015" lon="0.78189">
        <ele>149.62</ele>
        <time>2016-07-16T07:09:36Z</time>
      </trkpt>
      <trkpt lat="49.22826" lon="0.78113">
        <ele>146.26</ele>
        <time>2016-07-16T07:09:42Z</time>
      </trkpt>
      <trkpt lat="49.22734" lon="0.78062">
        <ele>144.82</ele>
        <time>2016-07-16T07:09:45Z</time>
      </trkpt>
      <trkpt lat="49.22584" lon="0.77959">
        <ele>141.93</ele>
        <time>2016-07-16T07:09:50Z</time>
      </trkpt>
      <trkpt lat="49.22498" lon="0.77888">
        <ele>140.49</ele>
        <time>2016-07-16T07:09:53Z</time>
      </trkpt>
      <trkpt lat="49.22387" lon="0.7778">
        <ele>138.09</ele>
        <time>2016-07-16T07:09:57Z</time>
      </trkpt>
      <trkpt lat="49.22258" lon="0.77627">
        <ele>135.2</ele>
        <time>2016-07-16T07:10:02Z</time>
      </trkpt>
      <trkpt lat="49.22163" lon="0.77493">
        <ele>131.84</ele>
        <time>2016-07-16T07:10:06Z</time>
      </trkpt>
      <trkpt lat="49.22037" lon="0.77334">
        <ele>128.95</ele>
        <time>2016-07-16T07:10:11Z</time>
      </trkpt>
      <trkpt lat="49.21789" lon="0.77101">
        <ele>127.99</ele>
        <time>2016-07-16T07:10:20Z</time>
      </trkpt>
      <trkpt lat="49.21761" lon="0.77081">
        <ele>127.99</ele>
        <time>2016-07-16T07:10:21Z</time>
      </trkpt>
      <trkpt lat="49.21597" lon="0.76986">
        <ele>126.55</ele>
        <time>2016-07-16T07:10:27Z</time>
      </trkpt>
      <trkpt lat="49.21418" lon="0.76919">
        <ele>125.11</ele>
        <time>2016-07-16T07:10:35Z</time>
      </trkpt>
      <trkpt lat="49.21308" lon="0.76896">
        <ele>121.74</ele>
        <time>2016-07-16T07:10:40Z</time>
      </trkpt>
      <trkpt lat="49.21295" lon="0.76893">
        <ele>121.74</ele>
        <time>2016-07-16T07:10:41Z</time>
      </trkpt>
      <trkpt lat="49.21154" lon="0.76879">
        <ele>117.9</ele>
        <time>2016-07-16T07:10:48Z</time>
      </trkpt>
      <trkpt lat="49.21112" lon="0.76878">
        <ele>117.42</ele>
        <time>2016-07-16T07:10:50Z</time>
      </trkpt>
      <trkpt lat="49.21028" lon="0.76882">
        <ele>115.01</ele>
        <time>2016-07-16T07:10:54Z</time>
      </trkpt>
      <trkpt lat="49.20904" lon="0.76899">
        <ele>112.13</ele>
        <time>2016-07-16T07:11:00Z</time>
      </trkpt>
      <trkpt lat="49.20877" lon="0.76904">
        <ele>111.65</ele>
        <time>2016-07-16T07:11:01Z</time>
      </trkpt>
      <trkpt lat="49.20647" lon="0.76937">
        <ele>110.21</ele>
        <time>2016-07-16T07:11:13Z</time>
      </trkpt>
      <trkpt lat="49.20409" lon="0.76971">
        <ele>111.65</ele>
        <time>2016-07-16T07:11:23Z</time>
      </trkpt>
      <trkpt lat="49.20292" lon="0.76988">
        <ele>110.21</ele>
        <time>2016-07-16T07:11:28Z</time>
      </trkpt>
      <trkpt lat="49.19982" lon="0.77029">
        <ele>114.53</ele>
        <time>2016-07-16T07:11:41Z</time>
      </trkpt>
      <trkpt lat="49.19903" lon="0.77039">
        <ele>118.38</ele>
        <time>2016-07-16T07:11:44Z</time>
      </trkpt>
      <trkpt lat="49.19824" lon="0.77048">
        <ele>123.19</ele>
        <time>2016-07-16T07:11:47Z</time>
      </trkpt>
      <trkpt lat="49.19761" lon="0.77052">
        <ele>126.55</ele>
        <time>2016-07-16T07:11:49Z</time>
      </trkpt>
      <trkpt lat="49.19665" lon="0.77052">
        <ele>129.92</ele>
        <time>2016-07-16T07:11:53Z</time>
      </trkpt>
      <trkpt lat="49.19589" lon="0.77045">
        <ele>133.28</ele>
        <time>2016-07-16T07:11:56Z</time>
      </trkpt>
      <trkpt lat="49.19511" lon="0.77033">
        <ele>136.16</ele>
        <time>2016-07-16T07:11:59Z</time>
      </trkpt>
      <trkpt lat="49.19404" lon="0.77008">
        <ele>140.01</ele>
        <time>2016-07-16T07:12:03Z</time>
      </trkpt>
      <trkpt lat="49.19321" lon="0.7698">
        <ele>141.45</ele>
        <time>2016-07-16T07:12:06Z</time>
      </trkpt>
      <trkpt lat="49.19061" lon="0.76849">
        <ele>144.34</ele>
        <time>2016-07-16T07:12:15Z</time>
      </trkpt>
      <trkpt lat="49.18826" lon="0.76662">
        <ele>141.93</ele>
        <time>2016-07-16T07:12:23Z</time>
      </trkpt>
      <trkpt lat="49.18798" lon="0.76634">
        <ele>141.93</ele>
        <time>2016-07-16T07:12:24Z</time>
      </trkpt>
      <trkpt lat="49.18592" lon="0.7638">
        <ele>141.45</ele>
        <time>2016-07-16T07:12:32Z</time>
      </trkpt>
      <trkpt lat="49.185" lon="0.76236">
        <ele>140.01</ele>
        <time>2016-07-16T07:12:36Z</time>
      </trkpt>
      <trkpt lat="49.18376" lon="0.75999">
        <ele>140.97</ele>
        <time>2016-07-16T07:12:42Z</time>
      </trkpt>
      <trkpt lat="49.18224" lon="0.75611">
        <ele>140.97</ele>
        <time>2016-07-16T07:12:51Z</time>
      </trkpt>
      <trkpt lat="49.18033" lon="0.75142">
        <ele>140.01</ele>
        <time>2016-07-16T07:13:02Z</time>
      </trkpt>
      <trkpt lat="49.17878" lon="0.74883">
        <ele>140.49</ele>
        <time>2016-07-16T07:13:09Z</time>
      </trkpt>
      <trkpt lat="49.17829" lon="0.74816">
        <ele>138.09</ele>
        <time>2016-07-16T07:13:11Z</time>
      </trkpt>
      <trkpt lat="49.17564" lon="0.74519">
        <ele>137.13</ele>
        <time>2016-07-16T07:13:21Z</time>
      </trkpt>
      <trkpt lat="49.17374" lon="0.74318">
        <ele>133.28</ele>
        <time>2016-07-16T07:13:28Z</time>
      </trkpt>
      <trkpt lat="49.17263" lon="0.74195">
        <ele>130.4</ele>
        <time>2016-07-16T07:13:32Z</time>
      </trkpt>
      <trkpt lat="49.17067" lon="0.73938">
        <ele>127.03</ele>
        <time>2016-07-16T07:13:40Z</time>
      </trkpt>
      <trkpt lat="49.16899" lon="0.73664">
        <ele>125.59</ele>
        <time>2016-07-16T07:13:48Z</time>
      </trkpt>
      <trkpt lat="49.16753" lon="0.73393">
        <ele>124.63</ele>
        <time>2016-07-16T07:13:57Z</time>
      </trkpt>
      <trkpt lat="49.16609" lon="0.73045">
        <ele>125.59</ele>
        <time>2016-07-16T07:14:09Z</time>
      </trkpt>
      <trkpt lat="49.16599" lon="0.73015">
        <ele>125.59</ele>
        <time>2016-07-16T07:14:10Z</time>
      </trkpt>
      <trkpt lat="49.16462" lon="0.72544">
        <ele>127.03</ele>
        <time>2016-07-16T07:14:25Z</time>
      </trkpt>
      <trkpt lat="49.1637" lon="0.72045">
        <ele>128.95</ele>
        <time>2016-07-16T07:14:40Z</time>
      </trkpt>
      <trkpt lat="49.16323" lon="0.71532">
        <ele>130.88</ele>
        <time>2016-07-16T07:14:55Z</time>
      </trkpt>
      <trkpt lat="49.16321" lon="0.71015">
        <ele>132.8</ele>
        <time>2016-07-16T07:15:10Z</time>
      </trkpt>
      <trkpt lat="49.16327" lon="0.70809">
        <ele>136.16</ele>
        <time>2016-07-16T07:15:16Z</time>
      </trkpt>
      <trkpt lat="49.16328" lon="0.70774">
        <ele>136.16</ele>
        <time>2016-07-16T07:15:17Z</time>
      </trkpt>
      <trkpt lat="49.16324" lon="0.70593">
        <ele>140.01</ele>
        <time>2016-07-16T07:15:22Z</time>
      </trkpt>
      <trkpt lat="49.16306" lon="0.70331">
        <ele>144.34</ele>
        <time>2016-07-16T07:15:29Z</time>
      </trkpt>
      <trkpt lat="49.16246" lon="0.6977">
        <ele>146.26</ele>
        <time>2016-07-16T07:15:44Z</time>
      </trkpt>
      <trkpt lat="49.16238" lon="0.6936">
        <ele>149.14</ele>
        <time>2016-07-16T07:15:54Z</time>
      </trkpt>
      <trkpt lat="49.16276" lon="0.6893">
        <ele>152.03</ele>
        <time>2016-07-16T07:16:04Z</time>
      </trkpt>
      <trkpt lat="49.16363" lon="0.68307">
        <ele>154.91</ele>
        <time>2016-07-16T07:16:18Z</time>
      </trkpt>
      <trkpt lat="49.16452" lon="0.67648">
        <ele>159.24</ele>
        <time>2016-07-16T07:16:32Z</time>
      </trkpt>
      <trkpt lat="49.16458" lon="0.676">
        <ele>159.24</ele>
        <time>2016-07-16T07:16:33Z</time>
      </trkpt>
      <trkpt lat="49.16479" lon="0.674">
        <ele>161.64</ele>
        <time>2016-07-16T07:16:37Z</time>
      </trkpt>
      <trkpt lat="49.16504" lon="0.66838">
        <ele>160.68</ele>
        <time>2016-07-16T07:16:48Z</time>
      </trkpt>
      <trkpt lat="49.16481" lon="0.66339">
        <ele>160.68</ele>
        <time>2016-07-16T07:16:58Z</time>
      </trkpt>
      <trkpt lat="49.1641" lon="0.6581">
        <ele>162.12</ele>
        <time>2016-07-16T07:17:09Z</time>
      </trkpt>
      <trkpt lat="49.16401" lon="0.65761">
        <ele>165</ele>
        <time>2016-07-16T07:17:10Z</time>
      </trkpt>
      <trkpt lat="49.16374" lon="0.65621">
        <ele>161.16</ele>
        <time>2016-07-16T07:17:13Z</time>
      </trkpt>
      <trkpt lat="49.16257" lon="0.65162">
        <ele>164.52</ele>
        <time>2016-07-16T07:17:23Z</time>
      </trkpt>
      <trkpt lat="49.16022" lon="0.64459">
        <ele>166.45</ele>
        <time>2016-07-16T07:17:39Z</time>
      </trkpt>
      <trkpt lat="49.15685" lon="0.63507">
        <ele>167.89</ele>
        <time>2016-07-16T07:18:01Z</time>
      </trkpt>
      <trkpt lat="49.15649" lon="0.63425">
        <ele>171.25</ele>
        <time>2016-07-16T07:18:03Z</time>
      </trkpt>
      <trkpt lat="49.15631" lon="0.63384">
        <ele>167.41</ele>
        <time>2016-07-16T07:18:04Z</time>
      </trkpt>
      <trkpt lat="49.1541" lon="0.62953">
        <ele>169.81</ele>
        <time>2016-07-16T07:18:15Z</time>
      </trkpt>
      <trkpt lat="49.15247" lon="0.62531">
        <ele>170.77</ele>
        <time>2016-07-16T07:18:25Z</time>
      </trkpt>
      <trkpt lat="49.1517" lon="0.62207">
        <ele>174.14</ele>
        <time>2016-07-16T07:18:32Z</time>
      </trkpt>
      <trkpt lat="49.15135" lon="0.61966">
        <ele>174.14</ele>
        <time>2016-07-16T07:18:37Z</time>
      </trkpt>
      <trkpt lat="49.15059" lon="0.61338">
        <ele>176.06</ele>
        <time>2016-07-16T07:18:50Z</time>
      </trkpt>
      <trkpt lat="49.14957" lon="0.60924">
        <ele>177.02</ele>
        <time>2016-07-16T07:18:59Z</time>
      </trkpt>
      <trkpt lat="49.14898" lon="0.60749">
        <ele>175.58</ele>
        <time>2016-07-16T07:19:03Z</time>
      </trkpt>
      <trkpt lat="49.14619" lon="0.59971">
        <ele>174.14</ele>
        <time>2016-07-16T07:19:21Z</time>
      </trkpt>
      <trkpt lat="49.1444" lon="0.59338">
        <ele>172.21</ele>
        <time>2016-07-16T07:19:35Z</time>
      </trkpt>
      <trkpt lat="49.14146" lon="0.58193">
        <ele>171.73</ele>
        <time>2016-07-16T07:20:00Z</time>
      </trkpt>
      <trkpt lat="49.14088" lon="0.57912">
        <ele>173.17</ele>
        <time>2016-07-16T07:20:06Z</time>
      </trkpt>
      <trkpt lat="49.14018" lon="0.57381">
        <ele>174.62</ele>
        <time>2016-07-16T07:20:17Z</time>
      </trkpt>
      <trkpt lat="49.13984" lon="0.56792">
        <ele>173.17</ele>
        <time>2016-07-16T07:20:29Z</time>
      </trkpt>
      <trkpt lat="49.13998" lon="0.56201">
        <ele>172.69</ele>
        <time>2016-07-16T07:20:41Z</time>
      </trkpt>
      <trkpt lat="49.14014" lon="0.55515">
        <ele>174.62</ele>
        <time>2016-07-16T07:20:55Z</time>
      </trkpt>
      <trkpt lat="49.13965" lon="0.55081">
        <ele>174.14</ele>
        <time>2016-07-16T07:21:04Z</time>
      </trkpt>
      <trkpt lat="49.13937" lon="0.54939">
        <ele>173.17</ele>
        <time>2016-07-16T07:21:07Z</time>
      </trkpt>
      <trkpt lat="49.13819" lon="0.54534">
        <ele>171.25</ele>
        <time>2016-07-16T07:21:16Z</time>
      </trkpt>
      <trkpt lat="49.13676" lon="0.54205">
        <ele>170.77</ele>
        <time>2016-07-16T07:21:24Z</time>
      </trkpt>
      <trkpt lat="49.13476" lon="0.53883">
        <ele>170.29</ele>
        <time>2016-07-16T07:21:33Z</time>
      </trkpt>
      <trkpt lat="49.13376" lon="0.53758">
        <ele>171.73</ele>
        <time>2016-07-16T07:21:37Z</time>
      </trkpt>
      <trkpt lat="49.13131" lon="0.53522">
        <ele>172.69</ele>
        <time>2016-07-16T07:21:46Z</time>
      </trkpt>
      <trkpt lat="49.12861" lon="0.53358">
        <ele>174.14</ele>
        <time>2016-07-16T07:21:55Z</time>
      </trkpt>
      <trkpt lat="49.12425" lon="0.53169">
        <ele>174.14</ele>
        <time>2016-07-16T07:22:09Z</time>
      </trkpt>
      <trkpt lat="49.12097" lon="0.52954">
        <ele>171.25</ele>
        <time>2016-07-16T07:22:20Z</time>
      </trkpt>
      <trkpt lat="49.11794" lon="0.52671">
        <ele>172.21</ele>
        <time>2016-07-16T07:22:31Z</time>
      </trkpt>
      <trkpt lat="49.11499" lon="0.52291">
        <ele>172.69</ele>
        <time>2016-07-16T07:22:43Z</time>
      </trkpt>
      <trkpt lat="49.11237" lon="0.51926">
        <ele>177.02</ele>
        <time>2016-07-16T07:22:54Z</time>
      </trkpt>
      <trkpt lat="49.10779" lon="0.51306">
        <ele>177.5</ele>
        <time>2016-07-16T07:23:13Z</time>
      </trkpt>
      <trkpt lat="49.10515" lon="0.51022">
        <ele>177.98</ele>
        <time>2016-07-16T07:23:23Z</time>
      </trkpt>
      <trkpt lat="49.10384" lon="0.5088">
        <ele>180.38</ele>
        <time>2016-07-16T07:23:28Z</time>
      </trkpt>
      <trkpt lat="49.09941" lon="0.50385">
        <ele>182.79</ele>
        <time>2016-07-16T07:23:45Z</time>
      </trkpt>
      <trkpt lat="49.09844" lon="0.50254">
        <ele>181.35</ele>
        <time>2016-07-16T07:23:49Z</time>
      </trkpt>
      <trkpt lat="49.09704" lon="0.50051">
        <ele>178.94</ele>
        <time>2016-07-16T07:23:55Z</time>
      </trkpt>
      <trkpt lat="49.09185" lon="0.49299">
        <ele>177.02</ele>
        <time>2016-07-16T07:24:17Z</time>
      </trkpt>
      <trkpt lat="49.09143" lon="0.49237">
        <ele>178.94</ele>
        <time>2016-07-16T07:24:19Z</time>
      </trkpt>
      <trkpt lat="49.09024" lon="0.49074">
        <ele>179.42</ele>
        <time>2016-07-16T07:24:24Z</time>
      </trkpt>
      <trkpt lat="49.08463" lon="0.48333">
        <ele>181.35</ele>
        <time>2016-07-16T07:24:47Z</time>
      </trkpt>
      <trkpt lat="49.08099" lon="0.47924">
        <ele>184.23</ele>
        <time>2016-07-16T07:25:01Z</time>
      </trkpt>
      <trkpt lat="49.08045" lon="0.4787">
        <ele>185.19</ele>
        <time>2016-07-16T07:25:03Z</time>
      </trkpt>
      <trkpt lat="49.07788" lon="0.47636">
        <ele>188.56</ele>
        <time>2016-07-16T07:25:12Z</time>
      </trkpt>
      <trkpt lat="49.07508" lon="0.47417">
        <ele>185.19</ele>
        <time>2016-07-16T07:25:22Z</time>
      </trkpt>
      <trkpt lat="49.07331" lon="0.47298">
        <ele>182.31</ele>
        <time>2016-07-16T07:25:28Z</time>
      </trkpt>
      <trkpt lat="49.06907" lon="0.47059">
        <ele>181.35</ele>
        <time>2016-07-16T07:25:42Z</time>
      </trkpt>
      <trkpt lat="49.06207" lon="0.46677">
        <ele>184.23</ele>
        <time>2016-07-16T07:26:05Z</time>
      </trkpt>
      <trkpt lat="49.05882" lon="0.46459">
        <ele>185.67</ele>
        <time>2016-07-16T07:26:16Z</time>
      </trkpt>
      <trkpt lat="49.05548" lon="0.46159">
        <ele>187.11</ele>
        <time>2016-07-16T07:26:28Z</time>
      </trkpt>
      <trkpt lat="49.05242" lon="0.45798">
        <ele>188.56</ele>
        <time>2016-07-16T07:26:40Z</time>
      </trkpt>
      <trkpt lat="49.04866" lon="0.45261">
        <ele>190.48</ele>
        <time>2016-07-16T07:26:56Z</time>
      </trkpt>
      <trkpt lat="49.04556" lon="0.44909">
        <ele>191.44</ele>
        <time>2016-07-16T07:27:08Z</time>
      </trkpt>
      <trkpt lat="49.0436" lon="0.44737">
        <ele>190.48</ele>
        <time>2016-07-16T07:27:15Z</time>
      </trkpt>
      <trkpt lat="49.04033" lon="0.4452">
        <ele>188.56</ele>
        <time>2016-07-16T07:27:26Z</time>
      </trkpt>
      <trkpt lat="49.03663" lon="0.44358">
        <ele>188.08</ele>
        <time>2016-07-16T07:27:38Z</time>
      </trkpt>
      <trkpt lat="49.03309" lon="0.44281">
        <ele>185.67</ele>
        <time>2016-07-16T07:27:49Z</time>
      </trkpt>
      <trkpt lat="49.03187" lon="0.44273">
        <ele>181.83</ele>
        <time>2016-07-16T07:27:53Z</time>
      </trkpt>
      <trkpt lat="49.03111" lon="0.44272">
        <ele>180.38</ele>
        <time>2016-07-16T07:27:56Z</time>
      </trkpt>
      <trkpt lat="49.03029" lon="0.44275">
        <ele>176.54</ele>
        <time>2016-07-16T07:28:00Z</time>
      </trkpt>
      <trkpt lat="49.02996" lon="0.44278">
        <ele>176.06</ele>
        <time>2016-07-16T07:28:02Z</time>
      </trkpt>
      <trkpt lat="49.02917" lon="0.4429">
        <ele>173.66</ele>
        <time>2016-07-16T07:28:09Z</time>
      </trkpt>
      <trkpt lat="49.02897" lon="0.44295">
        <ele>173.66</ele>
        <time>2016-07-16T07:28:16Z</time>
      </trkpt>
      <trkpt lat="49.02899" lon="0.44291">
        <ele>173.66</ele>
        <time>2016-07-16T07:28:31Z</time>
      </trkpt>
      <trkpt lat="49.02897" lon="0.4429">
        <ele>173.66</ele>
        <time>2016-07-16T07:28:33Z</time>
      </trkpt>
      <trkpt lat="49.02895" lon="0.4429">
        <ele>173.66</ele>
        <time>2016-07-16T07:28:34Z</time>
      </trkpt>
      <trkpt lat="49.02892" lon="0.4429">
        <ele>173.66</ele>
        <time>2016-07-16T07:28:35Z</time>
      </trkpt>
      <trkpt lat="49.02841" lon="0.44296">
        <ele>173.17</ele>
        <time>2016-07-16T07:28:54Z</time>
      </trkpt>
      <trkpt lat="49.02769" lon="0.4431">
        <ele>173.66</ele>
        <time>2016-07-16T07:29:09Z</time>
      </trkpt>
      <trkpt lat="49.02698" lon="0.44326">
        <ele>173.17</ele>
        <time>2016-07-16T07:29:21Z</time>
      </trkpt>
      <trkpt lat="49.02635" lon="0.44343">
        <ele>172.21</ele>
        <time>2016-07-16T07:29:32Z</time>
      </trkpt>
      <trkpt lat="49.02631" lon="0.44345">
        <ele>172.21</ele>
        <time>2016-07-16T07:29:36Z</time>
      </trkpt>
      <trkpt lat="49.02629" lon="0.44344">
        <ele>172.21</ele>
        <time>2016-07-16T07:29:37Z</time>
      </trkpt>
      <trkpt lat="49.02626" lon="0.44344">
        <ele>172.21</ele>
        <time>2016-07-16T07:29:38Z</time>
      </trkpt>
      <trkpt lat="49.02621" lon="0.44345">
        <ele>172.21</ele>
        <time>2016-07-16T07:29:39Z</time>
      </trkpt>
      <trkpt lat="49.02615" lon="0.44346">
        <ele>172.21</ele>
        <time>2016-07-16T07:29:40Z</time>
      </trkpt>
      <trkpt lat="49.0255" lon="0.44358">
        <ele>174.14</ele>
        <time>2016-07-16T07:29:46Z</time>
      </trkpt>
      <trkpt lat="49.02423" lon="0.44385">
        <ele>174.14</ele>
        <time>2016-07-16T07:29:53Z</time>
      </trkpt>
      <trkpt lat="49.02229" lon="0.44433">
        <ele>171.25</ele>
        <time>2016-07-16T07:30:01Z</time>
      </trkpt>
      <trkpt lat="49.02041" lon="0.44481">
        <ele>167.89</ele>
        <time>2016-07-16T07:30:08Z</time>
      </trkpt>
      <trkpt lat="49.01677" lon="0.44575">
        <ele>168.85</ele>
        <time>2016-07-16T07:30:21Z</time>
      </trkpt>
      <trkpt lat="49.01563" lon="0.446">
        <ele>172.21</ele>
        <time>2016-07-16T07:30:25Z</time>
      </trkpt>
      <trkpt lat="49.01473" lon="0.44609">
        <ele>173.66</ele>
        <time>2016-07-16T07:30:28Z</time>
      </trkpt>
      <trkpt lat="49.01353" lon="0.44611">
        <ele>177.02</ele>
        <time>2016-07-16T07:30:32Z</time>
      </trkpt>
      <trkpt lat="49.01199" lon="0.44592">
        <ele>180.87</ele>
        <time>2016-07-16T07:30:37Z</time>
      </trkpt>
      <trkpt lat="49.01072" lon="0.44561">
        <ele>184.71</ele>
        <time>2016-07-16T07:30:41Z</time>
      </trkpt>
      <trkpt lat="49.0104" lon="0.44551">
        <ele>184.71</ele>
        <time>2016-07-16T07:30:42Z</time>
      </trkpt>
      <trkpt lat="49.00853" lon="0.44475">
        <ele>188.56</ele>
        <time>2016-07-16T07:30:48Z</time>
      </trkpt>
      <trkpt lat="49.00792" lon="0.44443">
        <ele>189.52</ele>
        <time>2016-07-16T07:30:50Z</time>
      </trkpt>
      <trkpt lat="49.00702" lon="0.44389">
        <ele>191.44</ele>
        <time>2016-07-16T07:30:53Z</time>
      </trkpt>
      <trkpt lat="49.00338" lon="0.44183">
        <ele>194.32</ele>
        <time>2016-07-16T07:31:05Z</time>
      </trkpt>
      <trkpt lat="49.00023" lon="0.4408">
        <ele>196.73</ele>
        <time>2016-07-16T07:31:15Z</time>
      </trkpt>
      <trkpt lat="48.99701" lon="0.44051">
        <ele>196.73</ele>
        <time>2016-07-16T07:31:25Z</time>
      </trkpt>
      <trkpt lat="48.99412" lon="0.44091">
        <ele>196.25</ele>
        <time>2016-07-16T07:31:34Z</time>
      </trkpt>
      <trkpt lat="48.99061" lon="0.44176">
        <ele>193.84</ele>
        <time>2016-07-16T07:31:45Z</time>
      </trkpt>
      <trkpt lat="48.98771" lon="0.44186">
        <ele>191.44</ele>
        <time>2016-07-16T07:31:54Z</time>
      </trkpt>
      <trkpt lat="48.98482" lon="0.44124">
        <ele>189.52</ele>
        <time>2016-07-16T07:32:03Z</time>
      </trkpt>
      <trkpt lat="48.98174" lon="0.43973">
        <ele>186.63</ele>
        <time>2016-07-16T07:32:13Z</time>
      </trkpt>
      <trkpt lat="48.97856" lon="0.43726">
        <ele>190.48</ele>
        <time>2016-07-16T07:32:24Z</time>
      </trkpt>
      <trkpt lat="48.97712" lon="0.43618">
        <ele>193.84</ele>
        <time>2016-07-16T07:32:29Z</time>
      </trkpt>
      <trkpt lat="48.97592" lon="0.43549">
        <ele>195.77</ele>
        <time>2016-07-16T07:32:33Z</time>
      </trkpt>
      <trkpt lat="48.97341" lon="0.43462">
        <ele>195.28</ele>
        <time>2016-07-16T07:32:41Z</time>
      </trkpt>
      <trkpt lat="48.97149" lon="0.4344">
        <ele>191.92</ele>
        <time>2016-07-16T07:32:47Z</time>
      </trkpt>
      <trkpt lat="48.9702" lon="0.43437">
        <ele>188.08</ele>
        <time>2016-07-16T07:32:51Z</time>
      </trkpt>
      <trkpt lat="48.96875" lon="0.43426">
        <ele>184.23</ele>
        <time>2016-07-16T07:32:56Z</time>
      </trkpt>
      <trkpt lat="48.96573" lon="0.4334">
        <ele>184.23</ele>
        <time>2016-07-16T07:33:05Z</time>
      </trkpt>
      <trkpt lat="48.96542" lon="0.43325">
        <ele>184.23</ele>
        <time>2016-07-16T07:33:06Z</time>
      </trkpt>
      <trkpt lat="48.96274" lon="0.43157">
        <ele>185.67</ele>
        <time>2016-07-16T07:33:15Z</time>
      </trkpt>
      <trkpt lat="48.96063" lon="0.43035">
        <ele>187.59</ele>
        <time>2016-07-16T07:33:22Z</time>
      </trkpt>
      <trkpt lat="48.95719" lon="0.42896">
        <ele>188.56</ele>
        <time>2016-07-16T07:33:33Z</time>
      </trkpt>
      <trkpt lat="48.95452" lon="0.42717">
        <ele>190.96</ele>
        <time>2016-07-16T07:33:42Z</time>
      </trkpt>
      <trkpt lat="48.95212" lon="0.42469">
        <ele>192.88</ele>
        <time>2016-07-16T07:33:51Z</time>
      </trkpt>
      <trkpt lat="48.95004" lon="0.4216">
        <ele>196.73</ele>
        <time>2016-07-16T07:34:00Z</time>
      </trkpt>
      <trkpt lat="48.94805" lon="0.41844">
        <ele>199.61</ele>
        <time>2016-07-16T07:34:09Z</time>
      </trkpt>
      <trkpt lat="48.94707" lon="0.41718">
        <ele>201.53</ele>
        <time>2016-07-16T07:34:13Z</time>
      </trkpt>
      <trkpt lat="48.94463" lon="0.41481">
        <ele>203.46</ele>
        <time>2016-07-16T07:34:22Z</time>
      </trkpt>
      <trkpt lat="48.94405" lon="0.41436">
        <ele>204.42</ele>
        <time>2016-07-16T07:34:24Z</time>
      </trkpt>
      <trkpt lat="48.94134" lon="0.41279">
        <ele>205.38</ele>
        <time>2016-07-16T07:34:33Z</time>
      </trkpt>
      <trkpt lat="48.93785" lon="0.41165">
        <ele>206.82</ele>
        <time>2016-07-16T07:34:44Z</time>
      </trkpt>
      <trkpt lat="48.9315" lon="0.40977">
        <ele>207.78</ele>
        <time>2016-07-16T07:35:04Z</time>
      </trkpt>
      <trkpt lat="48.92994" lon="0.40916">
        <ele>211.15</ele>
        <time>2016-07-16T07:35:09Z</time>
      </trkpt>
      <trkpt lat="48.929" lon="0.4088">
        <ele>212.59</ele>
        <time>2016-07-16T07:35:12Z</time>
      </trkpt>
      <trkpt lat="48.92712" lon="0.40809">
        <ele>215.95</ele>
        <time>2016-07-16T07:35:18Z</time>
      </trkpt>
      <trkpt lat="48.92587" lon="0.4076">
        <ele>219.32</ele>
        <time>2016-07-16T07:35:22Z</time>
      </trkpt>
      <trkpt lat="48.92555" lon="0.40748">
        <ele>219.8</ele>
        <time>2016-07-16T07:35:23Z</time>
      </trkpt>
      <trkpt lat="48.92398" lon="0.40692">
        <ele>223.16</ele>
        <time>2016-07-16T07:35:28Z</time>
      </trkpt>
      <trkpt lat="48.9224" lon="0.4064">
        <ele>226.53</ele>
        <time>2016-07-16T07:35:33Z</time>
      </trkpt>
      <trkpt lat="48.91892" lon="0.40539">
        <ele>228.93</ele>
        <time>2016-07-16T07:35:44Z</time>
      </trkpt>
      <trkpt lat="48.9148" lon="0.40419">
        <ele>232.3</ele>
        <time>2016-07-16T07:35:57Z</time>
      </trkpt>
      <trkpt lat="48.91073" lon="0.40269">
        <ele>234.7</ele>
        <time>2016-07-16T07:36:10Z</time>
      </trkpt>
      <trkpt lat="48.90743" lon="0.40068">
        <ele>236.14</ele>
        <time>2016-07-16T07:36:21Z</time>
      </trkpt>
      <trkpt lat="48.9042" lon="0.39783">
        <ele>238.06</ele>
        <time>2016-07-16T07:36:33Z</time>
      </trkpt>
      <trkpt lat="48.90112" lon="0.39426">
        <ele>239.99</ele>
        <time>2016-07-16T07:36:45Z</time>
      </trkpt>
      <trkpt lat="48.8968" lon="0.38966">
        <ele>239.02</ele>
        <time>2016-07-16T07:37:01Z</time>
      </trkpt>
      <trkpt lat="48.89653" lon="0.38941">
        <ele>239.02</ele>
        <time>2016-07-16T07:37:02Z</time>
      </trkpt>
      <trkpt lat="48.89454" lon="0.38774">
        <ele>236.62</ele>
        <time>2016-07-16T07:37:09Z</time>
      </trkpt>
      <trkpt lat="48.89339" lon="0.38688">
        <ele>233.26</ele>
        <time>2016-07-16T07:37:13Z</time>
      </trkpt>
      <trkpt lat="48.89191" lon="0.38588">
        <ele>229.89</ele>
        <time>2016-07-16T07:37:18Z</time>
      </trkpt>
      <trkpt lat="48.89161" lon="0.38569">
        <ele>229.89</ele>
        <time>2016-07-16T07:37:19Z</time>
      </trkpt>
      <trkpt lat="48.88763" lon="0.38365">
        <ele>229.89</ele>
        <time>2016-07-16T07:37:32Z</time>
      </trkpt>
      <trkpt lat="48.88732" lon="0.38353">
        <ele>229.89</ele>
        <time>2016-07-16T07:37:33Z</time>
      </trkpt>
      <trkpt lat="48.88543" lon="0.38285">
        <ele>233.26</ele>
        <time>2016-07-16T07:37:39Z</time>
      </trkpt>
      <trkpt lat="48.88353" lon="0.38222">
        <ele>238.54</ele>
        <time>2016-07-16T07:37:45Z</time>
      </trkpt>
      <trkpt lat="48.88131" lon="0.3817">
        <ele>237.58</ele>
        <time>2016-07-16T07:37:52Z</time>
      </trkpt>
      <trkpt lat="48.8784" lon="0.38176">
        <ele>239.02</ele>
        <time>2016-07-16T07:38:01Z</time>
      </trkpt>
      <trkpt lat="48.87743" lon="0.38182">
        <ele>236.62</ele>
        <time>2016-07-16T07:38:04Z</time>
      </trkpt>
      <trkpt lat="48.87454" lon="0.38149">
        <ele>238.06</ele>
        <time>2016-07-16T07:38:13Z</time>
      </trkpt>
      <trkpt lat="48.87326" lon="0.38117">
        <ele>240.95</ele>
        <time>2016-07-16T07:38:17Z</time>
      </trkpt>
      <trkpt lat="48.872" lon="0.38095">
        <ele>242.87</ele>
        <time>2016-07-16T07:38:21Z</time>
      </trkpt>
      <trkpt lat="48.87135" lon="0.38089">
        <ele>244.79</ele>
        <time>2016-07-16T07:38:23Z</time>
      </trkpt>
      <trkpt lat="48.87071" lon="0.38087">
        <ele>246.23</ele>
        <time>2016-07-16T07:38:25Z</time>
      </trkpt>
      <trkpt lat="48.86942" lon="0.38096">
        <ele>249.6</ele>
        <time>2016-07-16T07:38:29Z</time>
      </trkpt>
      <trkpt lat="48.86813" lon="0.38117">
        <ele>252</ele>
        <time>2016-07-16T07:38:33Z</time>
      </trkpt>
      <trkpt lat="48.86619" lon="0.38132">
        <ele>255.37</ele>
        <time>2016-07-16T07:38:39Z</time>
      </trkpt>
      <trkpt lat="48.86555" lon="0.3813">
        <ele>256.33</ele>
        <time>2016-07-16T07:38:41Z</time>
      </trkpt>
      <trkpt lat="48.86425" lon="0.38115">
        <ele>259.21</ele>
        <time>2016-07-16T07:38:45Z</time>
      </trkpt>
      <trkpt lat="48.86266" lon="0.38072">
        <ele>262.58</ele>
        <time>2016-07-16T07:38:50Z</time>
      </trkpt>
      <trkpt lat="48.8611" lon="0.38004">
        <ele>265.46</ele>
        <time>2016-07-16T07:38:55Z</time>
      </trkpt>
      <trkpt lat="48.8593" lon="0.37896">
        <ele>269.31</ele>
        <time>2016-07-16T07:39:01Z</time>
      </trkpt>
      <trkpt lat="48.859" lon="0.37876">
        <ele>269.31</ele>
        <time>2016-07-16T07:39:02Z</time>
      </trkpt>
      <trkpt lat="48.85634" lon="0.37702">
        <ele>272.67</ele>
        <time>2016-07-16T07:39:11Z</time>
      </trkpt>
      <trkpt lat="48.85182" lon="0.37409">
        <ele>275.56</ele>
        <time>2016-07-16T07:39:26Z</time>
      </trkpt>
      <trkpt lat="48.84771" lon="0.37145">
        <ele>278.92</ele>
        <time>2016-07-16T07:39:40Z</time>
      </trkpt>
      <trkpt lat="48.8397" lon="0.36626">
        <ele>281.8</ele>
        <time>2016-07-16T07:40:07Z</time>
      </trkpt>
      <trkpt lat="48.8371" lon="0.36427">
        <ele>280.36</ele>
        <time>2016-07-16T07:40:16Z</time>
      </trkpt>
      <trkpt lat="48.83222" lon="0.36046">
        <ele>277</ele>
        <time>2016-07-16T07:40:33Z</time>
      </trkpt>
      <trkpt lat="48.82822" lon="0.35728">
        <ele>277.48</ele>
        <time>2016-07-16T07:40:47Z</time>
      </trkpt>
      <trkpt lat="48.82737" lon="0.35659">
        <ele>279.4</ele>
        <time>2016-07-16T07:40:50Z</time>
      </trkpt>
      <trkpt lat="48.82622" lon="0.35569">
        <ele>281.8</ele>
        <time>2016-07-16T07:40:54Z</time>
      </trkpt>
      <trkpt lat="48.82393" lon="0.35388">
        <ele>285.17</ele>
        <time>2016-07-16T07:41:02Z</time>
      </trkpt>
      <trkpt lat="48.82336" lon="0.35343">
        <ele>286.13</ele>
        <time>2016-07-16T07:41:04Z</time>
      </trkpt>
      <trkpt lat="48.81983" lon="0.35103">
        <ele>289.01</ele>
        <time>2016-07-16T07:41:16Z</time>
      </trkpt>
      <trkpt lat="48.81523" lon="0.34867">
        <ele>290.94</ele>
        <time>2016-07-16T07:41:31Z</time>
      </trkpt>
      <trkpt lat="48.8106" lon="0.34652">
        <ele>294.78</ele>
        <time>2016-07-16T07:41:46Z</time>
      </trkpt>
      <trkpt lat="48.80782" lon="0.34524">
        <ele>298.15</ele>
        <time>2016-07-16T07:41:55Z</time>
      </trkpt>
      <trkpt lat="48.80627" lon="0.34451">
        <ele>300.07</ele>
        <time>2016-07-16T07:42:00Z</time>
      </trkpt>
      <trkpt lat="48.80356" lon="0.34293">
        <ele>303.43</ele>
        <time>2016-07-16T07:42:09Z</time>
      </trkpt>
      <trkpt lat="48.80097" lon="0.34096">
        <ele>306.8</ele>
        <time>2016-07-16T07:42:18Z</time>
      </trkpt>
      <trkpt lat="48.7977" lon="0.33778">
        <ele>308.24</ele>
        <time>2016-07-16T07:42:30Z</time>
      </trkpt>
      <trkpt lat="48.79692" lon="0.3369">
        <ele>307.28</ele>
        <time>2016-07-16T07:42:33Z</time>
      </trkpt>
      <trkpt lat="48.79399" lon="0.33306">
        <ele>303.91</ele>
        <time>2016-07-16T07:42:45Z</time>
      </trkpt>
      <trkpt lat="48.79201" lon="0.32988">
        <ele>301.51</ele>
        <time>2016-07-16T07:42:54Z</time>
      </trkpt>
      <trkpt lat="48.79078" lon="0.32789">
        <ele>298.63</ele>
        <time>2016-07-16T07:43:00Z</time>
      </trkpt>
      <trkpt lat="48.78881" lon="0.32474">
        <ele>296.22</ele>
        <time>2016-07-16T07:43:11Z</time>
      </trkpt>
      <trkpt lat="48.78742" lon="0.32284">
        <ele>292.86</ele>
        <time>2016-07-16T07:43:18Z</time>
      </trkpt>
      <trkpt lat="48.78701" lon="0.32234">
        <ele>291.9</ele>
        <time>2016-07-16T07:43:20Z</time>
      </trkpt>
      <trkpt lat="48.78614" lon="0.32131">
        <ele>289.01</ele>
        <time>2016-07-16T07:43:24Z</time>
      </trkpt>
      <trkpt lat="48.78544" lon="0.32057">
        <ele>284.69</ele>
        <time>2016-07-16T07:43:27Z</time>
      </trkpt>
      <trkpt lat="48.78473" lon="0.31984">
        <ele>280.36</ele>
        <time>2016-07-16T07:43:30Z</time>
      </trkpt>
      <trkpt lat="48.78427" lon="0.31937">
        <ele>277.48</ele>
        <time>2016-07-16T07:43:32Z</time>
      </trkpt>
      <trkpt lat="48.78381" lon="0.3189">
        <ele>273.63</ele>
        <time>2016-07-16T07:43:34Z</time>
      </trkpt>
      <trkpt lat="48.78336" lon="0.31843">
        <ele>269.79</ele>
        <time>2016-07-16T07:43:36Z</time>
      </trkpt>
      <trkpt lat="48.78291" lon="0.31797">
        <ele>266.42</ele>
        <time>2016-07-16T07:43:38Z</time>
      </trkpt>
      <trkpt lat="48.78246" lon="0.31751">
        <ele>263.06</ele>
        <time>2016-07-16T07:43:40Z</time>
      </trkpt>
      <trkpt lat="48.78199" lon="0.31703">
        <ele>259.21</ele>
        <time>2016-07-16T07:43:42Z</time>
      </trkpt>
      <trkpt lat="48.78153" lon="0.31655">
        <ele>255.85</ele>
        <time>2016-07-16T07:43:44Z</time>
      </trkpt>
      <trkpt lat="48.78106" lon="0.31605">
        <ele>252</ele>
        <time>2016-07-16T07:43:46Z</time>
      </trkpt>
      <trkpt lat="48.78059" lon="0.31554">
        <ele>248.16</ele>
        <time>2016-07-16T07:43:48Z</time>
      </trkpt>
      <trkpt lat="48.78012" lon="0.31501">
        <ele>244.79</ele>
        <time>2016-07-16T07:43:50Z</time>
      </trkpt>
      <trkpt lat="48.77965" lon="0.31448">
        <ele>241.43</ele>
        <time>2016-07-16T07:43:52Z</time>
      </trkpt>
      <trkpt lat="48.77919" lon="0.31393">
        <ele>237.58</ele>
        <time>2016-07-16T07:43:54Z</time>
      </trkpt>
      <trkpt lat="48.77873" lon="0.31336">
        <ele>234.22</ele>
        <time>2016-07-16T07:43:56Z</time>
      </trkpt>
      <trkpt lat="48.77828" lon="0.31277">
        <ele>230.37</ele>
        <time>2016-07-16T07:43:58Z</time>
      </trkpt>
      <trkpt lat="48.77783" lon="0.31216">
        <ele>227.01</ele>
        <time>2016-07-16T07:44:00Z</time>
      </trkpt>
      <trkpt lat="48.77737" lon="0.31152">
        <ele>223.16</ele>
        <time>2016-07-16T07:44:02Z</time>
      </trkpt>
      <trkpt lat="48.77691" lon="0.31086">
        <ele>219.8</ele>
        <time>2016-07-16T07:44:04Z</time>
      </trkpt>
      <trkpt lat="48.77646" lon="0.31017">
        <ele>216.43</ele>
        <time>2016-07-16T07:44:06Z</time>
      </trkpt>
      <trkpt lat="48.77579" lon="0.30913">
        <ele>213.07</ele>
        <time>2016-07-16T07:44:09Z</time>
      </trkpt>
      <trkpt lat="48.77535" lon="0.30839">
        <ele>208.74</ele>
        <time>2016-07-16T07:44:11Z</time>
      </trkpt>
      <trkpt lat="48.77472" lon="0.3073">
        <ele>204.42</ele>
        <time>2016-07-16T07:44:14Z</time>
      </trkpt>
      <trkpt lat="48.77409" lon="0.30615">
        <ele>200.57</ele>
        <time>2016-07-16T07:44:17Z</time>
      </trkpt>
      <trkpt lat="48.77367" lon="0.30536">
        <ele>197.21</ele>
        <time>2016-07-16T07:44:19Z</time>
      </trkpt>
      <trkpt lat="48.77328" lon="0.30461">
        <ele>196.73</ele>
        <time>2016-07-16T07:44:21Z</time>
      </trkpt>
      <trkpt lat="48.77088" lon="0.30004">
        <ele>196.73</ele>
        <time>2016-07-16T07:44:33Z</time>
      </trkpt>
      <trkpt lat="48.76968" lon="0.29775">
        <ele>197.69</ele>
        <time>2016-07-16T07:44:39Z</time>
      </trkpt>
      <trkpt lat="48.7673" lon="0.29314">
        <ele>201.05</ele>
        <time>2016-07-16T07:44:51Z</time>
      </trkpt>
      <trkpt lat="48.7641" lon="0.28764">
        <ele>204.42</ele>
        <time>2016-07-16T07:45:06Z</time>
      </trkpt>
      <trkpt lat="48.76161" lon="0.28452">
        <ele>204.9</ele>
        <time>2016-07-16T07:45:16Z</time>
      </trkpt>
      <trkpt lat="48.75999" lon="0.28291">
        <ele>206.82</ele>
        <time>2016-07-16T07:45:22Z</time>
      </trkpt>
      <trkpt lat="48.75887" lon="0.28191">
        <ele>205.86</ele>
        <time>2016-07-16T07:45:26Z</time>
      </trkpt>
      <trkpt lat="48.75749" lon="0.28064">
        <ele>209.22</ele>
        <time>2016-07-16T07:45:31Z</time>
      </trkpt>
      <trkpt lat="48.75639" lon="0.27964">
        <ele>212.11</ele>
        <time>2016-07-16T07:45:35Z</time>
      </trkpt>
      <trkpt lat="48.75555" lon="0.27888">
        <ele>214.99</ele>
        <time>2016-07-16T07:45:38Z</time>
      </trkpt>
      <trkpt lat="48.75444" lon="0.27788">
        <ele>218.84</ele>
        <time>2016-07-16T07:45:42Z</time>
      </trkpt>
      <trkpt lat="48.75306" lon="0.27664">
        <ele>222.2</ele>
        <time>2016-07-16T07:45:47Z</time>
      </trkpt>
      <trkpt lat="48.75223" lon="0.2759">
        <ele>226.05</ele>
        <time>2016-07-16T07:45:50Z</time>
      </trkpt>
      <trkpt lat="48.75168" lon="0.27541">
        <ele>229.41</ele>
        <time>2016-07-16T07:45:52Z</time>
      </trkpt>
      <trkpt lat="48.75084" lon="0.27465">
        <ele>234.22</ele>
        <time>2016-07-16T07:45:55Z</time>
      </trkpt>
      <trkpt lat="48.75029" lon="0.27414">
        <ele>238.06</ele>
        <time>2016-07-16T07:45:57Z</time>
      </trkpt>
      <trkpt lat="48.74946" lon="0.27341">
        <ele>241.91</ele>
        <time>2016-07-16T07:46:00Z</time>
      </trkpt>
      <trkpt lat="48.7486" lon="0.27275">
        <ele>245.75</ele>
        <time>2016-07-16T07:46:03Z</time>
      </trkpt>
      <trkpt lat="48.7477" lon="0.27221">
        <ele>249.12</ele>
        <time>2016-07-16T07:46:06Z</time>
      </trkpt>
      <trkpt lat="48.74645" lon="0.27168">
        <ele>251.52</ele>
        <time>2016-07-16T07:46:10Z</time>
      </trkpt>
      <trkpt lat="48.74454" lon="0.27116">
        <ele>254.89</ele>
        <time>2016-07-16T07:46:16Z</time>
      </trkpt>
      <trkpt lat="48.74236" lon="0.2702">
        <ele>254.89</ele>
        <time>2016-07-16T07:46:23Z</time>
      </trkpt>
      <trkpt lat="48.74096" lon="0.26899">
        <ele>253.44</ele>
        <time>2016-07-16T07:46:28Z</time>
      </trkpt>
      <trkpt lat="48.74002" lon="0.26787">
        <ele>249.6</ele>
        <time>2016-07-16T07:46:32Z</time>
      </trkpt>
      <trkpt lat="48.73795" lon="0.26499">
        <ele>246.23</ele>
        <time>2016-07-16T07:46:41Z</time>
      </trkpt>
      <trkpt lat="48.73768" lon="0.26468">
        <ele>246.23</ele>
        <time>2016-07-16T07:46:42Z</time>
      </trkpt>
      <trkpt lat="48.73715" lon="0.26414">
        <ele>242.39</ele>
        <time>2016-07-16T07:46:44Z</time>
      </trkpt>
      <trkpt lat="48.7366" lon="0.26362">
        <ele>239.02</ele>
        <time>2016-07-16T07:46:46Z</time>
      </trkpt>
      <trkpt lat="48.73573" lon="0.26295">
        <ele>234.7</ele>
        <time>2016-07-16T07:46:49Z</time>
      </trkpt>
      <trkpt lat="48.73512" lon="0.26258">
        <ele>231.33</ele>
        <time>2016-07-16T07:46:51Z</time>
      </trkpt>
      <trkpt lat="48.73418" lon="0.26215">
        <ele>227.49</ele>
        <time>2016-07-16T07:46:54Z</time>
      </trkpt>
      <trkpt lat="48.73323" lon="0.26184">
        <ele>223.64</ele>
        <time>2016-07-16T07:46:57Z</time>
      </trkpt>
      <trkpt lat="48.73226" lon="0.26166">
        <ele>218.84</ele>
        <time>2016-07-16T07:47:00Z</time>
      </trkpt>
      <trkpt lat="48.73129" lon="0.2616">
        <ele>215.95</ele>
        <time>2016-07-16T07:47:03Z</time>
      </trkpt>
      <trkpt lat="48.72644" lon="0.26192">
        <ele>214.03</ele>
        <time>2016-07-16T07:47:18Z</time>
      </trkpt>
      <trkpt lat="48.72386" lon="0.26152">
        <ele>212.59</ele>
        <time>2016-07-16T07:47:26Z</time>
      </trkpt>
      <trkpt lat="48.72139" lon="0.26034">
        <ele>209.7</ele>
        <time>2016-07-16T07:47:34Z</time>
      </trkpt>
      <trkpt lat="48.71994" lon="0.25925">
        <ele>205.86</ele>
        <time>2016-07-16T07:47:39Z</time>
      </trkpt>
      <trkpt lat="48.7178" lon="0.25702">
        <ele>206.82</ele>
        <time>2016-07-16T07:47:47Z</time>
      </trkpt>
      <trkpt lat="48.71558" lon="0.25515">
        <ele>207.3</ele>
        <time>2016-07-16T07:47:55Z</time>
      </trkpt>
      <trkpt lat="48.71312" lon="0.25396">
        <ele>209.22</ele>
        <time>2016-07-16T07:48:03Z</time>
      </trkpt>
      <trkpt lat="48.71038" lon="0.25252">
        <ele>210.67</ele>
        <time>2016-07-16T07:48:12Z</time>
      </trkpt>
      <trkpt lat="48.70816" lon="0.2505">
        <ele>209.22</ele>
        <time>2016-07-16T07:48:20Z</time>
      </trkpt>
      <trkpt lat="48.70683" lon="0.24909">
        <ele>206.34</ele>
        <time>2016-07-16T07:48:25Z</time>
      </trkpt>
      <trkpt lat="48.70523" lon="0.2474">
        <ele>202.98</ele>
        <time>2016-07-16T07:48:31Z</time>
      </trkpt>
      <trkpt lat="48.70287" lon="0.2449">
        <ele>202.98</ele>
        <time>2016-07-16T07:48:40Z</time>
      </trkpt>
      <trkpt lat="48.70153" lon="0.2435">
        <ele>205.38</ele>
        <time>2016-07-16T07:48:45Z</time>
      </trkpt>
      <trkpt lat="48.6994" lon="0.24132">
        <ele>208.74</ele>
        <time>2016-07-16T07:48:53Z</time>
      </trkpt>
      <trkpt lat="48.69679" lon="0.23936">
        <ele>210.19</ele>
        <time>2016-07-16T07:49:02Z</time>
      </trkpt>
      <trkpt lat="48.69557" lon="0.23872">
        <ele>208.74</ele>
        <time>2016-07-16T07:49:06Z</time>
      </trkpt>
      <trkpt lat="48.69307" lon="0.23785">
        <ele>207.3</ele>
        <time>2016-07-16T07:49:14Z</time>
      </trkpt>
      <trkpt lat="48.69152" lon="0.23744">
        <ele>205.38</ele>
        <time>2016-07-16T07:49:19Z</time>
      </trkpt>
      <trkpt lat="48.68933" lon="0.23687">
        <ele>205.38</ele>
        <time>2016-07-16T07:49:26Z</time>
      </trkpt>
      <trkpt lat="48.68687" lon="0.23593">
        <ele>201.53</ele>
        <time>2016-07-16T07:49:34Z</time>
      </trkpt>
      <trkpt lat="48.68476" lon="0.23452">
        <ele>198.17</ele>
        <time>2016-07-16T07:49:41Z</time>
      </trkpt>
      <trkpt lat="48.68447" lon="0.23426">
        <ele>198.17</ele>
        <time>2016-07-16T07:49:42Z</time>
      </trkpt>
      <trkpt lat="48.68305" lon="0.23297">
        <ele>193.84</ele>
        <time>2016-07-16T07:49:47Z</time>
      </trkpt>
      <trkpt lat="48.68249" lon="0.23246">
        <ele>190</ele>
        <time>2016-07-16T07:49:49Z</time>
      </trkpt>
      <trkpt lat="48.68164" lon="0.23169">
        <ele>188.08</ele>
        <time>2016-07-16T07:49:52Z</time>
      </trkpt>
      <trkpt lat="48.67713" lon="0.22765">
        <ele>184.71</ele>
        <time>2016-07-16T07:50:08Z</time>
      </trkpt>
      <trkpt lat="48.67474" lon="0.2261">
        <ele>182.79</ele>
        <time>2016-07-16T07:50:16Z</time>
      </trkpt>
      <trkpt lat="48.67223" lon="0.22533">
        <ele>181.83</ele>
        <time>2016-07-16T07:50:24Z</time>
      </trkpt>
      <trkpt lat="48.66964" lon="0.2253">
        <ele>182.79</ele>
        <time>2016-07-16T07:50:32Z</time>
      </trkpt>
      <trkpt lat="48.66932" lon="0.22534">
        <ele>182.79</ele>
        <time>2016-07-16T07:50:33Z</time>
      </trkpt>
      <trkpt lat="48.66803" lon="0.22563">
        <ele>186.15</ele>
        <time>2016-07-16T07:50:37Z</time>
      </trkpt>
      <trkpt lat="48.66675" lon="0.22595">
        <ele>190</ele>
        <time>2016-07-16T07:50:41Z</time>
      </trkpt>
      <trkpt lat="48.66577" lon="0.22619">
        <ele>191.92</ele>
        <time>2016-07-16T07:50:44Z</time>
      </trkpt>
      <trkpt lat="48.66451" lon="0.22649">
        <ele>195.28</ele>
        <time>2016-07-16T07:50:48Z</time>
      </trkpt>
      <trkpt lat="48.66355" lon="0.22669">
        <ele>197.21</ele>
        <time>2016-07-16T07:50:51Z</time>
      </trkpt>
      <trkpt lat="48.66163" lon="0.22665">
        <ele>200.57</ele>
        <time>2016-07-16T07:50:57Z</time>
      </trkpt>
      <trkpt lat="48.65975" lon="0.22593">
        <ele>202.49</ele>
        <time>2016-07-16T07:51:03Z</time>
      </trkpt>
      <trkpt lat="48.65944" lon="0.22575">
        <ele>202.49</ele>
        <time>2016-07-16T07:51:04Z</time>
      </trkpt>
      <trkpt lat="48.65654" lon="0.22358">
        <ele>202.49</ele>
        <time>2016-07-16T07:51:14Z</time>
      </trkpt>
      <trkpt lat="48.65596" lon="0.22315">
        <ele>201.05</ele>
        <time>2016-07-16T07:51:16Z</time>
      </trkpt>
      <trkpt lat="48.65161" lon="0.21989">
        <ele>201.53</ele>
        <time>2016-07-16T07:51:31Z</time>
      </trkpt>
      <trkpt lat="48.65132" lon="0.21968">
        <ele>198.65</ele>
        <time>2016-07-16T07:51:32Z</time>
      </trkpt>
      <trkpt lat="48.65103" lon="0.21946">
        <ele>198.65</ele>
        <time>2016-07-16T07:51:33Z</time>
      </trkpt>
      <trkpt lat="48.64959" lon="0.21834">
        <ele>197.21</ele>
        <time>2016-07-16T07:51:38Z</time>
      </trkpt>
      <trkpt lat="48.64814" lon="0.21725">
        <ele>193.84</ele>
        <time>2016-07-16T07:51:43Z</time>
      </trkpt>
      <trkpt lat="48.64456" lon="0.21399">
        <ele>191.44</ele>
        <time>2016-07-16T07:51:56Z</time>
      </trkpt>
      <trkpt lat="48.64273" lon="0.212">
        <ele>194.8</ele>
        <time>2016-07-16T07:52:03Z</time>
      </trkpt>
      <trkpt lat="48.6405" lon="0.20919">
        <ele>198.17</ele>
        <time>2016-07-16T07:52:12Z</time>
      </trkpt>
      <trkpt lat="48.64002" lon="0.20855">
        <ele>200.57</ele>
        <time>2016-07-16T07:52:14Z</time>
      </trkpt>
      <trkpt lat="48.63953" lon="0.20791">
        <ele>198.65</ele>
        <time>2016-07-16T07:52:16Z</time>
      </trkpt>
      <trkpt lat="48.6388" lon="0.20696">
        <ele>200.09</ele>
        <time>2016-07-16T07:52:19Z</time>
      </trkpt>
      <trkpt lat="48.63685" lon="0.20441">
        <ele>202.98</ele>
        <time>2016-07-16T07:52:27Z</time>
      </trkpt>
      <trkpt lat="48.63467" lon="0.20152">
        <ele>205.38</ele>
        <time>2016-07-16T07:52:36Z</time>
      </trkpt>
      <trkpt lat="48.63159" lon="0.19793">
        <ele>208.26</ele>
        <time>2016-07-16T07:52:48Z</time>
      </trkpt>
      <trkpt lat="48.62911" lon="0.19569">
        <ele>211.63</ele>
        <time>2016-07-16T07:52:57Z</time>
      </trkpt>
      <trkpt lat="48.62853" lon="0.19524">
        <ele>212.11</ele>
        <time>2016-07-16T07:52:59Z</time>
      </trkpt>
      <trkpt lat="48.62497" lon="0.19293">
        <ele>214.03</ele>
        <time>2016-07-16T07:53:11Z</time>
      </trkpt>
      <trkpt lat="48.62218" lon="0.19174">
        <ele>212.59</ele>
        <time>2016-07-16T07:53:20Z</time>
      </trkpt>
      <trkpt lat="48.61929" lon="0.19137">
        <ele>208.26</ele>
        <time>2016-07-16T07:53:29Z</time>
      </trkpt>
      <trkpt lat="48.61865" lon="0.19139">
        <ele>207.78</ele>
        <time>2016-07-16T07:53:31Z</time>
      </trkpt>
      <trkpt lat="48.61704" lon="0.19161">
        <ele>203.94</ele>
        <time>2016-07-16T07:53:36Z</time>
      </trkpt>
      <trkpt lat="48.61608" lon="0.19186">
        <ele>202.49</ele>
        <time>2016-07-16T07:53:39Z</time>
      </trkpt>
      <trkpt lat="48.61482" lon="0.19232">
        <ele>198.17</ele>
        <time>2016-07-16T07:53:43Z</time>
      </trkpt>
      <trkpt lat="48.61359" lon="0.19296">
        <ele>195.28</ele>
        <time>2016-07-16T07:53:47Z</time>
      </trkpt>
      <trkpt lat="48.61269" lon="0.19354">
        <ele>191.92</ele>
        <time>2016-07-16T07:53:50Z</time>
      </trkpt>
      <trkpt lat="48.61151" lon="0.19438">
        <ele>188.56</ele>
        <time>2016-07-16T07:53:54Z</time>
      </trkpt>
      <trkpt lat="48.60943" lon="0.19575">
        <ele>185.67</ele>
        <time>2016-07-16T07:54:01Z</time>
      </trkpt>
      <trkpt lat="48.60881" lon="0.19604">
        <ele>187.11</ele>
        <time>2016-07-16T07:54:03Z</time>
      </trkpt>
      <trkpt lat="48.60755" lon="0.1965">
        <ele>183.75</ele>
        <time>2016-07-16T07:54:07Z</time>
      </trkpt>
      <trkpt lat="48.60723" lon="0.19659">
        <ele>183.75</ele>
        <time>2016-07-16T07:54:08Z</time>
      </trkpt>
      <trkpt lat="48.60466" lon="0.19682">
        <ele>184.23</ele>
        <time>2016-07-16T07:54:16Z</time>
      </trkpt>
      <trkpt lat="48.60208" lon="0.19629">
        <ele>184.71</ele>
        <time>2016-07-16T07:54:24Z</time>
      </trkpt>
      <trkpt lat="48.59963" lon="0.19504">
        <ele>185.67</ele>
        <time>2016-07-16T07:54:32Z</time>
      </trkpt>
      <trkpt lat="48.59738" lon="0.19314">
        <ele>189.04</ele>
        <time>2016-07-16T07:54:40Z</time>
      </trkpt>
      <trkpt lat="48.59659" lon="0.19226">
        <ele>190</ele>
        <time>2016-07-16T07:54:43Z</time>
      </trkpt>
      <trkpt lat="48.59394" lon="0.18873">
        <ele>190.96</ele>
        <time>2016-07-16T07:54:54Z</time>
      </trkpt>
      <trkpt lat="48.5921" lon="0.18675">
        <ele>189.52</ele>
        <time>2016-07-16T07:55:01Z</time>
      </trkpt>
      <trkpt lat="48.58816" lon="0.18339">
        <ele>191.92</ele>
        <time>2016-07-16T07:55:15Z</time>
      </trkpt>
      <trkpt lat="48.58562" lon="0.18124">
        <ele>194.8</ele>
        <time>2016-07-16T07:55:24Z</time>
      </trkpt>
      <trkpt lat="48.58534" lon="0.181">
        <ele>194.8</ele>
        <time>2016-07-16T07:55:25Z</time>
      </trkpt>
      <trkpt lat="48.58419" lon="0.18011">
        <ele>194.32</ele>
        <time>2016-07-16T07:55:29Z</time>
      </trkpt>
      <trkpt lat="48.58273" lon="0.17908">
        <ele>195.77</ele>
        <time>2016-07-16T07:55:34Z</time>
      </trkpt>
      <trkpt lat="48.57911" lon="0.17703">
        <ele>197.21</ele>
        <time>2016-07-16T07:55:46Z</time>
      </trkpt>
      <trkpt lat="48.57534" lon="0.17566">
        <ele>199.61</ele>
        <time>2016-07-16T07:55:58Z</time>
      </trkpt>
      <trkpt lat="48.57118" lon="0.17493">
        <ele>202.01</ele>
        <time>2016-07-16T07:56:11Z</time>
      </trkpt>
      <trkpt lat="48.56828" lon="0.17487">
        <ele>205.38</ele>
        <time>2016-07-16T07:56:20Z</time>
      </trkpt>
      <trkpt lat="48.56569" lon="0.17514">
        <ele>204.42</ele>
        <time>2016-07-16T07:56:28Z</time>
      </trkpt>
      <trkpt lat="48.56409" lon="0.17543">
        <ele>201.05</ele>
        <time>2016-07-16T07:56:33Z</time>
      </trkpt>
      <trkpt lat="48.56216" lon="0.17581">
        <ele>197.69</ele>
        <time>2016-07-16T07:56:39Z</time>
      </trkpt>
      <trkpt lat="48.55574" lon="0.17687">
        <ele>195.28</ele>
        <time>2016-07-16T07:56:59Z</time>
      </trkpt>
      <trkpt lat="48.55316" lon="0.17663">
        <ele>192.88</ele>
        <time>2016-07-16T07:57:07Z</time>
      </trkpt>
      <trkpt lat="48.55033" lon="0.17562">
        <ele>191.92</ele>
        <time>2016-07-16T07:57:16Z</time>
      </trkpt>
      <trkpt lat="48.54766" lon="0.17386">
        <ele>190</ele>
        <time>2016-07-16T07:57:25Z</time>
      </trkpt>
      <trkpt lat="48.54524" lon="0.17139">
        <ele>187.11</ele>
        <time>2016-07-16T07:57:34Z</time>
      </trkpt>
      <trkpt lat="48.54295" lon="0.1687">
        <ele>184.71</ele>
        <time>2016-07-16T07:57:43Z</time>
      </trkpt>
      <trkpt lat="48.54219" lon="0.1678">
        <ele>183.75</ele>
        <time>2016-07-16T07:57:46Z</time>
      </trkpt>
      <trkpt lat="48.53976" lon="0.16545">
        <ele>182.79</ele>
        <time>2016-07-16T07:57:55Z</time>
      </trkpt>
      <trkpt lat="48.53831" lon="0.16442">
        <ele>184.23</ele>
        <time>2016-07-16T07:58:00Z</time>
      </trkpt>
      <trkpt lat="48.53522" lon="0.16288">
        <ele>184.23</ele>
        <time>2016-07-16T07:58:10Z</time>
      </trkpt>
      <trkpt lat="48.53398" lon="0.16232">
        <ele>180.87</ele>
        <time>2016-07-16T07:58:14Z</time>
      </trkpt>
      <trkpt lat="48.53305" lon="0.16189">
        <ele>177.5</ele>
        <time>2016-07-16T07:58:17Z</time>
      </trkpt>
      <trkpt lat="48.53211" lon="0.16145">
        <ele>174.14</ele>
        <time>2016-07-16T07:58:20Z</time>
      </trkpt>
      <trkpt lat="48.5306" lon="0.16061">
        <ele>171.25</ele>
        <time>2016-07-16T07:58:25Z</time>
      </trkpt>
      <trkpt lat="48.52888" lon="0.15927">
        <ele>172.21</ele>
        <time>2016-07-16T07:58:31Z</time>
      </trkpt>
      <trkpt lat="48.52681" lon="0.15693">
        <ele>172.69</ele>
        <time>2016-07-16T07:58:39Z</time>
      </trkpt>
      <trkpt lat="48.52587" lon="0.15558">
        <ele>171.25</ele>
        <time>2016-07-16T07:58:43Z</time>
      </trkpt>
      <trkpt lat="48.52243" lon="0.14977">
        <ele>171.73</ele>
        <time>2016-07-16T07:58:59Z</time>
      </trkpt>
      <trkpt lat="48.51811" lon="0.14254">
        <ele>171.25</ele>
        <time>2016-07-16T07:59:19Z</time>
      </trkpt>
      <trkpt lat="48.51488" lon="0.13783">
        <ele>169.33</ele>
        <time>2016-07-16T07:59:33Z</time>
      </trkpt>
      <trkpt lat="48.51143" lon="0.1342">
        <ele>168.85</ele>
        <time>2016-07-16T07:59:46Z</time>
      </trkpt>
      <trkpt lat="48.50799" lon="0.13152">
        <ele>168.37</ele>
        <time>2016-07-16T07:59:58Z</time>
      </trkpt>
      <trkpt lat="48.50619" lon="0.13041">
        <ele>169.81</ele>
        <time>2016-07-16T08:00:04Z</time>
      </trkpt>
      <trkpt lat="48.50559" lon="0.13005">
        <ele>171.25</ele>
        <time>2016-07-16T08:00:06Z</time>
      </trkpt>
      <trkpt lat="48.50349" lon="0.12876">
        <ele>166.93</ele>
        <time>2016-07-16T08:00:13Z</time>
      </trkpt>
      <trkpt lat="48.5023" lon="0.12799">
        <ele>164.04</ele>
        <time>2016-07-16T08:00:17Z</time>
      </trkpt>
      <trkpt lat="48.49998" lon="0.12632">
        <ele>166.93</ele>
        <time>2016-07-16T08:00:25Z</time>
      </trkpt>
      <trkpt lat="48.49471" lon="0.1226">
        <ele>164.52</ele>
        <time>2016-07-16T08:00:43Z</time>
      </trkpt>
      <trkpt lat="48.4913" lon="0.12111">
        <ele>163.08</ele>
        <time>2016-07-16T08:00:54Z</time>
      </trkpt>
      <trkpt lat="48.48779" lon="0.12038">
        <ele>163.56</ele>
        <time>2016-07-16T08:01:05Z</time>
      </trkpt>
      <trkpt lat="48.48425" lon="0.12045">
        <ele>161.64</ele>
        <time>2016-07-16T08:01:16Z</time>
      </trkpt>
      <trkpt lat="48.48074" lon="0.12127">
        <ele>159.24</ele>
        <time>2016-07-16T08:01:27Z</time>
      </trkpt>
      <trkpt lat="48.4767" lon="0.12304">
        <ele>156.83</ele>
        <time>2016-07-16T08:01:40Z</time>
      </trkpt>
      <trkpt lat="48.47545" lon="0.1236">
        <ele>153.95</ele>
        <time>2016-07-16T08:01:44Z</time>
      </trkpt>
      <trkpt lat="48.47453" lon="0.12403">
        <ele>150.58</ele>
        <time>2016-07-16T08:01:47Z</time>
      </trkpt>
      <trkpt lat="48.4736" lon="0.12444">
        <ele>146.74</ele>
        <time>2016-07-16T08:01:50Z</time>
      </trkpt>
      <trkpt lat="48.47234" lon="0.12488">
        <ele>143.85</ele>
        <time>2016-07-16T08:01:54Z</time>
      </trkpt>
      <trkpt lat="48.46977" lon="0.12518">
        <ele>141.93</ele>
        <time>2016-07-16T08:02:02Z</time>
      </trkpt>
      <trkpt lat="48.4672" lon="0.12472">
        <ele>141.93</ele>
        <time>2016-07-16T08:02:10Z</time>
      </trkpt>
      <trkpt lat="48.46371" lon="0.12379">
        <ele>142.89</ele>
        <time>2016-07-16T08:02:21Z</time>
      </trkpt>
      <trkpt lat="48.46147" lon="0.1242">
        <ele>142.89</ele>
        <time>2016-07-16T08:02:28Z</time>
      </trkpt>
      <trkpt lat="48.45937" lon="0.12545">
        <ele>141.93</ele>
        <time>2016-07-16T08:02:35Z</time>
      </trkpt>
      <trkpt lat="48.45749" lon="0.12739">
        <ele>140.49</ele>
        <time>2016-07-16T08:02:42Z</time>
      </trkpt>
      <trkpt lat="48.45487" lon="0.13018">
        <ele>140.49</ele>
        <time>2016-07-16T08:02:52Z</time>
      </trkpt>
      <trkpt lat="48.4543" lon="0.13062">
        <ele>141.93</ele>
        <time>2016-07-16T08:02:54Z</time>
      </trkpt>
      <trkpt lat="48.45131" lon="0.13248">
        <ele>142.41</ele>
        <time>2016-07-16T08:03:04Z</time>
      </trkpt>
      <trkpt lat="48.45039" lon="0.13292">
        <ele>140.97</ele>
        <time>2016-07-16T08:03:07Z</time>
      </trkpt>
      <trkpt lat="48.4469" lon="0.13407">
        <ele>139.05</ele>
        <time>2016-07-16T08:03:18Z</time>
      </trkpt>
      <trkpt lat="48.44336" lon="0.13446">
        <ele>136.64</ele>
        <time>2016-07-16T08:03:29Z</time>
      </trkpt>
      <trkpt lat="48.43917" lon="0.135">
        <ele>135.68</ele>
        <time>2016-07-16T08:03:42Z</time>
      </trkpt>
      <trkpt lat="48.43572" lon="0.1362">
        <ele>138.09</ele>
        <time>2016-07-16T08:03:53Z</time>
      </trkpt>
      <trkpt lat="48.43137" lon="0.138">
        <ele>140.97</ele>
        <time>2016-07-16T08:04:07Z</time>
      </trkpt>
      <trkpt lat="48.42879" lon="0.13835">
        <ele>139.05</ele>
        <time>2016-07-16T08:04:15Z</time>
      </trkpt>
      <trkpt lat="48.42621" lon="0.13806">
        <ele>136.16</ele>
        <time>2016-07-16T08:04:23Z</time>
      </trkpt>
      <trkpt lat="48.42338" lon="0.13702">
        <ele>135.68</ele>
        <time>2016-07-16T08:04:32Z</time>
      </trkpt>
      <trkpt lat="48.4212" lon="0.13563">
        <ele>137.13</ele>
        <time>2016-07-16T08:04:39Z</time>
      </trkpt>
      <trkpt lat="48.41881" lon="0.13341">
        <ele>137.13</ele>
        <time>2016-07-16T08:04:48Z</time>
      </trkpt>
      <trkpt lat="48.41513" lon="0.12943">
        <ele>137.61</ele>
        <time>2016-07-16T08:05:02Z</time>
      </trkpt>
      <trkpt lat="48.41175" lon="0.12571">
        <ele>134.24</ele>
        <time>2016-07-16T08:05:15Z</time>
      </trkpt>
      <trkpt lat="48.40665" lon="0.1206">
        <ele>133.76</ele>
        <time>2016-07-16T08:05:34Z</time>
      </trkpt>
      <trkpt lat="48.4031" lon="0.11723">
        <ele>138.09</ele>
        <time>2016-07-16T08:05:47Z</time>
      </trkpt>
      <trkpt lat="48.40283" lon="0.11698">
        <ele>138.09</ele>
        <time>2016-07-16T08:05:48Z</time>
      </trkpt>
      <trkpt lat="48.3993" lon="0.11369">
        <ele>141.45</ele>
        <time>2016-07-16T08:06:01Z</time>
      </trkpt>
      <trkpt lat="48.39832" lon="0.1128">
        <ele>138.57</ele>
        <time>2016-07-16T08:06:05Z</time>
      </trkpt>
      <trkpt lat="48.39782" lon="0.11238">
        <ele>140.01</ele>
        <time>2016-07-16T08:06:07Z</time>
      </trkpt>
      <trkpt lat="48.39507" lon="0.1102">
        <ele>141.93</ele>
        <time>2016-07-16T08:06:17Z</time>
      </trkpt>
      <trkpt lat="48.3939" lon="0.10939">
        <ele>139.05</ele>
        <time>2016-07-16T08:06:21Z</time>
      </trkpt>
      <trkpt lat="48.3902" lon="0.1072">
        <ele>140.49</ele>
        <time>2016-07-16T08:06:33Z</time>
      </trkpt>
      <trkpt lat="48.38755" lon="0.10598">
        <ele>143.37</ele>
        <time>2016-07-16T08:06:42Z</time>
      </trkpt>
      <trkpt lat="48.38536" lon="0.10516">
        <ele>147.22</ele>
        <time>2016-07-16T08:06:49Z</time>
      </trkpt>
      <trkpt lat="48.38473" lon="0.10496">
        <ele>149.14</ele>
        <time>2016-07-16T08:06:51Z</time>
      </trkpt>
      <trkpt lat="48.38379" lon="0.10469">
        <ele>147.7</ele>
        <time>2016-07-16T08:06:54Z</time>
      </trkpt>
      <trkpt lat="48.38284" lon="0.10444">
        <ele>150.1</ele>
        <time>2016-07-16T08:06:57Z</time>
      </trkpt>
      <trkpt lat="48.38093" lon="0.10403">
        <ele>153.95</ele>
        <time>2016-07-16T08:07:03Z</time>
      </trkpt>
      <trkpt lat="48.38029" lon="0.10392">
        <ele>154.91</ele>
        <time>2016-07-16T08:07:05Z</time>
      </trkpt>
      <trkpt lat="48.37933" lon="0.10378">
        <ele>156.35</ele>
        <time>2016-07-16T08:07:08Z</time>
      </trkpt>
      <trkpt lat="48.37773" lon="0.10353">
        <ele>159.24</ele>
        <time>2016-07-16T08:07:13Z</time>
      </trkpt>
      <trkpt lat="48.3755" lon="0.10319">
        <ele>162.6</ele>
        <time>2016-07-16T08:07:20Z</time>
      </trkpt>
      <trkpt lat="48.37516" lon="0.10314">
        <ele>162.6</ele>
        <time>2016-07-16T08:07:21Z</time>
      </trkpt>
      <trkpt lat="48.37039" lon="0.10228">
        <ele>160.2</ele>
        <time>2016-07-16T08:07:36Z</time>
      </trkpt>
      <trkpt lat="48.36819" lon="0.10159">
        <ele>156.35</ele>
        <time>2016-07-16T08:07:43Z</time>
      </trkpt>
      <trkpt lat="48.36788" lon="0.10146">
        <ele>156.35</ele>
        <time>2016-07-16T08:07:44Z</time>
      </trkpt>
      <trkpt lat="48.36634" lon="0.10075">
        <ele>153.47</ele>
        <time>2016-07-16T08:07:49Z</time>
      </trkpt>
      <trkpt lat="48.36604" lon="0.1006">
        <ele>153.47</ele>
        <time>2016-07-16T08:07:50Z</time>
      </trkpt>
      <trkpt lat="48.36513" lon="0.10009">
        <ele>152.03</ele>
        <time>2016-07-16T08:07:53Z</time>
      </trkpt>
      <trkpt lat="48.36362" lon="0.09925">
        <ele>148.66</ele>
        <time>2016-07-16T08:07:58Z</time>
      </trkpt>
      <trkpt lat="48.36272" lon="0.09876">
        <ele>147.22</ele>
        <time>2016-07-16T08:08:01Z</time>
      </trkpt>
      <trkpt lat="48.3606" lon="0.09769">
        <ele>142.89</ele>
        <time>2016-07-16T08:08:08Z</time>
      </trkpt>
      <trkpt lat="48.35966" lon="0.09731">
        <ele>141.93</ele>
        <time>2016-07-16T08:08:11Z</time>
      </trkpt>
      <trkpt lat="48.35809" lon="0.09679">
        <ele>138.57</ele>
        <time>2016-07-16T08:08:16Z</time>
      </trkpt>
      <trkpt lat="48.35746" lon="0.09663">
        <ele>137.61</ele>
        <time>2016-07-16T08:08:18Z</time>
      </trkpt>
      <trkpt lat="48.35618" lon="0.0964">
        <ele>136.64</ele>
        <time>2016-07-16T08:08:22Z</time>
      </trkpt>
      <trkpt lat="48.35292" lon="0.09634">
        <ele>134.24</ele>
        <time>2016-07-16T08:08:32Z</time>
      </trkpt>
      <trkpt lat="48.34969" lon="0.09699">
        <ele>133.76</ele>
        <time>2016-07-16T08:08:42Z</time>
      </trkpt>
      <trkpt lat="48.34628" lon="0.09843">
        <ele>136.64</ele>
        <time>2016-07-16T08:08:53Z</time>
      </trkpt>
      <trkpt lat="48.34274" lon="0.1008">
        <ele>135.2</ele>
        <time>2016-07-16T08:09:05Z</time>
      </trkpt>
      <trkpt lat="48.34157" lon="0.10164">
        <ele>131.84</ele>
        <time>2016-07-16T08:09:09Z</time>
      </trkpt>
      <trkpt lat="48.3404" lon="0.10246">
        <ele>128.95</ele>
        <time>2016-07-16T08:09:13Z</time>
      </trkpt>
      <trkpt lat="48.33952" lon="0.10309">
        <ele>125.59</ele>
        <time>2016-07-16T08:09:16Z</time>
      </trkpt>
      <trkpt lat="48.33864" lon="0.10369">
        <ele>122.22</ele>
        <time>2016-07-16T08:09:19Z</time>
      </trkpt>
      <trkpt lat="48.33777" lon="0.10433">
        <ele>118.38</ele>
        <time>2016-07-16T08:09:22Z</time>
      </trkpt>
      <trkpt lat="48.33692" lon="0.10502">
        <ele>115.5</ele>
        <time>2016-07-16T08:09:25Z</time>
      </trkpt>
      <trkpt lat="48.3358" lon="0.10598">
        <ele>111.17</ele>
        <time>2016-07-16T08:09:29Z</time>
      </trkpt>
      <trkpt lat="48.3347" lon="0.10698">
        <ele>107.81</ele>
        <time>2016-07-16T08:09:33Z</time>
      </trkpt>
      <trkpt lat="48.33362" lon="0.10802">
        <ele>103.48</ele>
        <time>2016-07-16T08:09:37Z</time>
      </trkpt>
      <trkpt lat="48.33309" lon="0.10856">
        <ele>102.52</ele>
        <time>2016-07-16T08:09:39Z</time>
      </trkpt>
      <trkpt lat="48.33128" lon="0.11052">
        <ele>99.63</ele>
        <time>2016-07-16T08:09:46Z</time>
      </trkpt>
      <trkpt lat="48.32835" lon="0.11427">
        <ele>101.08</ele>
        <time>2016-07-16T08:09:58Z</time>
      </trkpt>
      <trkpt lat="48.32525" lon="0.11919">
        <ele>99.15</ele>
        <time>2016-07-16T08:10:12Z</time>
      </trkpt>
      <trkpt lat="48.32504" lon="0.11956">
        <ele>99.15</ele>
        <time>2016-07-16T08:10:13Z</time>
      </trkpt>
      <trkpt lat="48.32443" lon="0.12068">
        <ele>97.71</ele>
        <time>2016-07-16T08:10:16Z</time>
      </trkpt>
      <trkpt lat="48.32362" lon="0.12219">
        <ele>93.87</ele>
        <time>2016-07-16T08:10:20Z</time>
      </trkpt>
      <trkpt lat="48.32342" lon="0.12256">
        <ele>93.87</ele>
        <time>2016-07-16T08:10:21Z</time>
      </trkpt>
      <trkpt lat="48.32242" lon="0.12445">
        <ele>90.98</ele>
        <time>2016-07-16T08:10:26Z</time>
      </trkpt>
      <trkpt lat="48.32097" lon="0.12702">
        <ele>91.94</ele>
        <time>2016-07-16T08:10:33Z</time>
      </trkpt>
      <trkpt lat="48.31988" lon="0.12879">
        <ele>93.87</ele>
        <time>2016-07-16T08:10:38Z</time>
      </trkpt>
      <trkpt lat="48.31897" lon="0.13017">
        <ele>95.79</ele>
        <time>2016-07-16T08:10:42Z</time>
      </trkpt>
      <trkpt lat="48.31805" lon="0.13149">
        <ele>98.19</ele>
        <time>2016-07-16T08:10:46Z</time>
      </trkpt>
      <trkpt lat="48.31416" lon="0.13651">
        <ele>100.6</ele>
        <time>2016-07-16T08:11:02Z</time>
      </trkpt>
      <trkpt lat="48.31147" lon="0.13994">
        <ele>99.15</ele>
        <time>2016-07-16T08:11:13Z</time>
      </trkpt>
      <trkpt lat="48.30927" lon="0.14274">
        <ele>102.52</ele>
        <time>2016-07-16T08:11:22Z</time>
      </trkpt>
      <trkpt lat="48.30824" lon="0.14396">
        <ele>106.36</ele>
        <time>2016-07-16T08:11:26Z</time>
      </trkpt>
      <trkpt lat="48.30718" lon="0.1451">
        <ele>112.13</ele>
        <time>2016-07-16T08:11:30Z</time>
      </trkpt>
      <trkpt lat="48.3061" lon="0.14619">
        <ele>110.69</ele>
        <time>2016-07-16T08:11:34Z</time>
      </trkpt>
      <trkpt lat="48.30554" lon="0.14671">
        <ele>112.13</ele>
        <time>2016-07-16T08:11:36Z</time>
      </trkpt>
      <trkpt lat="48.3044" lon="0.1477">
        <ele>110.21</ele>
        <time>2016-07-16T08:11:40Z</time>
      </trkpt>
      <trkpt lat="48.30208" lon="0.14952">
        <ele>107.32</ele>
        <time>2016-07-16T08:11:48Z</time>
      </trkpt>
      <trkpt lat="48.29968" lon="0.15108">
        <ele>104.44</ele>
        <time>2016-07-16T08:11:56Z</time>
      </trkpt>
      <trkpt lat="48.29627" lon="0.15271">
        <ele>101.56</ele>
        <time>2016-07-16T08:12:07Z</time>
      </trkpt>
      <trkpt lat="48.29346" lon="0.1537">
        <ele>98.19</ele>
        <time>2016-07-16T08:12:16Z</time>
      </trkpt>
      <trkpt lat="48.29136" lon="0.15425">
        <ele>95.31</ele>
        <time>2016-07-16T08:12:23Z</time>
      </trkpt>
      <trkpt lat="48.28754" lon="0.15496">
        <ele>94.35</ele>
        <time>2016-07-16T08:12:35Z</time>
      </trkpt>
      <trkpt lat="48.285" lon="0.15541">
        <ele>92.9</ele>
        <time>2016-07-16T08:12:43Z</time>
      </trkpt>
      <trkpt lat="48.28339" lon="0.15568">
        <ele>89.54</ele>
        <time>2016-07-16T08:12:48Z</time>
      </trkpt>
      <trkpt lat="48.28244" lon="0.15593">
        <ele>86.18</ele>
        <time>2016-07-16T08:12:51Z</time>
      </trkpt>
      <trkpt lat="48.28116" lon="0.15631">
        <ele>82.81</ele>
        <time>2016-07-16T08:12:55Z</time>
      </trkpt>
      <trkpt lat="48.27869" lon="0.15725">
        <ele>84.73</ele>
        <time>2016-07-16T08:13:03Z</time>
      </trkpt>
      <trkpt lat="48.27413" lon="0.15956">
        <ele>84.25</ele>
        <time>2016-07-16T08:13:18Z</time>
      </trkpt>
      <trkpt lat="48.27383" lon="0.15972">
        <ele>84.25</ele>
        <time>2016-07-16T08:13:19Z</time>
      </trkpt>
      <trkpt lat="48.27012" lon="0.1614">
        <ele>86.18</ele>
        <time>2016-07-16T08:13:31Z</time>
      </trkpt>
      <trkpt lat="48.26726" lon="0.16205">
        <ele>84.25</ele>
        <time>2016-07-16T08:13:40Z</time>
      </trkpt>
      <trkpt lat="48.26405" lon="0.16215">
        <ele>85.69</ele>
        <time>2016-07-16T08:13:50Z</time>
      </trkpt>
      <trkpt lat="48.26372" lon="0.16213">
        <ele>85.69</ele>
        <time>2016-07-16T08:13:51Z</time>
      </trkpt>
      <trkpt lat="48.26309" lon="0.16206">
        <ele>83.77</ele>
        <time>2016-07-16T08:13:53Z</time>
      </trkpt>
      <trkpt lat="48.25988" lon="0.16173">
        <ele>80.89</ele>
        <time>2016-07-16T08:14:03Z</time>
      </trkpt>
      <trkpt lat="48.25508" lon="0.16143">
        <ele>79.45</ele>
        <time>2016-07-16T08:14:18Z</time>
      </trkpt>
      <trkpt lat="48.25092" lon="0.16195">
        <ele>77.04</ele>
        <time>2016-07-16T08:14:31Z</time>
      </trkpt>
      <trkpt lat="48.24714" lon="0.16307">
        <ele>75.12</ele>
        <time>2016-07-16T08:14:43Z</time>
      </trkpt>
      <trkpt lat="48.24315" lon="0.16496">
        <ele>74.64</ele>
        <time>2016-07-16T08:14:56Z</time>
      </trkpt>
      <trkpt lat="48.23677" lon="0.16826">
        <ele>73.68</ele>
        <time>2016-07-16T08:15:17Z</time>
      </trkpt>
      <trkpt lat="48.23043" lon="0.17158">
        <ele>70.31</ele>
        <time>2016-07-16T08:15:38Z</time>
      </trkpt>
      <trkpt lat="48.22315" lon="0.17538">
        <ele>68.39</ele>
        <time>2016-07-16T08:16:02Z</time>
      </trkpt>
      <trkpt lat="48.21973" lon="0.17671">
        <ele>68.87</ele>
        <time>2016-07-16T08:16:13Z</time>
      </trkpt>
      <trkpt lat="48.2175" lon="0.17717">
        <ele>67.43</ele>
        <time>2016-07-16T08:16:20Z</time>
      </trkpt>
      <trkpt lat="48.21428" lon="0.17728">
        <ele>67.43</ele>
        <time>2016-07-16T08:16:30Z</time>
      </trkpt>
      <trkpt lat="48.21077" lon="0.17682">
        <ele>67.43</ele>
        <time>2016-07-16T08:16:41Z</time>
      </trkpt>
      <trkpt lat="48.20572" lon="0.17542">
        <ele>70.79</ele>
        <time>2016-07-16T08:16:57Z</time>
      </trkpt>
      <trkpt lat="48.20416" lon="0.17497">
        <ele>73.2</ele>
        <time>2016-07-16T08:17:02Z</time>
      </trkpt>
      <trkpt lat="48.20034" lon="0.1739">
        <ele>69.83</ele>
        <time>2016-07-16T08:17:14Z</time>
      </trkpt>
      <trkpt lat="48.19813" lon="0.17327">
        <ele>66.47</ele>
        <time>2016-07-16T08:17:21Z</time>
      </trkpt>
      <trkpt lat="48.19243" lon="0.17175">
        <ele>66.47</ele>
        <time>2016-07-16T08:17:39Z</time>
      </trkpt>
      <trkpt lat="48.19151" lon="0.17149">
        <ele>64.55</ele>
        <time>2016-07-16T08:17:42Z</time>
      </trkpt>
      <trkpt lat="48.18714" lon="0.16993">
        <ele>63.58</ele>
        <time>2016-07-16T08:17:56Z</time>
      </trkpt>
      <trkpt lat="48.1845" lon="0.16806">
        <ele>59.74</ele>
        <time>2016-07-16T08:18:05Z</time>
      </trkpt>
      <trkpt lat="48.18369" lon="0.16731">
        <ele>63.58</ele>
        <time>2016-07-16T08:18:08Z</time>
      </trkpt>
      <trkpt lat="48.18317" lon="0.16678">
        <ele>64.55</ele>
        <time>2016-07-16T08:18:10Z</time>
      </trkpt>
      <trkpt lat="48.18292" lon="0.16649">
        <ele>61.18</ele>
        <time>2016-07-16T08:18:11Z</time>
      </trkpt>
      <trkpt lat="48.18241" lon="0.1659">
        <ele>58.78</ele>
        <time>2016-07-16T08:18:13Z</time>
      </trkpt>
      <trkpt lat="48.18167" lon="0.16494">
        <ele>60.22</ele>
        <time>2016-07-16T08:18:16Z</time>
      </trkpt>
      <trkpt lat="48.17973" lon="0.1617">
        <ele>60.22</ele>
        <time>2016-07-16T08:18:25Z</time>
      </trkpt>
      <trkpt lat="48.17819" lon="0.15797">
        <ele>61.66</ele>
        <time>2016-07-16T08:18:34Z</time>
      </trkpt>
      <trkpt lat="48.17601" lon="0.15216">
        <ele>64.07</ele>
        <time>2016-07-16T08:18:48Z</time>
      </trkpt>
      <trkpt lat="48.17414" lon="0.1489">
        <ele>64.07</ele>
        <time>2016-07-16T08:18:57Z</time>
      </trkpt>
      <trkpt lat="48.17243" lon="0.14675">
        <ele>67.91</ele>
        <time>2016-07-16T08:19:04Z</time>
      </trkpt>
      <trkpt lat="48.17191" lon="0.14619">
        <ele>68.87</ele>
        <time>2016-07-16T08:19:06Z</time>
      </trkpt>
      <trkpt lat="48.17083" lon="0.14519">
        <ele>70.31</ele>
        <time>2016-07-16T08:19:10Z</time>
      </trkpt>
      <trkpt lat="48.1685" lon="0.1436">
        <ele>73.68</ele>
        <time>2016-07-16T08:19:18Z</time>
      </trkpt>
      <trkpt lat="48.16664" lon="0.14277">
        <ele>76.08</ele>
        <time>2016-07-16T08:19:24Z</time>
      </trkpt>
      <trkpt lat="48.16507" lon="0.14234">
        <ele>78.48</ele>
        <time>2016-07-16T08:19:29Z</time>
      </trkpt>
      <trkpt lat="48.16216" lon="0.14214">
        <ele>76.08</ele>
        <time>2016-07-16T08:19:38Z</time>
      </trkpt>
      <trkpt lat="48.15894" lon="0.14244">
        <ele>72.72</ele>
        <time>2016-07-16T08:19:48Z</time>
      </trkpt>
      <trkpt lat="48.15607" lon="0.14276">
        <ele>69.35</ele>
        <time>2016-07-16T08:19:57Z</time>
      </trkpt>
      <trkpt lat="48.15335" lon="0.14303">
        <ele>68.87</ele>
        <time>2016-07-16T08:20:06Z</time>
      </trkpt>
      <trkpt lat="48.15058" lon="0.14324">
        <ele>72.24</ele>
        <time>2016-07-16T08:20:15Z</time>
      </trkpt>
      <trkpt lat="48.14883" lon="0.14333">
        <ele>72.72</ele>
        <time>2016-07-16T08:20:20Z</time>
      </trkpt>
      <trkpt lat="48.14818" lon="0.14334">
        <ele>73.68</ele>
        <time>2016-07-16T08:20:22Z</time>
      </trkpt>
      <trkpt lat="48.14722" lon="0.14337">
        <ele>75.6</ele>
        <time>2016-07-16T08:20:25Z</time>
      </trkpt>
      <trkpt lat="48.14272" lon="0.14352">
        <ele>71.27</ele>
        <time>2016-07-16T08:20:39Z</time>
      </trkpt>
      <trkpt lat="48.1424" lon="0.14351">
        <ele>72.24</ele>
        <time>2016-07-16T08:20:40Z</time>
      </trkpt>
      <trkpt lat="48.14112" lon="0.14352">
        <ele>70.79</ele>
        <time>2016-07-16T08:20:44Z</time>
      </trkpt>
      <trkpt lat="48.13985" lon="0.14355">
        <ele>74.16</ele>
        <time>2016-07-16T08:20:48Z</time>
      </trkpt>
      <trkpt lat="48.13921" lon="0.14357">
        <ele>77.52</ele>
        <time>2016-07-16T08:20:50Z</time>
      </trkpt>
      <trkpt lat="48.13791" lon="0.1436">
        <ele>80.89</ele>
        <time>2016-07-16T08:20:54Z</time>
      </trkpt>
      <trkpt lat="48.13695" lon="0.14363">
        <ele>82.81</ele>
        <time>2016-07-16T08:20:57Z</time>
      </trkpt>
      <trkpt lat="48.13534" lon="0.14367">
        <ele>86.18</ele>
        <time>2016-07-16T08:21:02Z</time>
      </trkpt>
      <trkpt lat="48.13438" lon="0.14372">
        <ele>87.62</ele>
        <time>2016-07-16T08:21:05Z</time>
      </trkpt>
      <trkpt lat="48.12796" lon="0.14398">
        <ele>84.73</ele>
        <time>2016-07-16T08:21:25Z</time>
      </trkpt>
      <trkpt lat="48.12732" lon="0.14408">
        <ele>83.77</ele>
        <time>2016-07-16T08:21:27Z</time>
      </trkpt>
      <trkpt lat="48.12384" lon="0.14507">
        <ele>81.37</ele>
        <time>2016-07-16T08:21:38Z</time>
      </trkpt>
      <trkpt lat="48.12201" lon="0.14593">
        <ele>82.81</ele>
        <time>2016-07-16T08:21:44Z</time>
      </trkpt>
      <trkpt lat="48.11879" lon="0.14807">
        <ele>86.18</ele>
        <time>2016-07-16T08:21:55Z</time>
      </trkpt>
      <trkpt lat="48.11582" lon="0.15089">
        <ele>86.66</ele>
        <time>2016-07-16T08:22:06Z</time>
      </trkpt>
      <trkpt lat="48.11312" lon="0.15429">
        <ele>83.29</ele>
        <time>2016-07-16T08:22:17Z</time>
      </trkpt>
      <trkpt lat="48.11215" lon="0.15555">
        <ele>81.37</ele>
        <time>2016-07-16T08:22:21Z</time>
      </trkpt>
      <trkpt lat="48.11092" lon="0.1571">
        <ele>78</ele>
        <time>2016-07-16T08:22:26Z</time>
      </trkpt>
      <trkpt lat="48.11016" lon="0.15799">
        <ele>75.6</ele>
        <time>2016-07-16T08:22:29Z</time>
      </trkpt>
      <trkpt lat="48.10964" lon="0.15857">
        <ele>72.24</ele>
        <time>2016-07-16T08:22:31Z</time>
      </trkpt>
      <trkpt lat="48.10938" lon="0.15886">
        <ele>72.24</ele>
        <time>2016-07-16T08:22:32Z</time>
      </trkpt>
      <trkpt lat="48.10831" lon="0.15996">
        <ele>68.87</ele>
        <time>2016-07-16T08:22:36Z</time>
      </trkpt>
      <trkpt lat="48.1075" lon="0.16075">
        <ele>65.51</ele>
        <time>2016-07-16T08:22:39Z</time>
      </trkpt>
      <trkpt lat="48.10642" lon="0.16181">
        <ele>61.18</ele>
        <time>2016-07-16T08:22:43Z</time>
      </trkpt>
      <trkpt lat="48.10349" lon="0.16473">
        <ele>58.3</ele>
        <time>2016-07-16T08:22:54Z</time>
      </trkpt>
      <trkpt lat="48.10242" lon="0.16579">
        <ele>61.18</ele>
        <time>2016-07-16T08:22:58Z</time>
      </trkpt>
      <trkpt lat="48.10189" lon="0.16633">
        <ele>57.82</ele>
        <time>2016-07-16T08:23:00Z</time>
      </trkpt>
      <trkpt lat="48.09657" lon="0.1717">
        <ele>61.66</ele>
        <time>2016-07-16T08:23:20Z</time>
      </trkpt>
      <trkpt lat="48.09578" lon="0.17251">
        <ele>66.47</ele>
        <time>2016-07-16T08:23:23Z</time>
      </trkpt>
      <trkpt lat="48.09524" lon="0.17303">
        <ele>68.39</ele>
        <time>2016-07-16T08:23:25Z</time>
      </trkpt>
      <trkpt lat="48.09439" lon="0.17377">
        <ele>71.76</ele>
        <time>2016-07-16T08:23:28Z</time>
      </trkpt>
      <trkpt lat="48.09208" lon="0.17531">
        <ele>75.12</ele>
        <time>2016-07-16T08:23:36Z</time>
      </trkpt>
      <trkpt lat="48.08955" lon="0.17629">
        <ele>71.27</ele>
        <time>2016-07-16T08:23:44Z</time>
      </trkpt>
      <trkpt lat="48.08892" lon="0.17644">
        <ele>70.31</ele>
        <time>2016-07-16T08:23:46Z</time>
      </trkpt>
      <trkpt lat="48.08795" lon="0.17659">
        <ele>66.47</ele>
        <time>2016-07-16T08:23:49Z</time>
      </trkpt>
      <trkpt lat="48.0873" lon="0.17665">
        <ele>63.1</ele>
        <time>2016-07-16T08:23:51Z</time>
      </trkpt>
      <trkpt lat="48.08665" lon="0.17667">
        <ele>59.74</ele>
        <time>2016-07-16T08:23:53Z</time>
      </trkpt>
      <trkpt lat="48.08567" lon="0.17662">
        <ele>56.37</ele>
        <time>2016-07-16T08:23:56Z</time>
      </trkpt>
      <trkpt lat="48.08503" lon="0.17654">
        <ele>55.41</ele>
        <time>2016-07-16T08:23:58Z</time>
      </trkpt>
      <trkpt lat="48.0822" lon="0.1757">
        <ele>55.41</ele>
        <time>2016-07-16T08:24:07Z</time>
      </trkpt>
      <trkpt lat="48.07913" lon="0.17436">
        <ele>58.3</ele>
        <time>2016-07-16T08:24:17Z</time>
      </trkpt>
      <trkpt lat="48.07817" lon="0.17395">
        <ele>61.66</ele>
        <time>2016-07-16T08:24:20Z</time>
      </trkpt>
      <trkpt lat="48.07728" lon="0.17357">
        <ele>65.51</ele>
        <time>2016-07-16T08:24:23Z</time>
      </trkpt>
      <trkpt lat="48.07635" lon="0.17318">
        <ele>69.35</ele>
        <time>2016-07-16T08:24:26Z</time>
      </trkpt>
      <trkpt lat="48.07574" lon="0.17294">
        <ele>72.72</ele>
        <time>2016-07-16T08:24:28Z</time>
      </trkpt>
      <trkpt lat="48.07483" lon="0.17263">
        <ele>76.08</ele>
        <time>2016-07-16T08:24:31Z</time>
      </trkpt>
      <trkpt lat="48.0742" lon="0.17247">
        <ele>79.45</ele>
        <time>2016-07-16T08:24:33Z</time>
      </trkpt>
      <trkpt lat="48.07325" lon="0.17229">
        <ele>82.81</ele>
        <time>2016-07-16T08:24:36Z</time>
      </trkpt>
      <trkpt lat="48.072" lon="0.17216">
        <ele>85.69</ele>
        <time>2016-07-16T08:24:40Z</time>
      </trkpt>
      <trkpt lat="48.06916" lon="0.17234">
        <ele>85.69</ele>
        <time>2016-07-16T08:24:49Z</time>
      </trkpt>
      <trkpt lat="48.06884" lon="0.1724">
        <ele>85.69</ele>
        <time>2016-07-16T08:24:50Z</time>
      </trkpt>
      <trkpt lat="48.06756" lon="0.17267">
        <ele>81.85</ele>
        <time>2016-07-16T08:24:54Z</time>
      </trkpt>
      <trkpt lat="48.06659" lon="0.17286">
        <ele>78.48</ele>
        <time>2016-07-16T08:24:57Z</time>
      </trkpt>
      <trkpt lat="48.06563" lon="0.17304">
        <ele>75.6</ele>
        <time>2016-07-16T08:25:00Z</time>
      </trkpt>
      <trkpt lat="48.06466" lon="0.17326">
        <ele>73.2</ele>
        <time>2016-07-16T08:25:03Z</time>
      </trkpt>
      <trkpt lat="48.06308" lon="0.17373">
        <ele>68.39</ele>
        <time>2016-07-16T08:25:08Z</time>
      </trkpt>
      <trkpt lat="48.06246" lon="0.17395">
        <ele>66.95</ele>
        <time>2016-07-16T08:25:10Z</time>
      </trkpt>
      <trkpt lat="48.05973" lon="0.17518">
        <ele>64.07</ele>
        <time>2016-07-16T08:25:19Z</time>
      </trkpt>
      <trkpt lat="48.05895" lon="0.17562">
        <ele>62.14</ele>
        <time>2016-07-16T08:25:22Z</time>
      </trkpt>
      <trkpt lat="48.05748" lon="0.17633">
        <ele>59.74</ele>
        <time>2016-07-16T08:25:29Z</time>
      </trkpt>
      <trkpt lat="48.05603" lon="0.17658">
        <ele>56.86</ele>
        <time>2016-07-16T08:25:37Z</time>
      </trkpt>
      <trkpt lat="48.05474" lon="0.17656">
        <ele>56.37</ele>
        <time>2016-07-16T08:25:47Z</time>
      </trkpt>
      <trkpt lat="48.05399" lon="0.17651">
        <ele>55.41</ele>
        <time>2016-07-16T08:25:53Z</time>
      </trkpt>
      <trkpt lat="48.05387" lon="0.17646">
        <ele>55.41</ele>
        <time>2016-07-16T08:25:54Z</time>
      </trkpt>
      <trkpt lat="48.05375" lon="0.17639">
        <ele>54.93</ele>
        <time>2016-07-16T08:25:55Z</time>
      </trkpt>
      <trkpt lat="48.05363" lon="0.17631">
        <ele>54.45</ele>
        <time>2016-07-16T08:25:56Z</time>
      </trkpt>
      <trkpt lat="48.05352" lon="0.1762">
        <ele>54.45</ele>
        <time>2016-07-16T08:25:57Z</time>
      </trkpt>
      <trkpt lat="48.0534" lon="0.17608">
        <ele>53.49</ele>
        <time>2016-07-16T08:25:58Z</time>
      </trkpt>
      <trkpt lat="48.0533" lon="0.17594">
        <ele>52.53</ele>
        <time>2016-07-16T08:25:59Z</time>
      </trkpt>
      <trkpt lat="48.05321" lon="0.17578">
        <ele>52.05</ele>
        <time>2016-07-16T08:26:00Z</time>
      </trkpt>
      <trkpt lat="48.05312" lon="0.17561">
        <ele>51.09</ele>
        <time>2016-07-16T08:26:01Z</time>
      </trkpt>
      <trkpt lat="48.05305" lon="0.17541">
        <ele>50.61</ele>
        <time>2016-07-16T08:26:02Z</time>
      </trkpt>
      <trkpt lat="48.05299" lon="0.1752">
        <ele>50.61</ele>
        <time>2016-07-16T08:26:03Z</time>
      </trkpt>
      <trkpt lat="48.05241" lon="0.17303">
        <ele>48.2</ele>
        <time>2016-07-16T08:26:11Z</time>
      </trkpt>
      <trkpt lat="48.05168" lon="0.17036">
        <ele>52.05</ele>
        <time>2016-07-16T08:26:19Z</time>
      </trkpt>
      <trkpt lat="48.05101" lon="0.16807">
        <ele>56.37</ele>
        <time>2016-07-16T08:26:26Z</time>
      </trkpt>
      <trkpt lat="48.05055" lon="0.16665">
        <ele>60.22</ele>
        <time>2016-07-16T08:26:30Z</time>
      </trkpt>
      <trkpt lat="48.05004" lon="0.16523">
        <ele>62.14</ele>
        <time>2016-07-16T08:26:34Z</time>
      </trkpt>
      <trkpt lat="48.04977" lon="0.16451">
        <ele>66.95</ele>
        <time>2016-07-16T08:26:36Z</time>
      </trkpt>
      <trkpt lat="48.04962" lon="0.16413">
        <ele>66.95</ele>
        <time>2016-07-16T08:26:37Z</time>
      </trkpt>
      <trkpt lat="48.04933" lon="0.16337">
        <ele>70.31</ele>
        <time>2016-07-16T08:26:39Z</time>
      </trkpt>
      <trkpt lat="48.04891" lon="0.16232">
        <ele>73.2</ele>
        <time>2016-07-16T08:26:42Z</time>
      </trkpt>
      <trkpt lat="48.04827" lon="0.1608">
        <ele>78</ele>
        <time>2016-07-16T08:26:46Z</time>
      </trkpt>
      <trkpt lat="48.04809" lon="0.16039">
        <ele>78</ele>
        <time>2016-07-16T08:26:47Z</time>
      </trkpt>
      <trkpt lat="48.04764" lon="0.15939">
        <ele>81.37</ele>
        <time>2016-07-16T08:26:50Z</time>
      </trkpt>
      <trkpt lat="48.04731" lon="0.15868">
        <ele>82.81</ele>
        <time>2016-07-16T08:26:52Z</time>
      </trkpt>
      <trkpt lat="48.04626" lon="0.15657">
        <ele>87.14</ele>
        <time>2016-07-16T08:26:58Z</time>
      </trkpt>
      <trkpt lat="48.04551" lon="0.15517">
        <ele>90.98</ele>
        <time>2016-07-16T08:27:02Z</time>
      </trkpt>
      <trkpt lat="48.04531" lon="0.15482">
        <ele>90.98</ele>
        <time>2016-07-16T08:27:03Z</time>
      </trkpt>
      <trkpt lat="48.04238" lon="0.15011">
        <ele>90.5</ele>
        <time>2016-07-16T08:27:17Z</time>
      </trkpt>
      <trkpt lat="48.0399" lon="0.1465">
        <ele>88.1</ele>
        <time>2016-07-16T08:27:29Z</time>
      </trkpt>
      <trkpt lat="48.03947" lon="0.14588">
        <ele>90.98</ele>
        <time>2016-07-16T08:27:31Z</time>
      </trkpt>
      <trkpt lat="48.03754" lon="0.14309">
        <ele>90.98</ele>
        <time>2016-07-16T08:27:40Z</time>
      </trkpt>
      <trkpt lat="48.03675" lon="0.14196">
        <ele>94.83</ele>
        <time>2016-07-16T08:27:44Z</time>
      </trkpt>
      <trkpt lat="48.03654" lon="0.14166">
        <ele>94.83</ele>
        <time>2016-07-16T08:27:45Z</time>
      </trkpt>
      <trkpt lat="48.03612" lon="0.14104">
        <ele>92.9</ele>
        <time>2016-07-16T08:27:47Z</time>
      </trkpt>
      <trkpt lat="48.03463" lon="0.13892">
        <ele>95.31</ele>
        <time>2016-07-16T08:27:54Z</time>
      </trkpt>
      <trkpt lat="48.03406" lon="0.13819">
        <ele>92.42</ele>
        <time>2016-07-16T08:27:57Z</time>
      </trkpt>
      <trkpt lat="48.03211" lon="0.13617">
        <ele>91.46</ele>
        <time>2016-07-16T08:28:06Z</time>
      </trkpt>
      <trkpt lat="48.02999" lon="0.13468">
        <ele>89.54</ele>
        <time>2016-07-16T08:28:15Z</time>
      </trkpt>
      <trkpt lat="48.02913" lon="0.13425">
        <ele>90.98</ele>
        <time>2016-07-16T08:28:18Z</time>
      </trkpt>
      <trkpt lat="48.0263" lon="0.13328">
        <ele>92.42</ele>
        <time>2016-07-16T08:28:27Z</time>
      </trkpt>
      <trkpt lat="48.02506" lon="0.1328">
        <ele>95.31</ele>
        <time>2016-07-16T08:28:31Z</time>
      </trkpt>
      <trkpt lat="48.02224" lon="0.13115">
        <ele>97.71</ele>
        <time>2016-07-16T08:28:40Z</time>
      </trkpt>
      <trkpt lat="48.0207" lon="0.12986">
        <ele>101.08</ele>
        <time>2016-07-16T08:28:46Z</time>
      </trkpt>
      <trkpt lat="48.02015" lon="0.12932">
        <ele>102.04</ele>
        <time>2016-07-16T08:28:48Z</time>
      </trkpt>
      <trkpt lat="48.01811" lon="0.12691">
        <ele>105.4</ele>
        <time>2016-07-16T08:28:56Z</time>
      </trkpt>
      <trkpt lat="48.01766" lon="0.12629">
        <ele>106.36</ele>
        <time>2016-07-16T08:28:58Z</time>
      </trkpt>
      <trkpt lat="48.01636" lon="0.12415">
        <ele>109.73</ele>
        <time>2016-07-16T08:29:04Z</time>
      </trkpt>
      <trkpt lat="48.01486" lon="0.12103">
        <ele>111.65</ele>
        <time>2016-07-16T08:29:12Z</time>
      </trkpt>
      <trkpt lat="48.01354" lon="0.11708">
        <ele>112.13</ele>
        <time>2016-07-16T08:29:21Z</time>
      </trkpt>
      <trkpt lat="48.01289" lon="0.11431">
        <ele>110.69</ele>
        <time>2016-07-16T08:29:27Z</time>
      </trkpt>
      <trkpt lat="48.01144" lon="0.10839">
        <ele>109.25</ele>
        <time>2016-07-16T08:29:40Z</time>
      </trkpt>
      <trkpt lat="48.01086" lon="0.10668">
        <ele>107.32</ele>
        <time>2016-07-16T08:29:44Z</time>
      </trkpt>
      <trkpt lat="48.00945" lon="0.1035">
        <ele>105.4</ele>
        <time>2016-07-16T08:29:52Z</time>
      </trkpt>
      <trkpt lat="48.00796" lon="0.101">
        <ele>102.04</ele>
        <time>2016-07-16T08:29:59Z</time>
      </trkpt>
      <trkpt lat="48.00678" lon="0.09939">
        <ele>98.67</ele>
        <time>2016-07-16T08:30:04Z</time>
      </trkpt>
      <trkpt lat="48.00552" lon="0.0979">
        <ele>95.31</ele>
        <time>2016-07-16T08:30:09Z</time>
      </trkpt>
      <trkpt lat="48.00501" lon="0.09731">
        <ele>94.35</ele>
        <time>2016-07-16T08:30:11Z</time>
      </trkpt>
      <trkpt lat="48.00398" lon="0.09616">
        <ele>90.98</ele>
        <time>2016-07-16T08:30:15Z</time>
      </trkpt>
      <trkpt lat="48.00296" lon="0.09498">
        <ele>88.58</ele>
        <time>2016-07-16T08:30:19Z</time>
      </trkpt>
      <trkpt lat="48.00222" lon="0.09403">
        <ele>87.14</ele>
        <time>2016-07-16T08:30:22Z</time>
      </trkpt>
      <trkpt lat="48.00152" lon="0.09302">
        <ele>83.77</ele>
        <time>2016-07-16T08:30:25Z</time>
      </trkpt>
      <trkpt lat="48.00022" lon="0.09086">
        <ele>80.89</ele>
        <time>2016-07-16T08:30:31Z</time>
      </trkpt>
      <trkpt lat="47.99983" lon="0.0901">
        <ele>79.93</ele>
        <time>2016-07-16T08:30:33Z</time>
      </trkpt>
      <trkpt lat="47.99911" lon="0.08851">
        <ele>76.08</ele>
        <time>2016-07-16T08:30:37Z</time>
      </trkpt>
      <trkpt lat="47.99875" lon="0.08765">
        <ele>74.64</ele>
        <time>2016-07-16T08:30:39Z</time>
      </trkpt>
      <trkpt lat="47.9981" lon="0.08605">
        <ele>71.27</ele>
        <time>2016-07-16T08:30:43Z</time>
      </trkpt>
      <trkpt lat="47.99678" lon="0.08277">
        <ele>67.91</ele>
        <time>2016-07-16T08:30:51Z</time>
      </trkpt>
      <trkpt lat="47.99528" lon="0.07911">
        <ele>68.39</ele>
        <time>2016-07-16T08:31:00Z</time>
      </trkpt>
      <trkpt lat="47.99335" lon="0.07472">
        <ele>71.76</ele>
        <time>2016-07-16T08:31:11Z</time>
      </trkpt>
      <trkpt lat="47.9926" lon="0.07316">
        <ele>75.6</ele>
        <time>2016-07-16T08:31:15Z</time>
      </trkpt>
      <trkpt lat="47.9924" lon="0.07274">
        <ele>75.6</ele>
        <time>2016-07-16T08:31:16Z</time>
      </trkpt>
      <trkpt lat="47.99185" lon="0.07161">
        <ele>78.97</ele>
        <time>2016-07-16T08:31:19Z</time>
      </trkpt>
      <trkpt lat="47.99126" lon="0.07047">
        <ele>81.85</ele>
        <time>2016-07-16T08:31:22Z</time>
      </trkpt>
      <trkpt lat="47.98723" lon="0.06298">
        <ele>84.73</ele>
        <time>2016-07-16T08:31:42Z</time>
      </trkpt>
      <trkpt lat="47.98471" lon="0.05862">
        <ele>80.41</ele>
        <time>2016-07-16T08:31:54Z</time>
      </trkpt>
      <trkpt lat="47.9845" lon="0.05826">
        <ele>80.41</ele>
        <time>2016-07-16T08:31:55Z</time>
      </trkpt>
      <trkpt lat="47.98067" lon="0.05248">
        <ele>78.48</ele>
        <time>2016-07-16T08:32:12Z</time>
      </trkpt>
      <trkpt lat="47.97802" lon="0.04899">
        <ele>80.41</ele>
        <time>2016-07-16T08:32:23Z</time>
      </trkpt>
      <trkpt lat="47.9732" lon="0.04339">
        <ele>80.89</ele>
        <time>2016-07-16T08:32:42Z</time>
      </trkpt>
      <trkpt lat="47.97243" lon="0.04255">
        <ele>79.93</ele>
        <time>2016-07-16T08:32:45Z</time>
      </trkpt>
      <trkpt lat="47.97037" lon="0.04024">
        <ele>74.64</ele>
        <time>2016-07-16T08:32:53Z</time>
      </trkpt>
      <trkpt lat="47.97012" lon="0.03994">
        <ele>74.64</ele>
        <time>2016-07-16T08:32:54Z</time>
      </trkpt>
      <trkpt lat="47.96838" lon="0.03778">
        <ele>70.79</ele>
        <time>2016-07-16T08:33:01Z</time>
      </trkpt>
      <trkpt lat="47.96696" lon="0.03583">
        <ele>67.91</ele>
        <time>2016-07-16T08:33:07Z</time>
      </trkpt>
      <trkpt lat="47.96321" lon="0.02996">
        <ele>67.43</ele>
        <time>2016-07-16T08:33:24Z</time>
      </trkpt>
      <trkpt lat="47.96004" lon="0.02394">
        <ele>67.91</ele>
        <time>2016-07-16T08:33:40Z</time>
      </trkpt>
      <trkpt lat="47.95741" lon="0.01791">
        <ele>65.99</ele>
        <time>2016-07-16T08:33:55Z</time>
      </trkpt>
      <trkpt lat="47.95613" lon="0.01456">
        <ele>63.58</ele>
        <time>2016-07-16T08:34:03Z</time>
      </trkpt>
      <trkpt lat="47.95475" lon="0.01077">
        <ele>60.22</ele>
        <time>2016-07-16T08:34:12Z</time>
      </trkpt>
      <trkpt lat="47.95232" lon="0.00402">
        <ele>57.82</ele>
        <time>2016-07-16T08:34:28Z</time>
      </trkpt>
      <trkpt lat="47.95112" lon="9.0E-5">
        <ele>58.78</ele>
        <time>2016-07-16T08:34:37Z</time>
      </trkpt>
      <trkpt lat="47.94984" lon="-0.0051">
        <ele>57.34</ele>
        <time>2016-07-16T08:34:49Z</time>
      </trkpt>
      <trkpt lat="47.94857" lon="-0.01083">
        <ele>56.86</ele>
        <time>2016-07-16T08:35:03Z</time>
      </trkpt>
      <trkpt lat="47.94808" lon="-0.01307">
        <ele>60.22</ele>
        <time>2016-07-16T08:35:09Z</time>
      </trkpt>
      <trkpt lat="47.948" lon="-0.01344">
        <ele>60.22</ele>
        <time>2016-07-16T08:35:10Z</time>
      </trkpt>
      <trkpt lat="47.94783" lon="-0.01419">
        <ele>58.78</ele>
        <time>2016-07-16T08:35:12Z</time>
      </trkpt>
      <trkpt lat="47.94758" lon="-0.01532">
        <ele>62.14</ele>
        <time>2016-07-16T08:35:15Z</time>
      </trkpt>
      <trkpt lat="47.9475" lon="-0.01571">
        <ele>62.14</ele>
        <time>2016-07-16T08:35:16Z</time>
      </trkpt>
      <trkpt lat="47.94723" lon="-0.01691">
        <ele>66.47</ele>
        <time>2016-07-16T08:35:19Z</time>
      </trkpt>
      <trkpt lat="47.94677" lon="-0.01902">
        <ele>69.83</ele>
        <time>2016-07-16T08:35:24Z</time>
      </trkpt>
      <trkpt lat="47.94626" lon="-0.02124">
        <ele>73.68</ele>
        <time>2016-07-16T08:35:29Z</time>
      </trkpt>
      <trkpt lat="47.94569" lon="-0.02346">
        <ele>76.56</ele>
        <time>2016-07-16T08:35:34Z</time>
      </trkpt>
      <trkpt lat="47.9452" lon="-0.02524">
        <ele>78.48</ele>
        <time>2016-07-16T08:35:38Z</time>
      </trkpt>
      <trkpt lat="47.94338" lon="-0.03087">
        <ele>74.64</ele>
        <time>2016-07-16T08:35:51Z</time>
      </trkpt>
      <trkpt lat="47.94191" lon="-0.03451">
        <ele>71.27</ele>
        <time>2016-07-16T08:36:00Z</time>
      </trkpt>
      <trkpt lat="47.94114" lon="-0.03626">
        <ele>67.91</ele>
        <time>2016-07-16T08:36:05Z</time>
      </trkpt>
      <trkpt lat="47.93953" lon="-0.0396">
        <ele>64.55</ele>
        <time>2016-07-16T08:36:15Z</time>
      </trkpt>
      <trkpt lat="47.93696" lon="-0.04458">
        <ele>61.66</ele>
        <time>2016-07-16T08:36:31Z</time>
      </trkpt>
      <trkpt lat="47.9361" lon="-0.04627">
        <ele>62.62</ele>
        <time>2016-07-16T08:36:36Z</time>
      </trkpt>
      <trkpt lat="47.93574" lon="-0.047">
        <ele>60.7</ele>
        <time>2016-07-16T08:36:38Z</time>
      </trkpt>
      <trkpt lat="47.9341" lon="-0.05048">
        <ele>57.34</ele>
        <time>2016-07-16T08:36:47Z</time>
      </trkpt>
      <trkpt lat="47.93393" lon="-0.05088">
        <ele>57.34</ele>
        <time>2016-07-16T08:36:48Z</time>
      </trkpt>
      <trkpt lat="47.93307" lon="-0.05292">
        <ele>55.41</ele>
        <time>2016-07-16T08:36:53Z</time>
      </trkpt>
      <trkpt lat="47.93153" lon="-0.05657">
        <ele>52.05</ele>
        <time>2016-07-16T08:37:02Z</time>
      </trkpt>
      <trkpt lat="47.93084" lon="-0.05811">
        <ele>48.68</ele>
        <time>2016-07-16T08:37:06Z</time>
      </trkpt>
      <trkpt lat="47.92909" lon="-0.06176">
        <ele>46.76</ele>
        <time>2016-07-16T08:37:17Z</time>
      </trkpt>
      <trkpt lat="47.92803" lon="-0.06378">
        <ele>50.13</ele>
        <time>2016-07-16T08:37:24Z</time>
      </trkpt>
      <trkpt lat="47.92704" lon="-0.06558">
        <ele>53.97</ele>
        <time>2016-07-16T08:37:30Z</time>
      </trkpt>
      <trkpt lat="47.92633" lon="-0.06681">
        <ele>57.82</ele>
        <time>2016-07-16T08:37:34Z</time>
      </trkpt>
      <trkpt lat="47.92561" lon="-0.06801">
        <ele>61.66</ele>
        <time>2016-07-16T08:37:38Z</time>
      </trkpt>
      <trkpt lat="47.92487" lon="-0.06922">
        <ele>65.51</ele>
        <time>2016-07-16T08:37:42Z</time>
      </trkpt>
      <trkpt lat="47.92429" lon="-0.07014">
        <ele>69.35</ele>
        <time>2016-07-16T08:37:45Z</time>
      </trkpt>
      <trkpt lat="47.92389" lon="-0.07076">
        <ele>72.24</ele>
        <time>2016-07-16T08:37:47Z</time>
      </trkpt>
      <trkpt lat="47.92349" lon="-0.07138">
        <ele>74.64</ele>
        <time>2016-07-16T08:37:49Z</time>
      </trkpt>
      <trkpt lat="47.92286" lon="-0.07231">
        <ele>78</ele>
        <time>2016-07-16T08:37:52Z</time>
      </trkpt>
      <trkpt lat="47.92221" lon="-0.07326">
        <ele>81.37</ele>
        <time>2016-07-16T08:37:55Z</time>
      </trkpt>
      <trkpt lat="47.9213" lon="-0.07453">
        <ele>84.73</ele>
        <time>2016-07-16T08:37:59Z</time>
      </trkpt>
      <trkpt lat="47.92104" lon="-0.07487">
        <ele>84.73</ele>
        <time>2016-07-16T08:38:00Z</time>
      </trkpt>
      <trkpt lat="47.91734" lon="-0.07945">
        <ele>86.18</ele>
        <time>2016-07-16T08:38:15Z</time>
      </trkpt>
      <trkpt lat="47.91455" lon="-0.08248">
        <ele>88.58</ele>
        <time>2016-07-16T08:38:26Z</time>
      </trkpt>
      <trkpt lat="47.91404" lon="-0.08301">
        <ele>87.14</ele>
        <time>2016-07-16T08:38:28Z</time>
      </trkpt>
      <trkpt lat="47.91219" lon="-0.08489">
        <ele>85.21</ele>
        <time>2016-07-16T08:38:35Z</time>
      </trkpt>
      <trkpt lat="47.90927" lon="-0.08792">
        <ele>81.85</ele>
        <time>2016-07-16T08:38:46Z</time>
      </trkpt>
      <trkpt lat="47.90718" lon="-0.09017">
        <ele>78</ele>
        <time>2016-07-16T08:38:54Z</time>
      </trkpt>
      <trkpt lat="47.90691" lon="-0.09046">
        <ele>78</ele>
        <time>2016-07-16T08:38:55Z</time>
      </trkpt>
      <trkpt lat="47.90566" lon="-0.09192">
        <ele>74.64</ele>
        <time>2016-07-16T08:39:00Z</time>
      </trkpt>
      <trkpt lat="47.90467" lon="-0.09311">
        <ele>71.27</ele>
        <time>2016-07-16T08:39:04Z</time>
      </trkpt>
      <trkpt lat="47.90442" lon="-0.09341">
        <ele>71.27</ele>
        <time>2016-07-16T08:39:05Z</time>
      </trkpt>
      <trkpt lat="47.90317" lon="-0.09495">
        <ele>66.95</ele>
        <time>2016-07-16T08:39:10Z</time>
      </trkpt>
      <trkpt lat="47.90217" lon="-0.09619">
        <ele>63.58</ele>
        <time>2016-07-16T08:39:14Z</time>
      </trkpt>
      <trkpt lat="47.90166" lon="-0.09682">
        <ele>62.62</ele>
        <time>2016-07-16T08:39:16Z</time>
      </trkpt>
      <trkpt lat="47.90089" lon="-0.09778">
        <ele>61.18</ele>
        <time>2016-07-16T08:39:19Z</time>
      </trkpt>
      <trkpt lat="47.90013" lon="-0.09872">
        <ele>57.82</ele>
        <time>2016-07-16T08:39:22Z</time>
      </trkpt>
      <trkpt lat="47.89937" lon="-0.09967">
        <ele>54.45</ele>
        <time>2016-07-16T08:39:25Z</time>
      </trkpt>
      <trkpt lat="47.8981" lon="-0.10125">
        <ele>52.05</ele>
        <time>2016-07-16T08:39:30Z</time>
      </trkpt>
      <trkpt lat="47.89466" lon="-0.10551">
        <ele>52.53</ele>
        <time>2016-07-16T08:39:44Z</time>
      </trkpt>
      <trkpt lat="47.89392" lon="-0.10642">
        <ele>54.93</ele>
        <time>2016-07-16T08:39:47Z</time>
      </trkpt>
      <trkpt lat="47.89294" lon="-0.10756">
        <ele>57.82</ele>
        <time>2016-07-16T08:39:51Z</time>
      </trkpt>
      <trkpt lat="47.89269" lon="-0.10783">
        <ele>57.82</ele>
        <time>2016-07-16T08:39:52Z</time>
      </trkpt>
      <trkpt lat="47.89167" lon="-0.10886">
        <ele>61.66</ele>
        <time>2016-07-16T08:39:56Z</time>
      </trkpt>
      <trkpt lat="47.89083" lon="-0.10967">
        <ele>65.99</ele>
        <time>2016-07-16T08:39:59Z</time>
      </trkpt>
      <trkpt lat="47.89056" lon="-0.10992">
        <ele>65.99</ele>
        <time>2016-07-16T08:40:00Z</time>
      </trkpt>
      <trkpt lat="47.88924" lon="-0.11106">
        <ele>68.87</ele>
        <time>2016-07-16T08:40:05Z</time>
      </trkpt>
      <trkpt lat="47.88896" lon="-0.11129">
        <ele>68.87</ele>
        <time>2016-07-16T08:40:06Z</time>
      </trkpt>
      <trkpt lat="47.886" lon="-0.11345">
        <ele>68.87</ele>
        <time>2016-07-16T08:40:17Z</time>
      </trkpt>
      <trkpt lat="47.88409" lon="-0.1146">
        <ele>73.2</ele>
        <time>2016-07-16T08:40:24Z</time>
      </trkpt>
      <trkpt lat="47.8838" lon="-0.11476">
        <ele>73.2</ele>
        <time>2016-07-16T08:40:25Z</time>
      </trkpt>
      <trkpt lat="47.88322" lon="-0.11506">
        <ele>70.31</ele>
        <time>2016-07-16T08:40:27Z</time>
      </trkpt>
      <trkpt lat="47.87982" lon="-0.11651">
        <ele>70.79</ele>
        <time>2016-07-16T08:40:38Z</time>
      </trkpt>
      <trkpt lat="47.87926" lon="-0.1167">
        <ele>69.35</ele>
        <time>2016-07-16T08:40:40Z</time>
      </trkpt>
      <trkpt lat="47.87627" lon="-0.11748">
        <ele>65.99</ele>
        <time>2016-07-16T08:40:50Z</time>
      </trkpt>
      <trkpt lat="47.87237" lon="-0.11791">
        <ele>65.51</ele>
        <time>2016-07-16T08:41:03Z</time>
      </trkpt>
      <trkpt lat="47.86881" lon="-0.11782">
        <ele>65.03</ele>
        <time>2016-07-16T08:41:14Z</time>
      </trkpt>
      <trkpt lat="47.86813" lon="-0.11778">
        <ele>63.58</ele>
        <time>2016-07-16T08:41:16Z</time>
      </trkpt>
      <trkpt lat="47.86369" lon="-0.11758">
        <ele>62.14</ele>
        <time>2016-07-16T08:41:29Z</time>
      </trkpt>
      <trkpt lat="47.86003" lon="-0.11795">
        <ele>61.66</ele>
        <time>2016-07-16T08:41:40Z</time>
      </trkpt>
      <trkpt lat="47.8569" lon="-0.11875">
        <ele>58.78</ele>
        <time>2016-07-16T08:41:50Z</time>
      </trkpt>
      <trkpt lat="47.85447" lon="-0.11969">
        <ele>59.74</ele>
        <time>2016-07-16T08:41:58Z</time>
      </trkpt>
      <trkpt lat="47.8512" lon="-0.12146">
        <ele>58.3</ele>
        <time>2016-07-16T08:42:09Z</time>
      </trkpt>
      <trkpt lat="47.84885" lon="-0.12307">
        <ele>54.45</ele>
        <time>2016-07-16T08:42:17Z</time>
      </trkpt>
      <trkpt lat="47.84685" lon="-0.12469">
        <ele>51.09</ele>
        <time>2016-07-16T08:42:24Z</time>
      </trkpt>
      <trkpt lat="47.84657" lon="-0.12493">
        <ele>51.09</ele>
        <time>2016-07-16T08:42:25Z</time>
      </trkpt>
      <trkpt lat="47.84518" lon="-0.12621">
        <ele>47.72</ele>
        <time>2016-07-16T08:42:30Z</time>
      </trkpt>
      <trkpt lat="47.84383" lon="-0.12749">
        <ele>44.36</ele>
        <time>2016-07-16T08:42:35Z</time>
      </trkpt>
      <trkpt lat="47.84222" lon="-0.12904">
        <ele>40.99</ele>
        <time>2016-07-16T08:42:41Z</time>
      </trkpt>
      <trkpt lat="47.8409" lon="-0.13034">
        <ele>39.07</ele>
        <time>2016-07-16T08:42:46Z</time>
      </trkpt>
      <trkpt lat="47.83575" lon="-0.13582">
        <ele>41.95</ele>
        <time>2016-07-16T08:43:06Z</time>
      </trkpt>
      <trkpt lat="47.83478" lon="-0.13703">
        <ele>44.36</ele>
        <time>2016-07-16T08:43:10Z</time>
      </trkpt>
      <trkpt lat="47.83382" lon="-0.13829">
        <ele>45.8</ele>
        <time>2016-07-16T08:43:14Z</time>
      </trkpt>
      <trkpt lat="47.83165" lon="-0.14119">
        <ele>49.16</ele>
        <time>2016-07-16T08:43:23Z</time>
      </trkpt>
      <trkpt lat="47.83141" lon="-0.1415">
        <ele>49.16</ele>
        <time>2016-07-16T08:43:24Z</time>
      </trkpt>
      <trkpt lat="47.82969" lon="-0.14369">
        <ele>53.01</ele>
        <time>2016-07-16T08:43:31Z</time>
      </trkpt>
      <trkpt lat="47.82944" lon="-0.144">
        <ele>53.01</ele>
        <time>2016-07-16T08:43:32Z</time>
      </trkpt>
      <trkpt lat="47.8287" lon="-0.14492">
        <ele>53.97</ele>
        <time>2016-07-16T08:43:35Z</time>
      </trkpt>
      <trkpt lat="47.82712" lon="-0.14681">
        <ele>56.37</ele>
        <time>2016-07-16T08:43:41Z</time>
      </trkpt>
      <trkpt lat="47.82436" lon="-0.14994">
        <ele>59.26</ele>
        <time>2016-07-16T08:43:52Z</time>
      </trkpt>
      <trkpt lat="47.82332" lon="-0.15107">
        <ele>56.86</ele>
        <time>2016-07-16T08:43:56Z</time>
      </trkpt>
      <trkpt lat="47.82202" lon="-0.1525">
        <ele>54.45</ele>
        <time>2016-07-16T08:44:01Z</time>
      </trkpt>
      <trkpt lat="47.82042" lon="-0.15415">
        <ele>51.09</ele>
        <time>2016-07-16T08:44:07Z</time>
      </trkpt>
      <trkpt lat="47.81881" lon="-0.15576">
        <ele>47.72</ele>
        <time>2016-07-16T08:44:13Z</time>
      </trkpt>
      <trkpt lat="47.81855" lon="-0.15602">
        <ele>47.72</ele>
        <time>2016-07-16T08:44:14Z</time>
      </trkpt>
      <trkpt lat="47.81691" lon="-0.15757">
        <ele>44.36</ele>
        <time>2016-07-16T08:44:20Z</time>
      </trkpt>
      <trkpt lat="47.81415" lon="-0.16008">
        <ele>40.99</ele>
        <time>2016-07-16T08:44:30Z</time>
      </trkpt>
      <trkpt lat="47.80954" lon="-0.16395">
        <ele>41.95</ele>
        <time>2016-07-16T08:44:46Z</time>
      </trkpt>
      <trkpt lat="47.80743" lon="-0.16574">
        <ele>45.32</ele>
        <time>2016-07-16T08:44:54Z</time>
      </trkpt>
      <trkpt lat="47.80463" lon="-0.16813">
        <ele>48.2</ele>
        <time>2016-07-16T08:45:04Z</time>
      </trkpt>
      <trkpt lat="47.79987" lon="-0.17209">
        <ele>45.8</ele>
        <time>2016-07-16T08:45:21Z</time>
      </trkpt>
      <trkpt lat="47.79796" lon="-0.17375">
        <ele>48.2</ele>
        <time>2016-07-16T08:45:28Z</time>
      </trkpt>
      <trkpt lat="47.79438" lon="-0.17733">
        <ele>48.68</ele>
        <time>2016-07-16T08:45:41Z</time>
      </trkpt>
      <trkpt lat="47.79213" lon="-0.18004">
        <ele>52.53</ele>
        <time>2016-07-16T08:45:50Z</time>
      </trkpt>
      <trkpt lat="47.79101" lon="-0.18152">
        <ele>53.01</ele>
        <time>2016-07-16T08:45:55Z</time>
      </trkpt>
      <trkpt lat="47.78937" lon="-0.18385">
        <ele>57.34</ele>
        <time>2016-07-16T08:46:02Z</time>
      </trkpt>
      <trkpt lat="47.78825" lon="-0.18559">
        <ele>57.82</ele>
        <time>2016-07-16T08:46:07Z</time>
      </trkpt>
      <trkpt lat="47.78536" lon="-0.19078">
        <ele>57.82</ele>
        <time>2016-07-16T08:46:21Z</time>
      </trkpt>
      <trkpt lat="47.78498" lon="-0.19156">
        <ele>61.18</ele>
        <time>2016-07-16T08:46:23Z</time>
      </trkpt>
      <trkpt lat="47.78479" lon="-0.19195">
        <ele>56.37</ele>
        <time>2016-07-16T08:46:24Z</time>
      </trkpt>
      <trkpt lat="47.7846" lon="-0.19235">
        <ele>56.37</ele>
        <time>2016-07-16T08:46:25Z</time>
      </trkpt>
      <trkpt lat="47.78204" lon="-0.19847">
        <ele>54.45</ele>
        <time>2016-07-16T08:46:40Z</time>
      </trkpt>
      <trkpt lat="47.77904" lon="-0.20592">
        <ele>53.01</ele>
        <time>2016-07-16T08:46:58Z</time>
      </trkpt>
      <trkpt lat="47.77617" lon="-0.21163">
        <ele>53.01</ele>
        <time>2016-07-16T08:47:13Z</time>
      </trkpt>
      <trkpt lat="47.77315" lon="-0.21657">
        <ele>52.53</ele>
        <time>2016-07-16T08:47:27Z</time>
      </trkpt>
      <trkpt lat="47.76982" lon="-0.2211">
        <ele>52.05</ele>
        <time>2016-07-16T08:47:41Z</time>
      </trkpt>
      <trkpt lat="47.76757" lon="-0.22375">
        <ele>49.65</ele>
        <time>2016-07-16T08:47:50Z</time>
      </trkpt>
      <trkpt lat="47.76576" lon="-0.22564">
        <ele>51.09</ele>
        <time>2016-07-16T08:47:57Z</time>
      </trkpt>
      <trkpt lat="47.76415" lon="-0.22719">
        <ele>52.53</ele>
        <time>2016-07-16T08:48:03Z</time>
      </trkpt>
      <trkpt lat="47.76332" lon="-0.22793">
        <ele>54.45</ele>
        <time>2016-07-16T08:48:06Z</time>
      </trkpt>
      <trkpt lat="47.76276" lon="-0.22842">
        <ele>53.01</ele>
        <time>2016-07-16T08:48:08Z</time>
      </trkpt>
      <trkpt lat="47.76135" lon="-0.2296">
        <ele>54.45</ele>
        <time>2016-07-16T08:48:13Z</time>
      </trkpt>
      <trkpt lat="47.75771" lon="-0.2327">
        <ele>57.34</ele>
        <time>2016-07-16T08:48:26Z</time>
      </trkpt>
      <trkpt lat="47.7555" lon="-0.23468">
        <ele>60.7</ele>
        <time>2016-07-16T08:48:34Z</time>
      </trkpt>
      <trkpt lat="47.75494" lon="-0.23517">
        <ele>61.66</ele>
        <time>2016-07-16T08:48:36Z</time>
      </trkpt>
      <trkpt lat="47.75105" lon="-0.23865">
        <ele>57.82</ele>
        <time>2016-07-16T08:48:50Z</time>
      </trkpt>
      <trkpt lat="47.75022" lon="-0.23938">
        <ele>56.37</ele>
        <time>2016-07-16T08:48:53Z</time>
      </trkpt>
      <trkpt lat="47.74882" lon="-0.24061">
        <ele>53.01</ele>
        <time>2016-07-16T08:48:58Z</time>
      </trkpt>
      <trkpt lat="47.74827" lon="-0.24109">
        <ele>52.05</ele>
        <time>2016-07-16T08:49:00Z</time>
      </trkpt>
      <trkpt lat="47.74714" lon="-0.24203">
        <ele>49.65</ele>
        <time>2016-07-16T08:49:04Z</time>
      </trkpt>
      <trkpt lat="47.74336" lon="-0.24465">
        <ele>47.72</ele>
        <time>2016-07-16T08:49:17Z</time>
      </trkpt>
      <trkpt lat="47.74" lon="-0.2463">
        <ele>50.13</ele>
        <time>2016-07-16T08:49:28Z</time>
      </trkpt>
      <trkpt lat="47.73656" lon="-0.24752">
        <ele>53.49</ele>
        <time>2016-07-16T08:49:39Z</time>
      </trkpt>
      <trkpt lat="47.73624" lon="-0.24762">
        <ele>53.49</ele>
        <time>2016-07-16T08:49:40Z</time>
      </trkpt>
      <trkpt lat="47.72895" lon="-0.24969">
        <ele>55.89</ele>
        <time>2016-07-16T08:50:03Z</time>
      </trkpt>
      <trkpt lat="47.72385" lon="-0.2509">
        <ele>59.26</ele>
        <time>2016-07-16T08:50:19Z</time>
      </trkpt>
      <trkpt lat="47.72013" lon="-0.25126">
        <ele>56.86</ele>
        <time>2016-07-16T08:50:31Z</time>
      </trkpt>
      <trkpt lat="47.71988" lon="-0.25126">
        <ele>56.86</ele>
        <time>2016-07-16T08:50:32Z</time>
      </trkpt>
      <trkpt lat="47.71863" lon="-0.25125">
        <ele>58.3</ele>
        <time>2016-07-16T08:50:37Z</time>
      </trkpt>
      <trkpt lat="47.71559" lon="-0.25095">
        <ele>59.26</ele>
        <time>2016-07-16T08:50:48Z</time>
      </trkpt>
      <trkpt lat="47.71471" lon="-0.25082">
        <ele>57.82</ele>
        <time>2016-07-16T08:50:51Z</time>
      </trkpt>
      <trkpt lat="47.71353" lon="-0.25062">
        <ele>57.34</ele>
        <time>2016-07-16T08:50:55Z</time>
      </trkpt>
      <trkpt lat="47.71041" lon="-0.25011">
        <ele>57.82</ele>
        <time>2016-07-16T08:51:05Z</time>
      </trkpt>
      <trkpt lat="47.70761" lon="-0.24965">
        <ele>54.93</ele>
        <time>2016-07-16T08:51:14Z</time>
      </trkpt>
      <trkpt lat="47.70641" lon="-0.24947">
        <ele>51.57</ele>
        <time>2016-07-16T08:51:18Z</time>
      </trkpt>
      <trkpt lat="47.70524" lon="-0.24932">
        <ele>47.72</ele>
        <time>2016-07-16T08:51:22Z</time>
      </trkpt>
      <trkpt lat="47.70435" lon="-0.24922">
        <ele>46.28</ele>
        <time>2016-07-16T08:51:25Z</time>
      </trkpt>
      <trkpt lat="47.70287" lon="-0.24911">
        <ele>42.92</ele>
        <time>2016-07-16T08:51:30Z</time>
      </trkpt>
      <trkpt lat="47.70258" lon="-0.2491">
        <ele>42.92</ele>
        <time>2016-07-16T08:51:31Z</time>
      </trkpt>
      <trkpt lat="47.70168" lon="-0.24907">
        <ele>41.47</ele>
        <time>2016-07-16T08:51:34Z</time>
      </trkpt>
      <trkpt lat="47.69912" lon="-0.24906">
        <ele>39.55</ele>
        <time>2016-07-16T08:51:42Z</time>
      </trkpt>
      <trkpt lat="47.6972" lon="-0.24915">
        <ele>35.71</ele>
        <time>2016-07-16T08:51:48Z</time>
      </trkpt>
      <trkpt lat="47.695" lon="-0.24937">
        <ele>32.34</ele>
        <time>2016-07-16T08:51:55Z</time>
      </trkpt>
      <trkpt lat="47.69411" lon="-0.24949">
        <ele>34.26</ele>
        <time>2016-07-16T08:51:58Z</time>
      </trkpt>
      <trkpt lat="47.69351" lon="-0.24959">
        <ele>32.82</ele>
        <time>2016-07-16T08:52:00Z</time>
      </trkpt>
      <trkpt lat="47.69194" lon="-0.24988">
        <ele>34.74</ele>
        <time>2016-07-16T08:52:05Z</time>
      </trkpt>
      <trkpt lat="47.6913" lon="-0.25001">
        <ele>33.3</ele>
        <time>2016-07-16T08:52:07Z</time>
      </trkpt>
      <trkpt lat="47.68688" lon="-0.25123">
        <ele>35.71</ele>
        <time>2016-07-16T08:52:21Z</time>
      </trkpt>
      <trkpt lat="47.68406" lon="-0.25216">
        <ele>39.07</ele>
        <time>2016-07-16T08:52:30Z</time>
      </trkpt>
      <trkpt lat="47.68311" lon="-0.2525">
        <ele>40.99</ele>
        <time>2016-07-16T08:52:33Z</time>
      </trkpt>
      <trkpt lat="47.67976" lon="-0.25397">
        <ele>43.88</ele>
        <time>2016-07-16T08:52:44Z</time>
      </trkpt>
      <trkpt lat="47.67825" lon="-0.25481">
        <ele>46.76</ele>
        <time>2016-07-16T08:52:49Z</time>
      </trkpt>
      <trkpt lat="47.67677" lon="-0.25575">
        <ele>49.65</ele>
        <time>2016-07-16T08:52:54Z</time>
      </trkpt>
      <trkpt lat="47.67618" lon="-0.25615">
        <ele>48.68</ele>
        <time>2016-07-16T08:52:56Z</time>
      </trkpt>
      <trkpt lat="47.67417" lon="-0.25769">
        <ele>50.13</ele>
        <time>2016-07-16T08:53:03Z</time>
      </trkpt>
      <trkpt lat="47.67062" lon="-0.26097">
        <ele>53.49</ele>
        <time>2016-07-16T08:53:16Z</time>
      </trkpt>
      <trkpt lat="47.6693" lon="-0.26236">
        <ele>54.93</ele>
        <time>2016-07-16T08:53:21Z</time>
      </trkpt>
      <trkpt lat="47.66799" lon="-0.26375">
        <ele>57.34</ele>
        <time>2016-07-16T08:53:26Z</time>
      </trkpt>
      <trkpt lat="47.66461" lon="-0.26737">
        <ele>55.89</ele>
        <time>2016-07-16T08:53:39Z</time>
      </trkpt>
      <trkpt lat="47.66352" lon="-0.26838">
        <ele>53.01</ele>
        <time>2016-07-16T08:53:43Z</time>
      </trkpt>
      <trkpt lat="47.66296" lon="-0.26886">
        <ele>52.05</ele>
        <time>2016-07-16T08:53:45Z</time>
      </trkpt>
      <trkpt lat="47.6621" lon="-0.26952">
        <ele>50.61</ele>
        <time>2016-07-16T08:53:48Z</time>
      </trkpt>
      <trkpt lat="47.66094" lon="-0.27029">
        <ele>48.2</ele>
        <time>2016-07-16T08:53:52Z</time>
      </trkpt>
      <trkpt lat="47.65974" lon="-0.27098">
        <ele>44.84</ele>
        <time>2016-07-16T08:53:56Z</time>
      </trkpt>
      <trkpt lat="47.65881" lon="-0.27142">
        <ele>40.99</ele>
        <time>2016-07-16T08:53:59Z</time>
      </trkpt>
      <trkpt lat="47.65787" lon="-0.27181">
        <ele>37.15</ele>
        <time>2016-07-16T08:54:02Z</time>
      </trkpt>
      <trkpt lat="47.6566" lon="-0.27224">
        <ele>33.78</ele>
        <time>2016-07-16T08:54:06Z</time>
      </trkpt>
      <trkpt lat="47.65565" lon="-0.27251">
        <ele>32.34</ele>
        <time>2016-07-16T08:54:09Z</time>
      </trkpt>
      <trkpt lat="47.65211" lon="-0.27333">
        <ele>33.3</ele>
        <time>2016-07-16T08:54:20Z</time>
      </trkpt>
      <trkpt lat="47.64858" lon="-0.27388">
        <ele>36.67</ele>
        <time>2016-07-16T08:54:31Z</time>
      </trkpt>
      <trkpt lat="47.64762" lon="-0.27396">
        <ele>39.55</ele>
        <time>2016-07-16T08:54:34Z</time>
      </trkpt>
      <trkpt lat="47.64666" lon="-0.27404">
        <ele>41.95</ele>
        <time>2016-07-16T08:54:37Z</time>
      </trkpt>
      <trkpt lat="47.64441" lon="-0.27424">
        <ele>45.8</ele>
        <time>2016-07-16T08:54:44Z</time>
      </trkpt>
      <trkpt lat="47.64409" lon="-0.27427">
        <ele>45.8</ele>
        <time>2016-07-16T08:54:45Z</time>
      </trkpt>
      <trkpt lat="47.64281" lon="-0.27438">
        <ele>49.16</ele>
        <time>2016-07-16T08:54:49Z</time>
      </trkpt>
      <trkpt lat="47.64153" lon="-0.27449">
        <ele>52.53</ele>
        <time>2016-07-16T08:54:53Z</time>
      </trkpt>
      <trkpt lat="47.63928" lon="-0.27467">
        <ele>56.37</ele>
        <time>2016-07-16T08:55:00Z</time>
      </trkpt>
      <trkpt lat="47.63896" lon="-0.27469">
        <ele>56.37</ele>
        <time>2016-07-16T08:55:01Z</time>
      </trkpt>
      <trkpt lat="47.63799" lon="-0.27475">
        <ele>57.82</ele>
        <time>2016-07-16T08:55:04Z</time>
      </trkpt>
      <trkpt lat="47.63426" lon="-0.27518">
        <ele>57.34</ele>
        <time>2016-07-16T08:55:16Z</time>
      </trkpt>
      <trkpt lat="47.63136" lon="-0.27603">
        <ele>53.97</ele>
        <time>2016-07-16T08:55:26Z</time>
      </trkpt>
      <trkpt lat="47.62847" lon="-0.27741">
        <ele>53.01</ele>
        <time>2016-07-16T08:55:36Z</time>
      </trkpt>
      <trkpt lat="47.62546" lon="-0.27947">
        <ele>50.61</ele>
        <time>2016-07-16T08:55:46Z</time>
      </trkpt>
      <trkpt lat="47.62517" lon="-0.2797">
        <ele>50.61</ele>
        <time>2016-07-16T08:55:47Z</time>
      </trkpt>
      <trkpt lat="47.62192" lon="-0.2828">
        <ele>48.2</ele>
        <time>2016-07-16T08:55:59Z</time>
      </trkpt>
      <trkpt lat="47.61922" lon="-0.28621">
        <ele>45.8</ele>
        <time>2016-07-16T08:56:10Z</time>
      </trkpt>
      <trkpt lat="47.61642" lon="-0.29014">
        <ele>42.44</ele>
        <time>2016-07-16T08:56:22Z</time>
      </trkpt>
      <trkpt lat="47.61247" lon="-0.29568">
        <ele>44.84</ele>
        <time>2016-07-16T08:56:39Z</time>
      </trkpt>
      <trkpt lat="47.61153" lon="-0.29695">
        <ele>48.2</ele>
        <time>2016-07-16T08:56:43Z</time>
      </trkpt>
      <trkpt lat="47.61055" lon="-0.29817">
        <ele>53.01</ele>
        <time>2016-07-16T08:56:47Z</time>
      </trkpt>
      <trkpt lat="47.6098" lon="-0.29906">
        <ele>56.86</ele>
        <time>2016-07-16T08:56:50Z</time>
      </trkpt>
      <trkpt lat="47.60905" lon="-0.29994">
        <ele>60.7</ele>
        <time>2016-07-16T08:56:53Z</time>
      </trkpt>
      <trkpt lat="47.60831" lon="-0.30079">
        <ele>63.58</ele>
        <time>2016-07-16T08:56:56Z</time>
      </trkpt>
      <trkpt lat="47.6078" lon="-0.30136">
        <ele>66.95</ele>
        <time>2016-07-16T08:56:58Z</time>
      </trkpt>
      <trkpt lat="47.60703" lon="-0.3022">
        <ele>70.31</ele>
        <time>2016-07-16T08:57:01Z</time>
      </trkpt>
      <trkpt lat="47.60677" lon="-0.30248">
        <ele>70.31</ele>
        <time>2016-07-16T08:57:02Z</time>
      </trkpt>
      <trkpt lat="47.6036" lon="-0.30585">
        <ele>66.47</ele>
        <time>2016-07-16T08:57:14Z</time>
      </trkpt>
      <trkpt lat="47.60279" lon="-0.3067">
        <ele>63.1</ele>
        <time>2016-07-16T08:57:17Z</time>
      </trkpt>
      <trkpt lat="47.60227" lon="-0.30725">
        <ele>62.14</ele>
        <time>2016-07-16T08:57:19Z</time>
      </trkpt>
      <trkpt lat="47.60174" lon="-0.30782">
        <ele>59.26</ele>
        <time>2016-07-16T08:57:21Z</time>
      </trkpt>
      <trkpt lat="47.60095" lon="-0.30867">
        <ele>55.89</ele>
        <time>2016-07-16T08:57:24Z</time>
      </trkpt>
      <trkpt lat="47.60017" lon="-0.30954">
        <ele>52.05</ele>
        <time>2016-07-16T08:57:27Z</time>
      </trkpt>
      <trkpt lat="47.59915" lon="-0.31075">
        <ele>48.2</ele>
        <time>2016-07-16T08:57:31Z</time>
      </trkpt>
      <trkpt lat="47.59477" lon="-0.31631">
        <ele>45.8</ele>
        <time>2016-07-16T08:57:49Z</time>
      </trkpt>
      <trkpt lat="47.59101" lon="-0.32152">
        <ele>42.92</ele>
        <time>2016-07-16T08:58:05Z</time>
      </trkpt>
      <trkpt lat="47.58725" lon="-0.32669">
        <ele>41.95</ele>
        <time>2016-07-16T08:58:21Z</time>
      </trkpt>
      <trkpt lat="47.58459" lon="-0.33008">
        <ele>45.32</ele>
        <time>2016-07-16T08:58:32Z</time>
      </trkpt>
      <trkpt lat="47.58193" lon="-0.33271">
        <ele>46.76</ele>
        <time>2016-07-16T08:58:42Z</time>
      </trkpt>
      <trkpt lat="47.58163" lon="-0.33294">
        <ele>46.76</ele>
        <time>2016-07-16T08:58:43Z</time>
      </trkpt>
      <trkpt lat="47.58077" lon="-0.33354">
        <ele>42.44</ele>
        <time>2016-07-16T08:58:46Z</time>
      </trkpt>
      <trkpt lat="47.57956" lon="-0.33423">
        <ele>38.11</ele>
        <time>2016-07-16T08:58:50Z</time>
      </trkpt>
      <trkpt lat="47.57706" lon="-0.33507">
        <ele>37.15</ele>
        <time>2016-07-16T08:58:58Z</time>
      </trkpt>
      <trkpt lat="47.57578" lon="-0.33522">
        <ele>38.59</ele>
        <time>2016-07-16T08:59:02Z</time>
      </trkpt>
      <trkpt lat="47.57419" lon="-0.33516">
        <ele>41.47</ele>
        <time>2016-07-16T08:59:07Z</time>
      </trkpt>
      <trkpt lat="47.57259" lon="-0.33481">
        <ele>42.92</ele>
        <time>2016-07-16T08:59:12Z</time>
      </trkpt>
      <trkpt lat="47.57013" lon="-0.33372">
        <ele>45.32</ele>
        <time>2016-07-16T08:59:20Z</time>
      </trkpt>
      <trkpt lat="47.56954" lon="-0.33334">
        <ele>46.28</ele>
        <time>2016-07-16T08:59:22Z</time>
      </trkpt>
      <trkpt lat="47.56716" lon="-0.33188">
        <ele>49.16</ele>
        <time>2016-07-16T08:59:30Z</time>
      </trkpt>
      <trkpt lat="47.56624" lon="-0.33146">
        <ele>51.09</ele>
        <time>2016-07-16T08:59:33Z</time>
      </trkpt>
      <trkpt lat="47.56335" lon="-0.3307">
        <ele>50.61</ele>
        <time>2016-07-16T08:59:42Z</time>
      </trkpt>
      <trkpt lat="47.5624" lon="-0.33062">
        <ele>49.16</ele>
        <time>2016-07-16T08:59:45Z</time>
      </trkpt>
      <trkpt lat="47.56143" lon="-0.33062">
        <ele>47.72</ele>
        <time>2016-07-16T08:59:48Z</time>
      </trkpt>
      <trkpt lat="47.56079" lon="-0.33066">
        <ele>49.65</ele>
        <time>2016-07-16T08:59:50Z</time>
      </trkpt>
      <trkpt lat="47.56015" lon="-0.33075">
        <ele>45.8</ele>
        <time>2016-07-16T08:59:52Z</time>
      </trkpt>
      <trkpt lat="47.55952" lon="-0.33088">
        <ele>44.84</ele>
        <time>2016-07-16T08:59:54Z</time>
      </trkpt>
      <trkpt lat="47.55766" lon="-0.3315">
        <ele>41.47</ele>
        <time>2016-07-16T09:00:00Z</time>
      </trkpt>
      <trkpt lat="47.55704" lon="-0.33178">
        <ele>40.99</ele>
        <time>2016-07-16T09:00:02Z</time>
      </trkpt>
      <trkpt lat="47.55439" lon="-0.33341">
        <ele>38.59</ele>
        <time>2016-07-16T09:00:11Z</time>
      </trkpt>
      <trkpt lat="47.55204" lon="-0.33549">
        <ele>38.11</ele>
        <time>2016-07-16T09:00:20Z</time>
      </trkpt>
      <trkpt lat="47.55079" lon="-0.33656">
        <ele>36.67</ele>
        <time>2016-07-16T09:00:26Z</time>
      </trkpt>
      <trkpt lat="47.54993" lon="-0.33721">
        <ele>34.26</ele>
        <time>2016-07-16T09:00:32Z</time>
      </trkpt>
      <trkpt lat="47.54946" lon="-0.33756">
        <ele>33.78</ele>
        <time>2016-07-16T09:00:39Z</time>
      </trkpt>
      <trkpt lat="47.54921" lon="-0.33775">
        <ele>33.78</ele>
        <time>2016-07-16T09:00:49Z</time>
      </trkpt>
      <trkpt lat="47.54913" lon="-0.33781">
        <ele>35.71</ele>
        <time>2016-07-16T09:00:58Z</time>
      </trkpt>
      <trkpt lat="47.54904" lon="-0.33789">
        <ele>35.71</ele>
        <time>2016-07-16T09:01:11Z</time>
      </trkpt>
      <trkpt lat="47.54886" lon="-0.338">
        <ele>35.71</ele>
        <time>2016-07-16T09:01:27Z</time>
      </trkpt>
      <trkpt lat="47.54846" lon="-0.33825">
        <ele>36.67</ele>
        <time>2016-07-16T09:01:39Z</time>
      </trkpt>
      <trkpt lat="47.54777" lon="-0.33867">
        <ele>37.15</ele>
        <time>2016-07-16T09:01:52Z</time>
      </trkpt>
      <trkpt lat="47.54692" lon="-0.33912">
        <ele>38.11</ele>
        <time>2016-07-16T09:02:05Z</time>
      </trkpt>
      <trkpt lat="47.54561" lon="-0.33969">
        <ele>40.51</ele>
        <time>2016-07-16T09:02:17Z</time>
      </trkpt>
      <trkpt lat="47.54431" lon="-0.34013">
        <ele>40.51</ele>
        <time>2016-07-16T09:02:29Z</time>
      </trkpt>
      <trkpt lat="47.5437" lon="-0.34032">
        <ele>39.07</ele>
        <time>2016-07-16T09:02:39Z</time>
      </trkpt>
      <trkpt lat="47.54316" lon="-0.3405">
        <ele>39.07</ele>
        <time>2016-07-16T09:02:54Z</time>
      </trkpt>
      <trkpt lat="47.54307" lon="-0.34052">
        <ele>39.07</ele>
        <time>2016-07-16T09:03:03Z</time>
      </trkpt>
      <trkpt lat="47.54307" lon="-0.34053">
        <ele>39.07</ele>
        <time>2016-07-16T09:03:08Z</time>
      </trkpt>
      <trkpt lat="47.54305" lon="-0.34053">
        <ele>39.07</ele>
        <time>2016-07-16T09:03:09Z</time>
      </trkpt>
      <trkpt lat="47.54252" lon="-0.3407">
        <ele>39.07</ele>
        <time>2016-07-16T09:03:22Z</time>
      </trkpt>
      <trkpt lat="47.54216" lon="-0.3408">
        <ele>40.03</ele>
        <time>2016-07-16T09:03:32Z</time>
      </trkpt>
      <trkpt lat="47.54178" lon="-0.34093">
        <ele>40.03</ele>
        <time>2016-07-16T09:03:46Z</time>
      </trkpt>
      <trkpt lat="47.54127" lon="-0.34114">
        <ele>40.51</ele>
        <time>2016-07-16T09:03:54Z</time>
      </trkpt>
      <trkpt lat="47.54097" lon="-0.34124">
        <ele>40.51</ele>
        <time>2016-07-16T09:04:03Z</time>
      </trkpt>
      <trkpt lat="47.54089" lon="-0.34126">
        <ele>40.51</ele>
        <time>2016-07-16T09:04:17Z</time>
      </trkpt>
      <trkpt lat="47.54089" lon="-0.34125">
        <ele>40.51</ele>
        <time>2016-07-16T09:04:36Z</time>
      </trkpt>
      <trkpt lat="47.54087" lon="-0.34126">
        <ele>40.51</ele>
        <time>2016-07-16T09:04:37Z</time>
      </trkpt>
      <trkpt lat="47.54078" lon="-0.34129">
        <ele>40.99</ele>
        <time>2016-07-16T09:04:53Z</time>
      </trkpt>
      <trkpt lat="47.54076" lon="-0.34129">
        <ele>40.99</ele>
        <time>2016-07-16T09:05:34Z</time>
      </trkpt>
      <trkpt lat="47.54074" lon="-0.3413">
        <ele>40.99</ele>
        <time>2016-07-16T09:05:35Z</time>
      </trkpt>
      <trkpt lat="47.54072" lon="-0.34131">
        <ele>40.99</ele>
        <time>2016-07-16T09:05:36Z</time>
      </trkpt>
      <trkpt lat="47.5407" lon="-0.34131">
        <ele>40.99</ele>
        <time>2016-07-16T09:05:37Z</time>
      </trkpt>
      <trkpt lat="47.5407" lon="-0.34131">
        <ele>40.99</ele>
        <time>2016-07-16T09:05:53Z</time>
      </trkpt>
      <trkpt lat="47.54069" lon="-0.34132">
        <ele>40.99</ele>
        <time>2016-07-16T09:05:55Z</time>
      </trkpt>
      <trkpt lat="47.54067" lon="-0.34132">
        <ele>40.99</ele>
        <time>2016-07-16T09:05:56Z</time>
      </trkpt>
      <trkpt lat="47.54063" lon="-0.34135">
        <ele>40.99</ele>
        <time>2016-07-16T09:06:11Z</time>
      </trkpt>
      <trkpt lat="47.54061" lon="-0.34135">
        <ele>40.99</ele>
        <time>2016-07-16T09:06:47Z</time>
      </trkpt>
      <trkpt lat="47.54059" lon="-0.34134">
        <ele>41.47</ele>
        <time>2016-07-16T09:07:21Z</time>
      </trkpt>
      <trkpt lat="47.54055" lon="-0.34135">
        <ele>41.47</ele>
        <time>2016-07-16T09:07:50Z</time>
      </trkpt>
      <trkpt lat="47.5405" lon="-0.34137">
        <ele>41.47</ele>
        <time>2016-07-16T09:08:21Z</time>
      </trkpt>
      <trkpt lat="47.54044" lon="-0.34138">
        <ele>41.95</ele>
        <time>2016-07-16T09:08:35Z</time>
      </trkpt>
      <trkpt lat="47.54044" lon="-0.34137">
        <ele>41.95</ele>
        <time>2016-07-16T09:08:50Z</time>
      </trkpt>
      <trkpt lat="47.54043" lon="-0.34138">
        <ele>41.95</ele>
        <time>2016-07-16T09:08:51Z</time>
      </trkpt>
      <trkpt lat="47.54041" lon="-0.34138">
        <ele>41.95</ele>
        <time>2016-07-16T09:08:52Z</time>
      </trkpt>
      <trkpt lat="47.5404" lon="-0.34137">
        <ele>41.95</ele>
        <time>2016-07-16T09:09:09Z</time>
      </trkpt>
      <trkpt lat="47.54035" lon="-0.34139">
        <ele>42.44</ele>
        <time>2016-07-16T09:09:37Z</time>
      </trkpt>
      <trkpt lat="47.54032" lon="-0.34139">
        <ele>42.44</ele>
        <time>2016-07-16T09:09:58Z</time>
      </trkpt>
      <trkpt lat="47.54027" lon="-0.34142">
        <ele>42.44</ele>
        <time>2016-07-16T09:10:08Z</time>
      </trkpt>
      <trkpt lat="47.54026" lon="-0.34143">
        <ele>42.44</ele>
        <time>2016-07-16T09:10:09Z</time>
      </trkpt>
      <trkpt lat="47.54024" lon="-0.34143">
        <ele>42.44</ele>
        <time>2016-07-16T09:10:10Z</time>
      </trkpt>
      <trkpt lat="47.54019" lon="-0.34146">
        <ele>42.44</ele>
        <time>2016-07-16T09:10:25Z</time>
      </trkpt>
      <trkpt lat="47.54018" lon="-0.34146">
        <ele>42.44</ele>
        <time>2016-07-16T09:10:46Z</time>
      </trkpt>
      <trkpt lat="47.54016" lon="-0.34146">
        <ele>42.44</ele>
        <time>2016-07-16T09:10:47Z</time>
      </trkpt>
      <trkpt lat="47.54015" lon="-0.34147">
        <ele>42.44</ele>
        <time>2016-07-16T09:10:48Z</time>
      </trkpt>
      <trkpt lat="47.5401" lon="-0.34147">
        <ele>42.44</ele>
        <time>2016-07-16T09:11:03Z</time>
      </trkpt>
      <trkpt lat="47.54006" lon="-0.34148">
        <ele>42.92</ele>
        <time>2016-07-16T09:11:25Z</time>
      </trkpt>
      <trkpt lat="47.54002" lon="-0.34148">
        <ele>42.92</ele>
        <time>2016-07-16T09:11:54Z</time>
      </trkpt>
      <trkpt lat="47.54001" lon="-0.3415">
        <ele>43.4</ele>
        <time>2016-07-16T09:12:12Z</time>
      </trkpt>
      <trkpt lat="47.54" lon="-0.34151">
        <ele>43.4</ele>
        <time>2016-07-16T09:12:14Z</time>
      </trkpt>
      <trkpt lat="47.53999" lon="-0.34151">
        <ele>43.4</ele>
        <time>2016-07-16T09:12:15Z</time>
      </trkpt>
      <trkpt lat="47.53999" lon="-0.34153">
        <ele>43.4</ele>
        <time>2016-07-16T09:12:34Z</time>
      </trkpt>
      <trkpt lat="47.53997" lon="-0.34153">
        <ele>43.4</ele>
        <time>2016-07-16T09:12:35Z</time>
      </trkpt>
      <trkpt lat="47.53995" lon="-0.34154">
        <ele>43.4</ele>
        <time>2016-07-16T09:12:36Z</time>
      </trkpt>
      <trkpt lat="47.53991" lon="-0.34154">
        <ele>43.4</ele>
        <time>2016-07-16T09:12:48Z</time>
      </trkpt>
      <trkpt lat="47.53991" lon="-0.34154">
        <ele>43.4</ele>
        <time>2016-07-16T09:13:04Z</time>
      </trkpt>
      <trkpt lat="47.5399" lon="-0.34155">
        <ele>43.4</ele>
        <time>2016-07-16T09:13:05Z</time>
      </trkpt>
      <trkpt lat="47.53986" lon="-0.34155">
        <ele>43.4</ele>
        <time>2016-07-16T09:13:10Z</time>
      </trkpt>
      <trkpt lat="47.53985" lon="-0.34156">
        <ele>43.4</ele>
        <time>2016-07-16T09:13:11Z</time>
      </trkpt>
      <trkpt lat="47.53984" lon="-0.34156">
        <ele>43.4</ele>
        <time>2016-07-16T09:13:12Z</time>
      </trkpt>
      <trkpt lat="47.53978" lon="-0.34157">
        <ele>43.4</ele>
        <time>2016-07-16T09:13:25Z</time>
      </trkpt>
      <trkpt lat="47.53972" lon="-0.34157">
        <ele>43.88</ele>
        <time>2016-07-16T09:13:44Z</time>
      </trkpt>
      <trkpt lat="47.53969" lon="-0.34158">
        <ele>43.88</ele>
        <time>2016-07-16T09:13:51Z</time>
      </trkpt>
      <trkpt lat="47.53968" lon="-0.34158">
        <ele>43.88</ele>
        <time>2016-07-16T09:13:52Z</time>
      </trkpt>
      <trkpt lat="47.53962" lon="-0.34159">
        <ele>43.88</ele>
        <time>2016-07-16T09:14:07Z</time>
      </trkpt>
      <trkpt lat="47.53956" lon="-0.3416">
        <ele>43.88</ele>
        <time>2016-07-16T09:14:34Z</time>
      </trkpt>
      <trkpt lat="47.53947" lon="-0.34163">
        <ele>43.88</ele>
        <time>2016-07-16T09:14:50Z</time>
      </trkpt>
      <trkpt lat="47.53947" lon="-0.34161">
        <ele>43.88</ele>
        <time>2016-07-16T09:15:14Z</time>
      </trkpt>
      <trkpt lat="47.53918" lon="-0.34175">
        <ele>44.84</ele>
        <time>2016-07-16T09:15:31Z</time>
      </trkpt>
      <trkpt lat="47.53834" lon="-0.34193">
        <ele>46.76</ele>
        <time>2016-07-16T09:15:37Z</time>
      </trkpt>
      <trkpt lat="47.53645" lon="-0.34235">
        <ele>47.24</ele>
        <time>2016-07-16T09:15:47Z</time>
      </trkpt>
      <trkpt lat="47.53523" lon="-0.34269">
        <ele>44.84</ele>
        <time>2016-07-16T09:15:53Z</time>
      </trkpt>
      <trkpt lat="47.53278" lon="-0.34363">
        <ele>45.32</ele>
        <time>2016-07-16T09:16:05Z</time>
      </trkpt>
      <trkpt lat="47.53083" lon="-0.34479">
        <ele>46.28</ele>
        <time>2016-07-16T09:16:13Z</time>
      </trkpt>
      <trkpt lat="47.52957" lon="-0.34574">
        <ele>49.65</ele>
        <time>2016-07-16T09:16:18Z</time>
      </trkpt>
      <trkpt lat="47.52748" lon="-0.34778">
        <ele>52.53</ele>
        <time>2016-07-16T09:16:26Z</time>
      </trkpt>
      <trkpt lat="47.52536" lon="-0.3506">
        <ele>53.97</ele>
        <time>2016-07-16T09:16:35Z</time>
      </trkpt>
      <trkpt lat="47.52359" lon="-0.35381">
        <ele>54.93</ele>
        <time>2016-07-16T09:16:44Z</time>
      </trkpt>
      <trkpt lat="47.52214" lon="-0.35754">
        <ele>54.93</ele>
        <time>2016-07-16T09:16:53Z</time>
      </trkpt>
      <trkpt lat="47.52111" lon="-0.36154">
        <ele>52.05</ele>
        <time>2016-07-16T09:17:02Z</time>
      </trkpt>
      <trkpt lat="47.52085" lon="-0.36292">
        <ele>50.61</ele>
        <time>2016-07-16T09:17:05Z</time>
      </trkpt>
      <trkpt lat="47.52052" lon="-0.36475">
        <ele>48.2</ele>
        <time>2016-07-16T09:17:09Z</time>
      </trkpt>
      <trkpt lat="47.52027" lon="-0.36613">
        <ele>46.76</ele>
        <time>2016-07-16T09:17:12Z</time>
      </trkpt>
      <trkpt lat="47.51987" lon="-0.36842">
        <ele>48.68</ele>
        <time>2016-07-16T09:17:17Z</time>
      </trkpt>
      <trkpt lat="47.51977" lon="-0.36895">
        <ele>43.88</ele>
        <time>2016-07-16T09:17:18Z</time>
      </trkpt>
      <trkpt lat="47.51962" lon="-0.3698">
        <ele>42.92</ele>
        <time>2016-07-16T09:17:20Z</time>
      </trkpt>
      <trkpt lat="47.51826" lon="-0.37762">
        <ele>40.03</ele>
        <time>2016-07-16T09:17:37Z</time>
      </trkpt>
      <trkpt lat="47.51758" lon="-0.38325">
        <ele>36.19</ele>
        <time>2016-07-16T09:17:49Z</time>
      </trkpt>
      <trkpt lat="47.51754" lon="-0.38371">
        <ele>36.19</ele>
        <time>2016-07-16T09:17:50Z</time>
      </trkpt>
      <trkpt lat="47.51725" lon="-0.39032">
        <ele>33.3</ele>
        <time>2016-07-16T09:18:04Z</time>
      </trkpt>
      <trkpt lat="47.51724" lon="-0.39108">
        <ele>31.86</ele>
        <time>2016-07-16T09:18:06Z</time>
      </trkpt>
      <trkpt lat="47.51725" lon="-0.39443">
        <ele>29.94</ele>
        <time>2016-07-16T09:18:16Z</time>
      </trkpt>
      <trkpt lat="47.51726" lon="-0.39675">
        <ele>30.9</ele>
        <time>2016-07-16T09:18:23Z</time>
      </trkpt>
      <trkpt lat="47.51728" lon="-0.40088">
        <ele>30.9</ele>
        <time>2016-07-16T09:18:34Z</time>
      </trkpt>
      <trkpt lat="47.51738" lon="-0.40648">
        <ele>29.94</ele>
        <time>2016-07-16T09:18:48Z</time>
      </trkpt>
      <trkpt lat="47.51776" lon="-0.41193">
        <ele>30.42</ele>
        <time>2016-07-16T09:19:02Z</time>
      </trkpt>
      <trkpt lat="47.51831" lon="-0.41627">
        <ele>33.78</ele>
        <time>2016-07-16T09:19:12Z</time>
      </trkpt>
      <trkpt lat="47.51839" lon="-0.41674">
        <ele>33.78</ele>
        <time>2016-07-16T09:19:13Z</time>
      </trkpt>
      <trkpt lat="47.51917" lon="-0.42264">
        <ele>33.78</ele>
        <time>2016-07-16T09:19:26Z</time>
      </trkpt>
      <trkpt lat="47.51929" lon="-0.42665">
        <ele>36.19</ele>
        <time>2016-07-16T09:19:35Z</time>
      </trkpt>
      <trkpt lat="47.51888" lon="-0.43017">
        <ele>36.19</ele>
        <time>2016-07-16T09:19:43Z</time>
      </trkpt>
      <trkpt lat="47.51807" lon="-0.43341">
        <ele>36.19</ele>
        <time>2016-07-16T09:19:51Z</time>
      </trkpt>
      <trkpt lat="47.5168" lon="-0.43667">
        <ele>37.15</ele>
        <time>2016-07-16T09:20:01Z</time>
      </trkpt>
      <trkpt lat="47.51522" lon="-0.43935">
        <ele>39.07</ele>
        <time>2016-07-16T09:20:10Z</time>
      </trkpt>
      <trkpt lat="47.51335" lon="-0.44166">
        <ele>40.51</ele>
        <time>2016-07-16T09:20:19Z</time>
      </trkpt>
      <trkpt lat="47.51036" lon="-0.44506">
        <ele>40.99</ele>
        <time>2016-07-16T09:20:33Z</time>
      </trkpt>
      <trkpt lat="47.50859" lon="-0.44804">
        <ele>40.03</ele>
        <time>2016-07-16T09:20:43Z</time>
      </trkpt>
      <trkpt lat="47.50724" lon="-0.45144">
        <ele>40.51</ele>
        <time>2016-07-16T09:20:53Z</time>
      </trkpt>
      <trkpt lat="47.50515" lon="-0.45825">
        <ele>36.67</ele>
        <time>2016-07-16T09:21:12Z</time>
      </trkpt>
      <trkpt lat="47.50419" lon="-0.4613">
        <ele>35.23</ele>
        <time>2016-07-16T09:21:22Z</time>
      </trkpt>
      <trkpt lat="47.50308" lon="-0.46511">
        <ele>32.34</ele>
        <time>2016-07-16T09:21:34Z</time>
      </trkpt>
      <trkpt lat="47.50183" lon="-0.47031">
        <ele>31.38</ele>
        <time>2016-07-16T09:21:50Z</time>
      </trkpt>
      <trkpt lat="47.50138" lon="-0.47268">
        <ele>31.38</ele>
        <time>2016-07-16T09:21:57Z</time>
      </trkpt>
      <trkpt lat="47.5012" lon="-0.47369">
        <ele>29.94</ele>
        <time>2016-07-16T09:22:00Z</time>
      </trkpt>
      <trkpt lat="47.50056" lon="-0.47841">
        <ele>27.05</ele>
        <time>2016-07-16T09:22:14Z</time>
      </trkpt>
      <trkpt lat="47.50029" lon="-0.48283">
        <ele>25.13</ele>
        <time>2016-07-16T09:22:27Z</time>
      </trkpt>
      <trkpt lat="47.50044" lon="-0.48689">
        <ele>22.25</ele>
        <time>2016-07-16T09:22:39Z</time>
      </trkpt>
      <trkpt lat="47.50097" lon="-0.49043">
        <ele>21.77</ele>
        <time>2016-07-16T09:22:50Z</time>
      </trkpt>
      <trkpt lat="47.50169" lon="-0.49383">
        <ele>23.21</ele>
        <time>2016-07-16T09:23:02Z</time>
      </trkpt>
      <trkpt lat="47.50219" lon="-0.49677">
        <ele>26.09</ele>
        <time>2016-07-16T09:23:12Z</time>
      </trkpt>
      <trkpt lat="47.50245" lon="-0.50007">
        <ele>28.98</ele>
        <time>2016-07-16T09:23:23Z</time>
      </trkpt>
      <trkpt lat="47.50239" lon="-0.50278">
        <ele>30.42</ele>
        <time>2016-07-16T09:23:33Z</time>
      </trkpt>
      <trkpt lat="47.50232" lon="-0.50389">
        <ele>31.38</ele>
        <time>2016-07-16T09:23:39Z</time>
      </trkpt>
      <trkpt lat="47.50234" lon="-0.50406">
        <ele>31.38</ele>
        <time>2016-07-16T09:23:40Z</time>
      </trkpt>
      <trkpt lat="47.50237" lon="-0.50417">
        <ele>31.38</ele>
        <time>2016-07-16T09:23:41Z</time>
      </trkpt>
      <trkpt lat="47.50242" lon="-0.50429">
        <ele>31.38</ele>
        <time>2016-07-16T09:23:42Z</time>
      </trkpt>
      <trkpt lat="47.5025" lon="-0.50438">
        <ele>31.86</ele>
        <time>2016-07-16T09:23:43Z</time>
      </trkpt>
      <trkpt lat="47.50259" lon="-0.50446">
        <ele>31.86</ele>
        <time>2016-07-16T09:23:44Z</time>
      </trkpt>
      <trkpt lat="47.5027" lon="-0.5045">
        <ele>31.86</ele>
        <time>2016-07-16T09:23:45Z</time>
      </trkpt>
      <trkpt lat="47.50281" lon="-0.50451">
        <ele>32.34</ele>
        <time>2016-07-16T09:23:46Z</time>
      </trkpt>
      <trkpt lat="47.50292" lon="-0.50449">
        <ele>32.34</ele>
        <time>2016-07-16T09:23:47Z</time>
      </trkpt>
      <trkpt lat="47.50304" lon="-0.50444">
        <ele>32.34</ele>
        <time>2016-07-16T09:23:48Z</time>
      </trkpt>
      <trkpt lat="47.50315" lon="-0.50432">
        <ele>32.34</ele>
        <time>2016-07-16T09:23:49Z</time>
      </trkpt>
      <trkpt lat="47.50323" lon="-0.50419">
        <ele>33.3</ele>
        <time>2016-07-16T09:23:50Z</time>
      </trkpt>
      <trkpt lat="47.5033" lon="-0.50402">
        <ele>33.3</ele>
        <time>2016-07-16T09:23:51Z</time>
      </trkpt>
      <trkpt lat="47.50334" lon="-0.50386">
        <ele>33.3</ele>
        <time>2016-07-16T09:23:52Z</time>
      </trkpt>
      <trkpt lat="47.50336" lon="-0.50368">
        <ele>33.3</ele>
        <time>2016-07-16T09:23:53Z</time>
      </trkpt>
      <trkpt lat="47.50336" lon="-0.50351">
        <ele>33.3</ele>
        <time>2016-07-16T09:23:54Z</time>
      </trkpt>
      <trkpt lat="47.50332" lon="-0.50335">
        <ele>33.3</ele>
        <time>2016-07-16T09:23:55Z</time>
      </trkpt>
      <trkpt lat="47.50326" lon="-0.50321">
        <ele>34.26</ele>
        <time>2016-07-16T09:23:56Z</time>
      </trkpt>
      <trkpt lat="47.50317" lon="-0.50309">
        <ele>34.74</ele>
        <time>2016-07-16T09:23:57Z</time>
      </trkpt>
      <trkpt lat="47.50305" lon="-0.503">
        <ele>35.23</ele>
        <time>2016-07-16T09:23:58Z</time>
      </trkpt>
      <trkpt lat="47.5029" lon="-0.50294">
        <ele>36.19</ele>
        <time>2016-07-16T09:23:59Z</time>
      </trkpt>
      <trkpt lat="47.50273" lon="-0.5029">
        <ele>36.67</ele>
        <time>2016-07-16T09:24:00Z</time>
      </trkpt>
      <trkpt lat="47.50257" lon="-0.50287">
        <ele>36.67</ele>
        <time>2016-07-16T09:24:01Z</time>
      </trkpt>
      <trkpt lat="47.50177" lon="-0.50263">
        <ele>39.07</ele>
        <time>2016-07-16T09:24:06Z</time>
      </trkpt>
      <trkpt lat="47.50001" lon="-0.50198">
        <ele>41.95</ele>
        <time>2016-07-16T09:24:17Z</time>
      </trkpt>
      <trkpt lat="47.49822" lon="-0.50083">
        <ele>43.4</ele>
        <time>2016-07-16T09:24:27Z</time>
      </trkpt>
      <trkpt lat="47.49615" lon="-0.4994">
        <ele>47.24</ele>
        <time>2016-07-16T09:24:37Z</time>
      </trkpt>
      <trkpt lat="47.49571" lon="-0.49908">
        <ele>47.72</ele>
        <time>2016-07-16T09:24:39Z</time>
      </trkpt>
      <trkpt lat="47.49365" lon="-0.49767">
        <ele>46.28</ele>
        <time>2016-07-16T09:24:48Z</time>
      </trkpt>
      <trkpt lat="47.49269" lon="-0.4972">
        <ele>42.92</ele>
        <time>2016-07-16T09:24:52Z</time>
      </trkpt>
      <trkpt lat="47.49196" lon="-0.49695">
        <ele>39.55</ele>
        <time>2016-07-16T09:24:55Z</time>
      </trkpt>
      <trkpt lat="47.49099" lon="-0.49678">
        <ele>36.19</ele>
        <time>2016-07-16T09:24:59Z</time>
      </trkpt>
      <trkpt lat="47.49077" lon="-0.49677">
        <ele>36.19</ele>
        <time>2016-07-16T09:25:00Z</time>
      </trkpt>
      <trkpt lat="47.4888" lon="-0.49697">
        <ele>34.26</ele>
        <time>2016-07-16T09:25:09Z</time>
      </trkpt>
      <trkpt lat="47.48661" lon="-0.49762">
        <ele>35.23</ele>
        <time>2016-07-16T09:25:18Z</time>
      </trkpt>
      <trkpt lat="47.48346" lon="-0.49863">
        <ele>35.23</ele>
        <time>2016-07-16T09:25:32Z</time>
      </trkpt>
      <trkpt lat="47.48235" lon="-0.49898">
        <ele>36.67</ele>
        <time>2016-07-16T09:25:37Z</time>
      </trkpt>
      <trkpt lat="47.4799" lon="-0.50001">
        <ele>38.59</ele>
        <time>2016-07-16T09:25:48Z</time>
      </trkpt>
      <trkpt lat="47.47783" lon="-0.50154">
        <ele>39.55</ele>
        <time>2016-07-16T09:25:58Z</time>
      </trkpt>
      <trkpt lat="47.47672" lon="-0.50268">
        <ele>42.92</ele>
        <time>2016-07-16T09:26:04Z</time>
      </trkpt>
      <trkpt lat="47.47604" lon="-0.50353">
        <ele>43.88</ele>
        <time>2016-07-16T09:26:08Z</time>
      </trkpt>
      <trkpt lat="47.47352" lon="-0.50688">
        <ele>46.76</ele>
        <time>2016-07-16T09:26:23Z</time>
      </trkpt>
      <trkpt lat="47.47192" lon="-0.50926">
        <ele>47.72</ele>
        <time>2016-07-16T09:26:33Z</time>
      </trkpt>
      <trkpt lat="47.47074" lon="-0.51131">
        <ele>44.84</ele>
        <time>2016-07-16T09:26:41Z</time>
      </trkpt>
      <trkpt lat="47.46985" lon="-0.5128">
        <ele>41.95</ele>
        <time>2016-07-16T09:26:47Z</time>
      </trkpt>
      <trkpt lat="47.46816" lon="-0.51497">
        <ele>42.44</ele>
        <time>2016-07-16T09:26:57Z</time>
      </trkpt>
      <trkpt lat="47.46639" lon="-0.51628">
        <ele>43.4</ele>
        <time>2016-07-16T09:27:06Z</time>
      </trkpt>
      <trkpt lat="47.46437" lon="-0.51693">
        <ele>43.88</ele>
        <time>2016-07-16T09:27:15Z</time>
      </trkpt>
      <trkpt lat="47.4618" lon="-0.51735">
        <ele>44.84</ele>
        <time>2016-07-16T09:27:27Z</time>
      </trkpt>
      <trkpt lat="47.45944" lon="-0.51805">
        <ele>47.72</ele>
        <time>2016-07-16T09:27:38Z</time>
      </trkpt>
      <trkpt lat="47.45794" lon="-0.51763">
        <ele>48.68</ele>
        <time>2016-07-16T09:27:45Z</time>
      </trkpt>
      <trkpt lat="47.45733" lon="-0.5172">
        <ele>47.24</ele>
        <time>2016-07-16T09:27:48Z</time>
      </trkpt>
      <trkpt lat="47.45675" lon="-0.51667">
        <ele>45.32</ele>
        <time>2016-07-16T09:27:51Z</time>
      </trkpt>
      <trkpt lat="47.45598" lon="-0.51602">
        <ele>42.44</ele>
        <time>2016-07-16T09:27:55Z</time>
      </trkpt>
      <trkpt lat="47.45466" lon="-0.51529">
        <ele>38.59</ele>
        <time>2016-07-16T09:28:01Z</time>
      </trkpt>
      <trkpt lat="47.45342" lon="-0.51493">
        <ele>35.71</ele>
        <time>2016-07-16T09:28:07Z</time>
      </trkpt>
      <trkpt lat="47.45234" lon="-0.5148">
        <ele>33.3</ele>
        <time>2016-07-16T09:28:12Z</time>
      </trkpt>
      <trkpt lat="47.45036" lon="-0.51507">
        <ele>33.3</ele>
        <time>2016-07-16T09:28:21Z</time>
      </trkpt>
      <trkpt lat="47.44969" lon="-0.51524">
        <ele>34.74</ele>
        <time>2016-07-16T09:28:24Z</time>
      </trkpt>
      <trkpt lat="47.4477" lon="-0.51533">
        <ele>31.86</ele>
        <time>2016-07-16T09:28:33Z</time>
      </trkpt>
      <trkpt lat="47.44681" lon="-0.51513">
        <ele>28.5</ele>
        <time>2016-07-16T09:28:37Z</time>
      </trkpt>
      <trkpt lat="47.44576" lon="-0.51465">
        <ele>25.13</ele>
        <time>2016-07-16T09:28:42Z</time>
      </trkpt>
      <trkpt lat="47.44394" lon="-0.51366">
        <ele>25.13</ele>
        <time>2016-07-16T09:28:51Z</time>
      </trkpt>
      <trkpt lat="47.44149" lon="-0.51226">
        <ele>23.69</ele>
        <time>2016-07-16T09:29:03Z</time>
      </trkpt>
      <trkpt lat="47.44023" lon="-0.51156">
        <ele>25.13</ele>
        <time>2016-07-16T09:29:09Z</time>
      </trkpt>
      <trkpt lat="47.43923" lon="-0.511">
        <ele>23.69</ele>
        <time>2016-07-16T09:29:14Z</time>
      </trkpt>
      <trkpt lat="47.43446" lon="-0.50836">
        <ele>22.73</ele>
        <time>2016-07-16T09:29:37Z</time>
      </trkpt>
      <trkpt lat="47.43343" lon="-0.50779">
        <ele>24.17</ele>
        <time>2016-07-16T09:29:42Z</time>
      </trkpt>
      <trkpt lat="47.42785" lon="-0.50471">
        <ele>25.13</ele>
        <time>2016-07-16T09:30:09Z</time>
      </trkpt>
      <trkpt lat="47.42569" lon="-0.50406">
        <ele>26.09</ele>
        <time>2016-07-16T09:30:19Z</time>
      </trkpt>
      <trkpt lat="47.42325" lon="-0.504">
        <ele>27.05</ele>
        <time>2016-07-16T09:30:30Z</time>
      </trkpt>
      <trkpt lat="47.42087" lon="-0.50467">
        <ele>27.53</ele>
        <time>2016-07-16T09:30:41Z</time>
      </trkpt>
      <trkpt lat="47.41785" lon="-0.5057">
        <ele>30.9</ele>
        <time>2016-07-16T09:30:55Z</time>
      </trkpt>
      <trkpt lat="47.41764" lon="-0.50577">
        <ele>30.9</ele>
        <time>2016-07-16T09:30:56Z</time>
      </trkpt>
      <trkpt lat="47.41655" lon="-0.50614">
        <ele>27.05</ele>
        <time>2016-07-16T09:31:01Z</time>
      </trkpt>
      <trkpt lat="47.41634" lon="-0.50621">
        <ele>27.05</ele>
        <time>2016-07-16T09:31:02Z</time>
      </trkpt>
      <trkpt lat="47.41202" lon="-0.50763">
        <ele>25.13</ele>
        <time>2016-07-16T09:31:22Z</time>
      </trkpt>
      <trkpt lat="47.40813" lon="-0.50894">
        <ele>24.17</ele>
        <time>2016-07-16T09:31:40Z</time>
      </trkpt>
      <trkpt lat="47.40447" lon="-0.51016">
        <ele>23.21</ele>
        <time>2016-07-16T09:31:57Z</time>
      </trkpt>
      <trkpt lat="47.40218" lon="-0.51141">
        <ele>23.21</ele>
        <time>2016-07-16T09:32:08Z</time>
      </trkpt>
      <trkpt lat="47.40031" lon="-0.51312">
        <ele>21.77</ele>
        <time>2016-07-16T09:32:18Z</time>
      </trkpt>
      <trkpt lat="47.39941" lon="-0.51422">
        <ele>24.17</ele>
        <time>2016-07-16T09:32:23Z</time>
      </trkpt>
      <trkpt lat="47.39804" lon="-0.51649">
        <ele>26.57</ele>
        <time>2016-07-16T09:32:31Z</time>
      </trkpt>
      <trkpt lat="47.3968" lon="-0.51959">
        <ele>28.5</ele>
        <time>2016-07-16T09:32:40Z</time>
      </trkpt>
      <trkpt lat="47.39607" lon="-0.52258">
        <ele>32.34</ele>
        <time>2016-07-16T09:32:48Z</time>
      </trkpt>
      <trkpt lat="47.396" lon="-0.52299">
        <ele>32.34</ele>
        <time>2016-07-16T09:32:49Z</time>
      </trkpt>
      <trkpt lat="47.39578" lon="-0.52493">
        <ele>35.23</ele>
        <time>2016-07-16T09:32:54Z</time>
      </trkpt>
      <trkpt lat="47.39571" lon="-0.52654">
        <ele>38.59</ele>
        <time>2016-07-16T09:32:58Z</time>
      </trkpt>
      <trkpt lat="47.3957" lon="-0.5269">
        <ele>38.59</ele>
        <time>2016-07-16T09:32:59Z</time>
      </trkpt>
      <trkpt lat="47.39568" lon="-0.52838">
        <ele>42.44</ele>
        <time>2016-07-16T09:33:03Z</time>
      </trkpt>
      <trkpt lat="47.39567" lon="-0.52874">
        <ele>42.44</ele>
        <time>2016-07-16T09:33:04Z</time>
      </trkpt>
      <trkpt lat="47.39559" lon="-0.53023">
        <ele>45.8</ele>
        <time>2016-07-16T09:33:08Z</time>
      </trkpt>
      <trkpt lat="47.39546" lon="-0.53174">
        <ele>49.16</ele>
        <time>2016-07-16T09:33:12Z</time>
      </trkpt>
      <trkpt lat="47.39542" lon="-0.53212">
        <ele>52.53</ele>
        <time>2016-07-16T09:33:13Z</time>
      </trkpt>
      <trkpt lat="47.39537" lon="-0.5325">
        <ele>52.53</ele>
        <time>2016-07-16T09:33:14Z</time>
      </trkpt>
      <trkpt lat="47.39526" lon="-0.53322">
        <ele>50.61</ele>
        <time>2016-07-16T09:33:16Z</time>
      </trkpt>
      <trkpt lat="47.39499" lon="-0.53461">
        <ele>54.45</ele>
        <time>2016-07-16T09:33:20Z</time>
      </trkpt>
      <trkpt lat="47.39492" lon="-0.53495">
        <ele>54.45</ele>
        <time>2016-07-16T09:33:21Z</time>
      </trkpt>
      <trkpt lat="47.39383" lon="-0.53868">
        <ele>52.53</ele>
        <time>2016-07-16T09:33:32Z</time>
      </trkpt>
      <trkpt lat="47.39344" lon="-0.53966">
        <ele>50.61</ele>
        <time>2016-07-16T09:33:35Z</time>
      </trkpt>
      <trkpt lat="47.39317" lon="-0.54034">
        <ele>47.72</ele>
        <time>2016-07-16T09:33:37Z</time>
      </trkpt>
      <trkpt lat="47.3926" lon="-0.54167">
        <ele>43.88</ele>
        <time>2016-07-16T09:33:41Z</time>
      </trkpt>
      <trkpt lat="47.39213" lon="-0.54269">
        <ele>40.51</ele>
        <time>2016-07-16T09:33:44Z</time>
      </trkpt>
      <trkpt lat="47.39165" lon="-0.54372">
        <ele>36.19</ele>
        <time>2016-07-16T09:33:47Z</time>
      </trkpt>
      <trkpt lat="47.39102" lon="-0.54501">
        <ele>32.82</ele>
        <time>2016-07-16T09:33:51Z</time>
      </trkpt>
      <trkpt lat="47.39053" lon="-0.54596">
        <ele>29.94</ele>
        <time>2016-07-16T09:33:54Z</time>
      </trkpt>
      <trkpt lat="47.3897" lon="-0.54754">
        <ele>26.57</ele>
        <time>2016-07-16T09:33:59Z</time>
      </trkpt>
      <trkpt lat="47.38847" lon="-0.54968">
        <ele>27.53</ele>
        <time>2016-07-16T09:34:06Z</time>
      </trkpt>
      <trkpt lat="47.38614" lon="-0.55335">
        <ele>30.9</ele>
        <time>2016-07-16T09:34:17Z</time>
      </trkpt>
      <trkpt lat="47.38522" lon="-0.55466">
        <ele>32.82</ele>
        <time>2016-07-16T09:34:21Z</time>
      </trkpt>
      <trkpt lat="47.38401" lon="-0.55624">
        <ele>35.71</ele>
        <time>2016-07-16T09:34:26Z</time>
      </trkpt>
      <trkpt lat="47.38353" lon="-0.55687">
        <ele>39.07</ele>
        <time>2016-07-16T09:34:28Z</time>
      </trkpt>
      <trkpt lat="47.38255" lon="-0.55808">
        <ele>43.88</ele>
        <time>2016-07-16T09:34:32Z</time>
      </trkpt>
      <trkpt lat="47.38204" lon="-0.55867">
        <ele>47.24</ele>
        <time>2016-07-16T09:34:34Z</time>
      </trkpt>
      <trkpt lat="47.38179" lon="-0.55895">
        <ele>47.24</ele>
        <time>2016-07-16T09:34:35Z</time>
      </trkpt>
      <trkpt lat="47.38072" lon="-0.56001">
        <ele>51.57</ele>
        <time>2016-07-16T09:34:39Z</time>
      </trkpt>
      <trkpt lat="47.37963" lon="-0.56097">
        <ele>55.41</ele>
        <time>2016-07-16T09:34:43Z</time>
      </trkpt>
      <trkpt lat="47.37846" lon="-0.5618">
        <ele>58.3</ele>
        <time>2016-07-16T09:34:47Z</time>
      </trkpt>
      <trkpt lat="47.37787" lon="-0.56218">
        <ele>61.66</ele>
        <time>2016-07-16T09:34:49Z</time>
      </trkpt>
      <trkpt lat="47.37729" lon="-0.56254">
        <ele>63.1</ele>
        <time>2016-07-16T09:34:51Z</time>
      </trkpt>
      <trkpt lat="47.37638" lon="-0.56308">
        <ele>66.95</ele>
        <time>2016-07-16T09:34:54Z</time>
      </trkpt>
      <trkpt lat="47.37519" lon="-0.56382">
        <ele>70.79</ele>
        <time>2016-07-16T09:34:58Z</time>
      </trkpt>
      <trkpt lat="47.37429" lon="-0.56438">
        <ele>74.16</ele>
        <time>2016-07-16T09:35:01Z</time>
      </trkpt>
      <trkpt lat="47.37282" lon="-0.56538">
        <ele>77.52</ele>
        <time>2016-07-16T09:35:06Z</time>
      </trkpt>
      <trkpt lat="47.37165" lon="-0.56625">
        <ele>80.89</ele>
        <time>2016-07-16T09:35:10Z</time>
      </trkpt>
      <trkpt lat="47.3708" lon="-0.56691">
        <ele>82.33</ele>
        <time>2016-07-16T09:35:13Z</time>
      </trkpt>
      <trkpt lat="47.36883" lon="-0.56859">
        <ele>85.69</ele>
        <time>2016-07-16T09:35:20Z</time>
      </trkpt>
      <trkpt lat="47.36512" lon="-0.57237">
        <ele>87.62</ele>
        <time>2016-07-16T09:35:34Z</time>
      </trkpt>
      <trkpt lat="47.36261" lon="-0.57535">
        <ele>90.98</ele>
        <time>2016-07-16T09:35:44Z</time>
      </trkpt>
      <trkpt lat="47.36011" lon="-0.57837">
        <ele>88.1</ele>
        <time>2016-07-16T09:35:54Z</time>
      </trkpt>
      <trkpt lat="47.35694" lon="-0.58164">
        <ele>85.69</ele>
        <time>2016-07-16T09:36:06Z</time>
      </trkpt>
      <trkpt lat="47.35527" lon="-0.58309">
        <ele>87.14</ele>
        <time>2016-07-16T09:36:12Z</time>
      </trkpt>
      <trkpt lat="47.3547" lon="-0.58356">
        <ele>85.21</ele>
        <time>2016-07-16T09:36:14Z</time>
      </trkpt>
      <trkpt lat="47.35197" lon="-0.58568">
        <ele>81.85</ele>
        <time>2016-07-16T09:36:24Z</time>
      </trkpt>
      <trkpt lat="47.3486" lon="-0.58841">
        <ele>82.33</ele>
        <time>2016-07-16T09:36:36Z</time>
      </trkpt>
      <trkpt lat="47.3472" lon="-0.58962">
        <ele>79.45</ele>
        <time>2016-07-16T09:36:41Z</time>
      </trkpt>
      <trkpt lat="47.3461" lon="-0.59062">
        <ele>78</ele>
        <time>2016-07-16T09:36:45Z</time>
      </trkpt>
      <trkpt lat="47.34446" lon="-0.59215">
        <ele>74.64</ele>
        <time>2016-07-16T09:36:51Z</time>
      </trkpt>
      <trkpt lat="47.34284" lon="-0.59372">
        <ele>70.31</ele>
        <time>2016-07-16T09:36:57Z</time>
      </trkpt>
      <trkpt lat="47.34257" lon="-0.59399">
        <ele>70.31</ele>
        <time>2016-07-16T09:36:58Z</time>
      </trkpt>
      <trkpt lat="47.33715" lon="-0.59906">
        <ele>73.2</ele>
        <time>2016-07-16T09:37:18Z</time>
      </trkpt>
      <trkpt lat="47.33628" lon="-0.59971">
        <ele>76.08</ele>
        <time>2016-07-16T09:37:21Z</time>
      </trkpt>
      <trkpt lat="47.33483" lon="-0.60069">
        <ele>78.48</ele>
        <time>2016-07-16T09:37:26Z</time>
      </trkpt>
      <trkpt lat="47.33283" lon="-0.60177">
        <ele>80.89</ele>
        <time>2016-07-16T09:37:33Z</time>
      </trkpt>
      <trkpt lat="47.33109" lon="-0.60249">
        <ele>81.37</ele>
        <time>2016-07-16T09:37:40Z</time>
      </trkpt>
      <trkpt lat="47.3289" lon="-0.6033">
        <ele>82.33</ele>
        <time>2016-07-16T09:37:51Z</time>
      </trkpt>
      <trkpt lat="47.32791" lon="-0.60372">
        <ele>83.29</ele>
        <time>2016-07-16T09:37:58Z</time>
      </trkpt>
      <trkpt lat="47.32724" lon="-0.60404">
        <ele>83.77</ele>
        <time>2016-07-16T09:38:06Z</time>
      </trkpt>
      <trkpt lat="47.32677" lon="-0.60425">
        <ele>84.25</ele>
        <time>2016-07-16T09:38:16Z</time>
      </trkpt>
      <trkpt lat="47.3266" lon="-0.60432">
        <ele>85.21</ele>
        <time>2016-07-16T09:38:29Z</time>
      </trkpt>
      <trkpt lat="47.32651" lon="-0.60435">
        <ele>86.18</ele>
        <time>2016-07-16T09:38:42Z</time>
      </trkpt>
      <trkpt lat="47.32645" lon="-0.60437">
        <ele>86.18</ele>
        <time>2016-07-16T09:38:51Z</time>
      </trkpt>
      <trkpt lat="47.32644" lon="-0.60438">
        <ele>86.18</ele>
        <time>2016-07-16T09:38:52Z</time>
      </trkpt>
      <trkpt lat="47.32641" lon="-0.60439">
        <ele>86.18</ele>
        <time>2016-07-16T09:38:57Z</time>
      </trkpt>
      <trkpt lat="47.32639" lon="-0.6044">
        <ele>86.18</ele>
        <time>2016-07-16T09:38:58Z</time>
      </trkpt>
      <trkpt lat="47.32606" lon="-0.60451">
        <ele>88.1</ele>
        <time>2016-07-16T09:39:03Z</time>
      </trkpt>
      <trkpt lat="47.32512" lon="-0.60466">
        <ele>88.1</ele>
        <time>2016-07-16T09:39:09Z</time>
      </trkpt>
      <trkpt lat="47.32438" lon="-0.60478">
        <ele>86.66</ele>
        <time>2016-07-16T09:39:13Z</time>
      </trkpt>
      <trkpt lat="47.32244" lon="-0.60517">
        <ele>88.1</ele>
        <time>2016-07-16T09:39:22Z</time>
      </trkpt>
      <trkpt lat="47.32026" lon="-0.6057">
        <ele>86.18</ele>
        <time>2016-07-16T09:39:30Z</time>
      </trkpt>
      <trkpt lat="47.3182" lon="-0.60614">
        <ele>81.85</ele>
        <time>2016-07-16T09:39:37Z</time>
      </trkpt>
      <trkpt lat="47.3173" lon="-0.60631">
        <ele>78.48</ele>
        <time>2016-07-16T09:39:40Z</time>
      </trkpt>
      <trkpt lat="47.3161" lon="-0.60652">
        <ele>74.64</ele>
        <time>2016-07-16T09:39:44Z</time>
      </trkpt>
      <trkpt lat="47.31455" lon="-0.60678">
        <ele>70.31</ele>
        <time>2016-07-16T09:39:49Z</time>
      </trkpt>
      <trkpt lat="47.3136" lon="-0.60692">
        <ele>66.47</ele>
        <time>2016-07-16T09:39:52Z</time>
      </trkpt>
      <trkpt lat="47.31231" lon="-0.60708">
        <ele>62.62</ele>
        <time>2016-07-16T09:39:56Z</time>
      </trkpt>
      <trkpt lat="47.31199" lon="-0.60712">
        <ele>62.14</ele>
        <time>2016-07-16T09:39:57Z</time>
      </trkpt>
      <trkpt lat="47.31133" lon="-0.60719">
        <ele>59.26</ele>
        <time>2016-07-16T09:39:59Z</time>
      </trkpt>
      <trkpt lat="47.31035" lon="-0.60728">
        <ele>56.37</ele>
        <time>2016-07-16T09:40:02Z</time>
      </trkpt>
      <trkpt lat="47.30937" lon="-0.60737">
        <ele>51.57</ele>
        <time>2016-07-16T09:40:05Z</time>
      </trkpt>
      <trkpt lat="47.3084" lon="-0.60743">
        <ele>48.2</ele>
        <time>2016-07-16T09:40:08Z</time>
      </trkpt>
      <trkpt lat="47.30743" lon="-0.60748">
        <ele>45.8</ele>
        <time>2016-07-16T09:40:11Z</time>
      </trkpt>
      <trkpt lat="47.3036" lon="-0.60791">
        <ele>49.16</ele>
        <time>2016-07-16T09:40:23Z</time>
      </trkpt>
      <trkpt lat="47.30233" lon="-0.60819">
        <ele>52.53</ele>
        <time>2016-07-16T09:40:27Z</time>
      </trkpt>
      <trkpt lat="47.30106" lon="-0.60855">
        <ele>55.89</ele>
        <time>2016-07-16T09:40:31Z</time>
      </trkpt>
      <trkpt lat="47.29983" lon="-0.60896">
        <ele>58.78</ele>
        <time>2016-07-16T09:40:35Z</time>
      </trkpt>
      <trkpt lat="47.29798" lon="-0.60975">
        <ele>60.7</ele>
        <time>2016-07-16T09:40:42Z</time>
      </trkpt>
      <trkpt lat="47.29691" lon="-0.61033">
        <ele>62.62</ele>
        <time>2016-07-16T09:40:46Z</time>
      </trkpt>
      <trkpt lat="47.29554" lon="-0.61118">
        <ele>65.99</ele>
        <time>2016-07-16T09:40:51Z</time>
      </trkpt>
      <trkpt lat="47.29526" lon="-0.61135">
        <ele>65.99</ele>
        <time>2016-07-16T09:40:52Z</time>
      </trkpt>
      <trkpt lat="47.29181" lon="-0.61362">
        <ele>68.39</ele>
        <time>2016-07-16T09:41:04Z</time>
      </trkpt>
      <trkpt lat="47.29062" lon="-0.61428">
        <ele>69.35</ele>
        <time>2016-07-16T09:41:08Z</time>
      </trkpt>
      <trkpt lat="47.28721" lon="-0.61571">
        <ele>69.35</ele>
        <time>2016-07-16T09:41:19Z</time>
      </trkpt>
      <trkpt lat="47.28561" lon="-0.61612">
        <ele>72.72</ele>
        <time>2016-07-16T09:41:24Z</time>
      </trkpt>
      <trkpt lat="47.2853" lon="-0.61618">
        <ele>72.72</ele>
        <time>2016-07-16T09:41:25Z</time>
      </trkpt>
      <trkpt lat="47.28175" lon="-0.61653">
        <ele>74.64</ele>
        <time>2016-07-16T09:41:36Z</time>
      </trkpt>
      <trkpt lat="47.27822" lon="-0.61621">
        <ele>76.56</ele>
        <time>2016-07-16T09:41:47Z</time>
      </trkpt>
      <trkpt lat="47.27346" lon="-0.61493">
        <ele>78.48</ele>
        <time>2016-07-16T09:42:02Z</time>
      </trkpt>
      <trkpt lat="47.26963" lon="-0.61428">
        <ele>81.37</ele>
        <time>2016-07-16T09:42:14Z</time>
      </trkpt>
      <trkpt lat="47.26768" lon="-0.61425">
        <ele>83.29</ele>
        <time>2016-07-16T09:42:20Z</time>
      </trkpt>
      <trkpt lat="47.26541" lon="-0.61453">
        <ele>86.66</ele>
        <time>2016-07-16T09:42:27Z</time>
      </trkpt>
      <trkpt lat="47.2651" lon="-0.6146">
        <ele>86.66</ele>
        <time>2016-07-16T09:42:28Z</time>
      </trkpt>
      <trkpt lat="47.2632" lon="-0.61515">
        <ele>89.54</ele>
        <time>2016-07-16T09:42:34Z</time>
      </trkpt>
      <trkpt lat="47.26288" lon="-0.61526">
        <ele>89.54</ele>
        <time>2016-07-16T09:42:35Z</time>
      </trkpt>
      <trkpt lat="47.26163" lon="-0.61575">
        <ele>92.42</ele>
        <time>2016-07-16T09:42:39Z</time>
      </trkpt>
      <trkpt lat="47.2607" lon="-0.61619">
        <ele>93.87</ele>
        <time>2016-07-16T09:42:42Z</time>
      </trkpt>
      <trkpt lat="47.25919" lon="-0.61705">
        <ele>96.27</ele>
        <time>2016-07-16T09:42:47Z</time>
      </trkpt>
      <trkpt lat="47.25744" lon="-0.61826">
        <ele>100.11</ele>
        <time>2016-07-16T09:42:53Z</time>
      </trkpt>
      <trkpt lat="47.25715" lon="-0.61848">
        <ele>99.63</ele>
        <time>2016-07-16T09:42:54Z</time>
      </trkpt>
      <trkpt lat="47.25437" lon="-0.62088">
        <ele>97.71</ele>
        <time>2016-07-16T09:43:04Z</time>
      </trkpt>
      <trkpt lat="47.25301" lon="-0.62209">
        <ele>97.23</ele>
        <time>2016-07-16T09:43:09Z</time>
      </trkpt>
      <trkpt lat="47.24848" lon="-0.62647">
        <ele>95.31</ele>
        <time>2016-07-16T09:43:26Z</time>
      </trkpt>
      <trkpt lat="47.24608" lon="-0.62964">
        <ele>94.35</ele>
        <time>2016-07-16T09:43:36Z</time>
      </trkpt>
      <trkpt lat="47.24408" lon="-0.63337">
        <ele>92.42</ele>
        <time>2016-07-16T09:43:46Z</time>
      </trkpt>
      <trkpt lat="47.24282" lon="-0.63669">
        <ele>92.42</ele>
        <time>2016-07-16T09:43:54Z</time>
      </trkpt>
      <trkpt lat="47.2418" lon="-0.64079">
        <ele>91.94</ele>
        <time>2016-07-16T09:44:03Z</time>
      </trkpt>
      <trkpt lat="47.24126" lon="-0.64505">
        <ele>93.39</ele>
        <time>2016-07-16T09:44:12Z</time>
      </trkpt>
      <trkpt lat="47.24118" lon="-0.64795">
        <ele>90.5</ele>
        <time>2016-07-16T09:44:18Z</time>
      </trkpt>
      <trkpt lat="47.24139" lon="-0.6518">
        <ele>89.06</ele>
        <time>2016-07-16T09:44:26Z</time>
      </trkpt>
      <trkpt lat="47.24197" lon="-0.65556">
        <ele>85.69</ele>
        <time>2016-07-16T09:44:34Z</time>
      </trkpt>
      <trkpt lat="47.2423" lon="-0.65743">
        <ele>84.25</ele>
        <time>2016-07-16T09:44:38Z</time>
      </trkpt>
      <trkpt lat="47.24292" lon="-0.66117">
        <ele>80.41</ele>
        <time>2016-07-16T09:44:46Z</time>
      </trkpt>
      <trkpt lat="47.24335" lon="-0.66447">
        <ele>76.56</ele>
        <time>2016-07-16T09:44:53Z</time>
      </trkpt>
      <trkpt lat="47.24349" lon="-0.6659">
        <ele>75.12</ele>
        <time>2016-07-16T09:44:56Z</time>
      </trkpt>
      <trkpt lat="47.24367" lon="-0.66829">
        <ele>72.72</ele>
        <time>2016-07-16T09:45:01Z</time>
      </trkpt>
      <trkpt lat="47.24375" lon="-0.66973">
        <ele>70.79</ele>
        <time>2016-07-16T09:45:04Z</time>
      </trkpt>
      <trkpt lat="47.24392" lon="-0.67358">
        <ele>72.24</ele>
        <time>2016-07-16T09:45:12Z</time>
      </trkpt>
      <trkpt lat="47.24423" lon="-0.67837">
        <ele>75.6</ele>
        <time>2016-07-16T09:45:22Z</time>
      </trkpt>
      <trkpt lat="47.24474" lon="-0.68167">
        <ele>79.45</ele>
        <time>2016-07-16T09:45:29Z</time>
      </trkpt>
      <trkpt lat="47.24537" lon="-0.68441">
        <ele>82.33</ele>
        <time>2016-07-16T09:45:35Z</time>
      </trkpt>
      <trkpt lat="47.24596" lon="-0.68663">
        <ele>84.73</ele>
        <time>2016-07-16T09:45:40Z</time>
      </trkpt>
      <trkpt lat="47.24643" lon="-0.68842">
        <ele>86.66</ele>
        <time>2016-07-16T09:45:44Z</time>
      </trkpt>
      <trkpt lat="47.24747" lon="-0.6935">
        <ele>88.58</ele>
        <time>2016-07-16T09:45:55Z</time>
      </trkpt>
      <trkpt lat="47.24777" lon="-0.69766">
        <ele>87.62</ele>
        <time>2016-07-16T09:46:04Z</time>
      </trkpt>
      <trkpt lat="47.24763" lon="-0.7019">
        <ele>85.69</ele>
        <time>2016-07-16T09:46:13Z</time>
      </trkpt>
      <trkpt lat="47.24729" lon="-0.70468">
        <ele>88.1</ele>
        <time>2016-07-16T09:46:19Z</time>
      </trkpt>
      <trkpt lat="47.24695" lon="-0.70648">
        <ele>90.02</ele>
        <time>2016-07-16T09:46:23Z</time>
      </trkpt>
      <trkpt lat="47.24587" lon="-0.71045">
        <ele>92.9</ele>
        <time>2016-07-16T09:46:32Z</time>
      </trkpt>
      <trkpt lat="47.24519" lon="-0.7126">
        <ele>96.75</ele>
        <time>2016-07-16T09:46:37Z</time>
      </trkpt>
      <trkpt lat="47.2442" lon="-0.71558">
        <ele>99.63</ele>
        <time>2016-07-16T09:46:44Z</time>
      </trkpt>
      <trkpt lat="47.24336" lon="-0.71824">
        <ele>103</ele>
        <time>2016-07-16T09:46:50Z</time>
      </trkpt>
      <trkpt lat="47.24325" lon="-0.7186">
        <ele>102.52</ele>
        <time>2016-07-16T09:46:51Z</time>
      </trkpt>
      <trkpt lat="47.24177" lon="-0.72337">
        <ele>106.36</ele>
        <time>2016-07-16T09:47:02Z</time>
      </trkpt>
      <trkpt lat="47.241" lon="-0.72595">
        <ele>109.73</ele>
        <time>2016-07-16T09:47:08Z</time>
      </trkpt>
      <trkpt lat="47.23894" lon="-0.73342">
        <ele>113.09</ele>
        <time>2016-07-16T09:47:25Z</time>
      </trkpt>
      <trkpt lat="47.23698" lon="-0.73992">
        <ele>115.01</ele>
        <time>2016-07-16T09:47:40Z</time>
      </trkpt>
      <trkpt lat="47.23568" lon="-0.74322">
        <ele>113.57</ele>
        <time>2016-07-16T09:47:48Z</time>
      </trkpt>
      <trkpt lat="47.23515" lon="-0.74443">
        <ele>111.65</ele>
        <time>2016-07-16T09:47:51Z</time>
      </trkpt>
      <trkpt lat="47.2346" lon="-0.74559">
        <ele>110.21</ele>
        <time>2016-07-16T09:47:54Z</time>
      </trkpt>
      <trkpt lat="47.2336" lon="-0.74747">
        <ele>107.32</ele>
        <time>2016-07-16T09:47:59Z</time>
      </trkpt>
      <trkpt lat="47.23276" lon="-0.74892">
        <ele>103.96</ele>
        <time>2016-07-16T09:48:03Z</time>
      </trkpt>
      <trkpt lat="47.23233" lon="-0.74962">
        <ele>103</ele>
        <time>2016-07-16T09:48:05Z</time>
      </trkpt>
      <trkpt lat="47.23096" lon="-0.75162">
        <ele>99.63</ele>
        <time>2016-07-16T09:48:11Z</time>
      </trkpt>
      <trkpt lat="47.22999" lon="-0.75287">
        <ele>97.23</ele>
        <time>2016-07-16T09:48:15Z</time>
      </trkpt>
      <trkpt lat="47.22897" lon="-0.75408">
        <ele>93.87</ele>
        <time>2016-07-16T09:48:19Z</time>
      </trkpt>
      <trkpt lat="47.22768" lon="-0.75547">
        <ele>90.02</ele>
        <time>2016-07-16T09:48:24Z</time>
      </trkpt>
      <trkpt lat="47.22437" lon="-0.75842">
        <ele>88.58</ele>
        <time>2016-07-16T09:48:36Z</time>
      </trkpt>
      <trkpt lat="47.22114" lon="-0.7605">
        <ele>91.94</ele>
        <time>2016-07-16T09:48:47Z</time>
      </trkpt>
      <trkpt lat="47.2199" lon="-0.76114">
        <ele>94.83</ele>
        <time>2016-07-16T09:48:51Z</time>
      </trkpt>
      <trkpt lat="47.21866" lon="-0.76171">
        <ele>98.19</ele>
        <time>2016-07-16T09:48:55Z</time>
      </trkpt>
      <trkpt lat="47.21743" lon="-0.76229">
        <ele>98.19</ele>
        <time>2016-07-16T09:48:59Z</time>
      </trkpt>
      <trkpt lat="47.21589" lon="-0.76297">
        <ele>101.08</ele>
        <time>2016-07-16T09:49:04Z</time>
      </trkpt>
      <trkpt lat="47.21434" lon="-0.76362">
        <ele>103.96</ele>
        <time>2016-07-16T09:49:09Z</time>
      </trkpt>
      <trkpt lat="47.21367" lon="-0.76389">
        <ele>104.92</ele>
        <time>2016-07-16T09:49:11Z</time>
      </trkpt>
      <trkpt lat="47.21246" lon="-0.76439">
        <ele>107.32</ele>
        <time>2016-07-16T09:49:15Z</time>
      </trkpt>
      <trkpt lat="47.2103" lon="-0.76539">
        <ele>107.32</ele>
        <time>2016-07-16T09:49:22Z</time>
      </trkpt>
      <trkpt lat="47.20907" lon="-0.76604">
        <ele>110.69</ele>
        <time>2016-07-16T09:49:26Z</time>
      </trkpt>
      <trkpt lat="47.20524" lon="-0.76854">
        <ele>110.21</ele>
        <time>2016-07-16T09:49:39Z</time>
      </trkpt>
      <trkpt lat="47.20263" lon="-0.7704">
        <ele>111.17</ele>
        <time>2016-07-16T09:49:48Z</time>
      </trkpt>
      <trkpt lat="47.19848" lon="-0.77302">
        <ele>112.13</ele>
        <time>2016-07-16T09:50:02Z</time>
      </trkpt>
      <trkpt lat="47.19444" lon="-0.7747">
        <ele>111.65</ele>
        <time>2016-07-16T09:50:15Z</time>
      </trkpt>
      <trkpt lat="47.18849" lon="-0.7771">
        <ele>112.61</ele>
        <time>2016-07-16T09:50:34Z</time>
      </trkpt>
      <trkpt lat="47.18818" lon="-0.77726">
        <ele>112.61</ele>
        <time>2016-07-16T09:50:35Z</time>
      </trkpt>
      <trkpt lat="47.18726" lon="-0.77778">
        <ele>110.69</ele>
        <time>2016-07-16T09:50:38Z</time>
      </trkpt>
      <trkpt lat="47.18666" lon="-0.77816">
        <ele>112.61</ele>
        <time>2016-07-16T09:50:40Z</time>
      </trkpt>
      <trkpt lat="47.18431" lon="-0.77986">
        <ele>115.01</ele>
        <time>2016-07-16T09:50:48Z</time>
      </trkpt>
      <trkpt lat="47.18207" lon="-0.78185">
        <ele>116.94</ele>
        <time>2016-07-16T09:50:56Z</time>
      </trkpt>
      <trkpt lat="47.17969" lon="-0.78439">
        <ele>120.3</ele>
        <time>2016-07-16T09:51:05Z</time>
      </trkpt>
      <trkpt lat="47.17867" lon="-0.78564">
        <ele>119.34</ele>
        <time>2016-07-16T09:51:09Z</time>
      </trkpt>
      <trkpt lat="47.17612" lon="-0.78937">
        <ele>117.42</ele>
        <time>2016-07-16T09:51:20Z</time>
      </trkpt>
      <trkpt lat="47.17368" lon="-0.79382">
        <ele>116.46</ele>
        <time>2016-07-16T09:51:32Z</time>
      </trkpt>
      <trkpt lat="47.1733" lon="-0.7946">
        <ele>115.01</ele>
        <time>2016-07-16T09:51:34Z</time>
      </trkpt>
      <trkpt lat="47.1703" lon="-0.80134">
        <ele>111.65</ele>
        <time>2016-07-16T09:51:51Z</time>
      </trkpt>
      <trkpt lat="47.16995" lon="-0.80211">
        <ele>110.69</ele>
        <time>2016-07-16T09:51:53Z</time>
      </trkpt>
      <trkpt lat="47.16862" lon="-0.80481">
        <ele>111.65</ele>
        <time>2016-07-16T09:52:00Z</time>
      </trkpt>
      <trkpt lat="47.16625" lon="-0.80868">
        <ele>111.65</ele>
        <time>2016-07-16T09:52:11Z</time>
      </trkpt>
      <trkpt lat="47.16504" lon="-0.81025">
        <ele>113.09</ele>
        <time>2016-07-16T09:52:16Z</time>
      </trkpt>
      <trkpt lat="47.1627" lon="-0.81276">
        <ele>117.9</ele>
        <time>2016-07-16T09:52:25Z</time>
      </trkpt>
      <trkpt lat="47.16244" lon="-0.81301">
        <ele>117.9</ele>
        <time>2016-07-16T09:52:26Z</time>
      </trkpt>
      <trkpt lat="47.16048" lon="-0.81466">
        <ele>116.46</ele>
        <time>2016-07-16T09:52:33Z</time>
      </trkpt>
      <trkpt lat="47.1575" lon="-0.81652">
        <ele>114.05</ele>
        <time>2016-07-16T09:52:43Z</time>
      </trkpt>
      <trkpt lat="47.15658" lon="-0.81696">
        <ele>115.5</ele>
        <time>2016-07-16T09:52:46Z</time>
      </trkpt>
      <trkpt lat="47.15594" lon="-0.81723">
        <ele>112.13</ele>
        <time>2016-07-16T09:52:48Z</time>
      </trkpt>
      <trkpt lat="47.15124" lon="-0.81883">
        <ele>111.17</ele>
        <time>2016-07-16T09:53:03Z</time>
      </trkpt>
      <trkpt lat="47.14809" lon="-0.81986">
        <ele>115.01</ele>
        <time>2016-07-16T09:53:13Z</time>
      </trkpt>
      <trkpt lat="47.14746" lon="-0.82009">
        <ele>117.42</ele>
        <time>2016-07-16T09:53:15Z</time>
      </trkpt>
      <trkpt lat="47.14357" lon="-0.82185">
        <ele>119.34</ele>
        <time>2016-07-16T09:53:28Z</time>
      </trkpt>
      <trkpt lat="47.14136" lon="-0.8229">
        <ele>116.94</ele>
        <time>2016-07-16T09:53:37Z</time>
      </trkpt>
      <trkpt lat="47.1392" lon="-0.82385">
        <ele>116.46</ele>
        <time>2016-07-16T09:53:48Z</time>
      </trkpt>
      <trkpt lat="47.13797" lon="-0.82445">
        <ele>113.57</ele>
        <time>2016-07-16T09:53:57Z</time>
      </trkpt>
      <trkpt lat="47.13787" lon="-0.82452">
        <ele>113.09</ele>
        <time>2016-07-16T09:53:58Z</time>
      </trkpt>
      <trkpt lat="47.13778" lon="-0.82461">
        <ele>112.61</ele>
        <time>2016-07-16T09:53:59Z</time>
      </trkpt>
      <trkpt lat="47.13769" lon="-0.8247">
        <ele>112.61</ele>
        <time>2016-07-16T09:54:00Z</time>
      </trkpt>
      <trkpt lat="47.13762" lon="-0.8248">
        <ele>112.13</ele>
        <time>2016-07-16T09:54:01Z</time>
      </trkpt>
      <trkpt lat="47.13755" lon="-0.82491">
        <ele>112.13</ele>
        <time>2016-07-16T09:54:02Z</time>
      </trkpt>
      <trkpt lat="47.13749" lon="-0.82503">
        <ele>111.65</ele>
        <time>2016-07-16T09:54:03Z</time>
      </trkpt>
      <trkpt lat="47.13732" lon="-0.82538">
        <ele>109.73</ele>
        <time>2016-07-16T09:54:08Z</time>
      </trkpt>
      <trkpt lat="47.13733" lon="-0.82541">
        <ele>109.73</ele>
        <time>2016-07-16T09:54:15Z</time>
      </trkpt>
      <trkpt lat="47.13733" lon="-0.82544">
        <ele>109.73</ele>
        <time>2016-07-16T09:54:16Z</time>
      </trkpt>
      <trkpt lat="47.13732" lon="-0.82549">
        <ele>109.73</ele>
        <time>2016-07-16T09:54:17Z</time>
      </trkpt>
      <trkpt lat="47.13733" lon="-0.82556">
        <ele>109.73</ele>
        <time>2016-07-16T09:54:18Z</time>
      </trkpt>
      <trkpt lat="47.13734" lon="-0.82563">
        <ele>109.73</ele>
        <time>2016-07-16T09:54:19Z</time>
      </trkpt>
      <trkpt lat="47.13735" lon="-0.8257">
        <ele>109.73</ele>
        <time>2016-07-16T09:54:20Z</time>
      </trkpt>
      <trkpt lat="47.13735" lon="-0.82578">
        <ele>109.73</ele>
        <time>2016-07-16T09:54:21Z</time>
      </trkpt>
      <trkpt lat="47.13734" lon="-0.82584">
        <ele>109.73</ele>
        <time>2016-07-16T09:54:22Z</time>
      </trkpt>
      <trkpt lat="47.13733" lon="-0.8259">
        <ele>109.73</ele>
        <time>2016-07-16T09:54:23Z</time>
      </trkpt>
      <trkpt lat="47.13731" lon="-0.82596">
        <ele>109.73</ele>
        <time>2016-07-16T09:54:24Z</time>
      </trkpt>
      <trkpt lat="47.13728" lon="-0.82601">
        <ele>109.73</ele>
        <time>2016-07-16T09:54:25Z</time>
      </trkpt>
      <trkpt lat="47.13724" lon="-0.82611">
        <ele>109.73</ele>
        <time>2016-07-16T09:54:27Z</time>
      </trkpt>
      <trkpt lat="47.13723" lon="-0.82617">
        <ele>109.73</ele>
        <time>2016-07-16T09:54:28Z</time>
      </trkpt>
      <trkpt lat="47.13722" lon="-0.82624">
        <ele>109.73</ele>
        <time>2016-07-16T09:54:29Z</time>
      </trkpt>
      <trkpt lat="47.13716" lon="-0.8266">
        <ele>109.73</ele>
        <time>2016-07-16T09:54:34Z</time>
      </trkpt>
      <trkpt lat="47.13714" lon="-0.82668">
        <ele>109.73</ele>
        <time>2016-07-16T09:54:35Z</time>
      </trkpt>
      <trkpt lat="47.13711" lon="-0.82674">
        <ele>109.73</ele>
        <time>2016-07-16T09:54:36Z</time>
      </trkpt>
      <trkpt lat="47.13707" lon="-0.8268">
        <ele>109.25</ele>
        <time>2016-07-16T09:54:37Z</time>
      </trkpt>
      <trkpt lat="47.13704" lon="-0.82684">
        <ele>109.25</ele>
        <time>2016-07-16T09:54:38Z</time>
      </trkpt>
      <trkpt lat="47.137" lon="-0.82688">
        <ele>109.25</ele>
        <time>2016-07-16T09:54:39Z</time>
      </trkpt>
      <trkpt lat="47.13695" lon="-0.8269">
        <ele>109.25</ele>
        <time>2016-07-16T09:54:40Z</time>
      </trkpt>
      <trkpt lat="47.1369" lon="-0.82692">
        <ele>109.73</ele>
        <time>2016-07-16T09:54:41Z</time>
      </trkpt>
      <trkpt lat="47.13683" lon="-0.82694">
        <ele>109.73</ele>
        <time>2016-07-16T09:54:42Z</time>
      </trkpt>
      <trkpt lat="47.13631" lon="-0.82704">
        <ele>109.73</ele>
        <time>2016-07-16T09:54:53Z</time>
      </trkpt>
      <trkpt lat="47.1358" lon="-0.82728">
        <ele>109.73</ele>
        <time>2016-07-16T09:55:10Z</time>
      </trkpt>
      <trkpt lat="47.13573" lon="-0.82743">
        <ele>109.73</ele>
        <time>2016-07-16T09:55:14Z</time>
      </trkpt>
      <trkpt lat="47.13542" lon="-0.82778">
        <ele>109.73</ele>
        <time>2016-07-16T09:55:25Z</time>
      </trkpt>
      <trkpt lat="47.1352" lon="-0.82784">
        <ele>109.73</ele>
        <time>2016-07-16T09:55:35Z</time>
      </trkpt>
      <trkpt lat="47.13478" lon="-0.82794">
        <ele>111.17</ele>
        <time>2016-07-16T09:55:48Z</time>
      </trkpt>
      <trkpt lat="47.13444" lon="-0.82801">
        <ele>111.65</ele>
        <time>2016-07-16T09:55:59Z</time>
      </trkpt>
      <trkpt lat="47.1344" lon="-0.828">
        <ele>111.65</ele>
        <time>2016-07-16T09:56:00Z</time>
      </trkpt>
      <trkpt lat="47.13436" lon="-0.82799">
        <ele>111.65</ele>
        <time>2016-07-16T09:56:01Z</time>
      </trkpt>
      <trkpt lat="47.13432" lon="-0.82796">
        <ele>111.65</ele>
        <time>2016-07-16T09:56:02Z</time>
      </trkpt>
      <trkpt lat="47.13429" lon="-0.82793">
        <ele>112.13</ele>
        <time>2016-07-16T09:56:03Z</time>
      </trkpt>
      <trkpt lat="47.13398" lon="-0.82769">
        <ele>113.57</ele>
        <time>2016-07-16T09:56:12Z</time>
      </trkpt>
      <trkpt lat="47.13392" lon="-0.82764">
        <ele>114.05</ele>
        <time>2016-07-16T09:56:13Z</time>
      </trkpt>
      <trkpt lat="47.13387" lon="-0.82756">
        <ele>114.05</ele>
        <time>2016-07-16T09:56:14Z</time>
      </trkpt>
      <trkpt lat="47.13383" lon="-0.82747">
        <ele>114.05</ele>
        <time>2016-07-16T09:56:15Z</time>
      </trkpt>
      <trkpt lat="47.13379" lon="-0.82737">
        <ele>114.53</ele>
        <time>2016-07-16T09:56:16Z</time>
      </trkpt>
      <trkpt lat="47.13377" lon="-0.82725">
        <ele>114.53</ele>
        <time>2016-07-16T09:56:17Z</time>
      </trkpt>
      <trkpt lat="47.13374" lon="-0.82711">
        <ele>115.01</ele>
        <time>2016-07-16T09:56:18Z</time>
      </trkpt>
      <trkpt lat="47.13344" lon="-0.82598">
        <ele>116.94</ele>
        <time>2016-07-16T09:56:25Z</time>
      </trkpt>
      <trkpt lat="47.13336" lon="-0.82582">
        <ele>116.94</ele>
        <time>2016-07-16T09:56:26Z</time>
      </trkpt>
      <trkpt lat="47.13326" lon="-0.82568">
        <ele>117.9</ele>
        <time>2016-07-16T09:56:27Z</time>
      </trkpt>
      <trkpt lat="47.13314" lon="-0.82556">
        <ele>118.38</ele>
        <time>2016-07-16T09:56:28Z</time>
      </trkpt>
      <trkpt lat="47.13301" lon="-0.82547">
        <ele>118.38</ele>
        <time>2016-07-16T09:56:29Z</time>
      </trkpt>
      <trkpt lat="47.13286" lon="-0.82541">
        <ele>119.34</ele>
        <time>2016-07-16T09:56:30Z</time>
      </trkpt>
      <trkpt lat="47.1327" lon="-0.82538">
        <ele>119.34</ele>
        <time>2016-07-16T09:56:31Z</time>
      </trkpt>
      <trkpt lat="47.13253" lon="-0.82537">
        <ele>119.82</ele>
        <time>2016-07-16T09:56:32Z</time>
      </trkpt>
      <trkpt lat="47.13235" lon="-0.82539">
        <ele>119.82</ele>
        <time>2016-07-16T09:56:33Z</time>
      </trkpt>
      <trkpt lat="47.13052" lon="-0.82546">
        <ele>122.22</ele>
        <time>2016-07-16T09:56:41Z</time>
      </trkpt>
      <trkpt lat="47.12913" lon="-0.82543">
        <ele>121.26</ele>
        <time>2016-07-16T09:56:46Z</time>
      </trkpt>
      <trkpt lat="47.12761" lon="-0.82537">
        <ele>119.34</ele>
        <time>2016-07-16T09:56:51Z</time>
      </trkpt>
      <trkpt lat="47.12637" lon="-0.8253">
        <ele>117.42</ele>
        <time>2016-07-16T09:56:55Z</time>
      </trkpt>
      <trkpt lat="47.12476" lon="-0.82523">
        <ele>113.57</ele>
        <time>2016-07-16T09:57:00Z</time>
      </trkpt>
      <trkpt lat="47.12316" lon="-0.8252">
        <ele>110.21</ele>
        <time>2016-07-16T09:57:05Z</time>
      </trkpt>
      <trkpt lat="47.11958" lon="-0.82552">
        <ele>106.84</ele>
        <time>2016-07-16T09:57:16Z</time>
      </trkpt>
      <trkpt lat="47.11717" lon="-0.82595">
        <ele>110.21</ele>
        <time>2016-07-16T09:57:24Z</time>
      </trkpt>
      <trkpt lat="47.11654" lon="-0.82608">
        <ele>111.17</ele>
        <time>2016-07-16T09:57:26Z</time>
      </trkpt>
      <trkpt lat="47.1156" lon="-0.82629">
        <ele>114.53</ele>
        <time>2016-07-16T09:57:29Z</time>
      </trkpt>
      <trkpt lat="47.11402" lon="-0.82664">
        <ele>116.94</ele>
        <time>2016-07-16T09:57:34Z</time>
      </trkpt>
      <trkpt lat="47.11212" lon="-0.82698">
        <ele>120.3</ele>
        <time>2016-07-16T09:57:40Z</time>
      </trkpt>
      <trkpt lat="47.11055" lon="-0.82716">
        <ele>124.15</ele>
        <time>2016-07-16T09:57:45Z</time>
      </trkpt>
      <trkpt lat="47.10641" lon="-0.82708">
        <ele>125.11</ele>
        <time>2016-07-16T09:57:58Z</time>
      </trkpt>
      <trkpt lat="47.10294" lon="-0.82643">
        <ele>122.71</ele>
        <time>2016-07-16T09:58:09Z</time>
      </trkpt>
      <trkpt lat="47.102" lon="-0.82617">
        <ele>120.3</ele>
        <time>2016-07-16T09:58:12Z</time>
      </trkpt>
      <trkpt lat="47.10074" lon="-0.82581">
        <ele>117.42</ele>
        <time>2016-07-16T09:58:16Z</time>
      </trkpt>
      <trkpt lat="47.09885" lon="-0.82526">
        <ele>113.57</ele>
        <time>2016-07-16T09:58:22Z</time>
      </trkpt>
      <trkpt lat="47.09853" lon="-0.82517">
        <ele>113.57</ele>
        <time>2016-07-16T09:58:23Z</time>
      </trkpt>
      <trkpt lat="47.09633" lon="-0.82463">
        <ele>112.13</ele>
        <time>2016-07-16T09:58:30Z</time>
      </trkpt>
      <trkpt lat="47.09191" lon="-0.82402">
        <ele>114.05</ele>
        <time>2016-07-16T09:58:44Z</time>
      </trkpt>
      <trkpt lat="47.09096" lon="-0.82398">
        <ele>112.13</ele>
        <time>2016-07-16T09:58:47Z</time>
      </trkpt>
      <trkpt lat="47.09034" lon="-0.82398">
        <ele>113.09</ele>
        <time>2016-07-16T09:58:49Z</time>
      </trkpt>
      <trkpt lat="47.08527" lon="-0.82437">
        <ele>116.46</ele>
        <time>2016-07-16T09:59:05Z</time>
      </trkpt>
      <trkpt lat="47.08358" lon="-0.82465">
        <ele>119.34</ele>
        <time>2016-07-16T09:59:10Z</time>
      </trkpt>
      <trkpt lat="47.07867" lon="-0.82578">
        <ele>122.71</ele>
        <time>2016-07-16T09:59:26Z</time>
      </trkpt>
      <trkpt lat="47.07836" lon="-0.82584">
        <ele>122.71</ele>
        <time>2016-07-16T09:59:27Z</time>
      </trkpt>
      <trkpt lat="47.07552" lon="-0.82622">
        <ele>126.07</ele>
        <time>2016-07-16T09:59:36Z</time>
      </trkpt>
      <trkpt lat="47.07487" lon="-0.82626">
        <ele>127.03</ele>
        <time>2016-07-16T09:59:38Z</time>
      </trkpt>
      <trkpt lat="47.07328" lon="-0.82633">
        <ele>130.4</ele>
        <time>2016-07-16T09:59:43Z</time>
      </trkpt>
      <trkpt lat="47.072" lon="-0.82637">
        <ele>133.76</ele>
        <time>2016-07-16T09:59:47Z</time>
      </trkpt>
      <trkpt lat="47.07136" lon="-0.82638">
        <ele>134.72</ele>
        <time>2016-07-16T09:59:49Z</time>
      </trkpt>
      <trkpt lat="47.06976" lon="-0.82645">
        <ele>137.61</ele>
        <time>2016-07-16T09:59:54Z</time>
      </trkpt>
      <trkpt lat="47.06818" lon="-0.82662">
        <ele>140.97</ele>
        <time>2016-07-16T09:59:59Z</time>
      </trkpt>
      <trkpt lat="47.06786" lon="-0.82667">
        <ele>140.97</ele>
        <time>2016-07-16T10:00:00Z</time>
      </trkpt>
      <trkpt lat="47.06629" lon="-0.82699">
        <ele>144.34</ele>
        <time>2016-07-16T10:00:05Z</time>
      </trkpt>
      <trkpt lat="47.06474" lon="-0.82745">
        <ele>147.22</ele>
        <time>2016-07-16T10:00:10Z</time>
      </trkpt>
      <trkpt lat="47.06412" lon="-0.82766">
        <ele>148.66</ele>
        <time>2016-07-16T10:00:12Z</time>
      </trkpt>
      <trkpt lat="47.0611" lon="-0.82909">
        <ele>151.54</ele>
        <time>2016-07-16T10:00:22Z</time>
      </trkpt>
      <trkpt lat="47.05903" lon="-0.83042">
        <ele>149.62</ele>
        <time>2016-07-16T10:00:29Z</time>
      </trkpt>
      <trkpt lat="47.05729" lon="-0.83168">
        <ele>147.7</ele>
        <time>2016-07-16T10:00:35Z</time>
      </trkpt>
      <trkpt lat="47.05557" lon="-0.83301">
        <ele>144.34</ele>
        <time>2016-07-16T10:00:41Z</time>
      </trkpt>
      <trkpt lat="47.05528" lon="-0.83323">
        <ele>144.34</ele>
        <time>2016-07-16T10:00:42Z</time>
      </trkpt>
      <trkpt lat="47.05413" lon="-0.83411">
        <ele>141.93</ele>
        <time>2016-07-16T10:00:46Z</time>
      </trkpt>
      <trkpt lat="47.05326" lon="-0.83473">
        <ele>138.57</ele>
        <time>2016-07-16T10:00:49Z</time>
      </trkpt>
      <trkpt lat="47.05268" lon="-0.83513">
        <ele>137.61</ele>
        <time>2016-07-16T10:00:51Z</time>
      </trkpt>
      <trkpt lat="47.05179" lon="-0.83571">
        <ele>135.68</ele>
        <time>2016-07-16T10:00:54Z</time>
      </trkpt>
      <trkpt lat="47.05091" lon="-0.83627">
        <ele>133.76</ele>
        <time>2016-07-16T10:00:57Z</time>
      </trkpt>
      <trkpt lat="47.05" lon="-0.83679">
        <ele>132.32</ele>
        <time>2016-07-16T10:01:00Z</time>
      </trkpt>
      <trkpt lat="47.04552" lon="-0.83945">
        <ele>129.92</ele>
        <time>2016-07-16T10:01:15Z</time>
      </trkpt>
      <trkpt lat="47.04233" lon="-0.8421">
        <ele>128.95</ele>
        <time>2016-07-16T10:01:26Z</time>
      </trkpt>
      <trkpt lat="47.04057" lon="-0.84396">
        <ele>125.11</ele>
        <time>2016-07-16T10:01:33Z</time>
      </trkpt>
      <trkpt lat="47.03908" lon="-0.84578">
        <ele>121.74</ele>
        <time>2016-07-16T10:01:39Z</time>
      </trkpt>
      <trkpt lat="47.03826" lon="-0.84692">
        <ele>117.9</ele>
        <time>2016-07-16T10:01:43Z</time>
      </trkpt>
      <trkpt lat="47.03726" lon="-0.84846">
        <ele>114.05</ele>
        <time>2016-07-16T10:01:47Z</time>
      </trkpt>
      <trkpt lat="47.03682" lon="-0.84918">
        <ele>111.17</ele>
        <time>2016-07-16T10:01:49Z</time>
      </trkpt>
      <trkpt lat="47.03619" lon="-0.85027">
        <ele>107.32</ele>
        <time>2016-07-16T10:01:52Z</time>
      </trkpt>
      <trkpt lat="47.03556" lon="-0.85139">
        <ele>104.44</ele>
        <time>2016-07-16T10:01:55Z</time>
      </trkpt>
      <trkpt lat="47.03516" lon="-0.85212">
        <ele>101.08</ele>
        <time>2016-07-16T10:01:57Z</time>
      </trkpt>
      <trkpt lat="47.03454" lon="-0.85325">
        <ele>97.71</ele>
        <time>2016-07-16T10:02:00Z</time>
      </trkpt>
      <trkpt lat="47.03395" lon="-0.85436">
        <ele>94.83</ele>
        <time>2016-07-16T10:02:03Z</time>
      </trkpt>
      <trkpt lat="47.03335" lon="-0.85548">
        <ele>92.9</ele>
        <time>2016-07-16T10:02:06Z</time>
      </trkpt>
      <trkpt lat="47.03267" lon="-0.85672">
        <ele>89.54</ele>
        <time>2016-07-16T10:02:09Z</time>
      </trkpt>
      <trkpt lat="47.03169" lon="-0.85835">
        <ele>91.46</ele>
        <time>2016-07-16T10:02:14Z</time>
      </trkpt>
      <trkpt lat="47.03126" lon="-0.85904">
        <ele>87.62</ele>
        <time>2016-07-16T10:02:16Z</time>
      </trkpt>
      <trkpt lat="47.03104" lon="-0.85937">
        <ele>87.62</ele>
        <time>2016-07-16T10:02:17Z</time>
      </trkpt>
      <trkpt lat="47.02893" lon="-0.86224">
        <ele>89.54</ele>
        <time>2016-07-16T10:02:26Z</time>
      </trkpt>
      <trkpt lat="47.02791" lon="-0.86338">
        <ele>92.42</ele>
        <time>2016-07-16T10:02:30Z</time>
      </trkpt>
      <trkpt lat="47.02685" lon="-0.86445">
        <ele>96.75</ele>
        <time>2016-07-16T10:02:34Z</time>
      </trkpt>
      <trkpt lat="47.02604" lon="-0.86524">
        <ele>100.11</ele>
        <time>2016-07-16T10:02:37Z</time>
      </trkpt>
      <trkpt lat="47.02495" lon="-0.86629">
        <ele>103.48</ele>
        <time>2016-07-16T10:02:41Z</time>
      </trkpt>
      <trkpt lat="47.02413" lon="-0.86709">
        <ele>105.4</ele>
        <time>2016-07-16T10:02:44Z</time>
      </trkpt>
      <trkpt lat="47.02308" lon="-0.86817">
        <ele>109.25</ele>
        <time>2016-07-16T10:02:48Z</time>
      </trkpt>
      <trkpt lat="47.02205" lon="-0.86932">
        <ele>112.61</ele>
        <time>2016-07-16T10:02:52Z</time>
      </trkpt>
      <trkpt lat="47.0213" lon="-0.87022">
        <ele>113.57</ele>
        <time>2016-07-16T10:02:55Z</time>
      </trkpt>
      <trkpt lat="47.02009" lon="-0.87179">
        <ele>117.42</ele>
        <time>2016-07-16T10:03:00Z</time>
      </trkpt>
      <trkpt lat="47.01894" lon="-0.87346">
        <ele>120.78</ele>
        <time>2016-07-16T10:03:05Z</time>
      </trkpt>
      <trkpt lat="47.01784" lon="-0.8752">
        <ele>123.67</ele>
        <time>2016-07-16T10:03:10Z</time>
      </trkpt>
      <trkpt lat="47.01688" lon="-0.87686">
        <ele>126.07</ele>
        <time>2016-07-16T10:03:15Z</time>
      </trkpt>
      <trkpt lat="47.01601" lon="-0.87849">
        <ele>128.47</ele>
        <time>2016-07-16T10:03:19Z</time>
      </trkpt>
      <trkpt lat="47.01524" lon="-0.88005">
        <ele>130.88</ele>
        <time>2016-07-16T10:03:23Z</time>
      </trkpt>
      <trkpt lat="47.01435" lon="-0.88201">
        <ele>132.8</ele>
        <time>2016-07-16T10:03:28Z</time>
      </trkpt>
      <trkpt lat="47.01351" lon="-0.88404">
        <ele>135.2</ele>
        <time>2016-07-16T10:03:33Z</time>
      </trkpt>
      <trkpt lat="47.01172" lon="-0.88907">
        <ele>135.2</ele>
        <time>2016-07-16T10:03:45Z</time>
      </trkpt>
      <trkpt lat="47.00893" lon="-0.89651">
        <ele>132.8</ele>
        <time>2016-07-16T10:04:03Z</time>
      </trkpt>
      <trkpt lat="47.00678" lon="-0.90067">
        <ele>132.8</ele>
        <time>2016-07-16T10:04:14Z</time>
      </trkpt>
      <trkpt lat="47.00566" lon="-0.90245">
        <ele>130.88</ele>
        <time>2016-07-16T10:04:19Z</time>
      </trkpt>
      <trkpt lat="47.00347" lon="-0.90533">
        <ele>126.07</ele>
        <time>2016-07-16T10:04:28Z</time>
      </trkpt>
      <trkpt lat="47.00296" lon="-0.90592">
        <ele>125.11</ele>
        <time>2016-07-16T10:04:30Z</time>
      </trkpt>
      <trkpt lat="47.00136" lon="-0.90759">
        <ele>121.74</ele>
        <time>2016-07-16T10:04:36Z</time>
      </trkpt>
      <trkpt lat="47.00054" lon="-0.90835">
        <ele>119.34</ele>
        <time>2016-07-16T10:04:39Z</time>
      </trkpt>
      <trkpt lat="46.99683" lon="-0.91123">
        <ele>116.94</ele>
        <time>2016-07-16T10:04:52Z</time>
      </trkpt>
      <trkpt lat="46.99508" lon="-0.91241">
        <ele>120.3</ele>
        <time>2016-07-16T10:04:58Z</time>
      </trkpt>
      <trkpt lat="46.9942" lon="-0.91298">
        <ele>122.71</ele>
        <time>2016-07-16T10:05:01Z</time>
      </trkpt>
      <trkpt lat="46.99301" lon="-0.91375">
        <ele>126.07</ele>
        <time>2016-07-16T10:05:05Z</time>
      </trkpt>
      <trkpt lat="46.99149" lon="-0.91472">
        <ele>128.95</ele>
        <time>2016-07-16T10:05:10Z</time>
      </trkpt>
      <trkpt lat="46.99004" lon="-0.91558">
        <ele>133.28</ele>
        <time>2016-07-16T10:05:15Z</time>
      </trkpt>
      <trkpt lat="46.98973" lon="-0.91575">
        <ele>133.28</ele>
        <time>2016-07-16T10:05:16Z</time>
      </trkpt>
      <trkpt lat="46.98881" lon="-0.91622">
        <ele>136.16</ele>
        <time>2016-07-16T10:05:19Z</time>
      </trkpt>
      <trkpt lat="46.98789" lon="-0.91664">
        <ele>139.05</ele>
        <time>2016-07-16T10:05:22Z</time>
      </trkpt>
      <trkpt lat="46.98727" lon="-0.91689">
        <ele>140.49</ele>
        <time>2016-07-16T10:05:24Z</time>
      </trkpt>
      <trkpt lat="46.9857" lon="-0.91742">
        <ele>143.37</ele>
        <time>2016-07-16T10:05:29Z</time>
      </trkpt>
      <trkpt lat="46.98539" lon="-0.9175">
        <ele>143.37</ele>
        <time>2016-07-16T10:05:30Z</time>
      </trkpt>
      <trkpt lat="46.98379" lon="-0.91783">
        <ele>146.74</ele>
        <time>2016-07-16T10:05:35Z</time>
      </trkpt>
      <trkpt lat="46.98282" lon="-0.91793">
        <ele>148.18</ele>
        <time>2016-07-16T10:05:38Z</time>
      </trkpt>
      <trkpt lat="46.98154" lon="-0.91798">
        <ele>152.03</ele>
        <time>2016-07-16T10:05:42Z</time>
      </trkpt>
      <trkpt lat="46.98121" lon="-0.91798">
        <ele>152.03</ele>
        <time>2016-07-16T10:05:43Z</time>
      </trkpt>
      <trkpt lat="46.97865" lon="-0.91788">
        <ele>155.39</ele>
        <time>2016-07-16T10:05:51Z</time>
      </trkpt>
      <trkpt lat="46.97833" lon="-0.91786">
        <ele>155.39</ele>
        <time>2016-07-16T10:05:52Z</time>
      </trkpt>
      <trkpt lat="46.97704" lon="-0.91778">
        <ele>152.99</ele>
        <time>2016-07-16T10:05:56Z</time>
      </trkpt>
      <trkpt lat="46.97478" lon="-0.91771">
        <ele>149.62</ele>
        <time>2016-07-16T10:06:03Z</time>
      </trkpt>
      <trkpt lat="46.97348" lon="-0.91779">
        <ele>147.22</ele>
        <time>2016-07-16T10:06:07Z</time>
      </trkpt>
      <trkpt lat="46.97252" lon="-0.91791">
        <ele>143.85</ele>
        <time>2016-07-16T10:06:10Z</time>
      </trkpt>
      <trkpt lat="46.97093" lon="-0.91829">
        <ele>139.53</ele>
        <time>2016-07-16T10:06:15Z</time>
      </trkpt>
      <trkpt lat="46.9703" lon="-0.91851">
        <ele>136.64</ele>
        <time>2016-07-16T10:06:17Z</time>
      </trkpt>
      <trkpt lat="46.96967" lon="-0.91876">
        <ele>132.8</ele>
        <time>2016-07-16T10:06:19Z</time>
      </trkpt>
      <trkpt lat="46.96813" lon="-0.91957">
        <ele>133.28</ele>
        <time>2016-07-16T10:06:24Z</time>
      </trkpt>
      <trkpt lat="46.96753" lon="-0.91996">
        <ele>126.55</ele>
        <time>2016-07-16T10:06:26Z</time>
      </trkpt>
      <trkpt lat="46.96724" lon="-0.92017">
        <ele>121.74</ele>
        <time>2016-07-16T10:06:27Z</time>
      </trkpt>
      <trkpt lat="46.96666" lon="-0.92061">
        <ele>120.3</ele>
        <time>2016-07-16T10:06:29Z</time>
      </trkpt>
      <trkpt lat="46.96451" lon="-0.92268">
        <ele>116.46</ele>
        <time>2016-07-16T10:06:37Z</time>
      </trkpt>
      <trkpt lat="46.96402" lon="-0.92327">
        <ele>115.98</ele>
        <time>2016-07-16T10:06:39Z</time>
      </trkpt>
      <trkpt lat="46.96284" lon="-0.92487">
        <ele>117.9</ele>
        <time>2016-07-16T10:06:44Z</time>
      </trkpt>
      <trkpt lat="46.96219" lon="-0.92591">
        <ele>119.82</ele>
        <time>2016-07-16T10:06:47Z</time>
      </trkpt>
      <trkpt lat="46.96138" lon="-0.92737">
        <ele>123.67</ele>
        <time>2016-07-16T10:06:51Z</time>
      </trkpt>
      <trkpt lat="46.96083" lon="-0.92853">
        <ele>127.03</ele>
        <time>2016-07-16T10:06:54Z</time>
      </trkpt>
      <trkpt lat="46.96065" lon="-0.92892">
        <ele>127.03</ele>
        <time>2016-07-16T10:06:55Z</time>
      </trkpt>
      <trkpt lat="46.95891" lon="-0.9329">
        <ele>130.4</ele>
        <time>2016-07-16T10:07:05Z</time>
      </trkpt>
      <trkpt lat="46.95802" lon="-0.93486">
        <ele>133.76</ele>
        <time>2016-07-16T10:07:10Z</time>
      </trkpt>
      <trkpt lat="46.95725" lon="-0.93637">
        <ele>135.68</ele>
        <time>2016-07-16T10:07:14Z</time>
      </trkpt>
      <trkpt lat="46.95573" lon="-0.9388">
        <ele>139.53</ele>
        <time>2016-07-16T10:07:21Z</time>
      </trkpt>
      <trkpt lat="46.95432" lon="-0.94071">
        <ele>143.37</ele>
        <time>2016-07-16T10:07:27Z</time>
      </trkpt>
      <trkpt lat="46.95356" lon="-0.94158">
        <ele>147.22</ele>
        <time>2016-07-16T10:07:30Z</time>
      </trkpt>
      <trkpt lat="46.95276" lon="-0.9424">
        <ele>148.66</ele>
        <time>2016-07-16T10:07:33Z</time>
      </trkpt>
      <trkpt lat="46.95197" lon="-0.94323">
        <ele>152.03</ele>
        <time>2016-07-16T10:07:36Z</time>
      </trkpt>
      <trkpt lat="46.9517" lon="-0.9435">
        <ele>152.03</ele>
        <time>2016-07-16T10:07:37Z</time>
      </trkpt>
      <trkpt lat="46.95039" lon="-0.9449">
        <ele>155.39</ele>
        <time>2016-07-16T10:07:42Z</time>
      </trkpt>
      <trkpt lat="46.94936" lon="-0.94605">
        <ele>157.79</ele>
        <time>2016-07-16T10:07:46Z</time>
      </trkpt>
      <trkpt lat="46.94862" lon="-0.94697">
        <ele>161.16</ele>
        <time>2016-07-16T10:07:49Z</time>
      </trkpt>
      <trkpt lat="46.94816" lon="-0.94761">
        <ele>162.12</ele>
        <time>2016-07-16T10:07:51Z</time>
      </trkpt>
      <trkpt lat="46.94725" lon="-0.94895">
        <ele>165.96</ele>
        <time>2016-07-16T10:07:55Z</time>
      </trkpt>
      <trkpt lat="46.94703" lon="-0.94931">
        <ele>165.96</ele>
        <time>2016-07-16T10:07:56Z</time>
      </trkpt>
      <trkpt lat="46.94641" lon="-0.95038">
        <ele>169.81</ele>
        <time>2016-07-16T10:07:59Z</time>
      </trkpt>
      <trkpt lat="46.94547" lon="-0.95231">
        <ele>174.14</ele>
        <time>2016-07-16T10:08:04Z</time>
      </trkpt>
      <trkpt lat="46.94466" lon="-0.95434">
        <ele>177.5</ele>
        <time>2016-07-16T10:08:09Z</time>
      </trkpt>
      <trkpt lat="46.94436" lon="-0.95518">
        <ele>178.46</ele>
        <time>2016-07-16T10:08:11Z</time>
      </trkpt>
      <trkpt lat="46.94372" lon="-0.95736">
        <ele>180.87</ele>
        <time>2016-07-16T10:08:16Z</time>
      </trkpt>
      <trkpt lat="46.94332" lon="-0.95915">
        <ele>183.27</ele>
        <time>2016-07-16T10:08:20Z</time>
      </trkpt>
      <trkpt lat="46.94308" lon="-0.96052">
        <ele>186.63</ele>
        <time>2016-07-16T10:08:23Z</time>
      </trkpt>
      <trkpt lat="46.94283" lon="-0.96238">
        <ele>189.04</ele>
        <time>2016-07-16T10:08:27Z</time>
      </trkpt>
      <trkpt lat="46.94241" lon="-0.96706">
        <ele>192.4</ele>
        <time>2016-07-16T10:08:37Z</time>
      </trkpt>
      <trkpt lat="46.94225" lon="-0.96891">
        <ele>195.28</ele>
        <time>2016-07-16T10:08:41Z</time>
      </trkpt>
      <trkpt lat="46.9421" lon="-0.97033">
        <ele>197.21</ele>
        <time>2016-07-16T10:08:44Z</time>
      </trkpt>
      <trkpt lat="46.94113" lon="-0.97629">
        <ele>199.13</ele>
        <time>2016-07-16T10:08:57Z</time>
      </trkpt>
      <trkpt lat="46.94062" lon="-0.97857">
        <ele>197.21</ele>
        <time>2016-07-16T10:09:02Z</time>
      </trkpt>
      <trkpt lat="46.94005" lon="-0.98079">
        <ele>193.84</ele>
        <time>2016-07-16T10:09:07Z</time>
      </trkpt>
      <trkpt lat="46.9397" lon="-0.9821">
        <ele>190.48</ele>
        <time>2016-07-16T10:09:10Z</time>
      </trkpt>
      <trkpt lat="46.93922" lon="-0.98386">
        <ele>186.63</ele>
        <time>2016-07-16T10:09:14Z</time>
      </trkpt>
      <trkpt lat="46.93875" lon="-0.98564">
        <ele>183.27</ele>
        <time>2016-07-16T10:09:18Z</time>
      </trkpt>
      <trkpt lat="46.93853" lon="-0.98652">
        <ele>182.79</ele>
        <time>2016-07-16T10:09:20Z</time>
      </trkpt>
      <trkpt lat="46.93821" lon="-0.98786">
        <ele>179.42</ele>
        <time>2016-07-16T10:09:23Z</time>
      </trkpt>
      <trkpt lat="46.9378" lon="-0.98967">
        <ele>176.06</ele>
        <time>2016-07-16T10:09:27Z</time>
      </trkpt>
      <trkpt lat="46.93742" lon="-0.99148">
        <ele>172.21</ele>
        <time>2016-07-16T10:09:31Z</time>
      </trkpt>
      <trkpt lat="46.93715" lon="-0.99284">
        <ele>169.33</ele>
        <time>2016-07-16T10:09:34Z</time>
      </trkpt>
      <trkpt lat="46.93681" lon="-0.99467">
        <ele>165.48</ele>
        <time>2016-07-16T10:09:38Z</time>
      </trkpt>
      <trkpt lat="46.9365" lon="-0.99651">
        <ele>162.6</ele>
        <time>2016-07-16T10:09:42Z</time>
      </trkpt>
      <trkpt lat="46.93626" lon="-0.9979">
        <ele>159.24</ele>
        <time>2016-07-16T10:09:45Z</time>
      </trkpt>
      <trkpt lat="46.93609" lon="-0.99879">
        <ele>158.27</ele>
        <time>2016-07-16T10:09:47Z</time>
      </trkpt>
      <trkpt lat="46.93571" lon="-1.0006">
        <ele>156.35</ele>
        <time>2016-07-16T10:09:51Z</time>
      </trkpt>
      <trkpt lat="46.93538" lon="-1.00191">
        <ele>154.91</ele>
        <time>2016-07-16T10:09:54Z</time>
      </trkpt>
      <trkpt lat="46.93459" lon="-1.0045">
        <ele>156.83</ele>
        <time>2016-07-16T10:10:00Z</time>
      </trkpt>
      <trkpt lat="46.9335" lon="-1.00735">
        <ele>160.68</ele>
        <time>2016-07-16T10:10:07Z</time>
      </trkpt>
      <trkpt lat="46.93333" lon="-1.00774">
        <ele>160.68</ele>
        <time>2016-07-16T10:10:08Z</time>
      </trkpt>
      <trkpt lat="46.93259" lon="-1.00929">
        <ele>163.56</ele>
        <time>2016-07-16T10:10:12Z</time>
      </trkpt>
      <trkpt lat="46.9322" lon="-1.01004">
        <ele>164.52</ele>
        <time>2016-07-16T10:10:14Z</time>
      </trkpt>
      <trkpt lat="46.93161" lon="-1.01114">
        <ele>168.85</ele>
        <time>2016-07-16T10:10:17Z</time>
      </trkpt>
      <trkpt lat="46.93059" lon="-1.01296">
        <ele>172.21</ele>
        <time>2016-07-16T10:10:22Z</time>
      </trkpt>
      <trkpt lat="46.92998" lon="-1.01406">
        <ele>175.58</ele>
        <time>2016-07-16T10:10:25Z</time>
      </trkpt>
      <trkpt lat="46.92959" lon="-1.01479">
        <ele>176.54</ele>
        <time>2016-07-16T10:10:27Z</time>
      </trkpt>
      <trkpt lat="46.92901" lon="-1.01593">
        <ele>179.9</ele>
        <time>2016-07-16T10:10:30Z</time>
      </trkpt>
      <trkpt lat="46.92793" lon="-1.01829">
        <ele>183.27</ele>
        <time>2016-07-16T10:10:36Z</time>
      </trkpt>
      <trkpt lat="46.9276" lon="-1.0191">
        <ele>183.75</ele>
        <time>2016-07-16T10:10:38Z</time>
      </trkpt>
      <trkpt lat="46.9259" lon="-1.02365">
        <ele>187.59</ele>
        <time>2016-07-16T10:10:49Z</time>
      </trkpt>
      <trkpt lat="46.92574" lon="-1.02406">
        <ele>187.59</ele>
        <time>2016-07-16T10:10:50Z</time>
      </trkpt>
      <trkpt lat="46.92412" lon="-1.02805">
        <ele>187.11</ele>
        <time>2016-07-16T10:11:00Z</time>
      </trkpt>
      <trkpt lat="46.92331" lon="-1.02984">
        <ele>187.59</ele>
        <time>2016-07-16T10:11:05Z</time>
      </trkpt>
      <trkpt lat="46.92295" lon="-1.03058">
        <ele>186.15</ele>
        <time>2016-07-16T10:11:07Z</time>
      </trkpt>
      <trkpt lat="46.92223" lon="-1.03205">
        <ele>182.79</ele>
        <time>2016-07-16T10:11:11Z</time>
      </trkpt>
      <trkpt lat="46.92148" lon="-1.03337">
        <ele>179.42</ele>
        <time>2016-07-16T10:11:15Z</time>
      </trkpt>
      <trkpt lat="46.92074" lon="-1.03462">
        <ele>176.06</ele>
        <time>2016-07-16T10:11:19Z</time>
      </trkpt>
      <trkpt lat="46.92017" lon="-1.03554">
        <ele>172.69</ele>
        <time>2016-07-16T10:11:22Z</time>
      </trkpt>
      <trkpt lat="46.9196" lon="-1.03644">
        <ele>168.85</ele>
        <time>2016-07-16T10:11:25Z</time>
      </trkpt>
      <trkpt lat="46.91903" lon="-1.03729">
        <ele>165.96</ele>
        <time>2016-07-16T10:11:28Z</time>
      </trkpt>
      <trkpt lat="46.91864" lon="-1.03784">
        <ele>164.52</ele>
        <time>2016-07-16T10:11:30Z</time>
      </trkpt>
      <trkpt lat="46.91826" lon="-1.03837">
        <ele>160.2</ele>
        <time>2016-07-16T10:11:32Z</time>
      </trkpt>
      <trkpt lat="46.91766" lon="-1.03915">
        <ele>156.83</ele>
        <time>2016-07-16T10:11:35Z</time>
      </trkpt>
      <trkpt lat="46.91726" lon="-1.03966">
        <ele>154.91</ele>
        <time>2016-07-16T10:11:37Z</time>
      </trkpt>
      <trkpt lat="46.91634" lon="-1.04071">
        <ele>152.03</ele>
        <time>2016-07-16T10:11:41Z</time>
      </trkpt>
      <trkpt lat="46.91532" lon="-1.04181">
        <ele>147.7</ele>
        <time>2016-07-16T10:11:45Z</time>
      </trkpt>
      <trkpt lat="46.9148" lon="-1.04235">
        <ele>144.34</ele>
        <time>2016-07-16T10:11:47Z</time>
      </trkpt>
      <trkpt lat="46.91403" lon="-1.04315">
        <ele>140.97</ele>
        <time>2016-07-16T10:11:50Z</time>
      </trkpt>
      <trkpt lat="46.91319" lon="-1.04392">
        <ele>137.61</ele>
        <time>2016-07-16T10:11:53Z</time>
      </trkpt>
      <trkpt lat="46.91185" lon="-1.04511">
        <ele>133.76</ele>
        <time>2016-07-16T10:11:58Z</time>
      </trkpt>
      <trkpt lat="46.91073" lon="-1.04608">
        <ele>130.4</ele>
        <time>2016-07-16T10:12:02Z</time>
      </trkpt>
      <trkpt lat="46.9099" lon="-1.0468">
        <ele>127.03</ele>
        <time>2016-07-16T10:12:05Z</time>
      </trkpt>
      <trkpt lat="46.90911" lon="-1.04751">
        <ele>124.63</ele>
        <time>2016-07-16T10:12:08Z</time>
      </trkpt>
      <trkpt lat="46.90811" lon="-1.04847">
        <ele>121.74</ele>
        <time>2016-07-16T10:12:12Z</time>
      </trkpt>
      <trkpt lat="46.90648" lon="-1.05025">
        <ele>118.38</ele>
        <time>2016-07-16T10:12:19Z</time>
      </trkpt>
      <trkpt lat="46.90606" lon="-1.05076">
        <ele>116.94</ele>
        <time>2016-07-16T10:12:21Z</time>
      </trkpt>
      <trkpt lat="46.90519" lon="-1.05194">
        <ele>113.57</ele>
        <time>2016-07-16T10:12:26Z</time>
      </trkpt>
      <trkpt lat="46.9048" lon="-1.0525">
        <ele>111.65</ele>
        <time>2016-07-16T10:12:29Z</time>
      </trkpt>
      <trkpt lat="46.9046" lon="-1.05284">
        <ele>110.69</ele>
        <time>2016-07-16T10:12:31Z</time>
      </trkpt>
      <trkpt lat="46.90453" lon="-1.05301">
        <ele>110.69</ele>
        <time>2016-07-16T10:12:32Z</time>
      </trkpt>
      <trkpt lat="46.90446" lon="-1.05319">
        <ele>110.69</ele>
        <time>2016-07-16T10:12:33Z</time>
      </trkpt>
      <trkpt lat="46.90442" lon="-1.05338">
        <ele>110.69</ele>
        <time>2016-07-16T10:12:34Z</time>
      </trkpt>
      <trkpt lat="46.9044" lon="-1.05358">
        <ele>110.69</ele>
        <time>2016-07-16T10:12:35Z</time>
      </trkpt>
      <trkpt lat="46.90439" lon="-1.05378">
        <ele>110.69</ele>
        <time>2016-07-16T10:12:36Z</time>
      </trkpt>
      <trkpt lat="46.90441" lon="-1.05398">
        <ele>110.69</ele>
        <time>2016-07-16T10:12:37Z</time>
      </trkpt>
      <trkpt lat="46.90442" lon="-1.05416">
        <ele>110.69</ele>
        <time>2016-07-16T10:12:38Z</time>
      </trkpt>
      <trkpt lat="46.90448" lon="-1.05487">
        <ele>110.69</ele>
        <time>2016-07-16T10:12:42Z</time>
      </trkpt>
      <trkpt lat="46.90446" lon="-1.05503">
        <ele>110.69</ele>
        <time>2016-07-16T10:12:43Z</time>
      </trkpt>
      <trkpt lat="46.90443" lon="-1.05518">
        <ele>112.13</ele>
        <time>2016-07-16T10:12:44Z</time>
      </trkpt>
      <trkpt lat="46.90437" lon="-1.05531">
        <ele>112.13</ele>
        <time>2016-07-16T10:12:45Z</time>
      </trkpt>
      <trkpt lat="46.90429" lon="-1.05543">
        <ele>112.13</ele>
        <time>2016-07-16T10:12:46Z</time>
      </trkpt>
      <trkpt lat="46.9042" lon="-1.05551">
        <ele>112.61</ele>
        <time>2016-07-16T10:12:47Z</time>
      </trkpt>
      <trkpt lat="46.9041" lon="-1.05556">
        <ele>112.61</ele>
        <time>2016-07-16T10:12:48Z</time>
      </trkpt>
      <trkpt lat="46.90398" lon="-1.05557">
        <ele>113.09</ele>
        <time>2016-07-16T10:12:49Z</time>
      </trkpt>
      <trkpt lat="46.90387" lon="-1.05555">
        <ele>113.09</ele>
        <time>2016-07-16T10:12:50Z</time>
      </trkpt>
      <trkpt lat="46.90376" lon="-1.05549">
        <ele>114.05</ele>
        <time>2016-07-16T10:12:51Z</time>
      </trkpt>
      <trkpt lat="46.90366" lon="-1.05539">
        <ele>114.53</ele>
        <time>2016-07-16T10:12:52Z</time>
      </trkpt>
      <trkpt lat="46.90356" lon="-1.05529">
        <ele>114.53</ele>
        <time>2016-07-16T10:12:53Z</time>
      </trkpt>
      <trkpt lat="46.90347" lon="-1.05516">
        <ele>115.01</ele>
        <time>2016-07-16T10:12:54Z</time>
      </trkpt>
      <trkpt lat="46.9025" lon="-1.05377">
        <ele>114.05</ele>
        <time>2016-07-16T10:13:05Z</time>
      </trkpt>
      <trkpt lat="46.90215" lon="-1.05247">
        <ele>113.09</ele>
        <time>2016-07-16T10:13:13Z</time>
      </trkpt>
      <trkpt lat="46.90218" lon="-1.05079">
        <ele>113.09</ele>
        <time>2016-07-16T10:13:23Z</time>
      </trkpt>
      <trkpt lat="46.90218" lon="-1.05005">
        <ele>113.09</ele>
        <time>2016-07-16T10:13:29Z</time>
      </trkpt>
      <trkpt lat="46.90217" lon="-1.04996">
        <ele>113.09</ele>
        <time>2016-07-16T10:13:30Z</time>
      </trkpt>
      <trkpt lat="46.90214" lon="-1.04987">
        <ele>113.09</ele>
        <time>2016-07-16T10:13:31Z</time>
      </trkpt>
      <trkpt lat="46.9021" lon="-1.04979">
        <ele>113.09</ele>
        <time>2016-07-16T10:13:32Z</time>
      </trkpt>
      <trkpt lat="46.90206" lon="-1.04971">
        <ele>113.09</ele>
        <time>2016-07-16T10:13:33Z</time>
      </trkpt>
      <trkpt lat="46.90204" lon="-1.04962">
        <ele>113.09</ele>
        <time>2016-07-16T10:13:34Z</time>
      </trkpt>
      <trkpt lat="46.90204" lon="-1.04954">
        <ele>114.53</ele>
        <time>2016-07-16T10:13:35Z</time>
      </trkpt>
      <trkpt lat="46.90207" lon="-1.04946">
        <ele>114.53</ele>
        <time>2016-07-16T10:13:36Z</time>
      </trkpt>
      <trkpt lat="46.9021" lon="-1.0494">
        <ele>114.53</ele>
        <time>2016-07-16T10:13:37Z</time>
      </trkpt>
      <trkpt lat="46.90216" lon="-1.04936">
        <ele>114.53</ele>
        <time>2016-07-16T10:13:38Z</time>
      </trkpt>
      <trkpt lat="46.90222" lon="-1.04935">
        <ele>115.01</ele>
        <time>2016-07-16T10:13:39Z</time>
      </trkpt>
      <trkpt lat="46.90229" lon="-1.04937">
        <ele>115.01</ele>
        <time>2016-07-16T10:13:40Z</time>
      </trkpt>
      <trkpt lat="46.90237" lon="-1.04938">
        <ele>115.01</ele>
        <time>2016-07-16T10:13:41Z</time>
      </trkpt>
      <trkpt lat="46.90245" lon="-1.04938">
        <ele>115.01</ele>
        <time>2016-07-16T10:13:42Z</time>
      </trkpt>
      <trkpt lat="46.90253" lon="-1.04935">
        <ele>115.01</ele>
        <time>2016-07-16T10:13:43Z</time>
      </trkpt>
      <trkpt lat="46.9026" lon="-1.04929">
        <ele>115.01</ele>
        <time>2016-07-16T10:13:44Z</time>
      </trkpt>
      <trkpt lat="46.90267" lon="-1.0492">
        <ele>115.01</ele>
        <time>2016-07-16T10:13:45Z</time>
      </trkpt>
      <trkpt lat="46.90273" lon="-1.04911">
        <ele>115.01</ele>
        <time>2016-07-16T10:13:46Z</time>
      </trkpt>
      <trkpt lat="46.90278" lon="-1.04901">
        <ele>115.01</ele>
        <time>2016-07-16T10:13:47Z</time>
      </trkpt>
      <trkpt lat="46.90283" lon="-1.04891">
        <ele>115.01</ele>
        <time>2016-07-16T10:13:48Z</time>
      </trkpt>
      <trkpt lat="46.90318" lon="-1.04846">
        <ele>115.01</ele>
        <time>2016-07-16T10:13:55Z</time>
      </trkpt>
      <trkpt lat="46.90324" lon="-1.04842">
        <ele>115.01</ele>
        <time>2016-07-16T10:13:56Z</time>
      </trkpt>
      <trkpt lat="46.9033" lon="-1.04839">
        <ele>115.01</ele>
        <time>2016-07-16T10:13:57Z</time>
      </trkpt>
      <trkpt lat="46.90336" lon="-1.04837">
        <ele>115.01</ele>
        <time>2016-07-16T10:13:58Z</time>
      </trkpt>
      <trkpt lat="46.90341" lon="-1.04836">
        <ele>115.01</ele>
        <time>2016-07-16T10:13:59Z</time>
      </trkpt>
      <trkpt lat="46.90345" lon="-1.04835">
        <ele>115.01</ele>
        <time>2016-07-16T10:14:00Z</time>
      </trkpt>
      <trkpt lat="46.90352" lon="-1.04834">
        <ele>115.01</ele>
        <time>2016-07-16T10:14:02Z</time>
      </trkpt>
      <trkpt lat="46.90356" lon="-1.04832">
        <ele>115.01</ele>
        <time>2016-07-16T10:14:03Z</time>
      </trkpt>
      <trkpt lat="46.9036" lon="-1.0483">
        <ele>115.01</ele>
        <time>2016-07-16T10:14:04Z</time>
      </trkpt>
      <trkpt lat="46.90397" lon="-1.04808">
        <ele>115.5</ele>
        <time>2016-07-16T10:14:17Z</time>
      </trkpt>
      <trkpt lat="46.90396" lon="-1.04808">
        <ele>115.5</ele>
        <time>2016-07-16T10:14:41Z</time>
      </trkpt>
      <trkpt lat="46.90397" lon="-1.04808">
        <ele>115.98</ele>
        <time>2016-07-16T10:15:20Z</time>
      </trkpt>
      <trkpt lat="46.90394" lon="-1.04807">
        <ele>115.98</ele>
        <time>2016-07-16T10:15:54Z</time>
      </trkpt>
      <trkpt lat="46.90402" lon="-1.04804">
        <ele>115.98</ele>
        <time>2016-07-16T10:16:11Z</time>
      </trkpt>
      <trkpt lat="46.90405" lon="-1.04801">
        <ele>115.98</ele>
        <time>2016-07-16T10:16:21Z</time>
      </trkpt>
      <trkpt lat="46.90409" lon="-1.048">
        <ele>117.9</ele>
        <time>2016-07-16T10:16:58Z</time>
      </trkpt>
      <trkpt lat="46.90409" lon="-1.04802">
        <ele>115.98</ele>
        <time>2016-07-16T10:17:05Z</time>
      </trkpt>
      <trkpt lat="46.90408" lon="-1.04802">
        <ele>117.9</ele>
        <time>2016-07-16T10:17:26Z</time>
      </trkpt>
      <trkpt lat="46.90408" lon="-1.04802">
        <ele>115.98</ele>
        <time>2016-07-16T10:17:28Z</time>
      </trkpt>
      <trkpt lat="46.90408" lon="-1.04803">
        <ele>115.98</ele>
        <time>2016-07-16T10:17:59Z</time>
      </trkpt>
      <trkpt lat="46.90407" lon="-1.04802">
        <ele>115.98</ele>
        <time>2016-07-16T10:18:42Z</time>
      </trkpt>
      <trkpt lat="46.90412" lon="-1.048">
        <ele>115.98</ele>
        <time>2016-07-16T10:19:24Z</time>
      </trkpt>
      <trkpt lat="46.90413" lon="-1.048">
        <ele>115.98</ele>
        <time>2016-07-16T10:20:05Z</time>
      </trkpt>
      <trkpt lat="46.90413" lon="-1.04802">
        <ele>117.42</ele>
        <time>2016-07-16T10:20:41Z</time>
      </trkpt>
      <trkpt lat="46.90412" lon="-1.04802">
        <ele>115.98</ele>
        <time>2016-07-16T10:20:45Z</time>
      </trkpt>
      <trkpt lat="46.90431" lon="-1.04799">
        <ele>115.98</ele>
        <time>2016-07-16T10:20:53Z</time>
      </trkpt>
      <trkpt lat="46.90453" lon="-1.04785">
        <ele>115.98</ele>
        <time>2016-07-16T10:20:59Z</time>
      </trkpt>
      <trkpt lat="46.90456" lon="-1.04786">
        <ele>115.98</ele>
        <time>2016-07-16T10:21:00Z</time>
      </trkpt>
      <trkpt lat="46.9046" lon="-1.04788">
        <ele>115.98</ele>
        <time>2016-07-16T10:21:01Z</time>
      </trkpt>
      <trkpt lat="46.90475" lon="-1.04793">
        <ele>115.5</ele>
        <time>2016-07-16T10:21:12Z</time>
      </trkpt>
      <trkpt lat="46.90474" lon="-1.04795">
        <ele>115.5</ele>
        <time>2016-07-16T10:21:22Z</time>
      </trkpt>
      <trkpt lat="46.90476" lon="-1.04801">
        <ele>115.98</ele>
        <time>2016-07-16T10:21:25Z</time>
      </trkpt>
      <trkpt lat="46.90478" lon="-1.04802">
        <ele>116.94</ele>
        <time>2016-07-16T10:21:31Z</time>
      </trkpt>
      <trkpt lat="46.90474" lon="-1.048">
        <ele>116.94</ele>
        <time>2016-07-16T10:22:06Z</time>
      </trkpt>
      <trkpt lat="46.90473" lon="-1.048">
        <ele>117.42</ele>
        <time>2016-07-16T10:22:44Z</time>
      </trkpt>
      <trkpt lat="46.90473" lon="-1.048">
        <ele>118.38</ele>
        <time>2016-07-16T10:23:17Z</time>
      </trkpt>
      <trkpt lat="46.90474" lon="-1.04801">
        <ele>116.94</ele>
        <time>2016-07-16T10:23:34Z</time>
      </trkpt>
      <trkpt lat="46.90475" lon="-1.04802">
        <ele>116.94</ele>
        <time>2016-07-16T10:24:04Z</time>
      </trkpt>
      <trkpt lat="46.90473" lon="-1.048">
        <ele>116.94</ele>
        <time>2016-07-16T10:24:45Z</time>
      </trkpt>
      <trkpt lat="46.90475" lon="-1.048">
        <ele>116.94</ele>
        <time>2016-07-16T10:25:32Z</time>
      </trkpt>
      <trkpt lat="46.90474" lon="-1.04798">
        <ele>118.38</ele>
        <time>2016-07-16T10:26:15Z</time>
      </trkpt>
      <trkpt lat="46.90472" lon="-1.04797">
        <ele>118.38</ele>
        <time>2016-07-16T10:26:59Z</time>
      </trkpt>
      <trkpt lat="46.90472" lon="-1.04798">
        <ele>117.42</ele>
        <time>2016-07-16T10:27:09Z</time>
      </trkpt>
      <trkpt lat="46.90471" lon="-1.04797">
        <ele>118.86</ele>
        <time>2016-07-16T10:27:50Z</time>
      </trkpt>
      <trkpt lat="46.90471" lon="-1.04796">
        <ele>118.86</ele>
        <time>2016-07-16T10:28:32Z</time>
      </trkpt>
      <trkpt lat="46.90471" lon="-1.04796">
        <ele>118.86</ele>
        <time>2016-07-16T10:29:04Z</time>
      </trkpt>
      <trkpt lat="46.9047" lon="-1.04797">
        <ele>118.86</ele>
        <time>2016-07-16T10:29:37Z</time>
      </trkpt>
      <trkpt lat="46.9047" lon="-1.04798">
        <ele>119.34</ele>
        <time>2016-07-16T10:30:13Z</time>
      </trkpt>
      <trkpt lat="46.90471" lon="-1.04798">
        <ele>119.34</ele>
        <time>2016-07-16T10:30:53Z</time>
      </trkpt>
      <trkpt lat="46.90471" lon="-1.04798">
        <ele>119.82</ele>
        <time>2016-07-16T10:31:35Z</time>
      </trkpt>
      <trkpt lat="46.90471" lon="-1.04797">
        <ele>119.82</ele>
        <time>2016-07-16T10:32:12Z</time>
      </trkpt>
      <trkpt lat="46.90469" lon="-1.04795">
        <ele>119.82</ele>
        <time>2016-07-16T10:32:58Z</time>
      </trkpt>
      <trkpt lat="46.9047" lon="-1.04796">
        <ele>120.3</ele>
        <time>2016-07-16T10:33:41Z</time>
      </trkpt>
      <trkpt lat="46.90471" lon="-1.04797">
        <ele>120.3</ele>
        <time>2016-07-16T10:34:11Z</time>
      </trkpt>
      <trkpt lat="46.90471" lon="-1.04797">
        <ele>120.3</ele>
        <time>2016-07-16T10:34:47Z</time>
      </trkpt>
      <trkpt lat="46.90471" lon="-1.04798">
        <ele>120.3</ele>
        <time>2016-07-16T10:35:21Z</time>
      </trkpt>
      <trkpt lat="46.90472" lon="-1.04799">
        <ele>120.3</ele>
        <time>2016-07-16T10:35:57Z</time>
      </trkpt>
      <trkpt lat="46.90472" lon="-1.04798">
        <ele>120.3</ele>
        <time>2016-07-16T10:36:33Z</time>
      </trkpt>
      <trkpt lat="46.90473" lon="-1.04798">
        <ele>119.34</ele>
        <time>2016-07-16T10:36:49Z</time>
      </trkpt>
      <trkpt lat="46.90472" lon="-1.04798">
        <ele>120.3</ele>
        <time>2016-07-16T10:37:22Z</time>
      </trkpt>
      <trkpt lat="46.90472" lon="-1.04799">
        <ele>120.3</ele>
        <time>2016-07-16T10:38:02Z</time>
      </trkpt>
      <trkpt lat="46.90473" lon="-1.04799">
        <ele>120.78</ele>
        <time>2016-07-16T10:38:46Z</time>
      </trkpt>
      <trkpt lat="46.90474" lon="-1.048">
        <ele>120.78</ele>
        <time>2016-07-16T10:39:30Z</time>
      </trkpt>
      <trkpt lat="46.90474" lon="-1.048">
        <ele>120.78</ele>
        <time>2016-07-16T10:40:05Z</time>
      </trkpt>
      <trkpt lat="46.90474" lon="-1.048">
        <ele>120.78</ele>
        <time>2016-07-16T10:40:41Z</time>
      </trkpt>
      <trkpt lat="46.90474" lon="-1.04801">
        <ele>121.26</ele>
        <time>2016-07-16T10:41:15Z</time>
      </trkpt>
      <trkpt lat="46.90474" lon="-1.04802">
        <ele>121.26</ele>
        <time>2016-07-16T10:41:47Z</time>
      </trkpt>
      <trkpt lat="46.90475" lon="-1.04801">
        <ele>121.26</ele>
        <time>2016-07-16T10:42:20Z</time>
      </trkpt>
      <trkpt lat="46.90475" lon="-1.04802">
        <ele>121.26</ele>
        <time>2016-07-16T10:42:56Z</time>
      </trkpt>
      <trkpt lat="46.90475" lon="-1.04801">
        <ele>121.26</ele>
        <time>2016-07-16T10:43:38Z</time>
      </trkpt>
      <trkpt lat="46.90475" lon="-1.04801">
        <ele>121.26</ele>
        <time>2016-07-16T10:44:13Z</time>
      </trkpt>
      <trkpt lat="46.90476" lon="-1.04802">
        <ele>121.26</ele>
        <time>2016-07-16T10:44:46Z</time>
      </trkpt>
      <trkpt lat="46.90476" lon="-1.04802">
        <ele>121.74</ele>
        <time>2016-07-16T10:45:25Z</time>
      </trkpt>
      <trkpt lat="46.90477" lon="-1.04803">
        <ele>121.74</ele>
        <time>2016-07-16T10:46:03Z</time>
      </trkpt>
      <trkpt lat="46.90476" lon="-1.04801">
        <ele>121.26</ele>
        <time>2016-07-16T10:46:46Z</time>
      </trkpt>
      <trkpt lat="46.90476" lon="-1.04802">
        <ele>121.26</ele>
        <time>2016-07-16T10:47:19Z</time>
      </trkpt>
      <trkpt lat="46.90477" lon="-1.04802">
        <ele>121.26</ele>
        <time>2016-07-16T10:47:59Z</time>
      </trkpt>
      <trkpt lat="46.90477" lon="-1.04803">
        <ele>121.26</ele>
        <time>2016-07-16T10:48:32Z</time>
      </trkpt>
      <trkpt lat="46.90477" lon="-1.04803">
        <ele>121.74</ele>
        <time>2016-07-16T10:49:15Z</time>
      </trkpt>
      <trkpt lat="46.90479" lon="-1.04803">
        <ele>121.74</ele>
        <time>2016-07-16T10:49:54Z</time>
      </trkpt>
      <trkpt lat="46.90479" lon="-1.04804">
        <ele>121.74</ele>
        <time>2016-07-16T10:50:37Z</time>
      </trkpt>
      <trkpt lat="46.90479" lon="-1.04803">
        <ele>121.74</ele>
        <time>2016-07-16T10:51:26Z</time>
      </trkpt>
      <trkpt lat="46.90478" lon="-1.04804">
        <ele>121.74</ele>
        <time>2016-07-16T10:52:00Z</time>
      </trkpt>
      <trkpt lat="46.90478" lon="-1.04803">
        <ele>121.74</ele>
        <time>2016-07-16T10:52:39Z</time>
      </trkpt>
      <trkpt lat="46.90476" lon="-1.04801">
        <ele>121.74</ele>
        <time>2016-07-16T10:53:17Z</time>
      </trkpt>
      <trkpt lat="46.90476" lon="-1.04799">
        <ele>122.22</ele>
        <time>2016-07-16T10:53:52Z</time>
      </trkpt>
      <trkpt lat="46.90475" lon="-1.04798">
        <ele>122.71</ele>
        <time>2016-07-16T10:54:26Z</time>
      </trkpt>
      <trkpt lat="46.90475" lon="-1.04798">
        <ele>121.26</ele>
        <time>2016-07-16T10:54:42Z</time>
      </trkpt>
      <trkpt lat="46.90475" lon="-1.04798">
        <ele>122.71</ele>
        <time>2016-07-16T10:54:47Z</time>
      </trkpt>
      <trkpt lat="46.90473" lon="-1.048">
        <ele>121.74</ele>
        <time>2016-07-16T10:55:18Z</time>
      </trkpt>
      <trkpt lat="46.90472" lon="-1.04801">
        <ele>122.71</ele>
        <time>2016-07-16T10:55:23Z</time>
      </trkpt>
      <trkpt lat="46.90473" lon="-1.04802">
        <ele>120.3</ele>
        <time>2016-07-16T10:55:55Z</time>
      </trkpt>
      <trkpt lat="46.90472" lon="-1.04795">
        <ele>120.3</ele>
        <time>2016-07-16T10:56:19Z</time>
      </trkpt>
      <trkpt lat="46.90474" lon="-1.04795">
        <ele>121.26</ele>
        <time>2016-07-16T10:56:23Z</time>
      </trkpt>
      <trkpt lat="46.9052" lon="-1.04762">
        <ele>121.74</ele>
        <time>2016-07-16T10:56:40Z</time>
      </trkpt>
      <trkpt lat="46.90601" lon="-1.04705">
        <ele>122.22</ele>
        <time>2016-07-16T10:57:04Z</time>
      </trkpt>
      <trkpt lat="46.90665" lon="-1.0466">
        <ele>123.19</ele>
        <time>2016-07-16T10:57:14Z</time>
      </trkpt>
      <trkpt lat="46.9067" lon="-1.04658">
        <ele>123.19</ele>
        <time>2016-07-16T10:57:15Z</time>
      </trkpt>
      <trkpt lat="46.90674" lon="-1.04658">
        <ele>123.19</ele>
        <time>2016-07-16T10:57:16Z</time>
      </trkpt>
      <trkpt lat="46.90678" lon="-1.04659">
        <ele>123.19</ele>
        <time>2016-07-16T10:57:17Z</time>
      </trkpt>
      <trkpt lat="46.90681" lon="-1.04661">
        <ele>123.19</ele>
        <time>2016-07-16T10:57:18Z</time>
      </trkpt>
      <trkpt lat="46.90683" lon="-1.04666">
        <ele>123.19</ele>
        <time>2016-07-16T10:57:19Z</time>
      </trkpt>
      <trkpt lat="46.90684" lon="-1.04672">
        <ele>123.19</ele>
        <time>2016-07-16T10:57:20Z</time>
      </trkpt>
      <trkpt lat="46.90686" lon="-1.04681">
        <ele>123.19</ele>
        <time>2016-07-16T10:57:21Z</time>
      </trkpt>
      <trkpt lat="46.90687" lon="-1.04691">
        <ele>123.19</ele>
        <time>2016-07-16T10:57:22Z</time>
      </trkpt>
      <trkpt lat="46.90688" lon="-1.04703">
        <ele>123.19</ele>
        <time>2016-07-16T10:57:23Z</time>
      </trkpt>
      <trkpt lat="46.90688" lon="-1.04716">
        <ele>123.19</ele>
        <time>2016-07-16T10:57:24Z</time>
      </trkpt>
      <trkpt lat="46.90687" lon="-1.0473">
        <ele>123.19</ele>
        <time>2016-07-16T10:57:25Z</time>
      </trkpt>
      <trkpt lat="46.90685" lon="-1.04746">
        <ele>123.67</ele>
        <time>2016-07-16T10:57:26Z</time>
      </trkpt>
      <trkpt lat="46.90682" lon="-1.04763">
        <ele>123.67</ele>
        <time>2016-07-16T10:57:27Z</time>
      </trkpt>
      <trkpt lat="46.90678" lon="-1.04779">
        <ele>123.67</ele>
        <time>2016-07-16T10:57:28Z</time>
      </trkpt>
      <trkpt lat="46.90674" lon="-1.04794">
        <ele>123.67</ele>
        <time>2016-07-16T10:57:29Z</time>
      </trkpt>
      <trkpt lat="46.90668" lon="-1.04808">
        <ele>123.67</ele>
        <time>2016-07-16T10:57:30Z</time>
      </trkpt>
      <trkpt lat="46.90661" lon="-1.04821">
        <ele>123.67</ele>
        <time>2016-07-16T10:57:31Z</time>
      </trkpt>
      <trkpt lat="46.90654" lon="-1.04831">
        <ele>123.67</ele>
        <time>2016-07-16T10:57:32Z</time>
      </trkpt>
      <trkpt lat="46.90645" lon="-1.04842">
        <ele>122.71</ele>
        <time>2016-07-16T10:57:33Z</time>
      </trkpt>
      <trkpt lat="46.90636" lon="-1.0485">
        <ele>122.22</ele>
        <time>2016-07-16T10:57:34Z</time>
      </trkpt>
      <trkpt lat="46.90626" lon="-1.04858">
        <ele>122.22</ele>
        <time>2016-07-16T10:57:35Z</time>
      </trkpt>
      <trkpt lat="46.90542" lon="-1.04925">
        <ele>121.26</ele>
        <time>2016-07-16T10:57:44Z</time>
      </trkpt>
      <trkpt lat="46.90535" lon="-1.04936">
        <ele>121.26</ele>
        <time>2016-07-16T10:57:45Z</time>
      </trkpt>
      <trkpt lat="46.90468" lon="-1.05049">
        <ele>120.3</ele>
        <time>2016-07-16T10:57:55Z</time>
      </trkpt>
      <trkpt lat="46.90461" lon="-1.05057">
        <ele>120.3</ele>
        <time>2016-07-16T10:57:56Z</time>
      </trkpt>
      <trkpt lat="46.90453" lon="-1.05063">
        <ele>120.3</ele>
        <time>2016-07-16T10:57:57Z</time>
      </trkpt>
      <trkpt lat="46.90444" lon="-1.05069">
        <ele>120.3</ele>
        <time>2016-07-16T10:57:58Z</time>
      </trkpt>
      <trkpt lat="46.90435" lon="-1.05073">
        <ele>120.3</ele>
        <time>2016-07-16T10:57:59Z</time>
      </trkpt>
      <trkpt lat="46.90426" lon="-1.05077">
        <ele>120.3</ele>
        <time>2016-07-16T10:58:00Z</time>
      </trkpt>
      <trkpt lat="46.90416" lon="-1.0508">
        <ele>119.82</ele>
        <time>2016-07-16T10:58:01Z</time>
      </trkpt>
      <trkpt lat="46.90406" lon="-1.05081">
        <ele>119.82</ele>
        <time>2016-07-16T10:58:02Z</time>
      </trkpt>
      <trkpt lat="46.90396" lon="-1.05082">
        <ele>119.82</ele>
        <time>2016-07-16T10:58:03Z</time>
      </trkpt>
      <trkpt lat="46.90386" lon="-1.0508">
        <ele>119.82</ele>
        <time>2016-07-16T10:58:04Z</time>
      </trkpt>
      <trkpt lat="46.90375" lon="-1.05078">
        <ele>119.82</ele>
        <time>2016-07-16T10:58:05Z</time>
      </trkpt>
      <trkpt lat="46.90365" lon="-1.05073">
        <ele>119.82</ele>
        <time>2016-07-16T10:58:06Z</time>
      </trkpt>
      <trkpt lat="46.90355" lon="-1.05068">
        <ele>119.82</ele>
        <time>2016-07-16T10:58:07Z</time>
      </trkpt>
      <trkpt lat="46.90345" lon="-1.0506">
        <ele>119.82</ele>
        <time>2016-07-16T10:58:08Z</time>
      </trkpt>
      <trkpt lat="46.90335" lon="-1.05052">
        <ele>119.82</ele>
        <time>2016-07-16T10:58:09Z</time>
      </trkpt>
      <trkpt lat="46.90247" lon="-1.04986">
        <ele>119.34</ele>
        <time>2016-07-16T10:58:19Z</time>
      </trkpt>
      <trkpt lat="46.9024" lon="-1.04983">
        <ele>119.34</ele>
        <time>2016-07-16T10:58:20Z</time>
      </trkpt>
      <trkpt lat="46.90232" lon="-1.04983">
        <ele>119.34</ele>
        <time>2016-07-16T10:58:21Z</time>
      </trkpt>
      <trkpt lat="46.90226" lon="-1.04987">
        <ele>119.34</ele>
        <time>2016-07-16T10:58:22Z</time>
      </trkpt>
      <trkpt lat="46.90221" lon="-1.04994">
        <ele>119.34</ele>
        <time>2016-07-16T10:58:23Z</time>
      </trkpt>
      <trkpt lat="46.90217" lon="-1.05005">
        <ele>119.34</ele>
        <time>2016-07-16T10:58:24Z</time>
      </trkpt>
      <trkpt lat="46.90216" lon="-1.05016">
        <ele>119.34</ele>
        <time>2016-07-16T10:58:25Z</time>
      </trkpt>
      <trkpt lat="46.90215" lon="-1.05031">
        <ele>119.34</ele>
        <time>2016-07-16T10:58:26Z</time>
      </trkpt>
      <trkpt lat="46.90215" lon="-1.05047">
        <ele>119.34</ele>
        <time>2016-07-16T10:58:27Z</time>
      </trkpt>
      <trkpt lat="46.90215" lon="-1.05063">
        <ele>119.34</ele>
        <time>2016-07-16T10:58:28Z</time>
      </trkpt>
      <trkpt lat="46.90217" lon="-1.05262">
        <ele>118.86</ele>
        <time>2016-07-16T10:58:38Z</time>
      </trkpt>
      <trkpt lat="46.90227" lon="-1.05323">
        <ele>118.38</ele>
        <time>2016-07-16T10:58:41Z</time>
      </trkpt>
      <trkpt lat="46.90233" lon="-1.05342">
        <ele>118.38</ele>
        <time>2016-07-16T10:58:42Z</time>
      </trkpt>
      <trkpt lat="46.9024" lon="-1.05361">
        <ele>118.38</ele>
        <time>2016-07-16T10:58:43Z</time>
      </trkpt>
      <trkpt lat="46.90248" lon="-1.05379">
        <ele>118.38</ele>
        <time>2016-07-16T10:58:44Z</time>
      </trkpt>
      <trkpt lat="46.90257" lon="-1.05396">
        <ele>119.82</ele>
        <time>2016-07-16T10:58:45Z</time>
      </trkpt>
      <trkpt lat="46.90267" lon="-1.05412">
        <ele>120.78</ele>
        <time>2016-07-16T10:58:46Z</time>
      </trkpt>
      <trkpt lat="46.90288" lon="-1.05441">
        <ele>121.26</ele>
        <time>2016-07-16T10:58:48Z</time>
      </trkpt>
      <trkpt lat="46.90376" lon="-1.05546">
        <ele>119.34</ele>
        <time>2016-07-16T10:58:57Z</time>
      </trkpt>
      <trkpt lat="46.90385" lon="-1.05552">
        <ele>119.34</ele>
        <time>2016-07-16T10:58:58Z</time>
      </trkpt>
      <trkpt lat="46.90396" lon="-1.05557">
        <ele>118.86</ele>
        <time>2016-07-16T10:58:59Z</time>
      </trkpt>
      <trkpt lat="46.90407" lon="-1.05558">
        <ele>118.86</ele>
        <time>2016-07-16T10:59:00Z</time>
      </trkpt>
      <trkpt lat="46.90418" lon="-1.05556">
        <ele>118.38</ele>
        <time>2016-07-16T10:59:01Z</time>
      </trkpt>
      <trkpt lat="46.90428" lon="-1.05553">
        <ele>118.38</ele>
        <time>2016-07-16T10:59:02Z</time>
      </trkpt>
      <trkpt lat="46.90437" lon="-1.05543">
        <ele>117.9</ele>
        <time>2016-07-16T10:59:03Z</time>
      </trkpt>
      <trkpt lat="46.90444" lon="-1.0553">
        <ele>117.9</ele>
        <time>2016-07-16T10:59:04Z</time>
      </trkpt>
      <trkpt lat="46.90449" lon="-1.05515">
        <ele>117.9</ele>
        <time>2016-07-16T10:59:05Z</time>
      </trkpt>
      <trkpt lat="46.90452" lon="-1.05499">
        <ele>117.42</ele>
        <time>2016-07-16T10:59:06Z</time>
      </trkpt>
      <trkpt lat="46.90454" lon="-1.05485">
        <ele>117.42</ele>
        <time>2016-07-16T10:59:07Z</time>
      </trkpt>
      <trkpt lat="46.90453" lon="-1.05469">
        <ele>116.94</ele>
        <time>2016-07-16T10:59:08Z</time>
      </trkpt>
      <trkpt lat="46.9045" lon="-1.05455">
        <ele>116.94</ele>
        <time>2016-07-16T10:59:09Z</time>
      </trkpt>
      <trkpt lat="46.90444" lon="-1.05441">
        <ele>116.94</ele>
        <time>2016-07-16T10:59:10Z</time>
      </trkpt>
      <trkpt lat="46.90436" lon="-1.05428">
        <ele>116.46</ele>
        <time>2016-07-16T10:59:11Z</time>
      </trkpt>
      <trkpt lat="46.90427" lon="-1.05418">
        <ele>116.46</ele>
        <time>2016-07-16T10:59:12Z</time>
      </trkpt>
      <trkpt lat="46.90417" lon="-1.05411">
        <ele>115.98</ele>
        <time>2016-07-16T10:59:13Z</time>
      </trkpt>
      <trkpt lat="46.90405" lon="-1.05406">
        <ele>115.98</ele>
        <time>2016-07-16T10:59:14Z</time>
      </trkpt>
      <trkpt lat="46.90393" lon="-1.05406">
        <ele>115.98</ele>
        <time>2016-07-16T10:59:15Z</time>
      </trkpt>
      <trkpt lat="46.9038" lon="-1.05411">
        <ele>115.01</ele>
        <time>2016-07-16T10:59:16Z</time>
      </trkpt>
      <trkpt lat="46.90368" lon="-1.0542">
        <ele>115.01</ele>
        <time>2016-07-16T10:59:17Z</time>
      </trkpt>
      <trkpt lat="46.90357" lon="-1.05433">
        <ele>115.01</ele>
        <time>2016-07-16T10:59:18Z</time>
      </trkpt>
      <trkpt lat="46.90347" lon="-1.05448">
        <ele>115.01</ele>
        <time>2016-07-16T10:59:19Z</time>
      </trkpt>
      <trkpt lat="46.90336" lon="-1.05465">
        <ele>115.01</ele>
        <time>2016-07-16T10:59:20Z</time>
      </trkpt>
      <trkpt lat="46.90258" lon="-1.05601">
        <ele>116.94</ele>
        <time>2016-07-16T10:59:26Z</time>
      </trkpt>
      <trkpt lat="46.90243" lon="-1.05629">
        <ele>116.94</ele>
        <time>2016-07-16T10:59:27Z</time>
      </trkpt>
      <trkpt lat="46.90124" lon="-1.05853">
        <ele>116.94</ele>
        <time>2016-07-16T10:59:34Z</time>
      </trkpt>
      <trkpt lat="46.89969" lon="-1.06213">
        <ele>115.01</ele>
        <time>2016-07-16T10:59:43Z</time>
      </trkpt>
      <trkpt lat="46.89953" lon="-1.06254">
        <ele>115.01</ele>
        <time>2016-07-16T10:59:44Z</time>
      </trkpt>
      <trkpt lat="46.89908" lon="-1.06381">
        <ele>113.57</ele>
        <time>2016-07-16T10:59:47Z</time>
      </trkpt>
      <trkpt lat="46.89769" lon="-1.06863">
        <ele>110.21</ele>
        <time>2016-07-16T10:59:58Z</time>
      </trkpt>
      <trkpt lat="46.89669" lon="-1.07414">
        <ele>109.73</ele>
        <time>2016-07-16T11:00:10Z</time>
      </trkpt>
      <trkpt lat="46.89637" lon="-1.07696">
        <ele>111.17</ele>
        <time>2016-07-16T11:00:16Z</time>
      </trkpt>
      <trkpt lat="46.89541" lon="-1.08444">
        <ele>108.77</ele>
        <time>2016-07-16T11:00:32Z</time>
      </trkpt>
      <trkpt lat="46.89478" lon="-1.08714">
        <ele>105.4</ele>
        <time>2016-07-16T11:00:38Z</time>
      </trkpt>
      <trkpt lat="46.89453" lon="-1.08802">
        <ele>104.44</ele>
        <time>2016-07-16T11:00:40Z</time>
      </trkpt>
      <trkpt lat="46.89412" lon="-1.08932">
        <ele>103</ele>
        <time>2016-07-16T11:00:43Z</time>
      </trkpt>
      <trkpt lat="46.89248" lon="-1.09343">
        <ele>102.52</ele>
        <time>2016-07-16T11:00:53Z</time>
      </trkpt>
      <trkpt lat="46.89042" lon="-1.09712">
        <ele>100.11</ele>
        <time>2016-07-16T11:01:03Z</time>
      </trkpt>
      <trkpt lat="46.88802" lon="-1.10036">
        <ele>97.71</ele>
        <time>2016-07-16T11:01:13Z</time>
      </trkpt>
      <trkpt lat="46.8859" lon="-1.10259">
        <ele>94.35</ele>
        <time>2016-07-16T11:01:21Z</time>
      </trkpt>
      <trkpt lat="46.88507" lon="-1.10338">
        <ele>92.9</ele>
        <time>2016-07-16T11:01:24Z</time>
      </trkpt>
      <trkpt lat="46.88215" lon="-1.10642">
        <ele>90.02</ele>
        <time>2016-07-16T11:01:35Z</time>
      </trkpt>
      <trkpt lat="46.88038" lon="-1.10849">
        <ele>90.5</ele>
        <time>2016-07-16T11:01:42Z</time>
      </trkpt>
      <trkpt lat="46.87818" lon="-1.11131">
        <ele>94.35</ele>
        <time>2016-07-16T11:01:51Z</time>
      </trkpt>
      <trkpt lat="46.8777" lon="-1.11196">
        <ele>95.31</ele>
        <time>2016-07-16T11:01:53Z</time>
      </trkpt>
      <trkpt lat="46.8756" lon="-1.11496">
        <ele>99.15</ele>
        <time>2016-07-16T11:02:02Z</time>
      </trkpt>
      <trkpt lat="46.87538" lon="-1.1153">
        <ele>99.15</ele>
        <time>2016-07-16T11:02:03Z</time>
      </trkpt>
      <trkpt lat="46.87449" lon="-1.1167">
        <ele>97.23</ele>
        <time>2016-07-16T11:02:07Z</time>
      </trkpt>
      <trkpt lat="46.87116" lon="-1.12255">
        <ele>95.31</ele>
        <time>2016-07-16T11:02:23Z</time>
      </trkpt>
      <trkpt lat="46.86926" lon="-1.12641">
        <ele>96.75</ele>
        <time>2016-07-16T11:02:33Z</time>
      </trkpt>
      <trkpt lat="46.86818" lon="-1.12878">
        <ele>100.11</ele>
        <time>2016-07-16T11:02:39Z</time>
      </trkpt>
      <trkpt lat="46.86801" lon="-1.12917">
        <ele>100.11</ele>
        <time>2016-07-16T11:02:40Z</time>
      </trkpt>
      <trkpt lat="46.86714" lon="-1.13117">
        <ele>103.96</ele>
        <time>2016-07-16T11:02:45Z</time>
      </trkpt>
      <trkpt lat="46.86643" lon="-1.13276">
        <ele>107.81</ele>
        <time>2016-07-16T11:02:49Z</time>
      </trkpt>
      <trkpt lat="46.86587" lon="-1.13391">
        <ele>111.17</ele>
        <time>2016-07-16T11:02:52Z</time>
      </trkpt>
      <trkpt lat="46.8646" lon="-1.13607">
        <ele>112.61</ele>
        <time>2016-07-16T11:02:58Z</time>
      </trkpt>
      <trkpt lat="46.8624" lon="-1.13892">
        <ele>115.01</ele>
        <time>2016-07-16T11:03:07Z</time>
      </trkpt>
      <trkpt lat="46.85993" lon="-1.14126">
        <ele>116.94</ele>
        <time>2016-07-16T11:03:16Z</time>
      </trkpt>
      <trkpt lat="46.85815" lon="-1.14246">
        <ele>114.53</ele>
        <time>2016-07-16T11:03:22Z</time>
      </trkpt>
      <trkpt lat="46.85628" lon="-1.1434">
        <ele>111.17</ele>
        <time>2016-07-16T11:03:28Z</time>
      </trkpt>
      <trkpt lat="46.85532" lon="-1.14379">
        <ele>109.73</ele>
        <time>2016-07-16T11:03:31Z</time>
      </trkpt>
      <trkpt lat="46.85407" lon="-1.14423">
        <ele>107.81</ele>
        <time>2016-07-16T11:03:35Z</time>
      </trkpt>
      <trkpt lat="46.85248" lon="-1.1448">
        <ele>104.92</ele>
        <time>2016-07-16T11:03:40Z</time>
      </trkpt>
      <trkpt lat="46.85216" lon="-1.14492">
        <ele>104.92</ele>
        <time>2016-07-16T11:03:41Z</time>
      </trkpt>
      <trkpt lat="46.84997" lon="-1.14583">
        <ele>102.04</ele>
        <time>2016-07-16T11:03:48Z</time>
      </trkpt>
      <trkpt lat="46.84904" lon="-1.1463">
        <ele>100.11</ele>
        <time>2016-07-16T11:03:51Z</time>
      </trkpt>
      <trkpt lat="46.84812" lon="-1.14681">
        <ele>98.67</ele>
        <time>2016-07-16T11:03:54Z</time>
      </trkpt>
      <trkpt lat="46.84573" lon="-1.14833">
        <ele>95.31</ele>
        <time>2016-07-16T11:04:02Z</time>
      </trkpt>
      <trkpt lat="46.84543" lon="-1.14854">
        <ele>95.31</ele>
        <time>2016-07-16T11:04:03Z</time>
      </trkpt>
      <trkpt lat="46.84399" lon="-1.14965">
        <ele>92.9</ele>
        <time>2016-07-16T11:04:08Z</time>
      </trkpt>
      <trkpt lat="46.84203" lon="-1.15138">
        <ele>90.02</ele>
        <time>2016-07-16T11:04:15Z</time>
      </trkpt>
      <trkpt lat="46.84121" lon="-1.15216">
        <ele>87.62</ele>
        <time>2016-07-16T11:04:18Z</time>
      </trkpt>
      <trkpt lat="46.8396" lon="-1.15388">
        <ele>88.58</ele>
        <time>2016-07-16T11:04:24Z</time>
      </trkpt>
      <trkpt lat="46.83913" lon="-1.15442">
        <ele>85.69</ele>
        <time>2016-07-16T11:04:26Z</time>
      </trkpt>
      <trkpt lat="46.83888" lon="-1.15472">
        <ele>85.69</ele>
        <time>2016-07-16T11:04:27Z</time>
      </trkpt>
      <trkpt lat="46.83838" lon="-1.15533">
        <ele>87.14</ele>
        <time>2016-07-16T11:04:29Z</time>
      </trkpt>
      <trkpt lat="46.83533" lon="-1.15959">
        <ele>89.06</ele>
        <time>2016-07-16T11:04:42Z</time>
      </trkpt>
      <trkpt lat="46.83269" lon="-1.16396">
        <ele>90.98</ele>
        <time>2016-07-16T11:04:54Z</time>
      </trkpt>
      <trkpt lat="46.8318" lon="-1.16537">
        <ele>93.39</ele>
        <time>2016-07-16T11:04:58Z</time>
      </trkpt>
      <trkpt lat="46.82849" lon="-1.17011">
        <ele>93.39</ele>
        <time>2016-07-16T11:05:12Z</time>
      </trkpt>
      <trkpt lat="46.82698" lon="-1.17202">
        <ele>97.71</ele>
        <time>2016-07-16T11:05:18Z</time>
      </trkpt>
      <trkpt lat="46.82595" lon="-1.17324">
        <ele>95.79</ele>
        <time>2016-07-16T11:05:22Z</time>
      </trkpt>
      <trkpt lat="46.8232" lon="-1.1767">
        <ele>99.63</ele>
        <time>2016-07-16T11:05:33Z</time>
      </trkpt>
      <trkpt lat="46.82018" lon="-1.18118">
        <ele>100.6</ele>
        <time>2016-07-16T11:05:46Z</time>
      </trkpt>
      <trkpt lat="46.8193" lon="-1.18262">
        <ele>99.15</ele>
        <time>2016-07-16T11:05:50Z</time>
      </trkpt>
      <trkpt lat="46.81624" lon="-1.18833">
        <ele>97.71</ele>
        <time>2016-07-16T11:06:05Z</time>
      </trkpt>
      <trkpt lat="46.81495" lon="-1.19113">
        <ele>98.67</ele>
        <time>2016-07-16T11:06:12Z</time>
      </trkpt>
      <trkpt lat="46.81444" lon="-1.19235">
        <ele>100.6</ele>
        <time>2016-07-16T11:06:15Z</time>
      </trkpt>
      <trkpt lat="46.81296" lon="-1.19612">
        <ele>103.48</ele>
        <time>2016-07-16T11:06:24Z</time>
      </trkpt>
      <trkpt lat="46.81125" lon="-1.20081">
        <ele>106.84</ele>
        <time>2016-07-16T11:06:35Z</time>
      </trkpt>
      <trkpt lat="46.81094" lon="-1.20168">
        <ele>107.81</ele>
        <time>2016-07-16T11:06:37Z</time>
      </trkpt>
      <trkpt lat="46.8103" lon="-1.20345">
        <ele>109.73</ele>
        <time>2016-07-16T11:06:41Z</time>
      </trkpt>
      <trkpt lat="46.80769" lon="-1.20967">
        <ele>112.13</ele>
        <time>2016-07-16T11:06:56Z</time>
      </trkpt>
      <trkpt lat="46.80575" lon="-1.21341">
        <ele>108.77</ele>
        <time>2016-07-16T11:07:06Z</time>
      </trkpt>
      <trkpt lat="46.80338" lon="-1.21744">
        <ele>104.92</ele>
        <time>2016-07-16T11:07:17Z</time>
      </trkpt>
      <trkpt lat="46.80202" lon="-1.21957">
        <ele>103</ele>
        <time>2016-07-16T11:07:23Z</time>
      </trkpt>
      <trkpt lat="46.80111" lon="-1.22098">
        <ele>100.6</ele>
        <time>2016-07-16T11:07:27Z</time>
      </trkpt>
      <trkpt lat="46.7998" lon="-1.22315">
        <ele>97.23</ele>
        <time>2016-07-16T11:07:33Z</time>
      </trkpt>
      <trkpt lat="46.79958" lon="-1.22352">
        <ele>97.23</ele>
        <time>2016-07-16T11:07:34Z</time>
      </trkpt>
      <trkpt lat="46.79809" lon="-1.2261">
        <ele>93.39</ele>
        <time>2016-07-16T11:07:41Z</time>
      </trkpt>
      <trkpt lat="46.79788" lon="-1.22647">
        <ele>93.39</ele>
        <time>2016-07-16T11:07:42Z</time>
      </trkpt>
      <trkpt lat="46.79686" lon="-1.22838">
        <ele>90.02</ele>
        <time>2016-07-16T11:07:47Z</time>
      </trkpt>
      <trkpt lat="46.79666" lon="-1.22876">
        <ele>90.02</ele>
        <time>2016-07-16T11:07:48Z</time>
      </trkpt>
      <trkpt lat="46.7953" lon="-1.2315">
        <ele>86.18</ele>
        <time>2016-07-16T11:07:55Z</time>
      </trkpt>
      <trkpt lat="46.79398" lon="-1.23427">
        <ele>82.81</ele>
        <time>2016-07-16T11:08:02Z</time>
      </trkpt>
      <trkpt lat="46.79268" lon="-1.23714">
        <ele>84.25</ele>
        <time>2016-07-16T11:08:09Z</time>
      </trkpt>
      <trkpt lat="46.79104" lon="-1.24068">
        <ele>86.18</ele>
        <time>2016-07-16T11:08:18Z</time>
      </trkpt>
      <trkpt lat="46.79009" lon="-1.24264">
        <ele>89.54</ele>
        <time>2016-07-16T11:08:23Z</time>
      </trkpt>
      <trkpt lat="46.78989" lon="-1.24302">
        <ele>89.54</ele>
        <time>2016-07-16T11:08:24Z</time>
      </trkpt>
      <trkpt lat="46.78907" lon="-1.24455">
        <ele>91.94</ele>
        <time>2016-07-16T11:08:28Z</time>
      </trkpt>
      <trkpt lat="46.78797" lon="-1.2465">
        <ele>94.35</ele>
        <time>2016-07-16T11:08:33Z</time>
      </trkpt>
      <trkpt lat="46.78626" lon="-1.24928">
        <ele>97.23</ele>
        <time>2016-07-16T11:08:41Z</time>
      </trkpt>
      <trkpt lat="46.7829" lon="-1.25393">
        <ele>98.19</ele>
        <time>2016-07-16T11:08:55Z</time>
      </trkpt>
      <trkpt lat="46.78034" lon="-1.25702">
        <ele>95.79</ele>
        <time>2016-07-16T11:09:05Z</time>
      </trkpt>
      <trkpt lat="46.77904" lon="-1.25852">
        <ele>96.27</ele>
        <time>2016-07-16T11:09:10Z</time>
      </trkpt>
      <trkpt lat="46.778" lon="-1.25971">
        <ele>94.35</ele>
        <time>2016-07-16T11:09:14Z</time>
      </trkpt>
      <trkpt lat="46.77476" lon="-1.26306">
        <ele>94.35</ele>
        <time>2016-07-16T11:09:26Z</time>
      </trkpt>
      <trkpt lat="46.77193" lon="-1.26554">
        <ele>97.71</ele>
        <time>2016-07-16T11:09:36Z</time>
      </trkpt>
      <trkpt lat="46.76887" lon="-1.26737">
        <ele>100.11</ele>
        <time>2016-07-16T11:09:46Z</time>
      </trkpt>
      <trkpt lat="46.76729" lon="-1.26802">
        <ele>101.56</ele>
        <time>2016-07-16T11:09:51Z</time>
      </trkpt>
      <trkpt lat="46.76598" lon="-1.26838">
        <ele>103</ele>
        <time>2016-07-16T11:09:55Z</time>
      </trkpt>
      <trkpt lat="46.76299" lon="-1.26873">
        <ele>103.48</ele>
        <time>2016-07-16T11:10:04Z</time>
      </trkpt>
      <trkpt lat="46.76166" lon="-1.26869">
        <ele>102.04</ele>
        <time>2016-07-16T11:10:08Z</time>
      </trkpt>
      <trkpt lat="46.75737" lon="-1.26815">
        <ele>99.15</ele>
        <time>2016-07-16T11:10:21Z</time>
      </trkpt>
      <trkpt lat="46.75704" lon="-1.2681">
        <ele>99.15</ele>
        <time>2016-07-16T11:10:22Z</time>
      </trkpt>
      <trkpt lat="46.75112" lon="-1.26699">
        <ele>96.27</ele>
        <time>2016-07-16T11:10:40Z</time>
      </trkpt>
      <trkpt lat="46.74782" lon="-1.26657">
        <ele>97.23</ele>
        <time>2016-07-16T11:10:50Z</time>
      </trkpt>
      <trkpt lat="46.74683" lon="-1.26652">
        <ele>95.79</ele>
        <time>2016-07-16T11:10:53Z</time>
      </trkpt>
      <trkpt lat="46.74548" lon="-1.26656">
        <ele>99.63</ele>
        <time>2016-07-16T11:10:57Z</time>
      </trkpt>
      <trkpt lat="46.74442" lon="-1.26671">
        <ele>101.56</ele>
        <time>2016-07-16T11:11:00Z</time>
      </trkpt>
      <trkpt lat="46.74334" lon="-1.26698">
        <ele>104.92</ele>
        <time>2016-07-16T11:11:03Z</time>
      </trkpt>
      <trkpt lat="46.74292" lon="-1.26711">
        <ele>103.48</ele>
        <time>2016-07-16T11:11:04Z</time>
      </trkpt>
      <trkpt lat="46.74065" lon="-1.26816">
        <ele>103.96</ele>
        <time>2016-07-16T11:11:11Z</time>
      </trkpt>
      <trkpt lat="46.74035" lon="-1.26834">
        <ele>103.96</ele>
        <time>2016-07-16T11:11:12Z</time>
      </trkpt>
      <trkpt lat="46.73917" lon="-1.26914">
        <ele>107.32</ele>
        <time>2016-07-16T11:11:16Z</time>
      </trkpt>
      <trkpt lat="46.73828" lon="-1.26982">
        <ele>109.25</ele>
        <time>2016-07-16T11:11:19Z</time>
      </trkpt>
      <trkpt lat="46.73656" lon="-1.27122">
        <ele>111.65</ele>
        <time>2016-07-16T11:11:25Z</time>
      </trkpt>
      <trkpt lat="46.73511" lon="-1.27238">
        <ele>115.5</ele>
        <time>2016-07-16T11:11:30Z</time>
      </trkpt>
      <trkpt lat="46.73091" lon="-1.27526">
        <ele>114.05</ele>
        <time>2016-07-16T11:11:44Z</time>
      </trkpt>
      <trkpt lat="46.72745" lon="-1.27698">
        <ele>110.69</ele>
        <time>2016-07-16T11:11:55Z</time>
      </trkpt>
      <trkpt lat="46.72712" lon="-1.27712">
        <ele>110.69</ele>
        <time>2016-07-16T11:11:56Z</time>
      </trkpt>
      <trkpt lat="46.72325" lon="-1.2785">
        <ele>107.81</ele>
        <time>2016-07-16T11:12:08Z</time>
      </trkpt>
      <trkpt lat="46.72071" lon="-1.27942">
        <ele>104.44</ele>
        <time>2016-07-16T11:12:16Z</time>
      </trkpt>
      <trkpt lat="46.71791" lon="-1.28067">
        <ele>100.6</ele>
        <time>2016-07-16T11:12:25Z</time>
      </trkpt>
      <trkpt lat="46.71657" lon="-1.28134">
        <ele>99.63</ele>
        <time>2016-07-16T11:12:29Z</time>
      </trkpt>
      <trkpt lat="46.71185" lon="-1.28409">
        <ele>103.48</ele>
        <time>2016-07-16T11:12:45Z</time>
      </trkpt>
      <trkpt lat="46.71155" lon="-1.28428">
        <ele>103.48</ele>
        <time>2016-07-16T11:12:46Z</time>
      </trkpt>
      <trkpt lat="46.70979" lon="-1.28552">
        <ele>107.32</ele>
        <time>2016-07-16T11:12:52Z</time>
      </trkpt>
      <trkpt lat="46.7095" lon="-1.28573">
        <ele>107.32</ele>
        <time>2016-07-16T11:12:53Z</time>
      </trkpt>
      <trkpt lat="46.70492" lon="-1.28941">
        <ele>106.84</ele>
        <time>2016-07-16T11:13:09Z</time>
      </trkpt>
      <trkpt lat="46.70227" lon="-1.29217">
        <ele>104.92</ele>
        <time>2016-07-16T11:13:19Z</time>
      </trkpt>
      <trkpt lat="46.7002" lon="-1.29519">
        <ele>103</ele>
        <time>2016-07-16T11:13:28Z</time>
      </trkpt>
      <trkpt lat="46.6985" lon="-1.29867">
        <ele>99.63</ele>
        <time>2016-07-16T11:13:37Z</time>
      </trkpt>
      <trkpt lat="46.69706" lon="-1.30292">
        <ele>96.27</ele>
        <time>2016-07-16T11:13:47Z</time>
      </trkpt>
      <trkpt lat="46.69543" lon="-1.30808">
        <ele>97.23</ele>
        <time>2016-07-16T11:13:59Z</time>
      </trkpt>
      <trkpt lat="46.69335" lon="-1.31344">
        <ele>99.15</ele>
        <time>2016-07-16T11:14:12Z</time>
      </trkpt>
      <trkpt lat="46.69125" lon="-1.31767">
        <ele>102.04</ele>
        <time>2016-07-16T11:14:23Z</time>
      </trkpt>
      <trkpt lat="46.68843" lon="-1.32227">
        <ele>102.52</ele>
        <time>2016-07-16T11:14:36Z</time>
      </trkpt>
      <trkpt lat="46.68653" lon="-1.32487">
        <ele>100.6</ele>
        <time>2016-07-16T11:14:44Z</time>
      </trkpt>
      <trkpt lat="46.68373" lon="-1.32816">
        <ele>102.52</ele>
        <time>2016-07-16T11:14:55Z</time>
      </trkpt>
      <trkpt lat="46.68322" lon="-1.32873">
        <ele>103.48</ele>
        <time>2016-07-16T11:14:57Z</time>
      </trkpt>
      <trkpt lat="46.68116" lon="-1.33105">
        <ele>107.81</ele>
        <time>2016-07-16T11:15:05Z</time>
      </trkpt>
      <trkpt lat="46.6809" lon="-1.33136">
        <ele>107.32</ele>
        <time>2016-07-16T11:15:06Z</time>
      </trkpt>
      <trkpt lat="46.67824" lon="-1.33486">
        <ele>103.96</ele>
        <time>2016-07-16T11:15:17Z</time>
      </trkpt>
      <trkpt lat="46.67737" lon="-1.33619">
        <ele>101.08</ele>
        <time>2016-07-16T11:15:21Z</time>
      </trkpt>
      <trkpt lat="46.67656" lon="-1.33758">
        <ele>97.71</ele>
        <time>2016-07-16T11:15:25Z</time>
      </trkpt>
      <trkpt lat="46.67601" lon="-1.3386">
        <ele>94.35</ele>
        <time>2016-07-16T11:15:28Z</time>
      </trkpt>
      <trkpt lat="46.67536" lon="-1.33991">
        <ele>91.46</ele>
        <time>2016-07-16T11:15:32Z</time>
      </trkpt>
      <trkpt lat="46.67453" lon="-1.34176">
        <ele>87.14</ele>
        <time>2016-07-16T11:15:38Z</time>
      </trkpt>
      <trkpt lat="46.67421" lon="-1.34251">
        <ele>83.77</ele>
        <time>2016-07-16T11:15:41Z</time>
      </trkpt>
      <trkpt lat="46.67397" lon="-1.34313">
        <ele>82.33</ele>
        <time>2016-07-16T11:15:44Z</time>
      </trkpt>
      <trkpt lat="46.67357" lon="-1.3441">
        <ele>80.89</ele>
        <time>2016-07-16T11:15:51Z</time>
      </trkpt>
      <trkpt lat="46.67297" lon="-1.34521">
        <ele>79.93</ele>
        <time>2016-07-16T11:16:01Z</time>
      </trkpt>
      <trkpt lat="46.67281" lon="-1.34553">
        <ele>78.97</ele>
        <time>2016-07-16T11:16:09Z</time>
      </trkpt>
      <trkpt lat="46.67281" lon="-1.34559">
        <ele>78.97</ele>
        <time>2016-07-16T11:16:23Z</time>
      </trkpt>
      <trkpt lat="46.67276" lon="-1.34569">
        <ele>78.97</ele>
        <time>2016-07-16T11:16:41Z</time>
      </trkpt>
      <trkpt lat="46.67274" lon="-1.34576">
        <ele>78.97</ele>
        <time>2016-07-16T11:17:03Z</time>
      </trkpt>
      <trkpt lat="46.67273" lon="-1.34587">
        <ele>78.97</ele>
        <time>2016-07-16T11:17:20Z</time>
      </trkpt>
      <trkpt lat="46.6727" lon="-1.34592">
        <ele>78.97</ele>
        <time>2016-07-16T11:17:37Z</time>
      </trkpt>
      <trkpt lat="46.67269" lon="-1.346">
        <ele>80.41</ele>
        <time>2016-07-16T11:17:55Z</time>
      </trkpt>
      <trkpt lat="46.67267" lon="-1.34604">
        <ele>80.41</ele>
        <time>2016-07-16T11:18:08Z</time>
      </trkpt>
      <trkpt lat="46.67266" lon="-1.34608">
        <ele>80.41</ele>
        <time>2016-07-16T11:18:09Z</time>
      </trkpt>
      <trkpt lat="46.67265" lon="-1.34613">
        <ele>80.41</ele>
        <time>2016-07-16T11:18:10Z</time>
      </trkpt>
      <trkpt lat="46.67241" lon="-1.34688">
        <ele>82.33</ele>
        <time>2016-07-16T11:18:16Z</time>
      </trkpt>
      <trkpt lat="46.67199" lon="-1.34826">
        <ele>85.21</ele>
        <time>2016-07-16T11:18:22Z</time>
      </trkpt>
      <trkpt lat="46.67147" lon="-1.34976">
        <ele>82.81</ele>
        <time>2016-07-16T11:18:27Z</time>
      </trkpt>
      <trkpt lat="46.67015" lon="-1.35334">
        <ele>83.29</ele>
        <time>2016-07-16T11:18:37Z</time>
      </trkpt>
      <trkpt lat="46.66871" lon="-1.35707">
        <ele>83.29</ele>
        <time>2016-07-16T11:18:46Z</time>
      </trkpt>
      <trkpt lat="46.66724" lon="-1.36077">
        <ele>82.33</ele>
        <time>2016-07-16T11:18:55Z</time>
      </trkpt>
      <trkpt lat="46.66461" lon="-1.36677">
        <ele>85.69</ele>
        <time>2016-07-16T11:19:10Z</time>
      </trkpt>
      <trkpt lat="46.66403" lon="-1.36793">
        <ele>87.14</ele>
        <time>2016-07-16T11:19:13Z</time>
      </trkpt>
      <trkpt lat="46.66284" lon="-1.37023">
        <ele>89.06</ele>
        <time>2016-07-16T11:19:19Z</time>
      </trkpt>
      <trkpt lat="46.66163" lon="-1.37242">
        <ele>91.46</ele>
        <time>2016-07-16T11:19:25Z</time>
      </trkpt>
      <trkpt lat="46.65926" lon="-1.37633">
        <ele>90.02</ele>
        <time>2016-07-16T11:19:36Z</time>
      </trkpt>
      <trkpt lat="46.65767" lon="-1.37871">
        <ele>86.66</ele>
        <time>2016-07-16T11:19:43Z</time>
      </trkpt>
      <trkpt lat="46.65577" lon="-1.38132">
        <ele>82.81</ele>
        <time>2016-07-16T11:19:51Z</time>
      </trkpt>
      <trkpt lat="46.65402" lon="-1.38348">
        <ele>78.97</ele>
        <time>2016-07-16T11:19:58Z</time>
      </trkpt>
      <trkpt lat="46.65377" lon="-1.38378">
        <ele>78.97</ele>
        <time>2016-07-16T11:19:59Z</time>
      </trkpt>
      <trkpt lat="46.65275" lon="-1.38497">
        <ele>75.6</ele>
        <time>2016-07-16T11:20:03Z</time>
      </trkpt>
      <trkpt lat="46.65224" lon="-1.38555">
        <ele>74.64</ele>
        <time>2016-07-16T11:20:05Z</time>
      </trkpt>
      <trkpt lat="46.64857" lon="-1.38946">
        <ele>78</ele>
        <time>2016-07-16T11:20:19Z</time>
      </trkpt>
      <trkpt lat="46.6483" lon="-1.38973">
        <ele>78</ele>
        <time>2016-07-16T11:20:20Z</time>
      </trkpt>
      <trkpt lat="46.64693" lon="-1.39101">
        <ele>81.37</ele>
        <time>2016-07-16T11:20:25Z</time>
      </trkpt>
      <trkpt lat="46.64267" lon="-1.39457">
        <ele>77.52</ele>
        <time>2016-07-16T11:20:40Z</time>
      </trkpt>
      <trkpt lat="46.64238" lon="-1.3948">
        <ele>77.52</ele>
        <time>2016-07-16T11:20:41Z</time>
      </trkpt>
      <trkpt lat="46.64094" lon="-1.39594">
        <ele>73.68</ele>
        <time>2016-07-16T11:20:46Z</time>
      </trkpt>
      <trkpt lat="46.64007" lon="-1.39658">
        <ele>72.24</ele>
        <time>2016-07-16T11:20:49Z</time>
      </trkpt>
      <trkpt lat="46.6389" lon="-1.39742">
        <ele>69.35</ele>
        <time>2016-07-16T11:20:53Z</time>
      </trkpt>
      <trkpt lat="46.63773" lon="-1.39828">
        <ele>67.43</ele>
        <time>2016-07-16T11:20:57Z</time>
      </trkpt>
      <trkpt lat="46.63574" lon="-1.39991">
        <ele>64.07</ele>
        <time>2016-07-16T11:21:04Z</time>
      </trkpt>
      <trkpt lat="46.63547" lon="-1.40017">
        <ele>64.07</ele>
        <time>2016-07-16T11:21:05Z</time>
      </trkpt>
      <trkpt lat="46.63414" lon="-1.40157">
        <ele>61.66</ele>
        <time>2016-07-16T11:21:10Z</time>
      </trkpt>
      <trkpt lat="46.63203" lon="-1.40454">
        <ele>58.78</ele>
        <time>2016-07-16T11:21:19Z</time>
      </trkpt>
      <trkpt lat="46.6316" lon="-1.40527">
        <ele>57.34</ele>
        <time>2016-07-16T11:21:21Z</time>
      </trkpt>
      <trkpt lat="46.62975" lon="-1.40916">
        <ele>55.41</ele>
        <time>2016-07-16T11:21:31Z</time>
      </trkpt>
      <trkpt lat="46.62868" lon="-1.41261">
        <ele>54.93</ele>
        <time>2016-07-16T11:21:39Z</time>
      </trkpt>
      <trkpt lat="46.62809" lon="-1.41532">
        <ele>56.37</ele>
        <time>2016-07-16T11:21:45Z</time>
      </trkpt>
      <trkpt lat="46.62786" lon="-1.4167">
        <ele>57.34</ele>
        <time>2016-07-16T11:21:48Z</time>
      </trkpt>
      <trkpt lat="46.62754" lon="-1.41903">
        <ele>59.74</ele>
        <time>2016-07-16T11:21:53Z</time>
      </trkpt>
      <trkpt lat="46.6271" lon="-1.42514">
        <ele>59.74</ele>
        <time>2016-07-16T11:22:06Z</time>
      </trkpt>
      <trkpt lat="46.62707" lon="-1.42705">
        <ele>57.34</ele>
        <time>2016-07-16T11:22:10Z</time>
      </trkpt>
      <trkpt lat="46.62713" lon="-1.42941">
        <ele>53.49</ele>
        <time>2016-07-16T11:22:15Z</time>
      </trkpt>
      <trkpt lat="46.6272" lon="-1.43084">
        <ele>51.57</ele>
        <time>2016-07-16T11:22:18Z</time>
      </trkpt>
      <trkpt lat="46.62726" lon="-1.43178">
        <ele>50.13</ele>
        <time>2016-07-16T11:22:20Z</time>
      </trkpt>
      <trkpt lat="46.62796" lon="-1.43783">
        <ele>51.57</ele>
        <time>2016-07-16T11:22:33Z</time>
      </trkpt>
      <trkpt lat="46.62882" lon="-1.44386">
        <ele>54.45</ele>
        <time>2016-07-16T11:22:46Z</time>
      </trkpt>
      <trkpt lat="46.62899" lon="-1.44526">
        <ele>56.86</ele>
        <time>2016-07-16T11:22:49Z</time>
      </trkpt>
      <trkpt lat="46.6292" lon="-1.44713">
        <ele>59.74</ele>
        <time>2016-07-16T11:22:53Z</time>
      </trkpt>
      <trkpt lat="46.6294" lon="-1.449">
        <ele>62.14</ele>
        <time>2016-07-16T11:22:57Z</time>
      </trkpt>
      <trkpt lat="46.62999" lon="-1.45607">
        <ele>59.74</ele>
        <time>2016-07-16T11:23:12Z</time>
      </trkpt>
      <trkpt lat="46.6301" lon="-1.45748">
        <ele>58.3</ele>
        <time>2016-07-16T11:23:15Z</time>
      </trkpt>
      <trkpt lat="46.63078" lon="-1.4645">
        <ele>56.86</ele>
        <time>2016-07-16T11:23:30Z</time>
      </trkpt>
      <trkpt lat="46.63119" lon="-1.46777">
        <ele>61.18</ele>
        <time>2016-07-16T11:23:37Z</time>
      </trkpt>
      <trkpt lat="46.63158" lon="-1.47056">
        <ele>65.03</ele>
        <time>2016-07-16T11:23:43Z</time>
      </trkpt>
      <trkpt lat="46.63194" lon="-1.47286">
        <ele>67.91</ele>
        <time>2016-07-16T11:23:48Z</time>
      </trkpt>
      <trkpt lat="46.63209" lon="-1.47379">
        <ele>68.87</ele>
        <time>2016-07-16T11:23:50Z</time>
      </trkpt>
      <trkpt lat="46.63266" lon="-1.47699">
        <ele>70.31</ele>
        <time>2016-07-16T11:23:57Z</time>
      </trkpt>
      <trkpt lat="46.63414" lon="-1.48426">
        <ele>71.76</ele>
        <time>2016-07-16T11:24:13Z</time>
      </trkpt>
      <trkpt lat="46.63545" lon="-1.4891">
        <ele>72.72</ele>
        <time>2016-07-16T11:24:24Z</time>
      </trkpt>
      <trkpt lat="46.63693" lon="-1.49333">
        <ele>69.35</ele>
        <time>2016-07-16T11:24:34Z</time>
      </trkpt>
      <trkpt lat="46.63709" lon="-1.49373">
        <ele>69.35</ele>
        <time>2016-07-16T11:24:35Z</time>
      </trkpt>
      <trkpt lat="46.63869" lon="-1.49735">
        <ele>66.47</ele>
        <time>2016-07-16T11:24:44Z</time>
      </trkpt>
      <trkpt lat="46.63887" lon="-1.49773">
        <ele>65.99</ele>
        <time>2016-07-16T11:24:45Z</time>
      </trkpt>
      <trkpt lat="46.63961" lon="-1.49927">
        <ele>63.58</ele>
        <time>2016-07-16T11:24:49Z</time>
      </trkpt>
      <trkpt lat="46.64037" lon="-1.50081">
        <ele>62.14</ele>
        <time>2016-07-16T11:24:53Z</time>
      </trkpt>
      <trkpt lat="46.64111" lon="-1.50236">
        <ele>59.74</ele>
        <time>2016-07-16T11:24:57Z</time>
      </trkpt>
      <trkpt lat="46.64163" lon="-1.50353">
        <ele>58.3</ele>
        <time>2016-07-16T11:25:00Z</time>
      </trkpt>
      <trkpt lat="46.64266" lon="-1.50659">
        <ele>57.34</ele>
        <time>2016-07-16T11:25:08Z</time>
      </trkpt>
      <trkpt lat="46.6434" lon="-1.51001">
        <ele>58.3</ele>
        <time>2016-07-16T11:25:17Z</time>
      </trkpt>
      <trkpt lat="46.6438" lon="-1.51397">
        <ele>61.18</ele>
        <time>2016-07-16T11:25:27Z</time>
      </trkpt>
      <trkpt lat="46.64382" lon="-1.51478">
        <ele>62.14</ele>
        <time>2016-07-16T11:25:29Z</time>
      </trkpt>
      <trkpt lat="46.64382" lon="-1.51599">
        <ele>63.58</ele>
        <time>2016-07-16T11:25:32Z</time>
      </trkpt>
      <trkpt lat="46.64372" lon="-1.51799">
        <ele>65.51</ele>
        <time>2016-07-16T11:25:37Z</time>
      </trkpt>
      <trkpt lat="46.64336" lon="-1.52075">
        <ele>68.39</ele>
        <time>2016-07-16T11:25:44Z</time>
      </trkpt>
      <trkpt lat="46.64274" lon="-1.52382">
        <ele>69.83</ele>
        <time>2016-07-16T11:25:52Z</time>
      </trkpt>
      <trkpt lat="46.64212" lon="-1.52649">
        <ele>70.79</ele>
        <time>2016-07-16T11:25:59Z</time>
      </trkpt>
      <trkpt lat="46.64082" lon="-1.53176">
        <ele>72.72</ele>
        <time>2016-07-16T11:26:13Z</time>
      </trkpt>
      <trkpt lat="46.63905" lon="-1.53895">
        <ele>73.2</ele>
        <time>2016-07-16T11:26:32Z</time>
      </trkpt>
      <trkpt lat="46.63782" lon="-1.54386">
        <ele>69.83</ele>
        <time>2016-07-16T11:26:45Z</time>
      </trkpt>
      <trkpt lat="46.63652" lon="-1.54872">
        <ele>66.47</ele>
        <time>2016-07-16T11:26:58Z</time>
      </trkpt>
      <trkpt lat="46.63642" lon="-1.54909">
        <ele>66.47</ele>
        <time>2016-07-16T11:26:59Z</time>
      </trkpt>
      <trkpt lat="46.63512" lon="-1.55437">
        <ele>66.95</ele>
        <time>2016-07-16T11:27:13Z</time>
      </trkpt>
      <trkpt lat="46.63407" lon="-1.5586">
        <ele>67.91</ele>
        <time>2016-07-16T11:27:24Z</time>
      </trkpt>
      <trkpt lat="46.63378" lon="-1.55977">
        <ele>69.35</ele>
        <time>2016-07-16T11:27:27Z</time>
      </trkpt>
      <trkpt lat="46.63349" lon="-1.56093">
        <ele>71.27</ele>
        <time>2016-07-16T11:27:30Z</time>
      </trkpt>
      <trkpt lat="46.63267" lon="-1.5644">
        <ele>71.76</ele>
        <time>2016-07-16T11:27:39Z</time>
      </trkpt>
      <trkpt lat="46.63248" lon="-1.56514">
        <ele>70.31</ele>
        <time>2016-07-16T11:27:41Z</time>
      </trkpt>
      <trkpt lat="46.63229" lon="-1.5659">
        <ele>71.27</ele>
        <time>2016-07-16T11:27:43Z</time>
      </trkpt>
      <trkpt lat="46.63191" lon="-1.56742">
        <ele>68.87</ele>
        <time>2016-07-16T11:27:47Z</time>
      </trkpt>
      <trkpt lat="46.63122" lon="-1.57005">
        <ele>66.47</ele>
        <time>2016-07-16T11:27:54Z</time>
      </trkpt>
      <trkpt lat="46.6305" lon="-1.57267">
        <ele>65.03</ele>
        <time>2016-07-16T11:28:01Z</time>
      </trkpt>
      <trkpt lat="46.62803" lon="-1.5807">
        <ele>63.58</ele>
        <time>2016-07-16T11:28:23Z</time>
      </trkpt>
      <trkpt lat="46.62667" lon="-1.58463">
        <ele>66.47</ele>
        <time>2016-07-16T11:28:35Z</time>
      </trkpt>
      <trkpt lat="46.62555" lon="-1.58772">
        <ele>66.95</ele>
        <time>2016-07-16T11:28:46Z</time>
      </trkpt>
      <trkpt lat="46.62501" lon="-1.58993">
        <ele>68.39</ele>
        <time>2016-07-16T11:28:55Z</time>
      </trkpt>
      <trkpt lat="46.62479" lon="-1.59144">
        <ele>70.31</ele>
        <time>2016-07-16T11:29:03Z</time>
      </trkpt>
      <trkpt lat="46.62475" lon="-1.59185">
        <ele>69.35</ele>
        <time>2016-07-16T11:29:09Z</time>
      </trkpt>
      <trkpt lat="46.62476" lon="-1.5919">
        <ele>70.31</ele>
        <time>2016-07-16T11:29:11Z</time>
      </trkpt>
      <trkpt lat="46.62479" lon="-1.59196">
        <ele>70.31</ele>
        <time>2016-07-16T11:29:12Z</time>
      </trkpt>
      <trkpt lat="46.62482" lon="-1.59201">
        <ele>70.31</ele>
        <time>2016-07-16T11:29:13Z</time>
      </trkpt>
      <trkpt lat="46.6252" lon="-1.59273">
        <ele>70.31</ele>
        <time>2016-07-16T11:29:19Z</time>
      </trkpt>
      <trkpt lat="46.62559" lon="-1.59366">
        <ele>68.87</ele>
        <time>2016-07-16T11:29:24Z</time>
      </trkpt>
      <trkpt lat="46.62638" lon="-1.59474">
        <ele>68.39</ele>
        <time>2016-07-16T11:29:31Z</time>
      </trkpt>
      <trkpt lat="46.6276" lon="-1.59527">
        <ele>67.91</ele>
        <time>2016-07-16T11:29:39Z</time>
      </trkpt>
      <trkpt lat="46.6297" lon="-1.59574">
        <ele>67.91</ele>
        <time>2016-07-16T11:29:53Z</time>
      </trkpt>
      <trkpt lat="46.63081" lon="-1.59587">
        <ele>67.43</ele>
        <time>2016-07-16T11:30:01Z</time>
      </trkpt>
      <trkpt lat="46.63095" lon="-1.59594">
        <ele>67.43</ele>
        <time>2016-07-16T11:30:02Z</time>
      </trkpt>
      <trkpt lat="46.63254" lon="-1.59707">
        <ele>65.51</ele>
        <time>2016-07-16T11:30:14Z</time>
      </trkpt>
      <trkpt lat="46.63308" lon="-1.59744">
        <ele>64.07</ele>
        <time>2016-07-16T11:30:19Z</time>
      </trkpt>
      <trkpt lat="46.63316" lon="-1.59747">
        <ele>64.07</ele>
        <time>2016-07-16T11:30:20Z</time>
      </trkpt>
      <trkpt lat="46.63324" lon="-1.59748">
        <ele>64.07</ele>
        <time>2016-07-16T11:30:21Z</time>
      </trkpt>
      <trkpt lat="46.63336" lon="-1.59749">
        <ele>65.51</ele>
        <time>2016-07-16T11:30:23Z</time>
      </trkpt>
      <trkpt lat="46.63341" lon="-1.5975">
        <ele>65.51</ele>
        <time>2016-07-16T11:30:24Z</time>
      </trkpt>
      <trkpt lat="46.63343" lon="-1.59754">
        <ele>65.51</ele>
        <time>2016-07-16T11:30:25Z</time>
      </trkpt>
      <trkpt lat="46.63345" lon="-1.59759">
        <ele>65.51</ele>
        <time>2016-07-16T11:30:26Z</time>
      </trkpt>
      <trkpt lat="46.63344" lon="-1.59765">
        <ele>65.51</ele>
        <time>2016-07-16T11:30:27Z</time>
      </trkpt>
      <trkpt lat="46.63341" lon="-1.59773">
        <ele>65.51</ele>
        <time>2016-07-16T11:30:28Z</time>
      </trkpt>
      <trkpt lat="46.63338" lon="-1.59782">
        <ele>65.51</ele>
        <time>2016-07-16T11:30:29Z</time>
      </trkpt>
      <trkpt lat="46.63334" lon="-1.59795">
        <ele>65.51</ele>
        <time>2016-07-16T11:30:30Z</time>
      </trkpt>
      <trkpt lat="46.63305" lon="-1.59918">
        <ele>65.99</ele>
        <time>2016-07-16T11:30:37Z</time>
      </trkpt>
      <trkpt lat="46.63258" lon="-1.60127">
        <ele>62.14</ele>
        <time>2016-07-16T11:30:45Z</time>
      </trkpt>
      <trkpt lat="46.63186" lon="-1.60448">
        <ele>60.7</ele>
        <time>2016-07-16T11:30:55Z</time>
      </trkpt>
      <trkpt lat="46.63156" lon="-1.60576">
        <ele>63.58</ele>
        <time>2016-07-16T11:30:59Z</time>
      </trkpt>
      <trkpt lat="46.63064" lon="-1.60998">
        <ele>60.22</ele>
        <time>2016-07-16T11:31:12Z</time>
      </trkpt>
      <trkpt lat="46.6305" lon="-1.61062">
        <ele>59.26</ele>
        <time>2016-07-16T11:31:14Z</time>
      </trkpt>
      <trkpt lat="46.62993" lon="-1.61318">
        <ele>60.22</ele>
        <time>2016-07-16T11:31:22Z</time>
      </trkpt>
      <trkpt lat="46.62958" lon="-1.61477">
        <ele>63.58</ele>
        <time>2016-07-16T11:31:27Z</time>
      </trkpt>
      <trkpt lat="46.62943" lon="-1.61542">
        <ele>64.07</ele>
        <time>2016-07-16T11:31:29Z</time>
      </trkpt>
      <trkpt lat="46.62923" lon="-1.61638">
        <ele>65.51</ele>
        <time>2016-07-16T11:31:32Z</time>
      </trkpt>
      <trkpt lat="46.62875" lon="-1.61865">
        <ele>65.03</ele>
        <time>2016-07-16T11:31:39Z</time>
      </trkpt>
      <trkpt lat="46.62734" lon="-1.6251">
        <ele>61.66</ele>
        <time>2016-07-16T11:31:59Z</time>
      </trkpt>
      <trkpt lat="46.62635" lon="-1.62962">
        <ele>59.26</ele>
        <time>2016-07-16T11:32:13Z</time>
      </trkpt>
      <trkpt lat="46.62554" lon="-1.63346">
        <ele>56.37</ele>
        <time>2016-07-16T11:32:25Z</time>
      </trkpt>
      <trkpt lat="46.62527" lon="-1.63473">
        <ele>53.01</ele>
        <time>2016-07-16T11:32:29Z</time>
      </trkpt>
      <trkpt lat="46.625" lon="-1.63601">
        <ele>49.65</ele>
        <time>2016-07-16T11:32:33Z</time>
      </trkpt>
      <trkpt lat="46.62472" lon="-1.6373">
        <ele>45.8</ele>
        <time>2016-07-16T11:32:37Z</time>
      </trkpt>
      <trkpt lat="46.62438" lon="-1.63887">
        <ele>42.92</ele>
        <time>2016-07-16T11:32:42Z</time>
      </trkpt>
      <trkpt lat="46.6237" lon="-1.64202">
        <ele>46.28</ele>
        <time>2016-07-16T11:32:52Z</time>
      </trkpt>
      <trkpt lat="46.62357" lon="-1.64265">
        <ele>47.24</ele>
        <time>2016-07-16T11:32:54Z</time>
      </trkpt>
      <trkpt lat="46.62291" lon="-1.64572">
        <ele>45.32</ele>
        <time>2016-07-16T11:33:05Z</time>
      </trkpt>
      <trkpt lat="46.62273" lon="-1.64652">
        <ele>41.95</ele>
        <time>2016-07-16T11:33:09Z</time>
      </trkpt>
      <trkpt lat="46.62251" lon="-1.6476">
        <ele>38.59</ele>
        <time>2016-07-16T11:33:16Z</time>
      </trkpt>
      <trkpt lat="46.62245" lon="-1.64795">
        <ele>37.63</ele>
        <time>2016-07-16T11:33:19Z</time>
      </trkpt>
      <trkpt lat="46.62245" lon="-1.64805">
        <ele>37.63</ele>
        <time>2016-07-16T11:33:20Z</time>
      </trkpt>
      <trkpt lat="46.62247" lon="-1.64824">
        <ele>37.15</ele>
        <time>2016-07-16T11:33:22Z</time>
      </trkpt>
      <trkpt lat="46.62245" lon="-1.64832">
        <ele>37.63</ele>
        <time>2016-07-16T11:33:23Z</time>
      </trkpt>
      <trkpt lat="46.62241" lon="-1.6484">
        <ele>37.63</ele>
        <time>2016-07-16T11:33:24Z</time>
      </trkpt>
      <trkpt lat="46.62231" lon="-1.64859">
        <ele>36.19</ele>
        <time>2016-07-16T11:33:26Z</time>
      </trkpt>
      <trkpt lat="46.62226" lon="-1.64872">
        <ele>35.71</ele>
        <time>2016-07-16T11:33:27Z</time>
      </trkpt>
      <trkpt lat="46.62222" lon="-1.64888">
        <ele>35.71</ele>
        <time>2016-07-16T11:33:28Z</time>
      </trkpt>
      <trkpt lat="46.6216" lon="-1.65169">
        <ele>33.78</ele>
        <time>2016-07-16T11:33:44Z</time>
      </trkpt>
      <trkpt lat="46.62122" lon="-1.65347">
        <ele>30.42</ele>
        <time>2016-07-16T11:33:55Z</time>
      </trkpt>
      <trkpt lat="46.62098" lon="-1.65459">
        <ele>27.05</ele>
        <time>2016-07-16T11:34:02Z</time>
      </trkpt>
      <trkpt lat="46.62069" lon="-1.6559">
        <ele>23.69</ele>
        <time>2016-07-16T11:34:10Z</time>
      </trkpt>
      <trkpt lat="46.62048" lon="-1.65681">
        <ele>25.13</ele>
        <time>2016-07-16T11:34:16Z</time>
      </trkpt>
      <trkpt lat="46.6203" lon="-1.65766">
        <ele>27.05</ele>
        <time>2016-07-16T11:34:24Z</time>
      </trkpt>
      <trkpt lat="46.6203" lon="-1.65773">
        <ele>27.05</ele>
        <time>2016-07-16T11:34:25Z</time>
      </trkpt>
      <trkpt lat="46.62031" lon="-1.65779">
        <ele>27.05</ele>
        <time>2016-07-16T11:34:26Z</time>
      </trkpt>
      <trkpt lat="46.62033" lon="-1.65785">
        <ele>28.02</ele>
        <time>2016-07-16T11:34:27Z</time>
      </trkpt>
      <trkpt lat="46.62038" lon="-1.65789">
        <ele>28.5</ele>
        <time>2016-07-16T11:34:28Z</time>
      </trkpt>
      <trkpt lat="46.62043" lon="-1.6579">
        <ele>28.5</ele>
        <time>2016-07-16T11:34:29Z</time>
      </trkpt>
      <trkpt lat="46.6205" lon="-1.65793">
        <ele>28.5</ele>
        <time>2016-07-16T11:34:30Z</time>
      </trkpt>
      <trkpt lat="46.62065" lon="-1.65801">
        <ele>28.5</ele>
        <time>2016-07-16T11:34:32Z</time>
      </trkpt>
      <trkpt lat="46.6207" lon="-1.65805">
        <ele>28.5</ele>
        <time>2016-07-16T11:34:33Z</time>
      </trkpt>
      <trkpt lat="46.62076" lon="-1.65811">
        <ele>28.02</ele>
        <time>2016-07-16T11:34:34Z</time>
      </trkpt>
      <trkpt lat="46.6208" lon="-1.65819">
        <ele>28.5</ele>
        <time>2016-07-16T11:34:35Z</time>
      </trkpt>
      <trkpt lat="46.62082" lon="-1.65827">
        <ele>28.02</ele>
        <time>2016-07-16T11:34:36Z</time>
      </trkpt>
      <trkpt lat="46.62084" lon="-1.65837">
        <ele>28.02</ele>
        <time>2016-07-16T11:34:37Z</time>
      </trkpt>
      <trkpt lat="46.62089" lon="-1.65857">
        <ele>28.02</ele>
        <time>2016-07-16T11:34:39Z</time>
      </trkpt>
      <trkpt lat="46.62092" lon="-1.65864">
        <ele>28.02</ele>
        <time>2016-07-16T11:34:40Z</time>
      </trkpt>
      <trkpt lat="46.62097" lon="-1.6587">
        <ele>28.02</ele>
        <time>2016-07-16T11:34:41Z</time>
      </trkpt>
      <trkpt lat="46.62102" lon="-1.65875">
        <ele>27.05</ele>
        <time>2016-07-16T11:34:42Z</time>
      </trkpt>
      <trkpt lat="46.62109" lon="-1.65877">
        <ele>26.09</ele>
        <time>2016-07-16T11:34:43Z</time>
      </trkpt>
      <trkpt lat="46.62115" lon="-1.65878">
        <ele>26.09</ele>
        <time>2016-07-16T11:34:44Z</time>
      </trkpt>
      <trkpt lat="46.62122" lon="-1.65878">
        <ele>26.09</ele>
        <time>2016-07-16T11:34:45Z</time>
      </trkpt>
      <trkpt lat="46.62128" lon="-1.65879">
        <ele>25.13</ele>
        <time>2016-07-16T11:34:46Z</time>
      </trkpt>
      <trkpt lat="46.62133" lon="-1.65881">
        <ele>24.65</ele>
        <time>2016-07-16T11:34:47Z</time>
      </trkpt>
      <trkpt lat="46.62137" lon="-1.65886">
        <ele>24.65</ele>
        <time>2016-07-16T11:34:48Z</time>
      </trkpt>
      <trkpt lat="46.62139" lon="-1.65892">
        <ele>24.65</ele>
        <time>2016-07-16T11:34:49Z</time>
      </trkpt>
      <trkpt lat="46.6214" lon="-1.659">
        <ele>24.65</ele>
        <time>2016-07-16T11:34:50Z</time>
      </trkpt>
      <trkpt lat="46.62139" lon="-1.65913">
        <ele>24.65</ele>
        <time>2016-07-16T11:34:51Z</time>
      </trkpt>
      <trkpt lat="46.62137" lon="-1.65926">
        <ele>24.65</ele>
        <time>2016-07-16T11:34:52Z</time>
      </trkpt>
      <trkpt lat="46.62114" lon="-1.66037">
        <ele>24.65</ele>
        <time>2016-07-16T11:34:59Z</time>
      </trkpt>
      <trkpt lat="46.62111" lon="-1.66045">
        <ele>24.65</ele>
        <time>2016-07-16T11:35:00Z</time>
      </trkpt>
      <trkpt lat="46.62106" lon="-1.66055">
        <ele>24.65</ele>
        <time>2016-07-16T11:35:01Z</time>
      </trkpt>
      <trkpt lat="46.62101" lon="-1.66064">
        <ele>24.65</ele>
        <time>2016-07-16T11:35:02Z</time>
      </trkpt>
      <trkpt lat="46.62096" lon="-1.66072">
        <ele>24.65</ele>
        <time>2016-07-16T11:35:03Z</time>
      </trkpt>
      <trkpt lat="46.62092" lon="-1.6608">
        <ele>24.65</ele>
        <time>2016-07-16T11:35:04Z</time>
      </trkpt>
      <trkpt lat="46.6209" lon="-1.66092">
        <ele>24.65</ele>
        <time>2016-07-16T11:35:05Z</time>
      </trkpt>
      <trkpt lat="46.6209" lon="-1.66102">
        <ele>24.65</ele>
        <time>2016-07-16T11:35:06Z</time>
      </trkpt>
      <trkpt lat="46.62093" lon="-1.66112">
        <ele>24.65</ele>
        <time>2016-07-16T11:35:07Z</time>
      </trkpt>
      <trkpt lat="46.62096" lon="-1.66124">
        <ele>24.65</ele>
        <time>2016-07-16T11:35:08Z</time>
      </trkpt>
      <trkpt lat="46.62103" lon="-1.66151">
        <ele>24.65</ele>
        <time>2016-07-16T11:35:10Z</time>
      </trkpt>
      <trkpt lat="46.62105" lon="-1.66168">
        <ele>24.65</ele>
        <time>2016-07-16T11:35:11Z</time>
      </trkpt>
      <trkpt lat="46.62106" lon="-1.66189">
        <ele>24.65</ele>
        <time>2016-07-16T11:35:12Z</time>
      </trkpt>
      <trkpt lat="46.62106" lon="-1.66208">
        <ele>24.17</ele>
        <time>2016-07-16T11:35:13Z</time>
      </trkpt>
      <trkpt lat="46.62105" lon="-1.66231">
        <ele>24.17</ele>
        <time>2016-07-16T11:35:14Z</time>
      </trkpt>
      <trkpt lat="46.62093" lon="-1.66466">
        <ele>22.25</ele>
        <time>2016-07-16T11:35:24Z</time>
      </trkpt>
      <trkpt lat="46.62116" lon="-1.66672">
        <ele>20.32</ele>
        <time>2016-07-16T11:35:32Z</time>
      </trkpt>
      <trkpt lat="46.62114" lon="-1.66907">
        <ele>22.73</ele>
        <time>2016-07-16T11:35:41Z</time>
      </trkpt>
      <trkpt lat="46.62117" lon="-1.66984">
        <ele>26.09</ele>
        <time>2016-07-16T11:35:44Z</time>
      </trkpt>
      <trkpt lat="46.6212" lon="-1.67087">
        <ele>30.42</ele>
        <time>2016-07-16T11:35:48Z</time>
      </trkpt>
      <trkpt lat="46.62122" lon="-1.67164">
        <ele>33.3</ele>
        <time>2016-07-16T11:35:51Z</time>
      </trkpt>
      <trkpt lat="46.62125" lon="-1.67259">
        <ele>37.15</ele>
        <time>2016-07-16T11:35:55Z</time>
      </trkpt>
      <trkpt lat="46.62139" lon="-1.67341">
        <ele>39.55</ele>
        <time>2016-07-16T11:35:59Z</time>
      </trkpt>
      <trkpt lat="46.62145" lon="-1.67359">
        <ele>39.55</ele>
        <time>2016-07-16T11:36:00Z</time>
      </trkpt>
      <trkpt lat="46.6221" lon="-1.67513">
        <ele>40.03</ele>
        <time>2016-07-16T11:36:10Z</time>
      </trkpt>
      <trkpt lat="46.6223" lon="-1.67556">
        <ele>39.55</ele>
        <time>2016-07-16T11:36:16Z</time>
      </trkpt>
      <trkpt lat="46.62231" lon="-1.67562">
        <ele>39.55</ele>
        <time>2016-07-16T11:36:17Z</time>
      </trkpt>
      <trkpt lat="46.62232" lon="-1.67569">
        <ele>39.55</ele>
        <time>2016-07-16T11:36:18Z</time>
      </trkpt>
      <trkpt lat="46.6223" lon="-1.67588">
        <ele>39.55</ele>
        <time>2016-07-16T11:36:20Z</time>
      </trkpt>
      <trkpt lat="46.6223" lon="-1.67601">
        <ele>39.55</ele>
        <time>2016-07-16T11:36:21Z</time>
      </trkpt>
      <trkpt lat="46.62247" lon="-1.67756">
        <ele>41.95</ele>
        <time>2016-07-16T11:36:30Z</time>
      </trkpt>
      <trkpt lat="46.62268" lon="-1.67968">
        <ele>38.59</ele>
        <time>2016-07-16T11:36:41Z</time>
      </trkpt>
      <trkpt lat="46.62264" lon="-1.68054">
        <ele>36.67</ele>
        <time>2016-07-16T11:36:45Z</time>
      </trkpt>
      <trkpt lat="46.6222" lon="-1.68228">
        <ele>36.19</ele>
        <time>2016-07-16T11:36:53Z</time>
      </trkpt>
      <trkpt lat="46.62202" lon="-1.68276">
        <ele>37.63</ele>
        <time>2016-07-16T11:36:55Z</time>
      </trkpt>
      <trkpt lat="46.62112" lon="-1.68477">
        <ele>40.99</ele>
        <time>2016-07-16T11:37:04Z</time>
      </trkpt>
      <trkpt lat="46.61986" lon="-1.68774">
        <ele>44.36</ele>
        <time>2016-07-16T11:37:18Z</time>
      </trkpt>
      <trkpt lat="46.61907" lon="-1.69012">
        <ele>46.76</ele>
        <time>2016-07-16T11:37:28Z</time>
      </trkpt>
      <trkpt lat="46.61854" lon="-1.69124">
        <ele>45.8</ele>
        <time>2016-07-16T11:37:34Z</time>
      </trkpt>
      <trkpt lat="46.618" lon="-1.69228">
        <ele>42.44</ele>
        <time>2016-07-16T11:37:40Z</time>
      </trkpt>
      <trkpt lat="46.61748" lon="-1.69307">
        <ele>38.59</ele>
        <time>2016-07-16T11:37:45Z</time>
      </trkpt>
      <trkpt lat="46.61735" lon="-1.69317">
        <ele>38.59</ele>
        <time>2016-07-16T11:37:46Z</time>
      </trkpt>
      <trkpt lat="46.6172" lon="-1.69325">
        <ele>38.59</ele>
        <time>2016-07-16T11:37:47Z</time>
      </trkpt>
      <trkpt lat="46.61667" lon="-1.69347">
        <ele>40.51</ele>
        <time>2016-07-16T11:37:51Z</time>
      </trkpt>
      <trkpt lat="46.61656" lon="-1.69357">
        <ele>40.99</ele>
        <time>2016-07-16T11:37:52Z</time>
      </trkpt>
      <trkpt lat="46.61619" lon="-1.69399">
        <ele>44.84</ele>
        <time>2016-07-16T11:37:56Z</time>
      </trkpt>
      <trkpt lat="46.61607" lon="-1.69416">
        <ele>46.28</ele>
        <time>2016-07-16T11:37:58Z</time>
      </trkpt>
      <trkpt lat="46.61605" lon="-1.69427">
        <ele>47.24</ele>
        <time>2016-07-16T11:37:59Z</time>
      </trkpt>
      <trkpt lat="46.6161" lon="-1.69444">
        <ele>47.72</ele>
        <time>2016-07-16T11:38:00Z</time>
      </trkpt>
      <trkpt lat="46.61614" lon="-1.69462">
        <ele>48.68</ele>
        <time>2016-07-16T11:38:01Z</time>
      </trkpt>
      <trkpt lat="46.61622" lon="-1.69482">
        <ele>49.16</ele>
        <time>2016-07-16T11:38:02Z</time>
      </trkpt>
      <trkpt lat="46.6168" lon="-1.69589">
        <ele>52.53</ele>
        <time>2016-07-16T11:38:08Z</time>
      </trkpt>
      <trkpt lat="46.61742" lon="-1.69749">
        <ele>55.41</ele>
        <time>2016-07-16T11:38:17Z</time>
      </trkpt>
      <trkpt lat="46.61747" lon="-1.69773">
        <ele>55.89</ele>
        <time>2016-07-16T11:38:18Z</time>
      </trkpt>
      <trkpt lat="46.6175" lon="-1.69799">
        <ele>55.89</ele>
        <time>2016-07-16T11:38:19Z</time>
      </trkpt>
      <trkpt lat="46.61752" lon="-1.69825">
        <ele>55.89</ele>
        <time>2016-07-16T11:38:20Z</time>
      </trkpt>
      <trkpt lat="46.61754" lon="-1.69852">
        <ele>55.89</ele>
        <time>2016-07-16T11:38:21Z</time>
      </trkpt>
      <trkpt lat="46.61758" lon="-1.70144">
        <ele>58.3</ele>
        <time>2016-07-16T11:38:32Z</time>
      </trkpt>
      <trkpt lat="46.61714" lon="-1.70317">
        <ele>58.78</ele>
        <time>2016-07-16T11:38:39Z</time>
      </trkpt>
      <trkpt lat="46.61638" lon="-1.70593">
        <ele>58.78</ele>
        <time>2016-07-16T11:38:50Z</time>
      </trkpt>
      <trkpt lat="46.61605" lon="-1.70804">
        <ele>62.14</ele>
        <time>2016-07-16T11:38:58Z</time>
      </trkpt>
      <trkpt lat="46.61605" lon="-1.7083">
        <ele>62.62</ele>
        <time>2016-07-16T11:38:59Z</time>
      </trkpt>
      <trkpt lat="46.61613" lon="-1.71097">
        <ele>65.51</ele>
        <time>2016-07-16T11:39:09Z</time>
      </trkpt>
      <trkpt lat="46.61584" lon="-1.71281">
        <ele>65.51</ele>
        <time>2016-07-16T11:39:16Z</time>
      </trkpt>
      <trkpt lat="46.61522" lon="-1.71674">
        <ele>65.51</ele>
        <time>2016-07-16T11:39:31Z</time>
      </trkpt>
      <trkpt lat="46.61461" lon="-1.72068">
        <ele>63.58</ele>
        <time>2016-07-16T11:39:46Z</time>
      </trkpt>
      <trkpt lat="46.6143" lon="-1.7235">
        <ele>61.66</ele>
        <time>2016-07-16T11:39:57Z</time>
      </trkpt>
      <trkpt lat="46.61415" lon="-1.7268">
        <ele>61.18</ele>
        <time>2016-07-16T11:40:11Z</time>
      </trkpt>
      <trkpt lat="46.61411" lon="-1.7291">
        <ele>60.7</ele>
        <time>2016-07-16T11:40:23Z</time>
      </trkpt>
      <trkpt lat="46.61413" lon="-1.72967">
        <ele>61.66</ele>
        <time>2016-07-16T11:40:26Z</time>
      </trkpt>
      <trkpt lat="46.61404" lon="-1.73114">
        <ele>61.66</ele>
        <time>2016-07-16T11:40:35Z</time>
      </trkpt>
      <trkpt lat="46.61382" lon="-1.73317">
        <ele>62.14</ele>
        <time>2016-07-16T11:40:50Z</time>
      </trkpt>
      <trkpt lat="46.61372" lon="-1.73392">
        <ele>60.7</ele>
        <time>2016-07-16T11:40:58Z</time>
      </trkpt>
      <trkpt lat="46.61362" lon="-1.73464">
        <ele>60.7</ele>
        <time>2016-07-16T11:41:05Z</time>
      </trkpt>
      <trkpt lat="46.61321" lon="-1.73606">
        <ele>63.1</ele>
        <time>2016-07-16T11:41:12Z</time>
      </trkpt>
      <trkpt lat="46.61224" lon="-1.73876">
        <ele>65.03</ele>
        <time>2016-07-16T11:41:23Z</time>
      </trkpt>
      <trkpt lat="46.6113" lon="-1.74078">
        <ele>65.03</ele>
        <time>2016-07-16T11:41:31Z</time>
      </trkpt>
      <trkpt lat="46.61028" lon="-1.74267">
        <ele>64.07</ele>
        <time>2016-07-16T11:41:39Z</time>
      </trkpt>
      <trkpt lat="46.60907" lon="-1.74421">
        <ele>60.7</ele>
        <time>2016-07-16T11:41:48Z</time>
      </trkpt>
      <trkpt lat="46.6083" lon="-1.74509">
        <ele>57.82</ele>
        <time>2016-07-16T11:41:55Z</time>
      </trkpt>
      <trkpt lat="46.60806" lon="-1.74552">
        <ele>56.86</ele>
        <time>2016-07-16T11:42:00Z</time>
      </trkpt>
      <trkpt lat="46.60805" lon="-1.74558">
        <ele>56.86</ele>
        <time>2016-07-16T11:42:01Z</time>
      </trkpt>
      <trkpt lat="46.60804" lon="-1.7457">
        <ele>56.37</ele>
        <time>2016-07-16T11:42:05Z</time>
      </trkpt>
      <trkpt lat="46.60804" lon="-1.74572">
        <ele>56.37</ele>
        <time>2016-07-16T11:42:06Z</time>
      </trkpt>
      <trkpt lat="46.60803" lon="-1.74575">
        <ele>56.37</ele>
        <time>2016-07-16T11:42:07Z</time>
      </trkpt>
      <trkpt lat="46.608" lon="-1.74578">
        <ele>56.37</ele>
        <time>2016-07-16T11:42:08Z</time>
      </trkpt>
      <trkpt lat="46.60795" lon="-1.74583">
        <ele>56.37</ele>
        <time>2016-07-16T11:42:09Z</time>
      </trkpt>
      <trkpt lat="46.6079" lon="-1.74588">
        <ele>56.37</ele>
        <time>2016-07-16T11:42:10Z</time>
      </trkpt>
      <trkpt lat="46.60772" lon="-1.74604">
        <ele>57.82</ele>
        <time>2016-07-16T11:42:12Z</time>
      </trkpt>
      <trkpt lat="46.6069" lon="-1.74672">
        <ele>59.26</ele>
        <time>2016-07-16T11:42:18Z</time>
      </trkpt>
      <trkpt lat="46.60547" lon="-1.74785">
        <ele>59.26</ele>
        <time>2016-07-16T11:42:29Z</time>
      </trkpt>
      <trkpt lat="46.60525" lon="-1.74804">
        <ele>58.3</ele>
        <time>2016-07-16T11:42:31Z</time>
      </trkpt>
      <trkpt lat="46.6034" lon="-1.74975">
        <ele>55.89</ele>
        <time>2016-07-16T11:42:48Z</time>
      </trkpt>
      <trkpt lat="46.60219" lon="-1.7514">
        <ele>54.45</ele>
        <time>2016-07-16T11:43:01Z</time>
      </trkpt>
      <trkpt lat="46.60192" lon="-1.7518">
        <ele>53.97</ele>
        <time>2016-07-16T11:43:04Z</time>
      </trkpt>
      <trkpt lat="46.60185" lon="-1.75195">
        <ele>53.97</ele>
        <time>2016-07-16T11:43:05Z</time>
      </trkpt>
      <trkpt lat="46.60178" lon="-1.75211">
        <ele>53.49</ele>
        <time>2016-07-16T11:43:06Z</time>
      </trkpt>
      <trkpt lat="46.6015" lon="-1.75293">
        <ele>52.05</ele>
        <time>2016-07-16T11:43:13Z</time>
      </trkpt>
      <trkpt lat="46.60144" lon="-1.75318">
        <ele>52.05</ele>
        <time>2016-07-16T11:43:15Z</time>
      </trkpt>
      <trkpt lat="46.60142" lon="-1.75333">
        <ele>52.05</ele>
        <time>2016-07-16T11:43:16Z</time>
      </trkpt>
      <trkpt lat="46.60136" lon="-1.7539">
        <ele>52.05</ele>
        <time>2016-07-16T11:43:20Z</time>
      </trkpt>
      <trkpt lat="46.60133" lon="-1.75403">
        <ele>52.05</ele>
        <time>2016-07-16T11:43:21Z</time>
      </trkpt>
      <trkpt lat="46.60125" lon="-1.75441">
        <ele>51.57</ele>
        <time>2016-07-16T11:43:24Z</time>
      </trkpt>
      <trkpt lat="46.60125" lon="-1.75454">
        <ele>51.09</ele>
        <time>2016-07-16T11:43:25Z</time>
      </trkpt>
      <trkpt lat="46.60126" lon="-1.75466">
        <ele>51.09</ele>
        <time>2016-07-16T11:43:26Z</time>
      </trkpt>
      <trkpt lat="46.60152" lon="-1.7559">
        <ele>49.16</ele>
        <time>2016-07-16T11:43:37Z</time>
      </trkpt>
      <trkpt lat="46.60154" lon="-1.75609">
        <ele>49.16</ele>
        <time>2016-07-16T11:43:39Z</time>
      </trkpt>
      <trkpt lat="46.60156" lon="-1.75616">
        <ele>48.68</ele>
        <time>2016-07-16T11:43:40Z</time>
      </trkpt>
      <trkpt lat="46.60159" lon="-1.75622">
        <ele>48.68</ele>
        <time>2016-07-16T11:43:41Z</time>
      </trkpt>
      <trkpt lat="46.60163" lon="-1.75626">
        <ele>48.68</ele>
        <time>2016-07-16T11:43:42Z</time>
      </trkpt>
      <trkpt lat="46.60167" lon="-1.75627">
        <ele>48.68</ele>
        <time>2016-07-16T11:43:43Z</time>
      </trkpt>
      <trkpt lat="46.60173" lon="-1.75627">
        <ele>48.68</ele>
        <time>2016-07-16T11:43:44Z</time>
      </trkpt>
      <trkpt lat="46.6018" lon="-1.75625">
        <ele>48.68</ele>
        <time>2016-07-16T11:43:45Z</time>
      </trkpt>
      <trkpt lat="46.60189" lon="-1.75624">
        <ele>50.13</ele>
        <time>2016-07-16T11:43:46Z</time>
      </trkpt>
      <trkpt lat="46.60195" lon="-1.75625">
        <ele>50.13</ele>
        <time>2016-07-16T11:43:47Z</time>
      </trkpt>
      <trkpt lat="46.60206" lon="-1.75629">
        <ele>50.61</ele>
        <time>2016-07-16T11:43:48Z</time>
      </trkpt>
      <trkpt lat="46.60214" lon="-1.75634">
        <ele>51.09</ele>
        <time>2016-07-16T11:43:49Z</time>
      </trkpt>
      <trkpt lat="46.60274" lon="-1.75671">
        <ele>51.09</ele>
        <time>2016-07-16T11:43:55Z</time>
      </trkpt>
      <trkpt lat="46.60283" lon="-1.7568">
        <ele>51.09</ele>
        <time>2016-07-16T11:43:56Z</time>
      </trkpt>
      <trkpt lat="46.60368" lon="-1.75822">
        <ele>47.72</ele>
        <time>2016-07-16T11:44:08Z</time>
      </trkpt>
      <trkpt lat="46.60457" lon="-1.75935">
        <ele>45.8</ele>
        <time>2016-07-16T11:44:19Z</time>
      </trkpt>
      <trkpt lat="46.60554" lon="-1.76052">
        <ele>47.24</ele>
        <time>2016-07-16T11:44:32Z</time>
      </trkpt>
      <trkpt lat="46.60634" lon="-1.76147">
        <ele>46.76</ele>
        <time>2016-07-16T11:44:45Z</time>
      </trkpt>
      <trkpt lat="46.60721" lon="-1.76252">
        <ele>43.88</ele>
        <time>2016-07-16T11:44:55Z</time>
      </trkpt>
      <trkpt lat="46.60738" lon="-1.76274">
        <ele>44.36</ele>
        <time>2016-07-16T11:44:58Z</time>
      </trkpt>
      <trkpt lat="46.60741" lon="-1.76279">
        <ele>44.36</ele>
        <time>2016-07-16T11:44:59Z</time>
      </trkpt>
      <trkpt lat="46.60742" lon="-1.76284">
        <ele>44.36</ele>
        <time>2016-07-16T11:45:00Z</time>
      </trkpt>
      <trkpt lat="46.60741" lon="-1.76291">
        <ele>44.36</ele>
        <time>2016-07-16T11:45:01Z</time>
      </trkpt>
      <trkpt lat="46.60739" lon="-1.76299">
        <ele>44.36</ele>
        <time>2016-07-16T11:45:02Z</time>
      </trkpt>
      <trkpt lat="46.60737" lon="-1.76309">
        <ele>43.88</ele>
        <time>2016-07-16T11:45:03Z</time>
      </trkpt>
      <trkpt lat="46.60737" lon="-1.76323">
        <ele>43.4</ele>
        <time>2016-07-16T11:45:04Z</time>
      </trkpt>
      <trkpt lat="46.60738" lon="-1.76342">
        <ele>43.88</ele>
        <time>2016-07-16T11:45:05Z</time>
      </trkpt>
      <trkpt lat="46.60761" lon="-1.7648">
        <ele>45.32</ele>
        <time>2016-07-16T11:45:12Z</time>
      </trkpt>
      <trkpt lat="46.60801" lon="-1.76743">
        <ele>48.68</ele>
        <time>2016-07-16T11:45:23Z</time>
      </trkpt>
      <trkpt lat="46.60843" lon="-1.76924">
        <ele>52.05</ele>
        <time>2016-07-16T11:45:31Z</time>
      </trkpt>
      <trkpt lat="46.60919" lon="-1.77222">
        <ele>52.05</ele>
        <time>2016-07-16T11:45:44Z</time>
      </trkpt>
      <trkpt lat="46.60927" lon="-1.77271">
        <ele>52.53</ele>
        <time>2016-07-16T11:45:46Z</time>
      </trkpt>
      <trkpt lat="46.60945" lon="-1.77469">
        <ele>51.09</ele>
        <time>2016-07-16T11:45:54Z</time>
      </trkpt>
      <trkpt lat="46.60955" lon="-1.77544">
        <ele>47.72</ele>
        <time>2016-07-16T11:45:57Z</time>
      </trkpt>
      <trkpt lat="46.6096" lon="-1.77567">
        <ele>46.28</ele>
        <time>2016-07-16T11:45:58Z</time>
      </trkpt>
      <trkpt lat="46.60966" lon="-1.77588">
        <ele>44.36</ele>
        <time>2016-07-16T11:45:59Z</time>
      </trkpt>
      <trkpt lat="46.60973" lon="-1.77606">
        <ele>42.92</ele>
        <time>2016-07-16T11:46:00Z</time>
      </trkpt>
      <trkpt lat="46.60978" lon="-1.77621">
        <ele>41.47</ele>
        <time>2016-07-16T11:46:01Z</time>
      </trkpt>
      <trkpt lat="46.60982" lon="-1.77634">
        <ele>40.99</ele>
        <time>2016-07-16T11:46:02Z</time>
      </trkpt>
      <trkpt lat="46.60983" lon="-1.77648">
        <ele>40.51</ele>
        <time>2016-07-16T11:46:03Z</time>
      </trkpt>
      <trkpt lat="46.60982" lon="-1.77662">
        <ele>40.03</ele>
        <time>2016-07-16T11:46:04Z</time>
      </trkpt>
      <trkpt lat="46.60978" lon="-1.77678">
        <ele>39.55</ele>
        <time>2016-07-16T11:46:05Z</time>
      </trkpt>
      <trkpt lat="46.60973" lon="-1.77696">
        <ele>39.07</ele>
        <time>2016-07-16T11:46:06Z</time>
      </trkpt>
      <trkpt lat="46.60945" lon="-1.77777">
        <ele>38.59</ele>
        <time>2016-07-16T11:46:10Z</time>
      </trkpt>
      <trkpt lat="46.60939" lon="-1.778">
        <ele>39.55</ele>
        <time>2016-07-16T11:46:11Z</time>
      </trkpt>
      <trkpt lat="46.60935" lon="-1.77825">
        <ele>40.03</ele>
        <time>2016-07-16T11:46:12Z</time>
      </trkpt>
      <trkpt lat="46.60918" lon="-1.77979">
        <ele>43.88</ele>
        <time>2016-07-16T11:46:18Z</time>
      </trkpt>
      <trkpt lat="46.60915" lon="-1.78005">
        <ele>43.88</ele>
        <time>2016-07-16T11:46:19Z</time>
      </trkpt>
      <trkpt lat="46.60904" lon="-1.78086">
        <ele>42.44</ele>
        <time>2016-07-16T11:46:22Z</time>
      </trkpt>
      <trkpt lat="46.60885" lon="-1.78201">
        <ele>40.51</ele>
        <time>2016-07-16T11:46:26Z</time>
      </trkpt>
      <trkpt lat="46.60862" lon="-1.78342">
        <ele>38.11</ele>
        <time>2016-07-16T11:46:31Z</time>
      </trkpt>
      <trkpt lat="46.60847" lon="-1.7845">
        <ele>35.23</ele>
        <time>2016-07-16T11:46:35Z</time>
      </trkpt>
      <trkpt lat="46.60847" lon="-1.78622">
        <ele>31.86</ele>
        <time>2016-07-16T11:46:41Z</time>
      </trkpt>
      <trkpt lat="46.60866" lon="-1.78901">
        <ele>31.86</ele>
        <time>2016-07-16T11:46:50Z</time>
      </trkpt>
      <trkpt lat="46.60879" lon="-1.79149">
        <ele>29.94</ele>
        <time>2016-07-16T11:46:59Z</time>
      </trkpt>
      <trkpt lat="46.60886" lon="-1.79173">
        <ele>29.94</ele>
        <time>2016-07-16T11:47:00Z</time>
      </trkpt>
      <trkpt lat="46.60918" lon="-1.79256">
        <ele>33.78</ele>
        <time>2016-07-16T11:47:04Z</time>
      </trkpt>
      <trkpt lat="46.60924" lon="-1.79275">
        <ele>34.74</ele>
        <time>2016-07-16T11:47:05Z</time>
      </trkpt>
      <trkpt lat="46.60929" lon="-1.79295">
        <ele>35.23</ele>
        <time>2016-07-16T11:47:06Z</time>
      </trkpt>
      <trkpt lat="46.6093" lon="-1.79315">
        <ele>36.19</ele>
        <time>2016-07-16T11:47:07Z</time>
      </trkpt>
      <trkpt lat="46.6093" lon="-1.79337">
        <ele>37.15</ele>
        <time>2016-07-16T11:47:08Z</time>
      </trkpt>
      <trkpt lat="46.60927" lon="-1.7936">
        <ele>37.63</ele>
        <time>2016-07-16T11:47:09Z</time>
      </trkpt>
      <trkpt lat="46.60922" lon="-1.79383">
        <ele>37.63</ele>
        <time>2016-07-16T11:47:10Z</time>
      </trkpt>
      <trkpt lat="46.60916" lon="-1.79407">
        <ele>38.11</ele>
        <time>2016-07-16T11:47:11Z</time>
      </trkpt>
      <trkpt lat="46.60909" lon="-1.79429">
        <ele>38.11</ele>
        <time>2016-07-16T11:47:12Z</time>
      </trkpt>
      <trkpt lat="46.60834" lon="-1.79665">
        <ele>36.19</ele>
        <time>2016-07-16T11:47:22Z</time>
      </trkpt>
      <trkpt lat="46.60776" lon="-1.79859">
        <ele>33.3</ele>
        <time>2016-07-16T11:47:29Z</time>
      </trkpt>
      <trkpt lat="46.60748" lon="-1.80041">
        <ele>36.67</ele>
        <time>2016-07-16T11:47:35Z</time>
      </trkpt>
      <trkpt lat="46.60744" lon="-1.80066">
        <ele>36.67</ele>
        <time>2016-07-16T11:47:36Z</time>
      </trkpt>
      <trkpt lat="46.60691" lon="-1.80293">
        <ele>37.15</ele>
        <time>2016-07-16T11:47:45Z</time>
      </trkpt>
      <trkpt lat="46.60606" lon="-1.80515">
        <ele>37.15</ele>
        <time>2016-07-16T11:47:54Z</time>
      </trkpt>
      <trkpt lat="46.60584" lon="-1.80583">
        <ele>39.07</ele>
        <time>2016-07-16T11:47:57Z</time>
      </trkpt>
      <trkpt lat="46.6058" lon="-1.80607">
        <ele>39.07</ele>
        <time>2016-07-16T11:47:58Z</time>
      </trkpt>
      <trkpt lat="46.60577" lon="-1.80632">
        <ele>39.07</ele>
        <time>2016-07-16T11:47:59Z</time>
      </trkpt>
      <trkpt lat="46.60576" lon="-1.80657">
        <ele>39.55</ele>
        <time>2016-07-16T11:48:00Z</time>
      </trkpt>
      <trkpt lat="46.60575" lon="-1.80684">
        <ele>39.55</ele>
        <time>2016-07-16T11:48:01Z</time>
      </trkpt>
      <trkpt lat="46.60572" lon="-1.80816">
        <ele>36.67</ele>
        <time>2016-07-16T11:48:06Z</time>
      </trkpt>
      <trkpt lat="46.60548" lon="-1.80982">
        <ele>32.34</ele>
        <time>2016-07-16T11:48:12Z</time>
      </trkpt>
      <trkpt lat="46.6054" lon="-1.81034">
        <ele>30.42</ele>
        <time>2016-07-16T11:48:14Z</time>
      </trkpt>
      <trkpt lat="46.60539" lon="-1.8106">
        <ele>30.42</ele>
        <time>2016-07-16T11:48:15Z</time>
      </trkpt>
      <trkpt lat="46.6054" lon="-1.81086">
        <ele>30.42</ele>
        <time>2016-07-16T11:48:16Z</time>
      </trkpt>
      <trkpt lat="46.60542" lon="-1.81112">
        <ele>30.42</ele>
        <time>2016-07-16T11:48:17Z</time>
      </trkpt>
      <trkpt lat="46.60546" lon="-1.81139">
        <ele>31.38</ele>
        <time>2016-07-16T11:48:18Z</time>
      </trkpt>
      <trkpt lat="46.60552" lon="-1.81166">
        <ele>32.34</ele>
        <time>2016-07-16T11:48:19Z</time>
      </trkpt>
      <trkpt lat="46.60558" lon="-1.81194">
        <ele>32.34</ele>
        <time>2016-07-16T11:48:20Z</time>
      </trkpt>
      <trkpt lat="46.60613" lon="-1.81502">
        <ele>31.38</ele>
        <time>2016-07-16T11:48:30Z</time>
      </trkpt>
      <trkpt lat="46.60636" lon="-1.81748">
        <ele>27.53</ele>
        <time>2016-07-16T11:48:39Z</time>
      </trkpt>
      <trkpt lat="46.60641" lon="-1.81773">
        <ele>26.57</ele>
        <time>2016-07-16T11:48:40Z</time>
      </trkpt>
      <trkpt lat="46.60647" lon="-1.81797">
        <ele>26.57</ele>
        <time>2016-07-16T11:48:41Z</time>
      </trkpt>
      <trkpt lat="46.60654" lon="-1.81819">
        <ele>26.09</ele>
        <time>2016-07-16T11:48:42Z</time>
      </trkpt>
      <trkpt lat="46.60662" lon="-1.8184">
        <ele>25.61</ele>
        <time>2016-07-16T11:48:43Z</time>
      </trkpt>
      <trkpt lat="46.60676" lon="-1.81883">
        <ele>24.17</ele>
        <time>2016-07-16T11:48:45Z</time>
      </trkpt>
      <trkpt lat="46.60681" lon="-1.81906">
        <ele>23.21</ele>
        <time>2016-07-16T11:48:46Z</time>
      </trkpt>
      <trkpt lat="46.60684" lon="-1.81931">
        <ele>21.77</ele>
        <time>2016-07-16T11:48:47Z</time>
      </trkpt>
      <trkpt lat="46.60684" lon="-1.81956">
        <ele>21.29</ele>
        <time>2016-07-16T11:48:48Z</time>
      </trkpt>
      <trkpt lat="46.60682" lon="-1.81981">
        <ele>21.29</ele>
        <time>2016-07-16T11:48:49Z</time>
      </trkpt>
      <trkpt lat="46.60678" lon="-1.82005">
        <ele>21.77</ele>
        <time>2016-07-16T11:48:50Z</time>
      </trkpt>
      <trkpt lat="46.60671" lon="-1.82055">
        <ele>23.21</ele>
        <time>2016-07-16T11:48:52Z</time>
      </trkpt>
      <trkpt lat="46.60642" lon="-1.82264">
        <ele>25.13</ele>
        <time>2016-07-16T11:49:02Z</time>
      </trkpt>
      <trkpt lat="46.60636" lon="-1.82336">
        <ele>24.17</ele>
        <time>2016-07-16T11:49:06Z</time>
      </trkpt>
      <trkpt lat="46.60624" lon="-1.82532">
        <ele>25.61</ele>
        <time>2016-07-16T11:49:19Z</time>
      </trkpt>
      <trkpt lat="46.60613" lon="-1.82738">
        <ele>24.65</ele>
        <time>2016-07-16T11:49:34Z</time>
      </trkpt>
      <trkpt lat="46.60606" lon="-1.82813">
        <ele>23.21</ele>
        <time>2016-07-16T11:49:40Z</time>
      </trkpt>
      <trkpt lat="46.60603" lon="-1.82824">
        <ele>23.21</ele>
        <time>2016-07-16T11:49:41Z</time>
      </trkpt>
      <trkpt lat="46.60599" lon="-1.82834">
        <ele>23.21</ele>
        <time>2016-07-16T11:49:42Z</time>
      </trkpt>
      <trkpt lat="46.60586" lon="-1.82872">
        <ele>23.21</ele>
        <time>2016-07-16T11:49:46Z</time>
      </trkpt>
      <trkpt lat="46.60585" lon="-1.82883">
        <ele>23.21</ele>
        <time>2016-07-16T11:49:47Z</time>
      </trkpt>
      <trkpt lat="46.60585" lon="-1.82893">
        <ele>23.21</ele>
        <time>2016-07-16T11:49:48Z</time>
      </trkpt>
      <trkpt lat="46.60587" lon="-1.82902">
        <ele>23.21</ele>
        <time>2016-07-16T11:49:49Z</time>
      </trkpt>
      <trkpt lat="46.60588" lon="-1.82908">
        <ele>23.21</ele>
        <time>2016-07-16T11:49:50Z</time>
      </trkpt>
      <trkpt lat="46.60591" lon="-1.82919">
        <ele>23.21</ele>
        <time>2016-07-16T11:49:51Z</time>
      </trkpt>
      <trkpt lat="46.60604" lon="-1.82971">
        <ele>24.65</ele>
        <time>2016-07-16T11:49:57Z</time>
      </trkpt>
      <trkpt lat="46.60609" lon="-1.82996">
        <ele>24.65</ele>
        <time>2016-07-16T11:50:04Z</time>
      </trkpt>
      <trkpt lat="46.60609" lon="-1.82998">
        <ele>25.13</ele>
        <time>2016-07-16T11:50:07Z</time>
      </trkpt>
      <trkpt lat="46.6061" lon="-1.82999">
        <ele>25.13</ele>
        <time>2016-07-16T11:50:08Z</time>
      </trkpt>
      <trkpt lat="46.60611" lon="-1.83002">
        <ele>25.13</ele>
        <time>2016-07-16T11:50:09Z</time>
      </trkpt>
      <trkpt lat="46.60609" lon="-1.83006">
        <ele>25.13</ele>
        <time>2016-07-16T11:50:10Z</time>
      </trkpt>
      <trkpt lat="46.60606" lon="-1.83009">
        <ele>25.13</ele>
        <time>2016-07-16T11:50:11Z</time>
      </trkpt>
      <trkpt lat="46.60601" lon="-1.83014">
        <ele>25.13</ele>
        <time>2016-07-16T11:50:12Z</time>
      </trkpt>
      <trkpt lat="46.60597" lon="-1.83017">
        <ele>25.13</ele>
        <time>2016-07-16T11:50:13Z</time>
      </trkpt>
      <trkpt lat="46.60577" lon="-1.8303">
        <ele>25.13</ele>
        <time>2016-07-16T11:50:16Z</time>
      </trkpt>
      <trkpt lat="46.6057" lon="-1.83032">
        <ele>25.13</ele>
        <time>2016-07-16T11:50:17Z</time>
      </trkpt>
      <trkpt lat="46.60551" lon="-1.83037">
        <ele>21.29</ele>
        <time>2016-07-16T11:50:21Z</time>
      </trkpt>
      <trkpt lat="46.60549" lon="-1.8304">
        <ele>21.29</ele>
        <time>2016-07-16T11:50:22Z</time>
      </trkpt>
      <trkpt lat="46.60547" lon="-1.83043">
        <ele>21.29</ele>
        <time>2016-07-16T11:50:23Z</time>
      </trkpt>
      <trkpt lat="46.60547" lon="-1.83047">
        <ele>21.77</ele>
        <time>2016-07-16T11:50:24Z</time>
      </trkpt>
      <trkpt lat="46.60548" lon="-1.83053">
        <ele>21.29</ele>
        <time>2016-07-16T11:50:25Z</time>
      </trkpt>
      <trkpt lat="46.6055" lon="-1.83059">
        <ele>21.29</ele>
        <time>2016-07-16T11:50:26Z</time>
      </trkpt>
      <trkpt lat="46.60552" lon="-1.83065">
        <ele>21.29</ele>
        <time>2016-07-16T11:50:27Z</time>
      </trkpt>
      <trkpt lat="46.60554" lon="-1.83073">
        <ele>20.81</ele>
        <time>2016-07-16T11:50:28Z</time>
      </trkpt>
      <trkpt lat="46.60562" lon="-1.83108">
        <ele>20.32</ele>
        <time>2016-07-16T11:50:31Z</time>
      </trkpt>
      <trkpt lat="46.60563" lon="-1.83118">
        <ele>20.32</ele>
        <time>2016-07-16T11:50:32Z</time>
      </trkpt>
      <trkpt lat="46.60559" lon="-1.83244">
        <ele>16.96</ele>
        <time>2016-07-16T11:50:42Z</time>
      </trkpt>
      <trkpt lat="46.6056" lon="-1.83316">
        <ele>16.96</ele>
        <time>2016-07-16T11:50:48Z</time>
      </trkpt>
      <trkpt lat="46.60561" lon="-1.83325">
        <ele>16.96</ele>
        <time>2016-07-16T11:50:49Z</time>
      </trkpt>
      <trkpt lat="46.60564" lon="-1.83338">
        <ele>16.96</ele>
        <time>2016-07-16T11:50:50Z</time>
      </trkpt>
      <trkpt lat="46.60591" lon="-1.83474">
        <ele>16.96</ele>
        <time>2016-07-16T11:51:00Z</time>
      </trkpt>
      <trkpt lat="46.60601" lon="-1.83515">
        <ele>16.48</ele>
        <time>2016-07-16T11:51:04Z</time>
      </trkpt>
      <trkpt lat="46.60607" lon="-1.83523">
        <ele>16.48</ele>
        <time>2016-07-16T11:51:05Z</time>
      </trkpt>
      <trkpt lat="46.6061" lon="-1.83529">
        <ele>16.48</ele>
        <time>2016-07-16T11:51:06Z</time>
      </trkpt>
      <trkpt lat="46.60613" lon="-1.83533">
        <ele>16.48</ele>
        <time>2016-07-16T11:51:07Z</time>
      </trkpt>
      <trkpt lat="46.60614" lon="-1.83541">
        <ele>16.48</ele>
        <time>2016-07-16T11:51:08Z</time>
      </trkpt>
      <trkpt lat="46.60613" lon="-1.83547">
        <ele>16.48</ele>
        <time>2016-07-16T11:51:09Z</time>
      </trkpt>
      <trkpt lat="46.60612" lon="-1.83555">
        <ele>16.48</ele>
        <time>2016-07-16T11:51:10Z</time>
      </trkpt>
      <trkpt lat="46.60611" lon="-1.83567">
        <ele>16.48</ele>
        <time>2016-07-16T11:51:11Z</time>
      </trkpt>
      <trkpt lat="46.60612" lon="-1.83579">
        <ele>16.48</ele>
        <time>2016-07-16T11:51:12Z</time>
      </trkpt>
      <trkpt lat="46.60614" lon="-1.83591">
        <ele>16.48</ele>
        <time>2016-07-16T11:51:13Z</time>
      </trkpt>
      <trkpt lat="46.60645" lon="-1.83714">
        <ele>15.04</ele>
        <time>2016-07-16T11:51:21Z</time>
      </trkpt>
      <trkpt lat="46.60698" lon="-1.8393">
        <ele>14.56</ele>
        <time>2016-07-16T11:51:35Z</time>
      </trkpt>
      <trkpt lat="46.60761" lon="-1.84173">
        <ele>12.15</ele>
        <time>2016-07-16T11:51:49Z</time>
      </trkpt>
      <trkpt lat="46.60787" lon="-1.84274">
        <ele>8.79</ele>
        <time>2016-07-16T11:51:54Z</time>
      </trkpt>
      <trkpt lat="46.60804" lon="-1.8434">
        <ele>6.87</ele>
        <time>2016-07-16T11:51:57Z</time>
      </trkpt>
      <trkpt lat="46.60846" lon="-1.84465">
        <ele>5.91</ele>
        <time>2016-07-16T11:52:05Z</time>
      </trkpt>
      <trkpt lat="46.6086" lon="-1.84493">
        <ele>8.31</ele>
        <time>2016-07-16T11:52:09Z</time>
      </trkpt>
      <trkpt lat="46.6086" lon="-1.84498">
        <ele>8.31</ele>
        <time>2016-07-16T11:52:10Z</time>
      </trkpt>
      <trkpt lat="46.60857" lon="-1.84503">
        <ele>9.27</ele>
        <time>2016-07-16T11:52:11Z</time>
      </trkpt>
      <trkpt lat="46.60854" lon="-1.84506">
        <ele>9.27</ele>
        <time>2016-07-16T11:52:12Z</time>
      </trkpt>
      <trkpt lat="46.60848" lon="-1.8451">
        <ele>8.79</ele>
        <time>2016-07-16T11:52:13Z</time>
      </trkpt>
      <trkpt lat="46.60841" lon="-1.84515">
        <ele>9.27</ele>
        <time>2016-07-16T11:52:14Z</time>
      </trkpt>
      <trkpt lat="46.60768" lon="-1.84585">
        <ele>9.27</ele>
        <time>2016-07-16T11:52:23Z</time>
      </trkpt>
      <trkpt lat="46.60729" lon="-1.84645">
        <ele>9.27</ele>
        <time>2016-07-16T11:52:30Z</time>
      </trkpt>
      <trkpt lat="46.60726" lon="-1.84655">
        <ele>9.27</ele>
        <time>2016-07-16T11:52:31Z</time>
      </trkpt>
      <trkpt lat="46.60723" lon="-1.84668">
        <ele>7.83</ele>
        <time>2016-07-16T11:52:32Z</time>
      </trkpt>
      <trkpt lat="46.60722" lon="-1.84678">
        <ele>7.83</ele>
        <time>2016-07-16T11:52:33Z</time>
      </trkpt>
      <trkpt lat="46.60722" lon="-1.8469">
        <ele>7.83</ele>
        <time>2016-07-16T11:52:34Z</time>
      </trkpt>
      <trkpt lat="46.60723" lon="-1.84703">
        <ele>7.83</ele>
        <time>2016-07-16T11:52:35Z</time>
      </trkpt>
      <trkpt lat="46.60725" lon="-1.84715">
        <ele>7.83</ele>
        <time>2016-07-16T11:52:36Z</time>
      </trkpt>
      <trkpt lat="46.60742" lon="-1.84868">
        <ele>6.87</ele>
        <time>2016-07-16T11:52:51Z</time>
      </trkpt>
      <trkpt lat="46.60757" lon="-1.84978">
        <ele>4.94</ele>
        <time>2016-07-16T11:53:03Z</time>
      </trkpt>
      <trkpt lat="46.60779" lon="-1.85106">
        <ele>4.94</ele>
        <time>2016-07-16T11:53:17Z</time>
      </trkpt>
      <trkpt lat="46.60775" lon="-1.85187">
        <ele>4.46</ele>
        <time>2016-07-16T11:53:28Z</time>
      </trkpt>
      <trkpt lat="46.60775" lon="-1.85183">
        <ele>4.46</ele>
        <time>2016-07-16T11:53:29Z</time>
      </trkpt>
      <trkpt lat="46.60776" lon="-1.8518">
        <ele>4.46</ele>
        <time>2016-07-16T11:53:30Z</time>
      </trkpt>
      <trkpt lat="46.60773" lon="-1.85166">
        <ele>4.46</ele>
        <time>2016-07-16T11:53:47Z</time>
      </trkpt>
      <trkpt lat="46.60774" lon="-1.85165">
        <ele>5.91</ele>
        <time>2016-07-16T11:54:03Z</time>
      </trkpt>
      <trkpt lat="46.60775" lon="-1.85162">
        <ele>5.91</ele>
        <time>2016-07-16T11:54:30Z</time>
      </trkpt>
      <trkpt lat="46.60774" lon="-1.8516">
        <ele>6.39</ele>
        <time>2016-07-16T11:55:03Z</time>
      </trkpt>
      <trkpt lat="46.60773" lon="-1.8516">
        <ele>5.91</ele>
        <time>2016-07-16T11:55:41Z</time>
      </trkpt>
      <trkpt lat="46.60773" lon="-1.85158">
        <ele>5.91</ele>
        <time>2016-07-16T11:56:20Z</time>
      </trkpt>
      <trkpt lat="46.60773" lon="-1.85159">
        <ele>5.91</ele>
        <time>2016-07-16T11:57:05Z</time>
      </trkpt>
      <trkpt lat="46.60773" lon="-1.85159">
        <ele>5.91</ele>
        <time>2016-07-16T11:57:38Z</time>
      </trkpt>
      <trkpt lat="46.60773" lon="-1.8516">
        <ele>4.46</ele>
        <time>2016-07-16T11:58:20Z</time>
      </trkpt>
      <trkpt lat="46.60773" lon="-1.85159">
        <ele>5.42</ele>
        <time>2016-07-16T11:59:03Z</time>
      </trkpt>
      <trkpt lat="46.60773" lon="-1.85159">
        <ele>5.91</ele>
        <time>2016-07-16T11:59:39Z</time>
      </trkpt>
      <trkpt lat="46.60774" lon="-1.85159">
        <ele>5.91</ele>
        <time>2016-07-16T12:00:17Z</time>
      </trkpt>
      <trkpt lat="46.60775" lon="-1.85158">
        <ele>5.91</ele>
        <time>2016-07-16T12:00:57Z</time>
      </trkpt>
      <trkpt lat="46.60776" lon="-1.85158">
        <ele>5.91</ele>
        <time>2016-07-16T12:01:27Z</time>
      </trkpt>
      <trkpt lat="46.60775" lon="-1.85158">
        <ele>5.91</ele>
        <time>2016-07-16T12:02:12Z</time>
      </trkpt>
      <trkpt lat="46.60775" lon="-1.85159">
        <ele>5.91</ele>
        <time>2016-07-16T12:02:52Z</time>
      </trkpt>
      <trkpt lat="46.60776" lon="-1.85158">
        <ele>6.39</ele>
        <time>2016-07-16T12:03:25Z</time>
      </trkpt>
      <trkpt lat="46.60776" lon="-1.85158">
        <ele>6.39</ele>
        <time>2016-07-16T12:04:02Z</time>
      </trkpt>
      <trkpt lat="46.60776" lon="-1.85159">
        <ele>6.39</ele>
        <time>2016-07-16T12:04:38Z</time>
      </trkpt>
      <trkpt lat="46.60775" lon="-1.8516">
        <ele>6.87</ele>
        <time>2016-07-16T12:05:17Z</time>
      </trkpt>
      <trkpt lat="46.60774" lon="-1.85161">
        <ele>7.35</ele>
        <time>2016-07-16T12:05:59Z</time>
      </trkpt>
      <trkpt lat="46.60774" lon="-1.85161">
        <ele>7.35</ele>
        <time>2016-07-16T12:06:36Z</time>
      </trkpt>
      <trkpt lat="46.60774" lon="-1.85161">
        <ele>7.35</ele>
        <time>2016-07-16T12:07:20Z</time>
      </trkpt>
      <trkpt lat="46.60774" lon="-1.85163">
        <ele>7.35</ele>
        <time>2016-07-16T12:07:58Z</time>
      </trkpt>
      <trkpt lat="46.60773" lon="-1.85163">
        <ele>6.39</ele>
        <time>2016-07-16T12:08:34Z</time>
      </trkpt>
      <trkpt lat="46.60772" lon="-1.85164">
        <ele>6.39</ele>
        <time>2016-07-16T12:09:14Z</time>
      </trkpt>
      <trkpt lat="46.60772" lon="-1.85162">
        <ele>6.39</ele>
        <time>2016-07-16T12:09:54Z</time>
      </trkpt>
      <trkpt lat="46.60773" lon="-1.85163">
        <ele>6.39</ele>
        <time>2016-07-16T12:10:35Z</time>
      </trkpt>
      <trkpt lat="46.60773" lon="-1.85162">
        <ele>6.39</ele>
        <time>2016-07-16T12:11:23Z</time>
      </trkpt>
      <trkpt lat="46.60773" lon="-1.85162">
        <ele>6.39</ele>
        <time>2016-07-16T12:12:03Z</time>
      </trkpt>
      <trkpt lat="46.60773" lon="-1.85162">
        <ele>6.39</ele>
        <time>2016-07-16T12:12:44Z</time>
      </trkpt>
      <trkpt lat="46.60774" lon="-1.85163">
        <ele>6.39</ele>
        <time>2016-07-16T12:13:21Z</time>
      </trkpt>
      <trkpt lat="46.60774" lon="-1.85161">
        <ele>6.39</ele>
        <time>2016-07-16T12:14:06Z</time>
      </trkpt>
      <trkpt lat="46.60774" lon="-1.85162">
        <ele>6.87</ele>
        <time>2016-07-16T12:14:46Z</time>
      </trkpt>
      <trkpt lat="46.60774" lon="-1.85163">
        <ele>6.87</ele>
        <time>2016-07-16T12:15:25Z</time>
      </trkpt>
      <trkpt lat="46.60774" lon="-1.85163">
        <ele>7.83</ele>
        <time>2016-07-16T12:16:05Z</time>
      </trkpt>
      <trkpt lat="46.60775" lon="-1.85163">
        <ele>7.83</ele>
        <time>2016-07-16T12:16:44Z</time>
      </trkpt>
      <trkpt lat="46.60775" lon="-1.85163">
        <ele>7.83</ele>
        <time>2016-07-16T12:17:20Z</time>
      </trkpt>
      <trkpt lat="46.60774" lon="-1.85164">
        <ele>7.83</ele>
        <time>2016-07-16T12:18:04Z</time>
      </trkpt>
      <trkpt lat="46.60773" lon="-1.85162">
        <ele>7.83</ele>
        <time>2016-07-16T12:18:40Z</time>
      </trkpt>
      <trkpt lat="46.60773" lon="-1.85162">
        <ele>8.31</ele>
        <time>2016-07-16T12:19:22Z</time>
      </trkpt>
      <trkpt lat="46.60773" lon="-1.85163">
        <ele>8.31</ele>
        <time>2016-07-16T12:20:05Z</time>
      </trkpt>
      <trkpt lat="46.60774" lon="-1.85163">
        <ele>8.31</ele>
        <time>2016-07-16T12:20:40Z</time>
      </trkpt>
      <trkpt lat="46.60773" lon="-1.85162">
        <ele>8.31</ele>
        <time>2016-07-16T12:21:19Z</time>
      </trkpt>
      <trkpt lat="46.60773" lon="-1.85162">
        <ele>8.79</ele>
        <time>2016-07-16T12:22:00Z</time>
      </trkpt>
      <trkpt lat="46.60772" lon="-1.8516">
        <ele>8.79</ele>
        <time>2016-07-16T12:22:42Z</time>
      </trkpt>
      <trkpt lat="46.60773" lon="-1.8516">
        <ele>8.79</ele>
        <time>2016-07-16T12:23:25Z</time>
      </trkpt>
      <trkpt lat="46.60773" lon="-1.8516">
        <ele>9.27</ele>
        <time>2016-07-16T12:24:10Z</time>
      </trkpt>
      <trkpt lat="46.60773" lon="-1.85159">
        <ele>9.27</ele>
        <time>2016-07-16T12:24:47Z</time>
      </trkpt>
      <trkpt lat="46.60774" lon="-1.8516">
        <ele>9.27</ele>
        <time>2016-07-16T12:25:32Z</time>
      </trkpt>
      <trkpt lat="46.60773" lon="-1.85159">
        <ele>9.27</ele>
        <time>2016-07-16T12:26:16Z</time>
      </trkpt>
      <trkpt lat="46.60774" lon="-1.8516">
        <ele>9.27</ele>
        <time>2016-07-16T12:27:01Z</time>
      </trkpt>
      <trkpt lat="46.60774" lon="-1.85161">
        <ele>9.75</ele>
        <time>2016-07-16T12:27:39Z</time>
      </trkpt>
      <trkpt lat="46.60774" lon="-1.8516">
        <ele>9.75</ele>
        <time>2016-07-16T12:28:20Z</time>
      </trkpt>
      <trkpt lat="46.60775" lon="-1.8516">
        <ele>9.75</ele>
        <time>2016-07-16T12:28:58Z</time>
      </trkpt>
      <trkpt lat="46.60775" lon="-1.8516">
        <ele>9.75</ele>
        <time>2016-07-16T12:29:36Z</time>
      </trkpt>
      <trkpt lat="46.60776" lon="-1.8516">
        <ele>9.75</ele>
        <time>2016-07-16T12:30:18Z</time>
      </trkpt>
      <trkpt lat="46.60776" lon="-1.8516">
        <ele>9.75</ele>
        <time>2016-07-16T12:30:54Z</time>
      </trkpt>
      <trkpt lat="46.60776" lon="-1.85162">
        <ele>9.75</ele>
        <time>2016-07-16T12:31:30Z</time>
      </trkpt>
      <trkpt lat="46.60775" lon="-1.85162">
        <ele>9.75</ele>
        <time>2016-07-16T12:32:13Z</time>
      </trkpt>
      <trkpt lat="46.60775" lon="-1.85162">
        <ele>9.75</ele>
        <time>2016-07-16T12:33:00Z</time>
      </trkpt>
      <trkpt lat="46.60776" lon="-1.85162">
        <ele>9.75</ele>
        <time>2016-07-16T12:33:43Z</time>
      </trkpt>
      <trkpt lat="46.60777" lon="-1.85161">
        <ele>8.79</ele>
        <time>2016-07-16T12:34:22Z</time>
      </trkpt>
      <trkpt lat="46.60778" lon="-1.85162">
        <ele>8.79</ele>
        <time>2016-07-16T12:35:04Z</time>
      </trkpt>
      <trkpt lat="46.60778" lon="-1.85163">
        <ele>8.79</ele>
        <time>2016-07-16T12:35:52Z</time>
      </trkpt>
      <trkpt lat="46.60778" lon="-1.85163">
        <ele>8.79</ele>
        <time>2016-07-16T12:36:31Z</time>
      </trkpt>
      <trkpt lat="46.60779" lon="-1.85163">
        <ele>8.79</ele>
        <time>2016-07-16T12:37:12Z</time>
      </trkpt>
      <trkpt lat="46.60778" lon="-1.85163">
        <ele>10.23</ele>
        <time>2016-07-16T12:37:53Z</time>
      </trkpt>
      <trkpt lat="46.60778" lon="-1.85163">
        <ele>9.75</ele>
        <time>2016-07-16T12:38:35Z</time>
      </trkpt>
      <trkpt lat="46.60778" lon="-1.85164">
        <ele>9.75</ele>
        <time>2016-07-16T12:39:14Z</time>
      </trkpt>
      <trkpt lat="46.60777" lon="-1.85165">
        <ele>9.75</ele>
        <time>2016-07-16T12:39:43Z</time>
      </trkpt>
      <trkpt lat="46.60777" lon="-1.85165">
        <ele>9.75</ele>
        <time>2016-07-16T12:40:15Z</time>
      </trkpt>
      <trkpt lat="46.60777" lon="-1.85164">
        <ele>9.75</ele>
        <time>2016-07-16T12:40:52Z</time>
      </trkpt>
      <trkpt lat="46.60777" lon="-1.85165">
        <ele>9.75</ele>
        <time>2016-07-16T12:41:22Z</time>
      </trkpt>
      <trkpt lat="46.60777" lon="-1.85166">
        <ele>9.75</ele>
        <time>2016-07-16T12:42:01Z</time>
      </trkpt>
      <trkpt lat="46.60777" lon="-1.85166">
        <ele>8.79</ele>
        <time>2016-07-16T12:42:39Z</time>
      </trkpt>
      <trkpt lat="46.60777" lon="-1.85164">
        <ele>8.79</ele>
        <time>2016-07-16T12:43:11Z</time>
      </trkpt>
      <trkpt lat="46.60777" lon="-1.85165">
        <ele>8.79</ele>
        <time>2016-07-16T12:43:57Z</time>
      </trkpt>
      <trkpt lat="46.60778" lon="-1.85166">
        <ele>8.79</ele>
        <time>2016-07-16T12:44:31Z</time>
      </trkpt>
      <trkpt lat="46.60778" lon="-1.85168">
        <ele>8.31</ele>
        <time>2016-07-16T12:45:10Z</time>
      </trkpt>
      <trkpt lat="46.60779" lon="-1.8517">
        <ele>8.31</ele>
        <time>2016-07-16T12:45:47Z</time>
      </trkpt>
      <trkpt lat="46.60779" lon="-1.85169">
        <ele>8.31</ele>
        <time>2016-07-16T12:46:25Z</time>
      </trkpt>
      <trkpt lat="46.60779" lon="-1.85166">
        <ele>8.31</ele>
        <time>2016-07-16T12:47:00Z</time>
      </trkpt>
      <trkpt lat="46.60778" lon="-1.85166">
        <ele>8.31</ele>
        <time>2016-07-16T12:47:44Z</time>
      </trkpt>
      <trkpt lat="46.60778" lon="-1.85167">
        <ele>8.31</ele>
        <time>2016-07-16T12:48:29Z</time>
      </trkpt>
      <trkpt lat="46.60777" lon="-1.85165">
        <ele>7.83</ele>
        <time>2016-07-16T12:49:07Z</time>
      </trkpt>
      <trkpt lat="46.60779" lon="-1.85166">
        <ele>8.79</ele>
        <time>2016-07-16T12:49:44Z</time>
      </trkpt>
      <trkpt lat="46.60779" lon="-1.85166">
        <ele>8.79</ele>
        <time>2016-07-16T12:50:23Z</time>
      </trkpt>
      <trkpt lat="46.60782" lon="-1.85166">
        <ele>8.79</ele>
        <time>2016-07-16T12:51:00Z</time>
      </trkpt>
      <trkpt lat="46.60782" lon="-1.85165">
        <ele>9.27</ele>
        <time>2016-07-16T12:51:40Z</time>
      </trkpt>
      <trkpt lat="46.60779" lon="-1.85164">
        <ele>9.27</ele>
        <time>2016-07-16T12:52:19Z</time>
      </trkpt>
      <trkpt lat="46.6078" lon="-1.85164">
        <ele>9.27</ele>
        <time>2016-07-16T12:52:59Z</time>
      </trkpt>
      <trkpt lat="46.60779" lon="-1.85165">
        <ele>9.27</ele>
        <time>2016-07-16T12:53:32Z</time>
      </trkpt>
      <trkpt lat="46.6078" lon="-1.85165">
        <ele>9.27</ele>
        <time>2016-07-16T12:54:11Z</time>
      </trkpt>
      <trkpt lat="46.60779" lon="-1.85165">
        <ele>9.27</ele>
        <time>2016-07-16T12:54:58Z</time>
      </trkpt>
      <trkpt lat="46.60779" lon="-1.85165">
        <ele>9.75</ele>
        <time>2016-07-16T12:55:35Z</time>
      </trkpt>
      <trkpt lat="46.60776" lon="-1.85165">
        <ele>9.75</ele>
        <time>2016-07-16T12:56:10Z</time>
      </trkpt>
      <trkpt lat="46.60775" lon="-1.85165">
        <ele>9.75</ele>
        <time>2016-07-16T12:56:47Z</time>
      </trkpt>
      <trkpt lat="46.60775" lon="-1.85163">
        <ele>9.75</ele>
        <time>2016-07-16T12:57:33Z</time>
      </trkpt>
      <trkpt lat="46.60775" lon="-1.85163">
        <ele>9.75</ele>
        <time>2016-07-16T12:58:09Z</time>
      </trkpt>
      <trkpt lat="46.60775" lon="-1.85163">
        <ele>9.75</ele>
        <time>2016-07-16T12:58:47Z</time>
      </trkpt>
      <trkpt lat="46.60774" lon="-1.85162">
        <ele>9.75</ele>
        <time>2016-07-16T12:59:33Z</time>
      </trkpt>
      <trkpt lat="46.60774" lon="-1.85162">
        <ele>9.75</ele>
        <time>2016-07-16T13:00:09Z</time>
      </trkpt>
      <trkpt lat="46.60773" lon="-1.85162">
        <ele>9.75</ele>
        <time>2016-07-16T13:00:49Z</time>
      </trkpt>
      <trkpt lat="46.60773" lon="-1.85162">
        <ele>10.23</ele>
        <time>2016-07-16T13:01:23Z</time>
      </trkpt>
      <trkpt lat="46.60773" lon="-1.85162">
        <ele>10.23</ele>
        <time>2016-07-16T13:01:52Z</time>
      </trkpt>
      <trkpt lat="46.60775" lon="-1.85161">
        <ele>10.23</ele>
        <time>2016-07-16T13:02:25Z</time>
      </trkpt>
      <trkpt lat="46.60774" lon="-1.8516">
        <ele>10.23</ele>
        <time>2016-07-16T13:03:05Z</time>
      </trkpt>
      <trkpt lat="46.60775" lon="-1.85161">
        <ele>10.23</ele>
        <time>2016-07-16T13:03:44Z</time>
      </trkpt>
      <trkpt lat="46.60776" lon="-1.85168">
        <ele>10.23</ele>
        <time>2016-07-16T13:03:58Z</time>
      </trkpt>
      <trkpt lat="46.60776" lon="-1.8517">
        <ele>10.23</ele>
        <time>2016-07-16T13:03:59Z</time>
      </trkpt>
      <trkpt lat="46.60776" lon="-1.85227">
        <ele>11.67</ele>
        <time>2016-07-16T13:04:08Z</time>
      </trkpt>
      <trkpt lat="46.60775" lon="-1.85252">
        <ele>12.15</ele>
        <time>2016-07-16T13:04:11Z</time>
      </trkpt>
      <trkpt lat="46.60776" lon="-1.85259">
        <ele>12.15</ele>
        <time>2016-07-16T13:04:12Z</time>
      </trkpt>
      <trkpt lat="46.60778" lon="-1.85265">
        <ele>12.15</ele>
        <time>2016-07-16T13:04:13Z</time>
      </trkpt>
      <trkpt lat="46.60783" lon="-1.8527">
        <ele>12.15</ele>
        <time>2016-07-16T13:04:14Z</time>
      </trkpt>
      <trkpt lat="46.60787" lon="-1.85274">
        <ele>12.15</ele>
        <time>2016-07-16T13:04:15Z</time>
      </trkpt>
      <trkpt lat="46.60792" lon="-1.85279">
        <ele>12.15</ele>
        <time>2016-07-16T13:04:16Z</time>
      </trkpt>
      <trkpt lat="46.60897" lon="-1.85367">
        <ele>13.12</ele>
        <time>2016-07-16T13:04:33Z</time>
      </trkpt>
      <trkpt lat="46.6099" lon="-1.85412">
        <ele>13.12</ele>
        <time>2016-07-16T13:04:45Z</time>
      </trkpt>
      <trkpt lat="46.61058" lon="-1.85444">
        <ele>13.6</ele>
        <time>2016-07-16T13:04:55Z</time>
      </trkpt>
      <trkpt lat="46.61087" lon="-1.85455">
        <ele>13.6</ele>
        <time>2016-07-16T13:04:59Z</time>
      </trkpt>
      <trkpt lat="46.61094" lon="-1.85454">
        <ele>12.63</ele>
        <time>2016-07-16T13:05:00Z</time>
      </trkpt>
      <trkpt lat="46.61101" lon="-1.8545">
        <ele>12.63</ele>
        <time>2016-07-16T13:05:01Z</time>
      </trkpt>
      <trkpt lat="46.61106" lon="-1.85444">
        <ele>12.63</ele>
        <time>2016-07-16T13:05:02Z</time>
      </trkpt>
      <trkpt lat="46.61108" lon="-1.85437">
        <ele>12.63</ele>
        <time>2016-07-16T13:05:03Z</time>
      </trkpt>
      <trkpt lat="46.6111" lon="-1.85427">
        <ele>12.63</ele>
        <time>2016-07-16T13:05:04Z</time>
      </trkpt>
      <trkpt lat="46.61112" lon="-1.85413">
        <ele>12.63</ele>
        <time>2016-07-16T13:05:05Z</time>
      </trkpt>
      <trkpt lat="46.61125" lon="-1.85296">
        <ele>15.52</ele>
        <time>2016-07-16T13:05:15Z</time>
      </trkpt>
      <trkpt lat="46.61127" lon="-1.85103">
        <ele>17.92</ele>
        <time>2016-07-16T13:05:30Z</time>
      </trkpt>
      <trkpt lat="46.61116" lon="-1.84871">
        <ele>19.84</ele>
        <time>2016-07-16T13:05:47Z</time>
      </trkpt>
      <trkpt lat="46.61101" lon="-1.84811">
        <ele>19.84</ele>
        <time>2016-07-16T13:05:53Z</time>
      </trkpt>
      <trkpt lat="46.61101" lon="-1.84804">
        <ele>19.84</ele>
        <time>2016-07-16T13:05:54Z</time>
      </trkpt>
      <trkpt lat="46.61101" lon="-1.84799">
        <ele>19.84</ele>
        <time>2016-07-16T13:05:55Z</time>
      </trkpt>
      <trkpt lat="46.61102" lon="-1.84794">
        <ele>19.84</ele>
        <time>2016-07-16T13:05:56Z</time>
      </trkpt>
      <trkpt lat="46.61103" lon="-1.84791">
        <ele>19.84</ele>
        <time>2016-07-16T13:05:57Z</time>
      </trkpt>
      <trkpt lat="46.61103" lon="-1.84788">
        <ele>19.84</ele>
        <time>2016-07-16T13:05:58Z</time>
      </trkpt>
      <trkpt lat="46.61104" lon="-1.84784">
        <ele>19.84</ele>
        <time>2016-07-16T13:05:59Z</time>
      </trkpt>
      <trkpt lat="46.61105" lon="-1.84779">
        <ele>20.32</ele>
        <time>2016-07-16T13:06:00Z</time>
      </trkpt>
      <trkpt lat="46.61106" lon="-1.84764">
        <ele>20.32</ele>
        <time>2016-07-16T13:06:02Z</time>
      </trkpt>
      <trkpt lat="46.61108" lon="-1.84756">
        <ele>20.81</ele>
        <time>2016-07-16T13:06:03Z</time>
      </trkpt>
      <trkpt lat="46.61112" lon="-1.84748">
        <ele>20.81</ele>
        <time>2016-07-16T13:06:04Z</time>
      </trkpt>
      <trkpt lat="46.61116" lon="-1.84745">
        <ele>20.81</ele>
        <time>2016-07-16T13:06:05Z</time>
      </trkpt>
      <trkpt lat="46.61122" lon="-1.84743">
        <ele>21.29</ele>
        <time>2016-07-16T13:06:06Z</time>
      </trkpt>
      <trkpt lat="46.6113" lon="-1.84744">
        <ele>21.29</ele>
        <time>2016-07-16T13:06:07Z</time>
      </trkpt>
      <trkpt lat="46.61135" lon="-1.84747">
        <ele>21.77</ele>
        <time>2016-07-16T13:06:08Z</time>
      </trkpt>
      <trkpt lat="46.61145" lon="-1.84754">
        <ele>21.77</ele>
        <time>2016-07-16T13:06:09Z</time>
      </trkpt>
      <trkpt lat="46.61155" lon="-1.84761">
        <ele>21.77</ele>
        <time>2016-07-16T13:06:11Z</time>
      </trkpt>
      <trkpt lat="46.61163" lon="-1.84764">
        <ele>21.77</ele>
        <time>2016-07-16T13:06:12Z</time>
      </trkpt>
      <trkpt lat="46.61174" lon="-1.84766">
        <ele>21.77</ele>
        <time>2016-07-16T13:06:13Z</time>
      </trkpt>
      <trkpt lat="46.61267" lon="-1.84782">
        <ele>24.17</ele>
        <time>2016-07-16T13:06:20Z</time>
      </trkpt>
      <trkpt lat="46.61454" lon="-1.8481">
        <ele>24.65</ele>
        <time>2016-07-16T13:06:30Z</time>
      </trkpt>
      <trkpt lat="46.61632" lon="-1.8479">
        <ele>23.69</ele>
        <time>2016-07-16T13:06:39Z</time>
      </trkpt>
      <trkpt lat="46.61671" lon="-1.84793">
        <ele>23.69</ele>
        <time>2016-07-16T13:06:41Z</time>
      </trkpt>
      <trkpt lat="46.6169" lon="-1.84797">
        <ele>23.69</ele>
        <time>2016-07-16T13:06:42Z</time>
      </trkpt>
      <trkpt lat="46.6171" lon="-1.84803">
        <ele>25.13</ele>
        <time>2016-07-16T13:06:43Z</time>
      </trkpt>
      <trkpt lat="46.61729" lon="-1.84812">
        <ele>25.13</ele>
        <time>2016-07-16T13:06:44Z</time>
      </trkpt>
      <trkpt lat="46.61747" lon="-1.84822">
        <ele>24.17</ele>
        <time>2016-07-16T13:06:45Z</time>
      </trkpt>
      <trkpt lat="46.61766" lon="-1.84834">
        <ele>24.17</ele>
        <time>2016-07-16T13:06:46Z</time>
      </trkpt>
      <trkpt lat="46.61988" lon="-1.84989">
        <ele>22.73</ele>
        <time>2016-07-16T13:06:58Z</time>
      </trkpt>
      <trkpt lat="46.62149" lon="-1.85065">
        <ele>21.77</ele>
        <time>2016-07-16T13:07:08Z</time>
      </trkpt>
      <trkpt lat="46.62173" lon="-1.85076">
        <ele>20.32</ele>
        <time>2016-07-16T13:07:10Z</time>
      </trkpt>
      <trkpt lat="46.6227" lon="-1.85145">
        <ele>19.84</ele>
        <time>2016-07-16T13:07:19Z</time>
      </trkpt>
      <trkpt lat="46.62308" lon="-1.85178">
        <ele>19.36</ele>
        <time>2016-07-16T13:07:25Z</time>
      </trkpt>
      <trkpt lat="46.62311" lon="-1.85183">
        <ele>19.36</ele>
        <time>2016-07-16T13:07:26Z</time>
      </trkpt>
      <trkpt lat="46.62316" lon="-1.85191">
        <ele>19.36</ele>
        <time>2016-07-16T13:07:27Z</time>
      </trkpt>
      <trkpt lat="46.62322" lon="-1.85199">
        <ele>19.36</ele>
        <time>2016-07-16T13:07:28Z</time>
      </trkpt>
      <trkpt lat="46.62329" lon="-1.85207">
        <ele>19.36</ele>
        <time>2016-07-16T13:07:29Z</time>
      </trkpt>
      <trkpt lat="46.62336" lon="-1.85214">
        <ele>19.36</ele>
        <time>2016-07-16T13:07:30Z</time>
      </trkpt>
      <trkpt lat="46.62427" lon="-1.85306">
        <ele>17.92</ele>
        <time>2016-07-16T13:07:40Z</time>
      </trkpt>
      <trkpt lat="46.6245" lon="-1.85327">
        <ele>16.48</ele>
        <time>2016-07-16T13:07:43Z</time>
      </trkpt>
      <trkpt lat="46.62471" lon="-1.85343">
        <ele>15.04</ele>
        <time>2016-07-16T13:07:47Z</time>
      </trkpt>
      <trkpt lat="46.62478" lon="-1.85345">
        <ele>15.04</ele>
        <time>2016-07-16T13:07:48Z</time>
      </trkpt>
      <trkpt lat="46.62483" lon="-1.85347">
        <ele>15.04</ele>
        <time>2016-07-16T13:07:49Z</time>
      </trkpt>
      <trkpt lat="46.62486" lon="-1.85352">
        <ele>15.04</ele>
        <time>2016-07-16T13:07:50Z</time>
      </trkpt>
      <trkpt lat="46.62488" lon="-1.85357">
        <ele>15.04</ele>
        <time>2016-07-16T13:07:51Z</time>
      </trkpt>
      <trkpt lat="46.6249" lon="-1.85366">
        <ele>15.04</ele>
        <time>2016-07-16T13:07:52Z</time>
      </trkpt>
      <trkpt lat="46.62491" lon="-1.85375">
        <ele>15.04</ele>
        <time>2016-07-16T13:07:53Z</time>
      </trkpt>
      <trkpt lat="46.62493" lon="-1.85382">
        <ele>15.04</ele>
        <time>2016-07-16T13:07:54Z</time>
      </trkpt>
      <trkpt lat="46.62497" lon="-1.85391">
        <ele>15.04</ele>
        <time>2016-07-16T13:07:55Z</time>
      </trkpt>
      <trkpt lat="46.62503" lon="-1.854">
        <ele>15.04</ele>
        <time>2016-07-16T13:07:56Z</time>
      </trkpt>
      <trkpt lat="46.62566" lon="-1.85474">
        <ele>12.15</ele>
        <time>2016-07-16T13:08:08Z</time>
      </trkpt>
      <trkpt lat="46.62638" lon="-1.8555">
        <ele>11.67</ele>
        <time>2016-07-16T13:08:17Z</time>
      </trkpt>
      <trkpt lat="46.62674" lon="-1.85584">
        <ele>11.67</ele>
        <time>2016-07-16T13:08:23Z</time>
      </trkpt>
      <trkpt lat="46.62678" lon="-1.85588">
        <ele>11.67</ele>
        <time>2016-07-16T13:08:24Z</time>
      </trkpt>
      <trkpt lat="46.62704" lon="-1.85621">
        <ele>13.12</ele>
        <time>2016-07-16T13:08:29Z</time>
      </trkpt>
      <trkpt lat="46.62766" lon="-1.85681">
        <ele>14.08</ele>
        <time>2016-07-16T13:08:38Z</time>
      </trkpt>
      <trkpt lat="46.62783" lon="-1.85689">
        <ele>14.56</ele>
        <time>2016-07-16T13:08:41Z</time>
      </trkpt>
      <trkpt lat="46.6279" lon="-1.85697">
        <ele>14.56</ele>
        <time>2016-07-16T13:08:42Z</time>
      </trkpt>
      <trkpt lat="46.62794" lon="-1.85704">
        <ele>14.56</ele>
        <time>2016-07-16T13:08:43Z</time>
      </trkpt>
      <trkpt lat="46.62836" lon="-1.85757">
        <ele>14.56</ele>
        <time>2016-07-16T13:08:49Z</time>
      </trkpt>
      <trkpt lat="46.62904" lon="-1.8582">
        <ele>13.6</ele>
        <time>2016-07-16T13:09:00Z</time>
      </trkpt>
      <trkpt lat="46.62907" lon="-1.85824">
        <ele>13.6</ele>
        <time>2016-07-16T13:09:01Z</time>
      </trkpt>
      <trkpt lat="46.62967" lon="-1.85883">
        <ele>13.12</ele>
        <time>2016-07-16T13:09:13Z</time>
      </trkpt>
      <trkpt lat="46.63066" lon="-1.85969">
        <ele>13.6</ele>
        <time>2016-07-16T13:09:26Z</time>
      </trkpt>
      <trkpt lat="46.63162" lon="-1.86">
        <ele>16</ele>
        <time>2016-07-16T13:09:36Z</time>
      </trkpt>
      <trkpt lat="46.63191" lon="-1.86008">
        <ele>16</ele>
        <time>2016-07-16T13:09:40Z</time>
      </trkpt>
      <trkpt lat="46.63197" lon="-1.86011">
        <ele>16.96</ele>
        <time>2016-07-16T13:09:41Z</time>
      </trkpt>
      <trkpt lat="46.63201" lon="-1.86016">
        <ele>16.96</ele>
        <time>2016-07-16T13:09:42Z</time>
      </trkpt>
      <trkpt lat="46.63205" lon="-1.86022">
        <ele>16.96</ele>
        <time>2016-07-16T13:09:43Z</time>
      </trkpt>
      <trkpt lat="46.6321" lon="-1.8603">
        <ele>16.48</ele>
        <time>2016-07-16T13:09:44Z</time>
      </trkpt>
      <trkpt lat="46.63251" lon="-1.86087">
        <ele>16.48</ele>
        <time>2016-07-16T13:09:51Z</time>
      </trkpt>
      <trkpt lat="46.63283" lon="-1.8617">
        <ele>15.04</ele>
        <time>2016-07-16T13:09:59Z</time>
      </trkpt>
      <trkpt lat="46.63289" lon="-1.86186">
        <ele>14.56</ele>
        <time>2016-07-16T13:10:01Z</time>
      </trkpt>
      <trkpt lat="46.63294" lon="-1.86193">
        <ele>14.56</ele>
        <time>2016-07-16T13:10:02Z</time>
      </trkpt>
      <trkpt lat="46.63302" lon="-1.86207">
        <ele>14.56</ele>
        <time>2016-07-16T13:10:04Z</time>
      </trkpt>
      <trkpt lat="46.63307" lon="-1.86219">
        <ele>14.56</ele>
        <time>2016-07-16T13:10:05Z</time>
      </trkpt>
      <trkpt lat="46.63316" lon="-1.86238">
        <ele>13.6</ele>
        <time>2016-07-16T13:10:07Z</time>
      </trkpt>
      <trkpt lat="46.63322" lon="-1.86248">
        <ele>13.6</ele>
        <time>2016-07-16T13:10:08Z</time>
      </trkpt>
      <trkpt lat="46.6333" lon="-1.86258">
        <ele>13.6</ele>
        <time>2016-07-16T13:10:09Z</time>
      </trkpt>
      <trkpt lat="46.63412" lon="-1.86347">
        <ele>13.6</ele>
        <time>2016-07-16T13:10:17Z</time>
      </trkpt>
      <trkpt lat="46.63421" lon="-1.86362">
        <ele>13.6</ele>
        <time>2016-07-16T13:10:18Z</time>
      </trkpt>
      <trkpt lat="46.63428" lon="-1.86378">
        <ele>13.6</ele>
        <time>2016-07-16T13:10:19Z</time>
      </trkpt>
      <trkpt lat="46.63434" lon="-1.86396">
        <ele>13.6</ele>
        <time>2016-07-16T13:10:20Z</time>
      </trkpt>
      <trkpt lat="46.63439" lon="-1.86414">
        <ele>13.6</ele>
        <time>2016-07-16T13:10:21Z</time>
      </trkpt>
      <trkpt lat="46.63461" lon="-1.86485">
        <ele>13.6</ele>
        <time>2016-07-16T13:10:25Z</time>
      </trkpt>
      <trkpt lat="46.63469" lon="-1.86499">
        <ele>13.6</ele>
        <time>2016-07-16T13:10:26Z</time>
      </trkpt>
      <trkpt lat="46.63479" lon="-1.86512">
        <ele>13.6</ele>
        <time>2016-07-16T13:10:27Z</time>
      </trkpt>
      <trkpt lat="46.6349" lon="-1.86522">
        <ele>13.6</ele>
        <time>2016-07-16T13:10:28Z</time>
      </trkpt>
      <trkpt lat="46.63503" lon="-1.86529">
        <ele>13.6</ele>
        <time>2016-07-16T13:10:29Z</time>
      </trkpt>
      <trkpt lat="46.63516" lon="-1.86534">
        <ele>15.04</ele>
        <time>2016-07-16T13:10:30Z</time>
      </trkpt>
      <trkpt lat="46.63529" lon="-1.86538">
        <ele>15.52</ele>
        <time>2016-07-16T13:10:31Z</time>
      </trkpt>
      <trkpt lat="46.63631" lon="-1.86604">
        <ele>17.44</ele>
        <time>2016-07-16T13:10:40Z</time>
      </trkpt>
      <trkpt lat="46.63701" lon="-1.86662">
        <ele>15.52</ele>
        <time>2016-07-16T13:10:48Z</time>
      </trkpt>
      <trkpt lat="46.63709" lon="-1.86663">
        <ele>15.52</ele>
        <time>2016-07-16T13:10:49Z</time>
      </trkpt>
      <trkpt lat="46.63715" lon="-1.86662">
        <ele>15.52</ele>
        <time>2016-07-16T13:10:50Z</time>
      </trkpt>
      <trkpt lat="46.63723" lon="-1.8666">
        <ele>15.52</ele>
        <time>2016-07-16T13:10:51Z</time>
      </trkpt>
      <trkpt lat="46.63727" lon="-1.86661">
        <ele>15.52</ele>
        <time>2016-07-16T13:10:52Z</time>
      </trkpt>
      <trkpt lat="46.6373" lon="-1.86662">
        <ele>15.52</ele>
        <time>2016-07-16T13:10:53Z</time>
      </trkpt>
      <trkpt lat="46.63733" lon="-1.86667">
        <ele>15.52</ele>
        <time>2016-07-16T13:10:54Z</time>
      </trkpt>
      <trkpt lat="46.63736" lon="-1.86676">
        <ele>15.52</ele>
        <time>2016-07-16T13:10:55Z</time>
      </trkpt>
      <trkpt lat="46.63736" lon="-1.86683">
        <ele>15.52</ele>
        <time>2016-07-16T13:10:56Z</time>
      </trkpt>
      <trkpt lat="46.63754" lon="-1.86796">
        <ele>15.52</ele>
        <time>2016-07-16T13:11:04Z</time>
      </trkpt>
      <trkpt lat="46.63758" lon="-1.86859">
        <ele>16.96</ele>
        <time>2016-07-16T13:11:07Z</time>
      </trkpt>
      <trkpt lat="46.63765" lon="-1.86984">
        <ele>18.4</ele>
        <time>2016-07-16T13:11:12Z</time>
      </trkpt>
      <trkpt lat="46.63786" lon="-1.87242">
        <ele>19.84</ele>
        <time>2016-07-16T13:11:23Z</time>
      </trkpt>
      <trkpt lat="46.63789" lon="-1.87284">
        <ele>19.84</ele>
        <time>2016-07-16T13:11:25Z</time>
      </trkpt>
      <trkpt lat="46.63793" lon="-1.87305">
        <ele>19.84</ele>
        <time>2016-07-16T13:11:26Z</time>
      </trkpt>
      <trkpt lat="46.63798" lon="-1.87325">
        <ele>19.84</ele>
        <time>2016-07-16T13:11:27Z</time>
      </trkpt>
      <trkpt lat="46.63806" lon="-1.87345">
        <ele>19.84</ele>
        <time>2016-07-16T13:11:28Z</time>
      </trkpt>
      <trkpt lat="46.63815" lon="-1.87361">
        <ele>19.84</ele>
        <time>2016-07-16T13:11:29Z</time>
      </trkpt>
      <trkpt lat="46.63825" lon="-1.87377">
        <ele>20.32</ele>
        <time>2016-07-16T13:11:30Z</time>
      </trkpt>
      <trkpt lat="46.63835" lon="-1.87392">
        <ele>20.81</ele>
        <time>2016-07-16T13:11:31Z</time>
      </trkpt>
      <trkpt lat="46.63879" lon="-1.8745">
        <ele>21.29</ele>
        <time>2016-07-16T13:11:35Z</time>
      </trkpt>
      <trkpt lat="46.63889" lon="-1.87468">
        <ele>21.77</ele>
        <time>2016-07-16T13:11:36Z</time>
      </trkpt>
      <trkpt lat="46.63897" lon="-1.87487">
        <ele>22.25</ele>
        <time>2016-07-16T13:11:37Z</time>
      </trkpt>
      <trkpt lat="46.63991" lon="-1.87767">
        <ele>22.73</ele>
        <time>2016-07-16T13:11:51Z</time>
      </trkpt>
      <trkpt lat="46.64076" lon="-1.88027">
        <ele>21.29</ele>
        <time>2016-07-16T13:12:04Z</time>
      </trkpt>
      <trkpt lat="46.64216" lon="-1.88302">
        <ele>19.36</ele>
        <time>2016-07-16T13:12:19Z</time>
      </trkpt>
      <trkpt lat="46.6432" lon="-1.88507">
        <ele>18.4</ele>
        <time>2016-07-16T13:12:33Z</time>
      </trkpt>
      <trkpt lat="46.64441" lon="-1.88739">
        <ele>16</ele>
        <time>2016-07-16T13:12:50Z</time>
      </trkpt>
      <trkpt lat="46.64553" lon="-1.88875">
        <ele>15.04</ele>
        <time>2016-07-16T13:13:02Z</time>
      </trkpt>
      <trkpt lat="46.64558" lon="-1.88884">
        <ele>15.04</ele>
        <time>2016-07-16T13:13:03Z</time>
      </trkpt>
      <trkpt lat="46.64564" lon="-1.88898">
        <ele>15.04</ele>
        <time>2016-07-16T13:13:04Z</time>
      </trkpt>
      <trkpt lat="46.64609" lon="-1.89004">
        <ele>16.48</ele>
        <time>2016-07-16T13:13:13Z</time>
      </trkpt>
      <trkpt lat="46.64615" lon="-1.89015">
        <ele>16.48</ele>
        <time>2016-07-16T13:13:14Z</time>
      </trkpt>
      <trkpt lat="46.64621" lon="-1.89023">
        <ele>16.48</ele>
        <time>2016-07-16T13:13:15Z</time>
      </trkpt>
      <trkpt lat="46.64629" lon="-1.89031">
        <ele>16.48</ele>
        <time>2016-07-16T13:13:16Z</time>
      </trkpt>
      <trkpt lat="46.64638" lon="-1.89037">
        <ele>16.96</ele>
        <time>2016-07-16T13:13:17Z</time>
      </trkpt>
      <trkpt lat="46.64649" lon="-1.89044">
        <ele>17.44</ele>
        <time>2016-07-16T13:13:18Z</time>
      </trkpt>
      <trkpt lat="46.64787" lon="-1.89117">
        <ele>18.4</ele>
        <time>2016-07-16T13:13:29Z</time>
      </trkpt>
      <trkpt lat="46.64946" lon="-1.89202">
        <ele>15.04</ele>
        <time>2016-07-16T13:13:41Z</time>
      </trkpt>
      <trkpt lat="46.65051" lon="-1.89258">
        <ele>11.67</ele>
        <time>2016-07-16T13:13:48Z</time>
      </trkpt>
      <trkpt lat="46.65245" lon="-1.89372">
        <ele>8.79</ele>
        <time>2016-07-16T13:14:01Z</time>
      </trkpt>
      <trkpt lat="46.65364" lon="-1.89494">
        <ele>6.87</ele>
        <time>2016-07-16T13:14:11Z</time>
      </trkpt>
      <trkpt lat="46.65501" lon="-1.89609">
        <ele>7.35</ele>
        <time>2016-07-16T13:14:22Z</time>
      </trkpt>
      <trkpt lat="46.65642" lon="-1.89704">
        <ele>8.79</ele>
        <time>2016-07-16T13:14:32Z</time>
      </trkpt>
      <trkpt lat="46.65903" lon="-1.89874">
        <ele>8.79</ele>
        <time>2016-07-16T13:14:48Z</time>
      </trkpt>
      <trkpt lat="46.66227" lon="-1.90079">
        <ele>6.39</ele>
        <time>2016-07-16T13:15:06Z</time>
      </trkpt>
      <trkpt lat="46.66364" lon="-1.9012">
        <ele>7.35</ele>
        <time>2016-07-16T13:15:13Z</time>
      </trkpt>
      <trkpt lat="46.66608" lon="-1.90176">
        <ele>7.35</ele>
        <time>2016-07-16T13:15:26Z</time>
      </trkpt>
      <trkpt lat="46.6675" lon="-1.90209">
        <ele>5.91</ele>
        <time>2016-07-16T13:15:36Z</time>
      </trkpt>
      <trkpt lat="46.66903" lon="-1.90264">
        <ele>5.42</ele>
        <time>2016-07-16T13:15:49Z</time>
      </trkpt>
      <trkpt lat="46.66958" lon="-1.90308">
        <ele>5.42</ele>
        <time>2016-07-16T13:15:57Z</time>
      </trkpt>
      <trkpt lat="46.66962" lon="-1.90311">
        <ele>5.42</ele>
        <time>2016-07-16T13:15:58Z</time>
      </trkpt>
      <trkpt lat="46.66967" lon="-1.90312">
        <ele>5.42</ele>
        <time>2016-07-16T13:15:59Z</time>
      </trkpt>
      <trkpt lat="46.66971" lon="-1.90312">
        <ele>5.42</ele>
        <time>2016-07-16T13:16:00Z</time>
      </trkpt>
      <trkpt lat="46.66976" lon="-1.90311">
        <ele>6.87</ele>
        <time>2016-07-16T13:16:01Z</time>
      </trkpt>
      <trkpt lat="46.66981" lon="-1.9031">
        <ele>7.35</ele>
        <time>2016-07-16T13:16:02Z</time>
      </trkpt>
      <trkpt lat="46.66988" lon="-1.9031">
        <ele>7.35</ele>
        <time>2016-07-16T13:16:03Z</time>
      </trkpt>
      <trkpt lat="46.66994" lon="-1.90312">
        <ele>7.35</ele>
        <time>2016-07-16T13:16:04Z</time>
      </trkpt>
      <trkpt lat="46.66999" lon="-1.90317">
        <ele>7.35</ele>
        <time>2016-07-16T13:16:05Z</time>
      </trkpt>
      <trkpt lat="46.67003" lon="-1.90324">
        <ele>7.35</ele>
        <time>2016-07-16T13:16:06Z</time>
      </trkpt>
      <trkpt lat="46.67005" lon="-1.90334">
        <ele>7.35</ele>
        <time>2016-07-16T13:16:07Z</time>
      </trkpt>
      <trkpt lat="46.67006" lon="-1.90344">
        <ele>7.35</ele>
        <time>2016-07-16T13:16:08Z</time>
      </trkpt>
      <trkpt lat="46.67006" lon="-1.90355">
        <ele>7.35</ele>
        <time>2016-07-16T13:16:09Z</time>
      </trkpt>
      <trkpt lat="46.67006" lon="-1.90367">
        <ele>6.39</ele>
        <time>2016-07-16T13:16:10Z</time>
      </trkpt>
      <trkpt lat="46.67008" lon="-1.90379">
        <ele>6.39</ele>
        <time>2016-07-16T13:16:11Z</time>
      </trkpt>
      <trkpt lat="46.67012" lon="-1.90392">
        <ele>6.39</ele>
        <time>2016-07-16T13:16:12Z</time>
      </trkpt>
      <trkpt lat="46.67017" lon="-1.90403">
        <ele>6.39</ele>
        <time>2016-07-16T13:16:13Z</time>
      </trkpt>
      <trkpt lat="46.67022" lon="-1.90414">
        <ele>6.39</ele>
        <time>2016-07-16T13:16:14Z</time>
      </trkpt>
      <trkpt lat="46.67093" lon="-1.90517">
        <ele>7.35</ele>
        <time>2016-07-16T13:16:22Z</time>
      </trkpt>
      <trkpt lat="46.67268" lon="-1.90752">
        <ele>5.42</ele>
        <time>2016-07-16T13:16:36Z</time>
      </trkpt>
      <trkpt lat="46.67402" lon="-1.90908">
        <ele>3.5</ele>
        <time>2016-07-16T13:16:47Z</time>
      </trkpt>
      <trkpt lat="46.67412" lon="-1.90914">
        <ele>3.5</ele>
        <time>2016-07-16T13:16:48Z</time>
      </trkpt>
      <trkpt lat="46.67422" lon="-1.90918">
        <ele>3.02</ele>
        <time>2016-07-16T13:16:49Z</time>
      </trkpt>
      <trkpt lat="46.67431" lon="-1.90919">
        <ele>3.5</ele>
        <time>2016-07-16T13:16:50Z</time>
      </trkpt>
      <trkpt lat="46.6744" lon="-1.90921">
        <ele>3.5</ele>
        <time>2016-07-16T13:16:51Z</time>
      </trkpt>
      <trkpt lat="46.67449" lon="-1.90923">
        <ele>3.5</ele>
        <time>2016-07-16T13:16:52Z</time>
      </trkpt>
      <trkpt lat="46.67458" lon="-1.90928">
        <ele>3.5</ele>
        <time>2016-07-16T13:16:53Z</time>
      </trkpt>
      <trkpt lat="46.67496" lon="-1.90956">
        <ele>3.5</ele>
        <time>2016-07-16T13:16:57Z</time>
      </trkpt>
      <trkpt lat="46.67509" lon="-1.90962">
        <ele>4.46</ele>
        <time>2016-07-16T13:16:58Z</time>
      </trkpt>
      <trkpt lat="46.67537" lon="-1.90972">
        <ele>5.42</ele>
        <time>2016-07-16T13:17:00Z</time>
      </trkpt>
      <trkpt lat="46.67681" lon="-1.90985">
        <ele>9.27</ele>
        <time>2016-07-16T13:17:08Z</time>
      </trkpt>
      <trkpt lat="46.67703" lon="-1.90985">
        <ele>9.27</ele>
        <time>2016-07-16T13:17:09Z</time>
      </trkpt>
      <trkpt lat="46.67817" lon="-1.90986">
        <ele>12.63</ele>
        <time>2016-07-16T13:17:14Z</time>
      </trkpt>
      <trkpt lat="46.67917" lon="-1.90987">
        <ele>16</ele>
        <time>2016-07-16T13:17:18Z</time>
      </trkpt>
      <trkpt lat="46.68176" lon="-1.90988">
        <ele>18.88</ele>
        <time>2016-07-16T13:17:29Z</time>
      </trkpt>
      <trkpt lat="46.68321" lon="-1.90991">
        <ele>22.25</ele>
        <time>2016-07-16T13:17:36Z</time>
      </trkpt>
      <trkpt lat="46.68359" lon="-1.90992">
        <ele>23.21</ele>
        <time>2016-07-16T13:17:38Z</time>
      </trkpt>
      <trkpt lat="46.68532" lon="-1.9103">
        <ele>21.29</ele>
        <time>2016-07-16T13:17:48Z</time>
      </trkpt>
      <trkpt lat="46.68599" lon="-1.91052">
        <ele>19.84</ele>
        <time>2016-07-16T13:17:54Z</time>
      </trkpt>
      <trkpt lat="46.68606" lon="-1.91051">
        <ele>19.84</ele>
        <time>2016-07-16T13:17:55Z</time>
      </trkpt>
      <trkpt lat="46.68619" lon="-1.91048">
        <ele>19.84</ele>
        <time>2016-07-16T13:17:57Z</time>
      </trkpt>
      <trkpt lat="46.68624" lon="-1.91049">
        <ele>19.84</ele>
        <time>2016-07-16T13:17:58Z</time>
      </trkpt>
      <trkpt lat="46.68628" lon="-1.91051">
        <ele>19.36</ele>
        <time>2016-07-16T13:17:59Z</time>
      </trkpt>
      <trkpt lat="46.68632" lon="-1.91055">
        <ele>18.88</ele>
        <time>2016-07-16T13:18:00Z</time>
      </trkpt>
      <trkpt lat="46.68636" lon="-1.91059">
        <ele>18.88</ele>
        <time>2016-07-16T13:18:01Z</time>
      </trkpt>
      <trkpt lat="46.68661" lon="-1.91084">
        <ele>19.36</ele>
        <time>2016-07-16T13:18:05Z</time>
      </trkpt>
      <trkpt lat="46.68671" lon="-1.9109">
        <ele>20.81</ele>
        <time>2016-07-16T13:18:06Z</time>
      </trkpt>
      <trkpt lat="46.68684" lon="-1.91097">
        <ele>20.81</ele>
        <time>2016-07-16T13:18:07Z</time>
      </trkpt>
      <trkpt lat="46.68795" lon="-1.91155">
        <ele>21.77</ele>
        <time>2016-07-16T13:18:14Z</time>
      </trkpt>
      <trkpt lat="46.69031" lon="-1.91277">
        <ele>21.29</ele>
        <time>2016-07-16T13:18:26Z</time>
      </trkpt>
      <trkpt lat="46.69186" lon="-1.91348">
        <ele>18.4</ele>
        <time>2016-07-16T13:18:35Z</time>
      </trkpt>
      <trkpt lat="46.69237" lon="-1.91364">
        <ele>16.48</ele>
        <time>2016-07-16T13:18:39Z</time>
      </trkpt>
      <trkpt lat="46.69262" lon="-1.91371">
        <ele>15.04</ele>
        <time>2016-07-16T13:18:43Z</time>
      </trkpt>
      <trkpt lat="46.69265" lon="-1.9137">
        <ele>15.04</ele>
        <time>2016-07-16T13:18:44Z</time>
      </trkpt>
      <trkpt lat="46.69269" lon="-1.91368">
        <ele>15.04</ele>
        <time>2016-07-16T13:18:45Z</time>
      </trkpt>
      <trkpt lat="46.69273" lon="-1.91366">
        <ele>15.04</ele>
        <time>2016-07-16T13:18:46Z</time>
      </trkpt>
      <trkpt lat="46.69277" lon="-1.91366">
        <ele>15.04</ele>
        <time>2016-07-16T13:18:47Z</time>
      </trkpt>
      <trkpt lat="46.69283" lon="-1.91368">
        <ele>15.04</ele>
        <time>2016-07-16T13:18:48Z</time>
      </trkpt>
      <trkpt lat="46.69289" lon="-1.91372">
        <ele>15.04</ele>
        <time>2016-07-16T13:18:49Z</time>
      </trkpt>
      <trkpt lat="46.69295" lon="-1.91375">
        <ele>15.04</ele>
        <time>2016-07-16T13:18:50Z</time>
      </trkpt>
      <trkpt lat="46.69302" lon="-1.91377">
        <ele>15.04</ele>
        <time>2016-07-16T13:18:51Z</time>
      </trkpt>
      <trkpt lat="46.6931" lon="-1.91379">
        <ele>15.04</ele>
        <time>2016-07-16T13:18:52Z</time>
      </trkpt>
      <trkpt lat="46.69396" lon="-1.914">
        <ele>15.04</ele>
        <time>2016-07-16T13:19:06Z</time>
      </trkpt>
      <trkpt lat="46.69426" lon="-1.91408">
        <ele>14.08</ele>
        <time>2016-07-16T13:19:21Z</time>
      </trkpt>
      <trkpt lat="46.69425" lon="-1.91406">
        <ele>14.08</ele>
        <time>2016-07-16T13:19:41Z</time>
      </trkpt>
      <trkpt lat="46.69426" lon="-1.91406">
        <ele>14.08</ele>
        <time>2016-07-16T13:19:42Z</time>
      </trkpt>
      <trkpt lat="46.69428" lon="-1.91404">
        <ele>14.08</ele>
        <time>2016-07-16T13:19:43Z</time>
      </trkpt>
      <trkpt lat="46.69432" lon="-1.91401">
        <ele>14.08</ele>
        <time>2016-07-16T13:19:44Z</time>
      </trkpt>
      <trkpt lat="46.69436" lon="-1.91397">
        <ele>14.08</ele>
        <time>2016-07-16T13:19:45Z</time>
      </trkpt>
      <trkpt lat="46.6944" lon="-1.91392">
        <ele>14.08</ele>
        <time>2016-07-16T13:19:46Z</time>
      </trkpt>
      <trkpt lat="46.69444" lon="-1.91385">
        <ele>14.08</ele>
        <time>2016-07-16T13:19:47Z</time>
      </trkpt>
      <trkpt lat="46.69449" lon="-1.9138">
        <ele>14.08</ele>
        <time>2016-07-16T13:19:48Z</time>
      </trkpt>
      <trkpt lat="46.69455" lon="-1.91375">
        <ele>14.08</ele>
        <time>2016-07-16T13:19:49Z</time>
      </trkpt>
      <trkpt lat="46.69461" lon="-1.91372">
        <ele>14.08</ele>
        <time>2016-07-16T13:19:50Z</time>
      </trkpt>
      <trkpt lat="46.69467" lon="-1.91372">
        <ele>13.6</ele>
        <time>2016-07-16T13:19:51Z</time>
      </trkpt>
      <trkpt lat="46.69474" lon="-1.91373">
        <ele>13.6</ele>
        <time>2016-07-16T13:19:52Z</time>
      </trkpt>
      <trkpt lat="46.6948" lon="-1.91375">
        <ele>13.6</ele>
        <time>2016-07-16T13:19:53Z</time>
      </trkpt>
      <trkpt lat="46.69486" lon="-1.91378">
        <ele>12.63</ele>
        <time>2016-07-16T13:19:54Z</time>
      </trkpt>
      <trkpt lat="46.69498" lon="-1.91384">
        <ele>12.63</ele>
        <time>2016-07-16T13:19:56Z</time>
      </trkpt>
      <trkpt lat="46.69505" lon="-1.91385">
        <ele>12.15</ele>
        <time>2016-07-16T13:19:57Z</time>
      </trkpt>
      <trkpt lat="46.6951" lon="-1.91386">
        <ele>12.15</ele>
        <time>2016-07-16T13:19:58Z</time>
      </trkpt>
      <trkpt lat="46.69516" lon="-1.91385">
        <ele>12.15</ele>
        <time>2016-07-16T13:19:59Z</time>
      </trkpt>
      <trkpt lat="46.69522" lon="-1.91385">
        <ele>12.15</ele>
        <time>2016-07-16T13:20:00Z</time>
      </trkpt>
      <trkpt lat="46.69556" lon="-1.91383">
        <ele>11.19</ele>
        <time>2016-07-16T13:20:07Z</time>
      </trkpt>
      <trkpt lat="46.69564" lon="-1.91377">
        <ele>11.19</ele>
        <time>2016-07-16T13:20:09Z</time>
      </trkpt>
      <trkpt lat="46.6959" lon="-1.91364">
        <ele>10.71</ele>
        <time>2016-07-16T13:20:15Z</time>
      </trkpt>
      <trkpt lat="46.69631" lon="-1.91351">
        <ele>10.71</ele>
        <time>2016-07-16T13:20:26Z</time>
      </trkpt>
      <trkpt lat="46.69712" lon="-1.91349">
        <ele>9.75</ele>
        <time>2016-07-16T13:20:43Z</time>
      </trkpt>
      <trkpt lat="46.69734" lon="-1.91317">
        <ele>9.75</ele>
        <time>2016-07-16T13:20:52Z</time>
      </trkpt>
      <trkpt lat="46.69741" lon="-1.913">
        <ele>10.23</ele>
        <time>2016-07-16T13:20:56Z</time>
      </trkpt>
      <trkpt lat="46.6976" lon="-1.91307">
        <ele>11.19</ele>
        <time>2016-07-16T13:21:02Z</time>
      </trkpt>
      <trkpt lat="46.69785" lon="-1.91331">
        <ele>11.19</ele>
        <time>2016-07-16T13:21:11Z</time>
      </trkpt>
      <trkpt lat="46.69783" lon="-1.91346">
        <ele>11.19</ele>
        <time>2016-07-16T13:21:24Z</time>
      </trkpt>
      <trkpt lat="46.69784" lon="-1.91359">
        <ele>11.67</ele>
        <time>2016-07-16T13:21:35Z</time>
      </trkpt>
      <trkpt lat="46.69781" lon="-1.91358">
        <ele>12.15</ele>
        <time>2016-07-16T13:22:03Z</time>
      </trkpt>
      <trkpt lat="46.69779" lon="-1.91362">
        <ele>12.15</ele>
        <time>2016-07-16T13:22:42Z</time>
      </trkpt>
      <trkpt lat="46.69775" lon="-1.91366">
        <ele>12.15</ele>
        <time>2016-07-16T13:23:16Z</time>
      </trkpt>
      <trkpt lat="46.69779" lon="-1.91366">
        <ele>12.15</ele>
        <time>2016-07-16T13:23:50Z</time>
      </trkpt>
      <trkpt lat="46.69778" lon="-1.9136">
        <ele>12.15</ele>
        <time>2016-07-16T13:24:34Z</time>
      </trkpt>
      <trkpt lat="46.69784" lon="-1.91362">
        <ele>12.15</ele>
        <time>2016-07-16T13:25:08Z</time>
      </trkpt>
      <trkpt lat="46.69782" lon="-1.91363">
        <ele>13.12</ele>
        <time>2016-07-16T13:25:49Z</time>
      </trkpt>
      <trkpt lat="46.69781" lon="-1.91363">
        <ele>13.12</ele>
        <time>2016-07-16T13:26:26Z</time>
      </trkpt>
      <trkpt lat="46.69781" lon="-1.91357">
        <ele>13.12</ele>
        <time>2016-07-16T13:27:12Z</time>
      </trkpt>
      <trkpt lat="46.69779" lon="-1.91355">
        <ele>13.12</ele>
        <time>2016-07-16T13:27:53Z</time>
      </trkpt>
      <trkpt lat="46.69779" lon="-1.91357">
        <ele>13.6</ele>
        <time>2016-07-16T13:28:40Z</time>
      </trkpt>
      <trkpt lat="46.69776" lon="-1.91357">
        <ele>14.08</ele>
        <time>2016-07-16T13:29:34Z</time>
      </trkpt>
      <trkpt lat="46.69779" lon="-1.91359">
        <ele>14.08</ele>
        <time>2016-07-16T13:30:20Z</time>
      </trkpt>
      <trkpt lat="46.6978" lon="-1.9135">
        <ele>14.56</ele>
        <time>2016-07-16T13:31:02Z</time>
      </trkpt>
      <trkpt lat="46.69779" lon="-1.91358">
        <ele>14.56</ele>
        <time>2016-07-16T13:31:41Z</time>
      </trkpt>
      <trkpt lat="46.69781" lon="-1.91358">
        <ele>15.04</ele>
        <time>2016-07-16T13:32:22Z</time>
      </trkpt>
      <trkpt lat="46.69778" lon="-1.91361">
        <ele>16</ele>
        <time>2016-07-16T13:32:54Z</time>
      </trkpt>
      <trkpt lat="46.69783" lon="-1.91359">
        <ele>16</ele>
        <time>2016-07-16T13:33:38Z</time>
      </trkpt>
      <trkpt lat="46.69783" lon="-1.91357">
        <ele>16.48</ele>
        <time>2016-07-16T13:34:23Z</time>
      </trkpt>
      <trkpt lat="46.69781" lon="-1.91356">
        <ele>16.48</ele>
        <time>2016-07-16T13:35:04Z</time>
      </trkpt>
      <trkpt lat="46.69782" lon="-1.91355">
        <ele>16.48</ele>
        <time>2016-07-16T13:35:47Z</time>
      </trkpt>
      <trkpt lat="46.69778" lon="-1.91355">
        <ele>16.48</ele>
        <time>2016-07-16T13:36:30Z</time>
      </trkpt>
      <trkpt lat="46.69783" lon="-1.91355">
        <ele>16.48</ele>
        <time>2016-07-16T13:37:05Z</time>
      </trkpt>
      <trkpt lat="46.69779" lon="-1.91355">
        <ele>16.96</ele>
        <time>2016-07-16T13:37:43Z</time>
      </trkpt>
      <trkpt lat="46.69783" lon="-1.91355">
        <ele>16.96</ele>
        <time>2016-07-16T13:38:31Z</time>
      </trkpt>
      <trkpt lat="46.6979" lon="-1.91353">
        <ele>17.44</ele>
        <time>2016-07-16T13:39:18Z</time>
      </trkpt>
      <trkpt lat="46.69791" lon="-1.91348">
        <ele>17.44</ele>
        <time>2016-07-16T13:40:00Z</time>
      </trkpt>
      <trkpt lat="46.69792" lon="-1.91349">
        <ele>17.92</ele>
        <time>2016-07-16T13:40:38Z</time>
      </trkpt>
      <trkpt lat="46.69791" lon="-1.9135">
        <ele>18.4</ele>
        <time>2016-07-16T13:41:26Z</time>
      </trkpt>
      <trkpt lat="46.6978" lon="-1.91357">
        <ele>18.88</ele>
        <time>2016-07-16T13:41:58Z</time>
      </trkpt>
    </trkseg>
  </trk>
</gpx>